<?xml version="1.0" encoding="UTF-8" standalone="no" ?>
<gpx xmlns="http://www.topografix.com/GPX/1/1" xmlns:xsi="http://www.w3.org/2001/XMLSchema-instance" xsi:schemaLocation="http://www.topografix.com/GPX/1/1 http://www.topografix.com/GPX/1/1/gpx.xsd" version="1.1" creator="VisuGPX - https://www.visugpx.com">
  <metadata>
    <name>SE-NE-St Aignan Le Bignon Chateau Thébaud St Fiacre Vertou Basse Goulaine Chemin des Vallées Thouaré Nantes</name>
    <desc><![CDATA[SE-NE-St Aignan Le Bignon Chateau Thébaud St Fiacre Vertou Basse Goulaine Chemin des Vallées Thouaré Nantes]]></desc>
  </metadata>
  <trk>
    <name><![CDATA[2022-03-14 11:24 GMT+1]]></name>
    <trkseg>
      <trkpt lat="47.16784" lon="-1.6267">
        <ele>70</ele>
        <time>2022-03-14T10:25:00Z</time>
      </trkpt>
      <trkpt lat="47.16782" lon="-1.62655">
        <ele>70</ele>
        <time>2022-03-14T10:25:36Z</time>
      </trkpt>
      <trkpt lat="47.16777" lon="-1.62666">
        <ele>73</ele>
        <time>2022-03-14T10:26:19Z</time>
      </trkpt>
      <trkpt lat="47.16767" lon="-1.62673">
        <ele>76</ele>
        <time>2022-03-14T10:26:22Z</time>
      </trkpt>
      <trkpt lat="47.16755" lon="-1.62675">
        <ele>76</ele>
        <time>2022-03-14T10:26:24Z</time>
      </trkpt>
      <trkpt lat="47.16743" lon="-1.6268">
        <ele>74</ele>
        <time>2022-03-14T10:26:26Z</time>
      </trkpt>
      <trkpt lat="47.16734" lon="-1.62687">
        <ele>74</ele>
        <time>2022-03-14T10:26:28Z</time>
      </trkpt>
      <trkpt lat="47.16725" lon="-1.62693">
        <ele>73</ele>
        <time>2022-03-14T10:26:30Z</time>
      </trkpt>
      <trkpt lat="47.16714" lon="-1.62692">
        <ele>73</ele>
        <time>2022-03-14T10:26:33Z</time>
      </trkpt>
      <trkpt lat="47.16706" lon="-1.62678">
        <ele>72</ele>
        <time>2022-03-14T10:26:35Z</time>
      </trkpt>
      <trkpt lat="47.16702" lon="-1.62662">
        <ele>71</ele>
        <time>2022-03-14T10:26:37Z</time>
      </trkpt>
      <trkpt lat="47.167" lon="-1.62645">
        <ele>70</ele>
        <time>2022-03-14T10:26:39Z</time>
      </trkpt>
      <trkpt lat="47.16698" lon="-1.62628">
        <ele>69</ele>
        <time>2022-03-14T10:26:41Z</time>
      </trkpt>
      <trkpt lat="47.16697" lon="-1.62611">
        <ele>68</ele>
        <time>2022-03-14T10:26:43Z</time>
      </trkpt>
      <trkpt lat="47.16698" lon="-1.62593">
        <ele>67</ele>
        <time>2022-03-14T10:26:45Z</time>
      </trkpt>
      <trkpt lat="47.16698" lon="-1.62577">
        <ele>67</ele>
        <time>2022-03-14T10:26:47Z</time>
      </trkpt>
      <trkpt lat="47.167" lon="-1.62561">
        <ele>66</ele>
        <time>2022-03-14T10:26:49Z</time>
      </trkpt>
      <trkpt lat="47.16702" lon="-1.62545">
        <ele>65</ele>
        <time>2022-03-14T10:26:51Z</time>
      </trkpt>
      <trkpt lat="47.16703" lon="-1.62529">
        <ele>65</ele>
        <time>2022-03-14T10:26:53Z</time>
      </trkpt>
      <trkpt lat="47.16705" lon="-1.62514">
        <ele>64</ele>
        <time>2022-03-14T10:26:55Z</time>
      </trkpt>
      <trkpt lat="47.16708" lon="-1.62499">
        <ele>64</ele>
        <time>2022-03-14T10:26:57Z</time>
      </trkpt>
      <trkpt lat="47.1671" lon="-1.62485">
        <ele>64</ele>
        <time>2022-03-14T10:26:59Z</time>
      </trkpt>
      <trkpt lat="47.16713" lon="-1.62471">
        <ele>64</ele>
        <time>2022-03-14T10:27:01Z</time>
      </trkpt>
      <trkpt lat="47.16715" lon="-1.62451">
        <ele>63</ele>
        <time>2022-03-14T10:27:04Z</time>
      </trkpt>
      <trkpt lat="47.16717" lon="-1.62438">
        <ele>64</ele>
        <time>2022-03-14T10:27:06Z</time>
      </trkpt>
      <trkpt lat="47.16719" lon="-1.62424">
        <ele>63</ele>
        <time>2022-03-14T10:27:08Z</time>
      </trkpt>
      <trkpt lat="47.16724" lon="-1.62413">
        <ele>64</ele>
        <time>2022-03-14T10:27:10Z</time>
      </trkpt>
      <trkpt lat="47.1672" lon="-1.62396">
        <ele>64</ele>
        <time>2022-03-14T10:27:13Z</time>
      </trkpt>
      <trkpt lat="47.16712" lon="-1.62385">
        <ele>64</ele>
        <time>2022-03-14T10:27:15Z</time>
      </trkpt>
      <trkpt lat="47.16704" lon="-1.62374">
        <ele>65</ele>
        <time>2022-03-14T10:27:17Z</time>
      </trkpt>
      <trkpt lat="47.16694" lon="-1.62363">
        <ele>66</ele>
        <time>2022-03-14T10:27:19Z</time>
      </trkpt>
      <trkpt lat="47.16684" lon="-1.62356">
        <ele>66</ele>
        <time>2022-03-14T10:27:21Z</time>
      </trkpt>
      <trkpt lat="47.16672" lon="-1.62357">
        <ele>66</ele>
        <time>2022-03-14T10:27:23Z</time>
      </trkpt>
      <trkpt lat="47.16661" lon="-1.62358">
        <ele>67</ele>
        <time>2022-03-14T10:27:25Z</time>
      </trkpt>
      <trkpt lat="47.16653" lon="-1.62362">
        <ele>67</ele>
        <time>2022-03-14T10:27:27Z</time>
      </trkpt>
      <trkpt lat="47.16643" lon="-1.6237">
        <ele>67</ele>
        <time>2022-03-14T10:27:29Z</time>
      </trkpt>
      <trkpt lat="47.16632" lon="-1.62382">
        <ele>68</ele>
        <time>2022-03-14T10:27:31Z</time>
      </trkpt>
      <trkpt lat="47.16621" lon="-1.62393">
        <ele>68</ele>
        <time>2022-03-14T10:27:33Z</time>
      </trkpt>
      <trkpt lat="47.16612" lon="-1.62404">
        <ele>68</ele>
        <time>2022-03-14T10:27:35Z</time>
      </trkpt>
      <trkpt lat="47.16605" lon="-1.62416">
        <ele>68</ele>
        <time>2022-03-14T10:27:37Z</time>
      </trkpt>
      <trkpt lat="47.16599" lon="-1.6243">
        <ele>68</ele>
        <time>2022-03-14T10:27:39Z</time>
      </trkpt>
      <trkpt lat="47.16594" lon="-1.62444">
        <ele>68</ele>
        <time>2022-03-14T10:27:41Z</time>
      </trkpt>
      <trkpt lat="47.1659" lon="-1.62457">
        <ele>69</ele>
        <time>2022-03-14T10:27:43Z</time>
      </trkpt>
      <trkpt lat="47.16585" lon="-1.6247">
        <ele>69</ele>
        <time>2022-03-14T10:27:45Z</time>
      </trkpt>
      <trkpt lat="47.16579" lon="-1.62484">
        <ele>69</ele>
        <time>2022-03-14T10:27:47Z</time>
      </trkpt>
      <trkpt lat="47.16574" lon="-1.62498">
        <ele>70</ele>
        <time>2022-03-14T10:27:49Z</time>
      </trkpt>
      <trkpt lat="47.16569" lon="-1.62513">
        <ele>70</ele>
        <time>2022-03-14T10:27:51Z</time>
      </trkpt>
      <trkpt lat="47.16563" lon="-1.62527">
        <ele>71</ele>
        <time>2022-03-14T10:27:53Z</time>
      </trkpt>
      <trkpt lat="47.16557" lon="-1.6254">
        <ele>71</ele>
        <time>2022-03-14T10:27:55Z</time>
      </trkpt>
      <trkpt lat="47.16549" lon="-1.62552">
        <ele>72</ele>
        <time>2022-03-14T10:27:57Z</time>
      </trkpt>
      <trkpt lat="47.16541" lon="-1.62563">
        <ele>72</ele>
        <time>2022-03-14T10:27:59Z</time>
      </trkpt>
      <trkpt lat="47.1653" lon="-1.62567">
        <ele>73</ele>
        <time>2022-03-14T10:28:01Z</time>
      </trkpt>
      <trkpt lat="47.16518" lon="-1.62564">
        <ele>72</ele>
        <time>2022-03-14T10:28:03Z</time>
      </trkpt>
      <trkpt lat="47.16506" lon="-1.62559">
        <ele>73</ele>
        <time>2022-03-14T10:28:05Z</time>
      </trkpt>
      <trkpt lat="47.16495" lon="-1.62557">
        <ele>72</ele>
        <time>2022-03-14T10:28:07Z</time>
      </trkpt>
      <trkpt lat="47.16483" lon="-1.62553">
        <ele>73</ele>
        <time>2022-03-14T10:28:09Z</time>
      </trkpt>
      <trkpt lat="47.16473" lon="-1.62549">
        <ele>73</ele>
        <time>2022-03-14T10:28:11Z</time>
      </trkpt>
      <trkpt lat="47.16462" lon="-1.62545">
        <ele>73</ele>
        <time>2022-03-14T10:28:13Z</time>
      </trkpt>
      <trkpt lat="47.16451" lon="-1.62542">
        <ele>73</ele>
        <time>2022-03-14T10:28:15Z</time>
      </trkpt>
      <trkpt lat="47.16439" lon="-1.62541">
        <ele>73</ele>
        <time>2022-03-14T10:28:17Z</time>
      </trkpt>
      <trkpt lat="47.16429" lon="-1.62546">
        <ele>72</ele>
        <time>2022-03-14T10:28:19Z</time>
      </trkpt>
      <trkpt lat="47.16419" lon="-1.62555">
        <ele>72</ele>
        <time>2022-03-14T10:28:21Z</time>
      </trkpt>
      <trkpt lat="47.16409" lon="-1.62564">
        <ele>72</ele>
        <time>2022-03-14T10:28:23Z</time>
      </trkpt>
      <trkpt lat="47.16399" lon="-1.62572">
        <ele>73</ele>
        <time>2022-03-14T10:28:25Z</time>
      </trkpt>
      <trkpt lat="47.16388" lon="-1.6258">
        <ele>73</ele>
        <time>2022-03-14T10:28:27Z</time>
      </trkpt>
      <trkpt lat="47.16376" lon="-1.62583">
        <ele>73</ele>
        <time>2022-03-14T10:28:29Z</time>
      </trkpt>
      <trkpt lat="47.16363" lon="-1.62583">
        <ele>72</ele>
        <time>2022-03-14T10:28:31Z</time>
      </trkpt>
      <trkpt lat="47.16351" lon="-1.6258">
        <ele>72</ele>
        <time>2022-03-14T10:28:33Z</time>
      </trkpt>
      <trkpt lat="47.16339" lon="-1.62576">
        <ele>72</ele>
        <time>2022-03-14T10:28:35Z</time>
      </trkpt>
      <trkpt lat="47.16328" lon="-1.62571">
        <ele>72</ele>
        <time>2022-03-14T10:28:37Z</time>
      </trkpt>
      <trkpt lat="47.16318" lon="-1.62569">
        <ele>73</ele>
        <time>2022-03-14T10:28:39Z</time>
      </trkpt>
      <trkpt lat="47.16308" lon="-1.62573">
        <ele>72</ele>
        <time>2022-03-14T10:28:41Z</time>
      </trkpt>
      <trkpt lat="47.16298" lon="-1.62581">
        <ele>73</ele>
        <time>2022-03-14T10:28:43Z</time>
      </trkpt>
      <trkpt lat="47.16291" lon="-1.62595">
        <ele>73</ele>
        <time>2022-03-14T10:28:45Z</time>
      </trkpt>
      <trkpt lat="47.16287" lon="-1.62613">
        <ele>72</ele>
        <time>2022-03-14T10:28:47Z</time>
      </trkpt>
      <trkpt lat="47.16283" lon="-1.6263">
        <ele>72</ele>
        <time>2022-03-14T10:28:49Z</time>
      </trkpt>
      <trkpt lat="47.1628" lon="-1.62648">
        <ele>72</ele>
        <time>2022-03-14T10:28:51Z</time>
      </trkpt>
      <trkpt lat="47.16279" lon="-1.62666">
        <ele>72</ele>
        <time>2022-03-14T10:28:53Z</time>
      </trkpt>
      <trkpt lat="47.16278" lon="-1.62681">
        <ele>72</ele>
        <time>2022-03-14T10:28:55Z</time>
      </trkpt>
      <trkpt lat="47.16279" lon="-1.62695">
        <ele>72</ele>
        <time>2022-03-14T10:29:00Z</time>
      </trkpt>
      <trkpt lat="47.16281" lon="-1.62714">
        <ele>74</ele>
        <time>2022-03-14T10:29:07Z</time>
      </trkpt>
      <trkpt lat="47.16282" lon="-1.62728">
        <ele>73</ele>
        <time>2022-03-14T10:29:09Z</time>
      </trkpt>
      <trkpt lat="47.16272" lon="-1.62737">
        <ele>73</ele>
        <time>2022-03-14T10:29:12Z</time>
      </trkpt>
      <trkpt lat="47.1626" lon="-1.62742">
        <ele>73</ele>
        <time>2022-03-14T10:29:14Z</time>
      </trkpt>
      <trkpt lat="47.16248" lon="-1.62748">
        <ele>73</ele>
        <time>2022-03-14T10:29:16Z</time>
      </trkpt>
      <trkpt lat="47.16236" lon="-1.62755">
        <ele>72</ele>
        <time>2022-03-14T10:29:18Z</time>
      </trkpt>
      <trkpt lat="47.16222" lon="-1.62762">
        <ele>72</ele>
        <time>2022-03-14T10:29:20Z</time>
      </trkpt>
      <trkpt lat="47.16208" lon="-1.6277">
        <ele>71</ele>
        <time>2022-03-14T10:29:22Z</time>
      </trkpt>
      <trkpt lat="47.16193" lon="-1.62781">
        <ele>71</ele>
        <time>2022-03-14T10:29:24Z</time>
      </trkpt>
      <trkpt lat="47.1618" lon="-1.62793">
        <ele>70</ele>
        <time>2022-03-14T10:29:26Z</time>
      </trkpt>
      <trkpt lat="47.16165" lon="-1.62806">
        <ele>69</ele>
        <time>2022-03-14T10:29:28Z</time>
      </trkpt>
      <trkpt lat="47.16151" lon="-1.62819">
        <ele>68</ele>
        <time>2022-03-14T10:29:30Z</time>
      </trkpt>
      <trkpt lat="47.16137" lon="-1.62831">
        <ele>68</ele>
        <time>2022-03-14T10:29:32Z</time>
      </trkpt>
      <trkpt lat="47.16123" lon="-1.62844">
        <ele>67</ele>
        <time>2022-03-14T10:29:34Z</time>
      </trkpt>
      <trkpt lat="47.16109" lon="-1.62856">
        <ele>66</ele>
        <time>2022-03-14T10:29:36Z</time>
      </trkpt>
      <trkpt lat="47.16095" lon="-1.62869">
        <ele>66</ele>
        <time>2022-03-14T10:29:38Z</time>
      </trkpt>
      <trkpt lat="47.16081" lon="-1.62882">
        <ele>66</ele>
        <time>2022-03-14T10:29:40Z</time>
      </trkpt>
      <trkpt lat="47.16066" lon="-1.62895">
        <ele>65</ele>
        <time>2022-03-14T10:29:42Z</time>
      </trkpt>
      <trkpt lat="47.16051" lon="-1.62907">
        <ele>65</ele>
        <time>2022-03-14T10:29:44Z</time>
      </trkpt>
      <trkpt lat="47.16037" lon="-1.6292">
        <ele>65</ele>
        <time>2022-03-14T10:29:46Z</time>
      </trkpt>
      <trkpt lat="47.16022" lon="-1.62934">
        <ele>64</ele>
        <time>2022-03-14T10:29:48Z</time>
      </trkpt>
      <trkpt lat="47.16007" lon="-1.62947">
        <ele>64</ele>
        <time>2022-03-14T10:29:50Z</time>
      </trkpt>
      <trkpt lat="47.15999" lon="-1.62954">
        <ele>63</ele>
        <time>2022-03-14T10:29:51Z</time>
      </trkpt>
      <trkpt lat="47.15984" lon="-1.62968">
        <ele>63</ele>
        <time>2022-03-14T10:29:53Z</time>
      </trkpt>
      <trkpt lat="47.15969" lon="-1.62981">
        <ele>62</ele>
        <time>2022-03-14T10:29:55Z</time>
      </trkpt>
      <trkpt lat="47.15953" lon="-1.62994">
        <ele>62</ele>
        <time>2022-03-14T10:29:57Z</time>
      </trkpt>
      <trkpt lat="47.15938" lon="-1.63007">
        <ele>62</ele>
        <time>2022-03-14T10:29:59Z</time>
      </trkpt>
      <trkpt lat="47.1593" lon="-1.63014">
        <ele>61</ele>
        <time>2022-03-14T10:30:00Z</time>
      </trkpt>
      <trkpt lat="47.15915" lon="-1.63027">
        <ele>61</ele>
        <time>2022-03-14T10:30:02Z</time>
      </trkpt>
      <trkpt lat="47.159" lon="-1.6304">
        <ele>61</ele>
        <time>2022-03-14T10:30:04Z</time>
      </trkpt>
      <trkpt lat="47.15886" lon="-1.63053">
        <ele>61</ele>
        <time>2022-03-14T10:30:06Z</time>
      </trkpt>
      <trkpt lat="47.15872" lon="-1.63065">
        <ele>61</ele>
        <time>2022-03-14T10:30:08Z</time>
      </trkpt>
      <trkpt lat="47.1586" lon="-1.63077">
        <ele>61</ele>
        <time>2022-03-14T10:30:10Z</time>
      </trkpt>
      <trkpt lat="47.15847" lon="-1.63088">
        <ele>62</ele>
        <time>2022-03-14T10:30:12Z</time>
      </trkpt>
      <trkpt lat="47.15836" lon="-1.63099">
        <ele>62</ele>
        <time>2022-03-14T10:30:14Z</time>
      </trkpt>
      <trkpt lat="47.15824" lon="-1.63109">
        <ele>63</ele>
        <time>2022-03-14T10:30:16Z</time>
      </trkpt>
      <trkpt lat="47.15812" lon="-1.63119">
        <ele>63</ele>
        <time>2022-03-14T10:30:18Z</time>
      </trkpt>
      <trkpt lat="47.15801" lon="-1.63129">
        <ele>63</ele>
        <time>2022-03-14T10:30:20Z</time>
      </trkpt>
      <trkpt lat="47.1579" lon="-1.63139">
        <ele>64</ele>
        <time>2022-03-14T10:30:22Z</time>
      </trkpt>
      <trkpt lat="47.15778" lon="-1.63149">
        <ele>64</ele>
        <time>2022-03-14T10:30:24Z</time>
      </trkpt>
      <trkpt lat="47.15766" lon="-1.63159">
        <ele>64</ele>
        <time>2022-03-14T10:30:26Z</time>
      </trkpt>
      <trkpt lat="47.15754" lon="-1.6317">
        <ele>64</ele>
        <time>2022-03-14T10:30:28Z</time>
      </trkpt>
      <trkpt lat="47.15743" lon="-1.6318">
        <ele>64</ele>
        <time>2022-03-14T10:30:30Z</time>
      </trkpt>
      <trkpt lat="47.15725" lon="-1.63196">
        <ele>64</ele>
        <time>2022-03-14T10:30:33Z</time>
      </trkpt>
      <trkpt lat="47.15713" lon="-1.63207">
        <ele>65</ele>
        <time>2022-03-14T10:30:35Z</time>
      </trkpt>
      <trkpt lat="47.15701" lon="-1.63218">
        <ele>65</ele>
        <time>2022-03-14T10:30:37Z</time>
      </trkpt>
      <trkpt lat="47.15688" lon="-1.63228">
        <ele>65</ele>
        <time>2022-03-14T10:30:39Z</time>
      </trkpt>
      <trkpt lat="47.15676" lon="-1.63239">
        <ele>65</ele>
        <time>2022-03-14T10:30:41Z</time>
      </trkpt>
      <trkpt lat="47.15663" lon="-1.6325">
        <ele>65</ele>
        <time>2022-03-14T10:30:43Z</time>
      </trkpt>
      <trkpt lat="47.15651" lon="-1.63261">
        <ele>65</ele>
        <time>2022-03-14T10:30:45Z</time>
      </trkpt>
      <trkpt lat="47.15638" lon="-1.63273">
        <ele>65</ele>
        <time>2022-03-14T10:30:47Z</time>
      </trkpt>
      <trkpt lat="47.15626" lon="-1.63284">
        <ele>66</ele>
        <time>2022-03-14T10:30:49Z</time>
      </trkpt>
      <trkpt lat="47.15614" lon="-1.63294">
        <ele>66</ele>
        <time>2022-03-14T10:30:51Z</time>
      </trkpt>
      <trkpt lat="47.15601" lon="-1.63306">
        <ele>66</ele>
        <time>2022-03-14T10:30:53Z</time>
      </trkpt>
      <trkpt lat="47.15589" lon="-1.63316">
        <ele>67</ele>
        <time>2022-03-14T10:30:55Z</time>
      </trkpt>
      <trkpt lat="47.15577" lon="-1.63326">
        <ele>68</ele>
        <time>2022-03-14T10:30:57Z</time>
      </trkpt>
      <trkpt lat="47.15566" lon="-1.63337">
        <ele>68</ele>
        <time>2022-03-14T10:30:59Z</time>
      </trkpt>
      <trkpt lat="47.15555" lon="-1.63348">
        <ele>68</ele>
        <time>2022-03-14T10:31:01Z</time>
      </trkpt>
      <trkpt lat="47.15544" lon="-1.63358">
        <ele>69</ele>
        <time>2022-03-14T10:31:03Z</time>
      </trkpt>
      <trkpt lat="47.15533" lon="-1.63368">
        <ele>69</ele>
        <time>2022-03-14T10:31:05Z</time>
      </trkpt>
      <trkpt lat="47.15522" lon="-1.63378">
        <ele>69</ele>
        <time>2022-03-14T10:31:07Z</time>
      </trkpt>
      <trkpt lat="47.1551" lon="-1.63388">
        <ele>69</ele>
        <time>2022-03-14T10:31:09Z</time>
      </trkpt>
      <trkpt lat="47.15499" lon="-1.63398">
        <ele>69</ele>
        <time>2022-03-14T10:31:11Z</time>
      </trkpt>
      <trkpt lat="47.15487" lon="-1.63409">
        <ele>70</ele>
        <time>2022-03-14T10:31:13Z</time>
      </trkpt>
      <trkpt lat="47.15475" lon="-1.63419">
        <ele>70</ele>
        <time>2022-03-14T10:31:15Z</time>
      </trkpt>
      <trkpt lat="47.15463" lon="-1.63429">
        <ele>70</ele>
        <time>2022-03-14T10:31:17Z</time>
      </trkpt>
      <trkpt lat="47.15452" lon="-1.6344">
        <ele>70</ele>
        <time>2022-03-14T10:31:19Z</time>
      </trkpt>
      <trkpt lat="47.15441" lon="-1.6345">
        <ele>70</ele>
        <time>2022-03-14T10:31:21Z</time>
      </trkpt>
      <trkpt lat="47.15431" lon="-1.6346">
        <ele>70</ele>
        <time>2022-03-14T10:31:23Z</time>
      </trkpt>
      <trkpt lat="47.1542" lon="-1.6347">
        <ele>71</ele>
        <time>2022-03-14T10:31:25Z</time>
      </trkpt>
      <trkpt lat="47.1541" lon="-1.63481">
        <ele>71</ele>
        <time>2022-03-14T10:31:27Z</time>
      </trkpt>
      <trkpt lat="47.15401" lon="-1.63493">
        <ele>70</ele>
        <time>2022-03-14T10:31:29Z</time>
      </trkpt>
      <trkpt lat="47.15392" lon="-1.63505">
        <ele>71</ele>
        <time>2022-03-14T10:31:31Z</time>
      </trkpt>
      <trkpt lat="47.15381" lon="-1.63513">
        <ele>71</ele>
        <time>2022-03-14T10:31:33Z</time>
      </trkpt>
      <trkpt lat="47.15369" lon="-1.63515">
        <ele>70</ele>
        <time>2022-03-14T10:31:35Z</time>
      </trkpt>
      <trkpt lat="47.1536" lon="-1.63525">
        <ele>71</ele>
        <time>2022-03-14T10:31:37Z</time>
      </trkpt>
      <trkpt lat="47.15349" lon="-1.63536">
        <ele>71</ele>
        <time>2022-03-14T10:31:39Z</time>
      </trkpt>
      <trkpt lat="47.15338" lon="-1.63546">
        <ele>70</ele>
        <time>2022-03-14T10:31:41Z</time>
      </trkpt>
      <trkpt lat="47.15327" lon="-1.63555">
        <ele>71</ele>
        <time>2022-03-14T10:31:43Z</time>
      </trkpt>
      <trkpt lat="47.15314" lon="-1.63562">
        <ele>71</ele>
        <time>2022-03-14T10:31:45Z</time>
      </trkpt>
      <trkpt lat="47.15303" lon="-1.63569">
        <ele>70</ele>
        <time>2022-03-14T10:31:47Z</time>
      </trkpt>
      <trkpt lat="47.15291" lon="-1.6358">
        <ele>70</ele>
        <time>2022-03-14T10:31:49Z</time>
      </trkpt>
      <trkpt lat="47.15279" lon="-1.63591">
        <ele>70</ele>
        <time>2022-03-14T10:31:51Z</time>
      </trkpt>
      <trkpt lat="47.15268" lon="-1.63601">
        <ele>70</ele>
        <time>2022-03-14T10:31:53Z</time>
      </trkpt>
      <trkpt lat="47.15256" lon="-1.63611">
        <ele>70</ele>
        <time>2022-03-14T10:31:55Z</time>
      </trkpt>
      <trkpt lat="47.15244" lon="-1.63621">
        <ele>70</ele>
        <time>2022-03-14T10:31:57Z</time>
      </trkpt>
      <trkpt lat="47.15233" lon="-1.63632">
        <ele>70</ele>
        <time>2022-03-14T10:31:59Z</time>
      </trkpt>
      <trkpt lat="47.15222" lon="-1.63642">
        <ele>71</ele>
        <time>2022-03-14T10:32:01Z</time>
      </trkpt>
      <trkpt lat="47.1521" lon="-1.63652">
        <ele>71</ele>
        <time>2022-03-14T10:32:03Z</time>
      </trkpt>
      <trkpt lat="47.15198" lon="-1.63662">
        <ele>71</ele>
        <time>2022-03-14T10:32:05Z</time>
      </trkpt>
      <trkpt lat="47.15185" lon="-1.63674">
        <ele>71</ele>
        <time>2022-03-14T10:32:07Z</time>
      </trkpt>
      <trkpt lat="47.15173" lon="-1.63685">
        <ele>70</ele>
        <time>2022-03-14T10:32:09Z</time>
      </trkpt>
      <trkpt lat="47.15161" lon="-1.63696">
        <ele>70</ele>
        <time>2022-03-14T10:32:11Z</time>
      </trkpt>
      <trkpt lat="47.15149" lon="-1.63708">
        <ele>70</ele>
        <time>2022-03-14T10:32:13Z</time>
      </trkpt>
      <trkpt lat="47.15138" lon="-1.63719">
        <ele>70</ele>
        <time>2022-03-14T10:32:15Z</time>
      </trkpt>
      <trkpt lat="47.15126" lon="-1.6373">
        <ele>70</ele>
        <time>2022-03-14T10:32:17Z</time>
      </trkpt>
      <trkpt lat="47.15115" lon="-1.63742">
        <ele>70</ele>
        <time>2022-03-14T10:32:19Z</time>
      </trkpt>
      <trkpt lat="47.15104" lon="-1.63755">
        <ele>70</ele>
        <time>2022-03-14T10:32:21Z</time>
      </trkpt>
      <trkpt lat="47.15093" lon="-1.63767">
        <ele>70</ele>
        <time>2022-03-14T10:32:23Z</time>
      </trkpt>
      <trkpt lat="47.15081" lon="-1.63781">
        <ele>70</ele>
        <time>2022-03-14T10:32:25Z</time>
      </trkpt>
      <trkpt lat="47.1507" lon="-1.63794">
        <ele>70</ele>
        <time>2022-03-14T10:32:27Z</time>
      </trkpt>
      <trkpt lat="47.1506" lon="-1.63808">
        <ele>70</ele>
        <time>2022-03-14T10:32:29Z</time>
      </trkpt>
      <trkpt lat="47.15049" lon="-1.63821">
        <ele>70</ele>
        <time>2022-03-14T10:32:31Z</time>
      </trkpt>
      <trkpt lat="47.15039" lon="-1.63836">
        <ele>70</ele>
        <time>2022-03-14T10:32:33Z</time>
      </trkpt>
      <trkpt lat="47.15029" lon="-1.6385">
        <ele>70</ele>
        <time>2022-03-14T10:32:35Z</time>
      </trkpt>
      <trkpt lat="47.15019" lon="-1.63864">
        <ele>71</ele>
        <time>2022-03-14T10:32:37Z</time>
      </trkpt>
      <trkpt lat="47.15009" lon="-1.63877">
        <ele>72</ele>
        <time>2022-03-14T10:32:39Z</time>
      </trkpt>
      <trkpt lat="47.15" lon="-1.63891">
        <ele>72</ele>
        <time>2022-03-14T10:32:41Z</time>
      </trkpt>
      <trkpt lat="47.14991" lon="-1.63904">
        <ele>73</ele>
        <time>2022-03-14T10:32:43Z</time>
      </trkpt>
      <trkpt lat="47.14982" lon="-1.63917">
        <ele>73</ele>
        <time>2022-03-14T10:32:45Z</time>
      </trkpt>
      <trkpt lat="47.14973" lon="-1.63931">
        <ele>73</ele>
        <time>2022-03-14T10:32:47Z</time>
      </trkpt>
      <trkpt lat="47.14963" lon="-1.63947">
        <ele>74</ele>
        <time>2022-03-14T10:32:49Z</time>
      </trkpt>
      <trkpt lat="47.14955" lon="-1.63963">
        <ele>75</ele>
        <time>2022-03-14T10:32:51Z</time>
      </trkpt>
      <trkpt lat="47.14947" lon="-1.63979">
        <ele>73</ele>
        <time>2022-03-14T10:32:53Z</time>
      </trkpt>
      <trkpt lat="47.14939" lon="-1.63994">
        <ele>73</ele>
        <time>2022-03-14T10:32:55Z</time>
      </trkpt>
      <trkpt lat="47.14932" lon="-1.64008">
        <ele>72</ele>
        <time>2022-03-14T10:32:57Z</time>
      </trkpt>
      <trkpt lat="47.14924" lon="-1.6402">
        <ele>73</ele>
        <time>2022-03-14T10:32:59Z</time>
      </trkpt>
      <trkpt lat="47.14914" lon="-1.64033">
        <ele>72</ele>
        <time>2022-03-14T10:33:01Z</time>
      </trkpt>
      <trkpt lat="47.14901" lon="-1.64044">
        <ele>72</ele>
        <time>2022-03-14T10:33:03Z</time>
      </trkpt>
      <trkpt lat="47.14889" lon="-1.64039">
        <ele>72</ele>
        <time>2022-03-14T10:33:05Z</time>
      </trkpt>
      <trkpt lat="47.14878" lon="-1.64023">
        <ele>71</ele>
        <time>2022-03-14T10:33:07Z</time>
      </trkpt>
      <trkpt lat="47.14868" lon="-1.64006">
        <ele>70</ele>
        <time>2022-03-14T10:33:09Z</time>
      </trkpt>
      <trkpt lat="47.14857" lon="-1.63992">
        <ele>70</ele>
        <time>2022-03-14T10:33:11Z</time>
      </trkpt>
      <trkpt lat="47.14842" lon="-1.63986">
        <ele>70</ele>
        <time>2022-03-14T10:33:13Z</time>
      </trkpt>
      <trkpt lat="47.14827" lon="-1.63988">
        <ele>70</ele>
        <time>2022-03-14T10:33:15Z</time>
      </trkpt>
      <trkpt lat="47.14815" lon="-1.64001">
        <ele>71</ele>
        <time>2022-03-14T10:33:17Z</time>
      </trkpt>
      <trkpt lat="47.14802" lon="-1.64014">
        <ele>71</ele>
        <time>2022-03-14T10:33:19Z</time>
      </trkpt>
      <trkpt lat="47.1479" lon="-1.64027">
        <ele>71</ele>
        <time>2022-03-14T10:33:21Z</time>
      </trkpt>
      <trkpt lat="47.14777" lon="-1.64038">
        <ele>71</ele>
        <time>2022-03-14T10:33:23Z</time>
      </trkpt>
      <trkpt lat="47.14763" lon="-1.64047">
        <ele>71</ele>
        <time>2022-03-14T10:33:25Z</time>
      </trkpt>
      <trkpt lat="47.1475" lon="-1.64053">
        <ele>71</ele>
        <time>2022-03-14T10:33:27Z</time>
      </trkpt>
      <trkpt lat="47.14737" lon="-1.6406">
        <ele>71</ele>
        <time>2022-03-14T10:33:29Z</time>
      </trkpt>
      <trkpt lat="47.14724" lon="-1.64066">
        <ele>72</ele>
        <time>2022-03-14T10:33:31Z</time>
      </trkpt>
      <trkpt lat="47.14711" lon="-1.64072">
        <ele>72</ele>
        <time>2022-03-14T10:33:33Z</time>
      </trkpt>
      <trkpt lat="47.14697" lon="-1.64078">
        <ele>71</ele>
        <time>2022-03-14T10:33:35Z</time>
      </trkpt>
      <trkpt lat="47.14684" lon="-1.64084">
        <ele>72</ele>
        <time>2022-03-14T10:33:37Z</time>
      </trkpt>
      <trkpt lat="47.1467" lon="-1.6409">
        <ele>72</ele>
        <time>2022-03-14T10:33:39Z</time>
      </trkpt>
      <trkpt lat="47.14656" lon="-1.64097">
        <ele>72</ele>
        <time>2022-03-14T10:33:41Z</time>
      </trkpt>
      <trkpt lat="47.14642" lon="-1.64105">
        <ele>73</ele>
        <time>2022-03-14T10:33:43Z</time>
      </trkpt>
      <trkpt lat="47.14627" lon="-1.64112">
        <ele>72</ele>
        <time>2022-03-14T10:33:45Z</time>
      </trkpt>
      <trkpt lat="47.14614" lon="-1.64119">
        <ele>71</ele>
        <time>2022-03-14T10:33:47Z</time>
      </trkpt>
      <trkpt lat="47.14599" lon="-1.64128">
        <ele>72</ele>
        <time>2022-03-14T10:33:49Z</time>
      </trkpt>
      <trkpt lat="47.14584" lon="-1.64138">
        <ele>72</ele>
        <time>2022-03-14T10:33:51Z</time>
      </trkpt>
      <trkpt lat="47.14569" lon="-1.64146">
        <ele>72</ele>
        <time>2022-03-14T10:33:53Z</time>
      </trkpt>
      <trkpt lat="47.14556" lon="-1.64154">
        <ele>72</ele>
        <time>2022-03-14T10:33:55Z</time>
      </trkpt>
      <trkpt lat="47.14543" lon="-1.64163">
        <ele>72</ele>
        <time>2022-03-14T10:33:57Z</time>
      </trkpt>
      <trkpt lat="47.14529" lon="-1.64171">
        <ele>72</ele>
        <time>2022-03-14T10:33:59Z</time>
      </trkpt>
      <trkpt lat="47.14515" lon="-1.64181">
        <ele>72</ele>
        <time>2022-03-14T10:34:01Z</time>
      </trkpt>
      <trkpt lat="47.14501" lon="-1.6419">
        <ele>72</ele>
        <time>2022-03-14T10:34:03Z</time>
      </trkpt>
      <trkpt lat="47.14485" lon="-1.64201">
        <ele>71</ele>
        <time>2022-03-14T10:34:05Z</time>
      </trkpt>
      <trkpt lat="47.1447" lon="-1.64209">
        <ele>70</ele>
        <time>2022-03-14T10:34:07Z</time>
      </trkpt>
      <trkpt lat="47.14458" lon="-1.64215">
        <ele>69</ele>
        <time>2022-03-14T10:34:09Z</time>
      </trkpt>
      <trkpt lat="47.14446" lon="-1.64219">
        <ele>70</ele>
        <time>2022-03-14T10:34:11Z</time>
      </trkpt>
      <trkpt lat="47.14434" lon="-1.64222">
        <ele>71</ele>
        <time>2022-03-14T10:34:13Z</time>
      </trkpt>
      <trkpt lat="47.14422" lon="-1.64224">
        <ele>71</ele>
        <time>2022-03-14T10:34:15Z</time>
      </trkpt>
      <trkpt lat="47.14409" lon="-1.64227">
        <ele>71</ele>
        <time>2022-03-14T10:34:17Z</time>
      </trkpt>
      <trkpt lat="47.14395" lon="-1.64228">
        <ele>71</ele>
        <time>2022-03-14T10:34:19Z</time>
      </trkpt>
      <trkpt lat="47.14381" lon="-1.64228">
        <ele>71</ele>
        <time>2022-03-14T10:34:21Z</time>
      </trkpt>
      <trkpt lat="47.14367" lon="-1.64231">
        <ele>71</ele>
        <time>2022-03-14T10:34:23Z</time>
      </trkpt>
      <trkpt lat="47.14355" lon="-1.64233">
        <ele>73</ele>
        <time>2022-03-14T10:34:25Z</time>
      </trkpt>
      <trkpt lat="47.14342" lon="-1.64236">
        <ele>74</ele>
        <time>2022-03-14T10:34:27Z</time>
      </trkpt>
      <trkpt lat="47.14329" lon="-1.64239">
        <ele>75</ele>
        <time>2022-03-14T10:34:29Z</time>
      </trkpt>
      <trkpt lat="47.14315" lon="-1.64245">
        <ele>76</ele>
        <time>2022-03-14T10:34:31Z</time>
      </trkpt>
      <trkpt lat="47.14301" lon="-1.6425">
        <ele>76</ele>
        <time>2022-03-14T10:34:33Z</time>
      </trkpt>
      <trkpt lat="47.14286" lon="-1.64258">
        <ele>76</ele>
        <time>2022-03-14T10:34:35Z</time>
      </trkpt>
      <trkpt lat="47.14272" lon="-1.64268">
        <ele>77</ele>
        <time>2022-03-14T10:34:37Z</time>
      </trkpt>
      <trkpt lat="47.14256" lon="-1.6428">
        <ele>79</ele>
        <time>2022-03-14T10:34:39Z</time>
      </trkpt>
      <trkpt lat="47.14248" lon="-1.64287">
        <ele>80</ele>
        <time>2022-03-14T10:34:40Z</time>
      </trkpt>
      <trkpt lat="47.14239" lon="-1.64294">
        <ele>80</ele>
        <time>2022-03-14T10:34:41Z</time>
      </trkpt>
      <trkpt lat="47.14232" lon="-1.64302">
        <ele>80</ele>
        <time>2022-03-14T10:34:42Z</time>
      </trkpt>
      <trkpt lat="47.14217" lon="-1.64314">
        <ele>79</ele>
        <time>2022-03-14T10:34:44Z</time>
      </trkpt>
      <trkpt lat="47.14209" lon="-1.64322">
        <ele>79</ele>
        <time>2022-03-14T10:34:45Z</time>
      </trkpt>
      <trkpt lat="47.14201" lon="-1.64332">
        <ele>79</ele>
        <time>2022-03-14T10:34:46Z</time>
      </trkpt>
      <trkpt lat="47.14194" lon="-1.64341">
        <ele>79</ele>
        <time>2022-03-14T10:34:47Z</time>
      </trkpt>
      <trkpt lat="47.14186" lon="-1.64349">
        <ele>78</ele>
        <time>2022-03-14T10:34:48Z</time>
      </trkpt>
      <trkpt lat="47.14178" lon="-1.64357">
        <ele>78</ele>
        <time>2022-03-14T10:34:49Z</time>
      </trkpt>
      <trkpt lat="47.14163" lon="-1.64369">
        <ele>77</ele>
        <time>2022-03-14T10:34:51Z</time>
      </trkpt>
      <trkpt lat="47.14147" lon="-1.64378">
        <ele>76</ele>
        <time>2022-03-14T10:34:53Z</time>
      </trkpt>
      <trkpt lat="47.14133" lon="-1.64388">
        <ele>76</ele>
        <time>2022-03-14T10:34:55Z</time>
      </trkpt>
      <trkpt lat="47.14119" lon="-1.644">
        <ele>75</ele>
        <time>2022-03-14T10:34:57Z</time>
      </trkpt>
      <trkpt lat="47.14104" lon="-1.64413">
        <ele>75</ele>
        <time>2022-03-14T10:34:59Z</time>
      </trkpt>
      <trkpt lat="47.14091" lon="-1.64423">
        <ele>74</ele>
        <time>2022-03-14T10:35:01Z</time>
      </trkpt>
      <trkpt lat="47.14076" lon="-1.64436">
        <ele>73</ele>
        <time>2022-03-14T10:35:03Z</time>
      </trkpt>
      <trkpt lat="47.14061" lon="-1.64447">
        <ele>72</ele>
        <time>2022-03-14T10:35:05Z</time>
      </trkpt>
      <trkpt lat="47.14048" lon="-1.64458">
        <ele>72</ele>
        <time>2022-03-14T10:35:07Z</time>
      </trkpt>
      <trkpt lat="47.14035" lon="-1.64468">
        <ele>72</ele>
        <time>2022-03-14T10:35:09Z</time>
      </trkpt>
      <trkpt lat="47.14022" lon="-1.64478">
        <ele>72</ele>
        <time>2022-03-14T10:35:11Z</time>
      </trkpt>
      <trkpt lat="47.14008" lon="-1.64487">
        <ele>72</ele>
        <time>2022-03-14T10:35:13Z</time>
      </trkpt>
      <trkpt lat="47.13995" lon="-1.64498">
        <ele>72</ele>
        <time>2022-03-14T10:35:15Z</time>
      </trkpt>
      <trkpt lat="47.13982" lon="-1.64514">
        <ele>72</ele>
        <time>2022-03-14T10:35:17Z</time>
      </trkpt>
      <trkpt lat="47.13969" lon="-1.64528">
        <ele>71</ele>
        <time>2022-03-14T10:35:19Z</time>
      </trkpt>
      <trkpt lat="47.13955" lon="-1.64541">
        <ele>70</ele>
        <time>2022-03-14T10:35:21Z</time>
      </trkpt>
      <trkpt lat="47.13943" lon="-1.64552">
        <ele>69</ele>
        <time>2022-03-14T10:35:23Z</time>
      </trkpt>
      <trkpt lat="47.1393" lon="-1.64563">
        <ele>69</ele>
        <time>2022-03-14T10:35:25Z</time>
      </trkpt>
      <trkpt lat="47.1392" lon="-1.64572">
        <ele>68</ele>
        <time>2022-03-14T10:35:27Z</time>
      </trkpt>
      <trkpt lat="47.1391" lon="-1.64583">
        <ele>69</ele>
        <time>2022-03-14T10:35:29Z</time>
      </trkpt>
      <trkpt lat="47.13899" lon="-1.64592">
        <ele>71</ele>
        <time>2022-03-14T10:35:31Z</time>
      </trkpt>
      <trkpt lat="47.13886" lon="-1.64599">
        <ele>71</ele>
        <time>2022-03-14T10:35:33Z</time>
      </trkpt>
      <trkpt lat="47.13872" lon="-1.64602">
        <ele>73</ele>
        <time>2022-03-14T10:35:35Z</time>
      </trkpt>
      <trkpt lat="47.13859" lon="-1.64604">
        <ele>74</ele>
        <time>2022-03-14T10:35:37Z</time>
      </trkpt>
      <trkpt lat="47.13846" lon="-1.64604">
        <ele>74</ele>
        <time>2022-03-14T10:35:39Z</time>
      </trkpt>
      <trkpt lat="47.1383" lon="-1.64602">
        <ele>73</ele>
        <time>2022-03-14T10:35:41Z</time>
      </trkpt>
      <trkpt lat="47.13816" lon="-1.64601">
        <ele>72</ele>
        <time>2022-03-14T10:35:43Z</time>
      </trkpt>
      <trkpt lat="47.13803" lon="-1.64599">
        <ele>71</ele>
        <time>2022-03-14T10:35:45Z</time>
      </trkpt>
      <trkpt lat="47.13789" lon="-1.64597">
        <ele>70</ele>
        <time>2022-03-14T10:35:47Z</time>
      </trkpt>
      <trkpt lat="47.13776" lon="-1.64595">
        <ele>69</ele>
        <time>2022-03-14T10:35:49Z</time>
      </trkpt>
      <trkpt lat="47.13761" lon="-1.64592">
        <ele>69</ele>
        <time>2022-03-14T10:35:51Z</time>
      </trkpt>
      <trkpt lat="47.13746" lon="-1.6459">
        <ele>69</ele>
        <time>2022-03-14T10:35:53Z</time>
      </trkpt>
      <trkpt lat="47.13733" lon="-1.64588">
        <ele>68</ele>
        <time>2022-03-14T10:35:55Z</time>
      </trkpt>
      <trkpt lat="47.13721" lon="-1.64585">
        <ele>68</ele>
        <time>2022-03-14T10:35:57Z</time>
      </trkpt>
      <trkpt lat="47.13709" lon="-1.64583">
        <ele>67</ele>
        <time>2022-03-14T10:35:59Z</time>
      </trkpt>
      <trkpt lat="47.13698" lon="-1.6458">
        <ele>67</ele>
        <time>2022-03-14T10:36:01Z</time>
      </trkpt>
      <trkpt lat="47.13688" lon="-1.64577">
        <ele>67</ele>
        <time>2022-03-14T10:36:03Z</time>
      </trkpt>
      <trkpt lat="47.13676" lon="-1.64573">
        <ele>67</ele>
        <time>2022-03-14T10:36:05Z</time>
      </trkpt>
      <trkpt lat="47.13664" lon="-1.6457">
        <ele>67</ele>
        <time>2022-03-14T10:36:07Z</time>
      </trkpt>
      <trkpt lat="47.1365" lon="-1.64566">
        <ele>66</ele>
        <time>2022-03-14T10:36:09Z</time>
      </trkpt>
      <trkpt lat="47.13638" lon="-1.64564">
        <ele>65</ele>
        <time>2022-03-14T10:36:11Z</time>
      </trkpt>
      <trkpt lat="47.13627" lon="-1.64563">
        <ele>66</ele>
        <time>2022-03-14T10:36:13Z</time>
      </trkpt>
      <trkpt lat="47.13614" lon="-1.64561">
        <ele>66</ele>
        <time>2022-03-14T10:36:15Z</time>
      </trkpt>
      <trkpt lat="47.13603" lon="-1.6456">
        <ele>66</ele>
        <time>2022-03-14T10:36:17Z</time>
      </trkpt>
      <trkpt lat="47.13592" lon="-1.64562">
        <ele>66</ele>
        <time>2022-03-14T10:36:19Z</time>
      </trkpt>
      <trkpt lat="47.1358" lon="-1.64566">
        <ele>67</ele>
        <time>2022-03-14T10:36:21Z</time>
      </trkpt>
      <trkpt lat="47.13569" lon="-1.64572">
        <ele>67</ele>
        <time>2022-03-14T10:36:23Z</time>
      </trkpt>
      <trkpt lat="47.13558" lon="-1.64581">
        <ele>67</ele>
        <time>2022-03-14T10:36:25Z</time>
      </trkpt>
      <trkpt lat="47.13548" lon="-1.64591">
        <ele>68</ele>
        <time>2022-03-14T10:36:27Z</time>
      </trkpt>
      <trkpt lat="47.13538" lon="-1.64601">
        <ele>68</ele>
        <time>2022-03-14T10:36:29Z</time>
      </trkpt>
      <trkpt lat="47.13528" lon="-1.64612">
        <ele>68</ele>
        <time>2022-03-14T10:36:31Z</time>
      </trkpt>
      <trkpt lat="47.13518" lon="-1.64623">
        <ele>68</ele>
        <time>2022-03-14T10:36:33Z</time>
      </trkpt>
      <trkpt lat="47.13508" lon="-1.64633">
        <ele>69</ele>
        <time>2022-03-14T10:36:35Z</time>
      </trkpt>
      <trkpt lat="47.13499" lon="-1.64642">
        <ele>69</ele>
        <time>2022-03-14T10:36:37Z</time>
      </trkpt>
      <trkpt lat="47.13489" lon="-1.64647">
        <ele>70</ele>
        <time>2022-03-14T10:36:39Z</time>
      </trkpt>
      <trkpt lat="47.13478" lon="-1.6465">
        <ele>71</ele>
        <time>2022-03-14T10:36:41Z</time>
      </trkpt>
      <trkpt lat="47.13465" lon="-1.64649">
        <ele>70</ele>
        <time>2022-03-14T10:36:43Z</time>
      </trkpt>
      <trkpt lat="47.13452" lon="-1.64647">
        <ele>70</ele>
        <time>2022-03-14T10:36:45Z</time>
      </trkpt>
      <trkpt lat="47.13439" lon="-1.64646">
        <ele>70</ele>
        <time>2022-03-14T10:36:47Z</time>
      </trkpt>
      <trkpt lat="47.13427" lon="-1.64645">
        <ele>69</ele>
        <time>2022-03-14T10:36:49Z</time>
      </trkpt>
      <trkpt lat="47.13417" lon="-1.64644">
        <ele>69</ele>
        <time>2022-03-14T10:36:51Z</time>
      </trkpt>
      <trkpt lat="47.13407" lon="-1.64644">
        <ele>69</ele>
        <time>2022-03-14T10:36:54Z</time>
      </trkpt>
      <trkpt lat="47.13398" lon="-1.6463">
        <ele>71</ele>
        <time>2022-03-14T10:36:57Z</time>
      </trkpt>
      <trkpt lat="47.13396" lon="-1.64614">
        <ele>70</ele>
        <time>2022-03-14T10:36:59Z</time>
      </trkpt>
      <trkpt lat="47.13393" lon="-1.64598">
        <ele>70</ele>
        <time>2022-03-14T10:37:01Z</time>
      </trkpt>
      <trkpt lat="47.1339" lon="-1.6458">
        <ele>70</ele>
        <time>2022-03-14T10:37:03Z</time>
      </trkpt>
      <trkpt lat="47.13386" lon="-1.64561">
        <ele>70</ele>
        <time>2022-03-14T10:37:05Z</time>
      </trkpt>
      <trkpt lat="47.13382" lon="-1.64543">
        <ele>69</ele>
        <time>2022-03-14T10:37:07Z</time>
      </trkpt>
      <trkpt lat="47.13377" lon="-1.64526">
        <ele>68</ele>
        <time>2022-03-14T10:37:09Z</time>
      </trkpt>
      <trkpt lat="47.13371" lon="-1.64509">
        <ele>67</ele>
        <time>2022-03-14T10:37:11Z</time>
      </trkpt>
      <trkpt lat="47.13365" lon="-1.64492">
        <ele>67</ele>
        <time>2022-03-14T10:37:13Z</time>
      </trkpt>
      <trkpt lat="47.13358" lon="-1.64476">
        <ele>67</ele>
        <time>2022-03-14T10:37:15Z</time>
      </trkpt>
      <trkpt lat="47.1335" lon="-1.64461">
        <ele>66</ele>
        <time>2022-03-14T10:37:17Z</time>
      </trkpt>
      <trkpt lat="47.13343" lon="-1.64444">
        <ele>65</ele>
        <time>2022-03-14T10:37:19Z</time>
      </trkpt>
      <trkpt lat="47.13335" lon="-1.64428">
        <ele>64</ele>
        <time>2022-03-14T10:37:21Z</time>
      </trkpt>
      <trkpt lat="47.13326" lon="-1.6441">
        <ele>63</ele>
        <time>2022-03-14T10:37:23Z</time>
      </trkpt>
      <trkpt lat="47.13318" lon="-1.64391">
        <ele>63</ele>
        <time>2022-03-14T10:37:25Z</time>
      </trkpt>
      <trkpt lat="47.13308" lon="-1.64373">
        <ele>63</ele>
        <time>2022-03-14T10:37:27Z</time>
      </trkpt>
      <trkpt lat="47.13299" lon="-1.64354">
        <ele>62</ele>
        <time>2022-03-14T10:37:29Z</time>
      </trkpt>
      <trkpt lat="47.13291" lon="-1.64336">
        <ele>62</ele>
        <time>2022-03-14T10:37:31Z</time>
      </trkpt>
      <trkpt lat="47.13283" lon="-1.64318">
        <ele>62</ele>
        <time>2022-03-14T10:37:33Z</time>
      </trkpt>
      <trkpt lat="47.13273" lon="-1.643">
        <ele>62</ele>
        <time>2022-03-14T10:37:35Z</time>
      </trkpt>
      <trkpt lat="47.13264" lon="-1.6428">
        <ele>61</ele>
        <time>2022-03-14T10:37:37Z</time>
      </trkpt>
      <trkpt lat="47.13255" lon="-1.6426">
        <ele>61</ele>
        <time>2022-03-14T10:37:39Z</time>
      </trkpt>
      <trkpt lat="47.13247" lon="-1.6424">
        <ele>60</ele>
        <time>2022-03-14T10:37:41Z</time>
      </trkpt>
      <trkpt lat="47.13239" lon="-1.64221">
        <ele>59</ele>
        <time>2022-03-14T10:37:43Z</time>
      </trkpt>
      <trkpt lat="47.13229" lon="-1.64202">
        <ele>59</ele>
        <time>2022-03-14T10:37:45Z</time>
      </trkpt>
      <trkpt lat="47.1322" lon="-1.64184">
        <ele>58</ele>
        <time>2022-03-14T10:37:47Z</time>
      </trkpt>
      <trkpt lat="47.13212" lon="-1.64166">
        <ele>59</ele>
        <time>2022-03-14T10:37:49Z</time>
      </trkpt>
      <trkpt lat="47.13205" lon="-1.64147">
        <ele>59</ele>
        <time>2022-03-14T10:37:51Z</time>
      </trkpt>
      <trkpt lat="47.13197" lon="-1.64129">
        <ele>59</ele>
        <time>2022-03-14T10:37:53Z</time>
      </trkpt>
      <trkpt lat="47.13188" lon="-1.6411">
        <ele>59</ele>
        <time>2022-03-14T10:37:55Z</time>
      </trkpt>
      <trkpt lat="47.1318" lon="-1.64092">
        <ele>58</ele>
        <time>2022-03-14T10:37:57Z</time>
      </trkpt>
      <trkpt lat="47.13172" lon="-1.64073">
        <ele>58</ele>
        <time>2022-03-14T10:37:59Z</time>
      </trkpt>
      <trkpt lat="47.13164" lon="-1.64054">
        <ele>57</ele>
        <time>2022-03-14T10:38:01Z</time>
      </trkpt>
      <trkpt lat="47.13157" lon="-1.64036">
        <ele>57</ele>
        <time>2022-03-14T10:38:03Z</time>
      </trkpt>
      <trkpt lat="47.13149" lon="-1.64019">
        <ele>57</ele>
        <time>2022-03-14T10:38:05Z</time>
      </trkpt>
      <trkpt lat="47.13141" lon="-1.64001">
        <ele>57</ele>
        <time>2022-03-14T10:38:07Z</time>
      </trkpt>
      <trkpt lat="47.13134" lon="-1.63984">
        <ele>58</ele>
        <time>2022-03-14T10:38:09Z</time>
      </trkpt>
      <trkpt lat="47.13127" lon="-1.63967">
        <ele>58</ele>
        <time>2022-03-14T10:38:11Z</time>
      </trkpt>
      <trkpt lat="47.1312" lon="-1.63948">
        <ele>58</ele>
        <time>2022-03-14T10:38:13Z</time>
      </trkpt>
      <trkpt lat="47.13114" lon="-1.63929">
        <ele>57</ele>
        <time>2022-03-14T10:38:15Z</time>
      </trkpt>
      <trkpt lat="47.13107" lon="-1.6391">
        <ele>57</ele>
        <time>2022-03-14T10:38:17Z</time>
      </trkpt>
      <trkpt lat="47.131" lon="-1.63892">
        <ele>56</ele>
        <time>2022-03-14T10:38:19Z</time>
      </trkpt>
      <trkpt lat="47.13092" lon="-1.63874">
        <ele>56</ele>
        <time>2022-03-14T10:38:21Z</time>
      </trkpt>
      <trkpt lat="47.13086" lon="-1.63856">
        <ele>56</ele>
        <time>2022-03-14T10:38:23Z</time>
      </trkpt>
      <trkpt lat="47.13079" lon="-1.63837">
        <ele>55</ele>
        <time>2022-03-14T10:38:25Z</time>
      </trkpt>
      <trkpt lat="47.13072" lon="-1.6382">
        <ele>54</ele>
        <time>2022-03-14T10:38:27Z</time>
      </trkpt>
      <trkpt lat="47.13064" lon="-1.63802">
        <ele>54</ele>
        <time>2022-03-14T10:38:29Z</time>
      </trkpt>
      <trkpt lat="47.13057" lon="-1.63786">
        <ele>54</ele>
        <time>2022-03-14T10:38:31Z</time>
      </trkpt>
      <trkpt lat="47.13049" lon="-1.6377">
        <ele>55</ele>
        <time>2022-03-14T10:38:33Z</time>
      </trkpt>
      <trkpt lat="47.13041" lon="-1.63754">
        <ele>55</ele>
        <time>2022-03-14T10:38:35Z</time>
      </trkpt>
      <trkpt lat="47.13034" lon="-1.63738">
        <ele>54</ele>
        <time>2022-03-14T10:38:37Z</time>
      </trkpt>
      <trkpt lat="47.13027" lon="-1.63724">
        <ele>55</ele>
        <time>2022-03-14T10:38:39Z</time>
      </trkpt>
      <trkpt lat="47.13019" lon="-1.63709">
        <ele>55</ele>
        <time>2022-03-14T10:38:41Z</time>
      </trkpt>
      <trkpt lat="47.13013" lon="-1.63693">
        <ele>55</ele>
        <time>2022-03-14T10:38:43Z</time>
      </trkpt>
      <trkpt lat="47.13005" lon="-1.63675">
        <ele>55</ele>
        <time>2022-03-14T10:38:45Z</time>
      </trkpt>
      <trkpt lat="47.12997" lon="-1.63658">
        <ele>55</ele>
        <time>2022-03-14T10:38:47Z</time>
      </trkpt>
      <trkpt lat="47.1299" lon="-1.63639">
        <ele>54</ele>
        <time>2022-03-14T10:38:49Z</time>
      </trkpt>
      <trkpt lat="47.12984" lon="-1.63622">
        <ele>54</ele>
        <time>2022-03-14T10:38:51Z</time>
      </trkpt>
      <trkpt lat="47.12979" lon="-1.63607">
        <ele>53</ele>
        <time>2022-03-14T10:38:53Z</time>
      </trkpt>
      <trkpt lat="47.12973" lon="-1.63592">
        <ele>53</ele>
        <time>2022-03-14T10:38:55Z</time>
      </trkpt>
      <trkpt lat="47.12968" lon="-1.63578">
        <ele>52</ele>
        <time>2022-03-14T10:38:57Z</time>
      </trkpt>
      <trkpt lat="47.12963" lon="-1.63566">
        <ele>52</ele>
        <time>2022-03-14T10:38:59Z</time>
      </trkpt>
      <trkpt lat="47.12956" lon="-1.63552">
        <ele>52</ele>
        <time>2022-03-14T10:39:02Z</time>
      </trkpt>
      <trkpt lat="47.12951" lon="-1.6354">
        <ele>52</ele>
        <time>2022-03-14T10:39:05Z</time>
      </trkpt>
      <trkpt lat="47.12947" lon="-1.63528">
        <ele>52</ele>
        <time>2022-03-14T10:39:09Z</time>
      </trkpt>
      <trkpt lat="47.12943" lon="-1.63515">
        <ele>54</ele>
        <time>2022-03-14T10:39:59Z</time>
      </trkpt>
      <trkpt lat="47.12939" lon="-1.63502">
        <ele>55</ele>
        <time>2022-03-14T10:40:01Z</time>
      </trkpt>
      <trkpt lat="47.12934" lon="-1.63484">
        <ele>56</ele>
        <time>2022-03-14T10:40:03Z</time>
      </trkpt>
      <trkpt lat="47.12927" lon="-1.63467">
        <ele>56</ele>
        <time>2022-03-14T10:40:05Z</time>
      </trkpt>
      <trkpt lat="47.1292" lon="-1.63448">
        <ele>56</ele>
        <time>2022-03-14T10:40:07Z</time>
      </trkpt>
      <trkpt lat="47.12913" lon="-1.63429">
        <ele>55</ele>
        <time>2022-03-14T10:40:09Z</time>
      </trkpt>
      <trkpt lat="47.12905" lon="-1.63409">
        <ele>55</ele>
        <time>2022-03-14T10:40:11Z</time>
      </trkpt>
      <trkpt lat="47.12897" lon="-1.63389">
        <ele>54</ele>
        <time>2022-03-14T10:40:13Z</time>
      </trkpt>
      <trkpt lat="47.12889" lon="-1.63368">
        <ele>54</ele>
        <time>2022-03-14T10:40:15Z</time>
      </trkpt>
      <trkpt lat="47.12881" lon="-1.63348">
        <ele>53</ele>
        <time>2022-03-14T10:40:17Z</time>
      </trkpt>
      <trkpt lat="47.12873" lon="-1.63327">
        <ele>52</ele>
        <time>2022-03-14T10:40:19Z</time>
      </trkpt>
      <trkpt lat="47.12865" lon="-1.63307">
        <ele>52</ele>
        <time>2022-03-14T10:40:21Z</time>
      </trkpt>
      <trkpt lat="47.12857" lon="-1.63287">
        <ele>51</ele>
        <time>2022-03-14T10:40:23Z</time>
      </trkpt>
      <trkpt lat="47.12849" lon="-1.63266">
        <ele>51</ele>
        <time>2022-03-14T10:40:25Z</time>
      </trkpt>
      <trkpt lat="47.12841" lon="-1.63247">
        <ele>51</ele>
        <time>2022-03-14T10:40:27Z</time>
      </trkpt>
      <trkpt lat="47.12833" lon="-1.63228">
        <ele>51</ele>
        <time>2022-03-14T10:40:29Z</time>
      </trkpt>
      <trkpt lat="47.12824" lon="-1.63212">
        <ele>51</ele>
        <time>2022-03-14T10:40:31Z</time>
      </trkpt>
      <trkpt lat="47.12816" lon="-1.63198">
        <ele>52</ele>
        <time>2022-03-14T10:40:33Z</time>
      </trkpt>
      <trkpt lat="47.12809" lon="-1.63182">
        <ele>52</ele>
        <time>2022-03-14T10:40:35Z</time>
      </trkpt>
      <trkpt lat="47.12801" lon="-1.63164">
        <ele>53</ele>
        <time>2022-03-14T10:40:37Z</time>
      </trkpt>
      <trkpt lat="47.12795" lon="-1.63145">
        <ele>54</ele>
        <time>2022-03-14T10:40:39Z</time>
      </trkpt>
      <trkpt lat="47.12788" lon="-1.63124">
        <ele>56</ele>
        <time>2022-03-14T10:40:41Z</time>
      </trkpt>
      <trkpt lat="47.12781" lon="-1.63103">
        <ele>55</ele>
        <time>2022-03-14T10:40:43Z</time>
      </trkpt>
      <trkpt lat="47.12773" lon="-1.63083">
        <ele>55</ele>
        <time>2022-03-14T10:40:45Z</time>
      </trkpt>
      <trkpt lat="47.12767" lon="-1.63063">
        <ele>56</ele>
        <time>2022-03-14T10:40:47Z</time>
      </trkpt>
      <trkpt lat="47.1276" lon="-1.63044">
        <ele>56</ele>
        <time>2022-03-14T10:40:49Z</time>
      </trkpt>
      <trkpt lat="47.12753" lon="-1.63025">
        <ele>57</ele>
        <time>2022-03-14T10:40:51Z</time>
      </trkpt>
      <trkpt lat="47.12747" lon="-1.63006">
        <ele>56</ele>
        <time>2022-03-14T10:40:53Z</time>
      </trkpt>
      <trkpt lat="47.12739" lon="-1.62986">
        <ele>57</ele>
        <time>2022-03-14T10:40:55Z</time>
      </trkpt>
      <trkpt lat="47.12731" lon="-1.62967">
        <ele>56</ele>
        <time>2022-03-14T10:40:57Z</time>
      </trkpt>
      <trkpt lat="47.12724" lon="-1.62949">
        <ele>56</ele>
        <time>2022-03-14T10:40:59Z</time>
      </trkpt>
      <trkpt lat="47.12717" lon="-1.62931">
        <ele>56</ele>
        <time>2022-03-14T10:41:01Z</time>
      </trkpt>
      <trkpt lat="47.12709" lon="-1.62914">
        <ele>56</ele>
        <time>2022-03-14T10:41:03Z</time>
      </trkpt>
      <trkpt lat="47.12702" lon="-1.62896">
        <ele>56</ele>
        <time>2022-03-14T10:41:05Z</time>
      </trkpt>
      <trkpt lat="47.12695" lon="-1.62879">
        <ele>56</ele>
        <time>2022-03-14T10:41:07Z</time>
      </trkpt>
      <trkpt lat="47.12685" lon="-1.62856">
        <ele>56</ele>
        <time>2022-03-14T10:41:10Z</time>
      </trkpt>
      <trkpt lat="47.12673" lon="-1.62833">
        <ele>56</ele>
        <time>2022-03-14T10:41:13Z</time>
      </trkpt>
      <trkpt lat="47.12664" lon="-1.62817">
        <ele>56</ele>
        <time>2022-03-14T10:41:15Z</time>
      </trkpt>
      <trkpt lat="47.12658" lon="-1.62799">
        <ele>56</ele>
        <time>2022-03-14T10:41:17Z</time>
      </trkpt>
      <trkpt lat="47.12653" lon="-1.6278">
        <ele>55</ele>
        <time>2022-03-14T10:41:19Z</time>
      </trkpt>
      <trkpt lat="47.12645" lon="-1.62763">
        <ele>55</ele>
        <time>2022-03-14T10:41:21Z</time>
      </trkpt>
      <trkpt lat="47.12637" lon="-1.62747">
        <ele>56</ele>
        <time>2022-03-14T10:41:23Z</time>
      </trkpt>
      <trkpt lat="47.12628" lon="-1.62729">
        <ele>55</ele>
        <time>2022-03-14T10:41:25Z</time>
      </trkpt>
      <trkpt lat="47.12619" lon="-1.62712">
        <ele>55</ele>
        <time>2022-03-14T10:41:27Z</time>
      </trkpt>
      <trkpt lat="47.12611" lon="-1.62696">
        <ele>54</ele>
        <time>2022-03-14T10:41:29Z</time>
      </trkpt>
      <trkpt lat="47.12599" lon="-1.6267">
        <ele>54</ele>
        <time>2022-03-14T10:41:32Z</time>
      </trkpt>
      <trkpt lat="47.12587" lon="-1.62645">
        <ele>54</ele>
        <time>2022-03-14T10:41:35Z</time>
      </trkpt>
      <trkpt lat="47.1258" lon="-1.62626">
        <ele>54</ele>
        <time>2022-03-14T10:41:37Z</time>
      </trkpt>
      <trkpt lat="47.12575" lon="-1.62606">
        <ele>53</ele>
        <time>2022-03-14T10:41:39Z</time>
      </trkpt>
      <trkpt lat="47.1257" lon="-1.62587">
        <ele>53</ele>
        <time>2022-03-14T10:41:41Z</time>
      </trkpt>
      <trkpt lat="47.12566" lon="-1.62566">
        <ele>53</ele>
        <time>2022-03-14T10:41:43Z</time>
      </trkpt>
      <trkpt lat="47.12562" lon="-1.62545">
        <ele>53</ele>
        <time>2022-03-14T10:41:45Z</time>
      </trkpt>
      <trkpt lat="47.12559" lon="-1.62525">
        <ele>52</ele>
        <time>2022-03-14T10:41:47Z</time>
      </trkpt>
      <trkpt lat="47.12555" lon="-1.62506">
        <ele>52</ele>
        <time>2022-03-14T10:41:49Z</time>
      </trkpt>
      <trkpt lat="47.1255" lon="-1.62486">
        <ele>52</ele>
        <time>2022-03-14T10:41:51Z</time>
      </trkpt>
      <trkpt lat="47.12546" lon="-1.62466">
        <ele>52</ele>
        <time>2022-03-14T10:41:53Z</time>
      </trkpt>
      <trkpt lat="47.12541" lon="-1.62446">
        <ele>52</ele>
        <time>2022-03-14T10:41:55Z</time>
      </trkpt>
      <trkpt lat="47.12536" lon="-1.62427">
        <ele>52</ele>
        <time>2022-03-14T10:41:57Z</time>
      </trkpt>
      <trkpt lat="47.1253" lon="-1.62408">
        <ele>52</ele>
        <time>2022-03-14T10:41:59Z</time>
      </trkpt>
      <trkpt lat="47.12523" lon="-1.62391">
        <ele>51</ele>
        <time>2022-03-14T10:42:01Z</time>
      </trkpt>
      <trkpt lat="47.12516" lon="-1.62374">
        <ele>51</ele>
        <time>2022-03-14T10:42:03Z</time>
      </trkpt>
      <trkpt lat="47.12509" lon="-1.62359">
        <ele>51</ele>
        <time>2022-03-14T10:42:05Z</time>
      </trkpt>
      <trkpt lat="47.12502" lon="-1.62345">
        <ele>51</ele>
        <time>2022-03-14T10:42:07Z</time>
      </trkpt>
      <trkpt lat="47.12493" lon="-1.6233">
        <ele>52</ele>
        <time>2022-03-14T10:42:09Z</time>
      </trkpt>
      <trkpt lat="47.12485" lon="-1.62315">
        <ele>52</ele>
        <time>2022-03-14T10:42:11Z</time>
      </trkpt>
      <trkpt lat="47.12476" lon="-1.62301">
        <ele>52</ele>
        <time>2022-03-14T10:42:13Z</time>
      </trkpt>
      <trkpt lat="47.12467" lon="-1.62286">
        <ele>52</ele>
        <time>2022-03-14T10:42:15Z</time>
      </trkpt>
      <trkpt lat="47.12458" lon="-1.62272">
        <ele>51</ele>
        <time>2022-03-14T10:42:17Z</time>
      </trkpt>
      <trkpt lat="47.12448" lon="-1.62258">
        <ele>51</ele>
        <time>2022-03-14T10:42:19Z</time>
      </trkpt>
      <trkpt lat="47.12438" lon="-1.62244">
        <ele>51</ele>
        <time>2022-03-14T10:42:21Z</time>
      </trkpt>
      <trkpt lat="47.12429" lon="-1.62229">
        <ele>51</ele>
        <time>2022-03-14T10:42:23Z</time>
      </trkpt>
      <trkpt lat="47.12421" lon="-1.62214">
        <ele>51</ele>
        <time>2022-03-14T10:42:25Z</time>
      </trkpt>
      <trkpt lat="47.12413" lon="-1.62199">
        <ele>51</ele>
        <time>2022-03-14T10:42:27Z</time>
      </trkpt>
      <trkpt lat="47.12405" lon="-1.62184">
        <ele>51</ele>
        <time>2022-03-14T10:42:29Z</time>
      </trkpt>
      <trkpt lat="47.12399" lon="-1.62168">
        <ele>51</ele>
        <time>2022-03-14T10:42:31Z</time>
      </trkpt>
      <trkpt lat="47.12393" lon="-1.62151">
        <ele>51</ele>
        <time>2022-03-14T10:42:33Z</time>
      </trkpt>
      <trkpt lat="47.12388" lon="-1.62134">
        <ele>51</ele>
        <time>2022-03-14T10:42:35Z</time>
      </trkpt>
      <trkpt lat="47.12385" lon="-1.62114">
        <ele>51</ele>
        <time>2022-03-14T10:42:37Z</time>
      </trkpt>
      <trkpt lat="47.12382" lon="-1.62096">
        <ele>51</ele>
        <time>2022-03-14T10:42:39Z</time>
      </trkpt>
      <trkpt lat="47.12381" lon="-1.62077">
        <ele>52</ele>
        <time>2022-03-14T10:42:41Z</time>
      </trkpt>
      <trkpt lat="47.12381" lon="-1.62059">
        <ele>51</ele>
        <time>2022-03-14T10:42:43Z</time>
      </trkpt>
      <trkpt lat="47.12383" lon="-1.62041">
        <ele>51</ele>
        <time>2022-03-14T10:42:45Z</time>
      </trkpt>
      <trkpt lat="47.12386" lon="-1.62023">
        <ele>51</ele>
        <time>2022-03-14T10:42:47Z</time>
      </trkpt>
      <trkpt lat="47.12389" lon="-1.62005">
        <ele>51</ele>
        <time>2022-03-14T10:42:49Z</time>
      </trkpt>
      <trkpt lat="47.12393" lon="-1.61987">
        <ele>51</ele>
        <time>2022-03-14T10:42:51Z</time>
      </trkpt>
      <trkpt lat="47.12397" lon="-1.6197">
        <ele>51</ele>
        <time>2022-03-14T10:42:53Z</time>
      </trkpt>
      <trkpt lat="47.12402" lon="-1.61954">
        <ele>51</ele>
        <time>2022-03-14T10:42:55Z</time>
      </trkpt>
      <trkpt lat="47.12406" lon="-1.61937">
        <ele>51</ele>
        <time>2022-03-14T10:42:57Z</time>
      </trkpt>
      <trkpt lat="47.1241" lon="-1.61921">
        <ele>51</ele>
        <time>2022-03-14T10:42:59Z</time>
      </trkpt>
      <trkpt lat="47.12414" lon="-1.61906">
        <ele>51</ele>
        <time>2022-03-14T10:43:01Z</time>
      </trkpt>
      <trkpt lat="47.12417" lon="-1.6189">
        <ele>52</ele>
        <time>2022-03-14T10:43:03Z</time>
      </trkpt>
      <trkpt lat="47.12422" lon="-1.61874">
        <ele>53</ele>
        <time>2022-03-14T10:43:05Z</time>
      </trkpt>
      <trkpt lat="47.12428" lon="-1.6186">
        <ele>53</ele>
        <time>2022-03-14T10:43:07Z</time>
      </trkpt>
      <trkpt lat="47.12432" lon="-1.61845">
        <ele>52</ele>
        <time>2022-03-14T10:43:09Z</time>
      </trkpt>
      <trkpt lat="47.12436" lon="-1.61827">
        <ele>52</ele>
        <time>2022-03-14T10:43:11Z</time>
      </trkpt>
      <trkpt lat="47.12439" lon="-1.6181">
        <ele>52</ele>
        <time>2022-03-14T10:43:13Z</time>
      </trkpt>
      <trkpt lat="47.12444" lon="-1.61793">
        <ele>52</ele>
        <time>2022-03-14T10:43:15Z</time>
      </trkpt>
      <trkpt lat="47.12448" lon="-1.61777">
        <ele>53</ele>
        <time>2022-03-14T10:43:17Z</time>
      </trkpt>
      <trkpt lat="47.12452" lon="-1.61762">
        <ele>53</ele>
        <time>2022-03-14T10:43:19Z</time>
      </trkpt>
      <trkpt lat="47.12456" lon="-1.61745">
        <ele>53</ele>
        <time>2022-03-14T10:43:21Z</time>
      </trkpt>
      <trkpt lat="47.1246" lon="-1.61728">
        <ele>53</ele>
        <time>2022-03-14T10:43:23Z</time>
      </trkpt>
      <trkpt lat="47.12465" lon="-1.61713">
        <ele>53</ele>
        <time>2022-03-14T10:43:25Z</time>
      </trkpt>
      <trkpt lat="47.12469" lon="-1.61697">
        <ele>53</ele>
        <time>2022-03-14T10:43:27Z</time>
      </trkpt>
      <trkpt lat="47.12472" lon="-1.6168">
        <ele>53</ele>
        <time>2022-03-14T10:43:29Z</time>
      </trkpt>
      <trkpt lat="47.12475" lon="-1.61663">
        <ele>53</ele>
        <time>2022-03-14T10:43:31Z</time>
      </trkpt>
      <trkpt lat="47.12478" lon="-1.61646">
        <ele>53</ele>
        <time>2022-03-14T10:43:33Z</time>
      </trkpt>
      <trkpt lat="47.12479" lon="-1.61629">
        <ele>53</ele>
        <time>2022-03-14T10:43:35Z</time>
      </trkpt>
      <trkpt lat="47.12478" lon="-1.61611">
        <ele>54</ele>
        <time>2022-03-14T10:43:37Z</time>
      </trkpt>
      <trkpt lat="47.12477" lon="-1.61594">
        <ele>54</ele>
        <time>2022-03-14T10:43:39Z</time>
      </trkpt>
      <trkpt lat="47.12475" lon="-1.61577">
        <ele>53</ele>
        <time>2022-03-14T10:43:41Z</time>
      </trkpt>
      <trkpt lat="47.12473" lon="-1.61561">
        <ele>53</ele>
        <time>2022-03-14T10:43:43Z</time>
      </trkpt>
      <trkpt lat="47.12472" lon="-1.61544">
        <ele>53</ele>
        <time>2022-03-14T10:43:45Z</time>
      </trkpt>
      <trkpt lat="47.1247" lon="-1.61526">
        <ele>54</ele>
        <time>2022-03-14T10:43:47Z</time>
      </trkpt>
      <trkpt lat="47.12467" lon="-1.6151">
        <ele>54</ele>
        <time>2022-03-14T10:43:49Z</time>
      </trkpt>
      <trkpt lat="47.12465" lon="-1.61493">
        <ele>54</ele>
        <time>2022-03-14T10:43:51Z</time>
      </trkpt>
      <trkpt lat="47.12464" lon="-1.61476">
        <ele>54</ele>
        <time>2022-03-14T10:43:53Z</time>
      </trkpt>
      <trkpt lat="47.12462" lon="-1.61459">
        <ele>54</ele>
        <time>2022-03-14T10:43:55Z</time>
      </trkpt>
      <trkpt lat="47.1246" lon="-1.61442">
        <ele>54</ele>
        <time>2022-03-14T10:43:57Z</time>
      </trkpt>
      <trkpt lat="47.12458" lon="-1.61425">
        <ele>54</ele>
        <time>2022-03-14T10:43:59Z</time>
      </trkpt>
      <trkpt lat="47.12456" lon="-1.61408">
        <ele>54</ele>
        <time>2022-03-14T10:44:01Z</time>
      </trkpt>
      <trkpt lat="47.12455" lon="-1.61391">
        <ele>54</ele>
        <time>2022-03-14T10:44:03Z</time>
      </trkpt>
      <trkpt lat="47.12455" lon="-1.61374">
        <ele>54</ele>
        <time>2022-03-14T10:44:05Z</time>
      </trkpt>
      <trkpt lat="47.12456" lon="-1.61357">
        <ele>55</ele>
        <time>2022-03-14T10:44:07Z</time>
      </trkpt>
      <trkpt lat="47.12458" lon="-1.6134">
        <ele>55</ele>
        <time>2022-03-14T10:44:09Z</time>
      </trkpt>
      <trkpt lat="47.12462" lon="-1.61324">
        <ele>55</ele>
        <time>2022-03-14T10:44:11Z</time>
      </trkpt>
      <trkpt lat="47.12467" lon="-1.61308">
        <ele>55</ele>
        <time>2022-03-14T10:44:13Z</time>
      </trkpt>
      <trkpt lat="47.12472" lon="-1.61292">
        <ele>55</ele>
        <time>2022-03-14T10:44:15Z</time>
      </trkpt>
      <trkpt lat="47.12478" lon="-1.61276">
        <ele>55</ele>
        <time>2022-03-14T10:44:17Z</time>
      </trkpt>
      <trkpt lat="47.12483" lon="-1.6126">
        <ele>55</ele>
        <time>2022-03-14T10:44:19Z</time>
      </trkpt>
      <trkpt lat="47.12488" lon="-1.61245">
        <ele>56</ele>
        <time>2022-03-14T10:44:21Z</time>
      </trkpt>
      <trkpt lat="47.12492" lon="-1.6123">
        <ele>56</ele>
        <time>2022-03-14T10:44:23Z</time>
      </trkpt>
      <trkpt lat="47.12495" lon="-1.61214">
        <ele>55</ele>
        <time>2022-03-14T10:44:25Z</time>
      </trkpt>
      <trkpt lat="47.12498" lon="-1.61197">
        <ele>56</ele>
        <time>2022-03-14T10:44:27Z</time>
      </trkpt>
      <trkpt lat="47.12501" lon="-1.61181">
        <ele>56</ele>
        <time>2022-03-14T10:44:29Z</time>
      </trkpt>
      <trkpt lat="47.12503" lon="-1.61165">
        <ele>56</ele>
        <time>2022-03-14T10:44:31Z</time>
      </trkpt>
      <trkpt lat="47.12505" lon="-1.61147">
        <ele>55</ele>
        <time>2022-03-14T10:44:33Z</time>
      </trkpt>
      <trkpt lat="47.12506" lon="-1.6113">
        <ele>55</ele>
        <time>2022-03-14T10:44:35Z</time>
      </trkpt>
      <trkpt lat="47.12508" lon="-1.61114">
        <ele>55</ele>
        <time>2022-03-14T10:44:37Z</time>
      </trkpt>
      <trkpt lat="47.1251" lon="-1.61097">
        <ele>55</ele>
        <time>2022-03-14T10:44:39Z</time>
      </trkpt>
      <trkpt lat="47.12511" lon="-1.61081">
        <ele>55</ele>
        <time>2022-03-14T10:44:41Z</time>
      </trkpt>
      <trkpt lat="47.12513" lon="-1.61063">
        <ele>55</ele>
        <time>2022-03-14T10:44:43Z</time>
      </trkpt>
      <trkpt lat="47.12514" lon="-1.61046">
        <ele>55</ele>
        <time>2022-03-14T10:44:45Z</time>
      </trkpt>
      <trkpt lat="47.12516" lon="-1.61028">
        <ele>54</ele>
        <time>2022-03-14T10:44:47Z</time>
      </trkpt>
      <trkpt lat="47.12518" lon="-1.6101">
        <ele>55</ele>
        <time>2022-03-14T10:44:49Z</time>
      </trkpt>
      <trkpt lat="47.1252" lon="-1.60993">
        <ele>55</ele>
        <time>2022-03-14T10:44:51Z</time>
      </trkpt>
      <trkpt lat="47.12521" lon="-1.60975">
        <ele>55</ele>
        <time>2022-03-14T10:44:53Z</time>
      </trkpt>
      <trkpt lat="47.12523" lon="-1.60958">
        <ele>55</ele>
        <time>2022-03-14T10:44:55Z</time>
      </trkpt>
      <trkpt lat="47.12524" lon="-1.60941">
        <ele>55</ele>
        <time>2022-03-14T10:44:57Z</time>
      </trkpt>
      <trkpt lat="47.12526" lon="-1.60924">
        <ele>55</ele>
        <time>2022-03-14T10:44:59Z</time>
      </trkpt>
      <trkpt lat="47.12527" lon="-1.60907">
        <ele>54</ele>
        <time>2022-03-14T10:45:01Z</time>
      </trkpt>
      <trkpt lat="47.12529" lon="-1.6089">
        <ele>54</ele>
        <time>2022-03-14T10:45:03Z</time>
      </trkpt>
      <trkpt lat="47.1253" lon="-1.60873">
        <ele>54</ele>
        <time>2022-03-14T10:45:05Z</time>
      </trkpt>
      <trkpt lat="47.12531" lon="-1.60856">
        <ele>55</ele>
        <time>2022-03-14T10:45:07Z</time>
      </trkpt>
      <trkpt lat="47.12533" lon="-1.60838">
        <ele>55</ele>
        <time>2022-03-14T10:45:09Z</time>
      </trkpt>
      <trkpt lat="47.12534" lon="-1.60821">
        <ele>55</ele>
        <time>2022-03-14T10:45:11Z</time>
      </trkpt>
      <trkpt lat="47.12537" lon="-1.60804">
        <ele>55</ele>
        <time>2022-03-14T10:45:13Z</time>
      </trkpt>
      <trkpt lat="47.12538" lon="-1.60786">
        <ele>55</ele>
        <time>2022-03-14T10:45:15Z</time>
      </trkpt>
      <trkpt lat="47.1254" lon="-1.60768">
        <ele>54</ele>
        <time>2022-03-14T10:45:17Z</time>
      </trkpt>
      <trkpt lat="47.12541" lon="-1.60749">
        <ele>54</ele>
        <time>2022-03-14T10:45:19Z</time>
      </trkpt>
      <trkpt lat="47.12542" lon="-1.60732">
        <ele>54</ele>
        <time>2022-03-14T10:45:21Z</time>
      </trkpt>
      <trkpt lat="47.12542" lon="-1.60713">
        <ele>54</ele>
        <time>2022-03-14T10:45:23Z</time>
      </trkpt>
      <trkpt lat="47.12542" lon="-1.60695">
        <ele>54</ele>
        <time>2022-03-14T10:45:25Z</time>
      </trkpt>
      <trkpt lat="47.12542" lon="-1.60677">
        <ele>54</ele>
        <time>2022-03-14T10:45:27Z</time>
      </trkpt>
      <trkpt lat="47.12542" lon="-1.60658">
        <ele>54</ele>
        <time>2022-03-14T10:45:29Z</time>
      </trkpt>
      <trkpt lat="47.12541" lon="-1.6064">
        <ele>54</ele>
        <time>2022-03-14T10:45:31Z</time>
      </trkpt>
      <trkpt lat="47.12542" lon="-1.60621">
        <ele>54</ele>
        <time>2022-03-14T10:45:33Z</time>
      </trkpt>
      <trkpt lat="47.12541" lon="-1.60603">
        <ele>53</ele>
        <time>2022-03-14T10:45:35Z</time>
      </trkpt>
      <trkpt lat="47.12541" lon="-1.60585">
        <ele>53</ele>
        <time>2022-03-14T10:45:37Z</time>
      </trkpt>
      <trkpt lat="47.1254" lon="-1.60566">
        <ele>53</ele>
        <time>2022-03-14T10:45:39Z</time>
      </trkpt>
      <trkpt lat="47.12539" lon="-1.60547">
        <ele>53</ele>
        <time>2022-03-14T10:45:41Z</time>
      </trkpt>
      <trkpt lat="47.12538" lon="-1.60529">
        <ele>53</ele>
        <time>2022-03-14T10:45:43Z</time>
      </trkpt>
      <trkpt lat="47.12536" lon="-1.6051">
        <ele>53</ele>
        <time>2022-03-14T10:45:45Z</time>
      </trkpt>
      <trkpt lat="47.12534" lon="-1.60491">
        <ele>53</ele>
        <time>2022-03-14T10:45:47Z</time>
      </trkpt>
      <trkpt lat="47.12532" lon="-1.60473">
        <ele>53</ele>
        <time>2022-03-14T10:45:49Z</time>
      </trkpt>
      <trkpt lat="47.12529" lon="-1.60454">
        <ele>53</ele>
        <time>2022-03-14T10:45:51Z</time>
      </trkpt>
      <trkpt lat="47.12526" lon="-1.60435">
        <ele>53</ele>
        <time>2022-03-14T10:45:53Z</time>
      </trkpt>
      <trkpt lat="47.12522" lon="-1.60417">
        <ele>52</ele>
        <time>2022-03-14T10:45:55Z</time>
      </trkpt>
      <trkpt lat="47.12518" lon="-1.60397">
        <ele>52</ele>
        <time>2022-03-14T10:45:57Z</time>
      </trkpt>
      <trkpt lat="47.12514" lon="-1.60378">
        <ele>52</ele>
        <time>2022-03-14T10:45:59Z</time>
      </trkpt>
      <trkpt lat="47.12511" lon="-1.60359">
        <ele>52</ele>
        <time>2022-03-14T10:46:01Z</time>
      </trkpt>
      <trkpt lat="47.12507" lon="-1.6034">
        <ele>51</ele>
        <time>2022-03-14T10:46:03Z</time>
      </trkpt>
      <trkpt lat="47.12503" lon="-1.6032">
        <ele>50</ele>
        <time>2022-03-14T10:46:05Z</time>
      </trkpt>
      <trkpt lat="47.12499" lon="-1.60301">
        <ele>51</ele>
        <time>2022-03-14T10:46:07Z</time>
      </trkpt>
      <trkpt lat="47.12495" lon="-1.60281">
        <ele>50</ele>
        <time>2022-03-14T10:46:09Z</time>
      </trkpt>
      <trkpt lat="47.12491" lon="-1.60262">
        <ele>50</ele>
        <time>2022-03-14T10:46:11Z</time>
      </trkpt>
      <trkpt lat="47.12488" lon="-1.60243">
        <ele>50</ele>
        <time>2022-03-14T10:46:13Z</time>
      </trkpt>
      <trkpt lat="47.12485" lon="-1.60224">
        <ele>50</ele>
        <time>2022-03-14T10:46:15Z</time>
      </trkpt>
      <trkpt lat="47.12483" lon="-1.60205">
        <ele>50</ele>
        <time>2022-03-14T10:46:17Z</time>
      </trkpt>
      <trkpt lat="47.1248" lon="-1.60188">
        <ele>50</ele>
        <time>2022-03-14T10:46:19Z</time>
      </trkpt>
      <trkpt lat="47.12478" lon="-1.6017">
        <ele>50</ele>
        <time>2022-03-14T10:46:21Z</time>
      </trkpt>
      <trkpt lat="47.12477" lon="-1.6015">
        <ele>50</ele>
        <time>2022-03-14T10:46:23Z</time>
      </trkpt>
      <trkpt lat="47.12476" lon="-1.60131">
        <ele>50</ele>
        <time>2022-03-14T10:46:25Z</time>
      </trkpt>
      <trkpt lat="47.12476" lon="-1.60113">
        <ele>51</ele>
        <time>2022-03-14T10:46:27Z</time>
      </trkpt>
      <trkpt lat="47.12474" lon="-1.60095">
        <ele>51</ele>
        <time>2022-03-14T10:46:29Z</time>
      </trkpt>
      <trkpt lat="47.12473" lon="-1.60076">
        <ele>51</ele>
        <time>2022-03-14T10:46:31Z</time>
      </trkpt>
      <trkpt lat="47.12473" lon="-1.60056">
        <ele>51</ele>
        <time>2022-03-14T10:46:33Z</time>
      </trkpt>
      <trkpt lat="47.12472" lon="-1.60038">
        <ele>51</ele>
        <time>2022-03-14T10:46:35Z</time>
      </trkpt>
      <trkpt lat="47.12471" lon="-1.60019">
        <ele>51</ele>
        <time>2022-03-14T10:46:37Z</time>
      </trkpt>
      <trkpt lat="47.12471" lon="-1.59999">
        <ele>51</ele>
        <time>2022-03-14T10:46:39Z</time>
      </trkpt>
      <trkpt lat="47.1247" lon="-1.59981">
        <ele>51</ele>
        <time>2022-03-14T10:46:41Z</time>
      </trkpt>
      <trkpt lat="47.1247" lon="-1.59962">
        <ele>51</ele>
        <time>2022-03-14T10:46:43Z</time>
      </trkpt>
      <trkpt lat="47.12468" lon="-1.59944">
        <ele>52</ele>
        <time>2022-03-14T10:46:45Z</time>
      </trkpt>
      <trkpt lat="47.12467" lon="-1.59926">
        <ele>52</ele>
        <time>2022-03-14T10:46:47Z</time>
      </trkpt>
      <trkpt lat="47.12466" lon="-1.59908">
        <ele>52</ele>
        <time>2022-03-14T10:46:49Z</time>
      </trkpt>
      <trkpt lat="47.12465" lon="-1.59891">
        <ele>53</ele>
        <time>2022-03-14T10:46:51Z</time>
      </trkpt>
      <trkpt lat="47.12465" lon="-1.59874">
        <ele>53</ele>
        <time>2022-03-14T10:46:53Z</time>
      </trkpt>
      <trkpt lat="47.12465" lon="-1.59858">
        <ele>53</ele>
        <time>2022-03-14T10:46:55Z</time>
      </trkpt>
      <trkpt lat="47.12464" lon="-1.59841">
        <ele>52</ele>
        <time>2022-03-14T10:46:57Z</time>
      </trkpt>
      <trkpt lat="47.12463" lon="-1.59823">
        <ele>52</ele>
        <time>2022-03-14T10:46:59Z</time>
      </trkpt>
      <trkpt lat="47.12462" lon="-1.59803">
        <ele>53</ele>
        <time>2022-03-14T10:47:01Z</time>
      </trkpt>
      <trkpt lat="47.12461" lon="-1.59785">
        <ele>52</ele>
        <time>2022-03-14T10:47:03Z</time>
      </trkpt>
      <trkpt lat="47.1246" lon="-1.59767">
        <ele>52</ele>
        <time>2022-03-14T10:47:05Z</time>
      </trkpt>
      <trkpt lat="47.12459" lon="-1.59749">
        <ele>52</ele>
        <time>2022-03-14T10:47:07Z</time>
      </trkpt>
      <trkpt lat="47.12457" lon="-1.59731">
        <ele>52</ele>
        <time>2022-03-14T10:47:09Z</time>
      </trkpt>
      <trkpt lat="47.12456" lon="-1.59712">
        <ele>52</ele>
        <time>2022-03-14T10:47:11Z</time>
      </trkpt>
      <trkpt lat="47.12456" lon="-1.59695">
        <ele>52</ele>
        <time>2022-03-14T10:47:13Z</time>
      </trkpt>
      <trkpt lat="47.12455" lon="-1.59677">
        <ele>52</ele>
        <time>2022-03-14T10:47:15Z</time>
      </trkpt>
      <trkpt lat="47.12455" lon="-1.59658">
        <ele>52</ele>
        <time>2022-03-14T10:47:17Z</time>
      </trkpt>
      <trkpt lat="47.12454" lon="-1.59641">
        <ele>52</ele>
        <time>2022-03-14T10:47:19Z</time>
      </trkpt>
      <trkpt lat="47.12453" lon="-1.59623">
        <ele>52</ele>
        <time>2022-03-14T10:47:21Z</time>
      </trkpt>
      <trkpt lat="47.12452" lon="-1.59605">
        <ele>52</ele>
        <time>2022-03-14T10:47:23Z</time>
      </trkpt>
      <trkpt lat="47.12451" lon="-1.59588">
        <ele>52</ele>
        <time>2022-03-14T10:47:25Z</time>
      </trkpt>
      <trkpt lat="47.1245" lon="-1.5957">
        <ele>52</ele>
        <time>2022-03-14T10:47:27Z</time>
      </trkpt>
      <trkpt lat="47.12449" lon="-1.59553">
        <ele>52</ele>
        <time>2022-03-14T10:47:29Z</time>
      </trkpt>
      <trkpt lat="47.12448" lon="-1.59535">
        <ele>52</ele>
        <time>2022-03-14T10:47:31Z</time>
      </trkpt>
      <trkpt lat="47.12447" lon="-1.59517">
        <ele>52</ele>
        <time>2022-03-14T10:47:33Z</time>
      </trkpt>
      <trkpt lat="47.12447" lon="-1.59499">
        <ele>52</ele>
        <time>2022-03-14T10:47:35Z</time>
      </trkpt>
      <trkpt lat="47.12446" lon="-1.59481">
        <ele>52</ele>
        <time>2022-03-14T10:47:37Z</time>
      </trkpt>
      <trkpt lat="47.12445" lon="-1.59463">
        <ele>52</ele>
        <time>2022-03-14T10:47:39Z</time>
      </trkpt>
      <trkpt lat="47.12443" lon="-1.59444">
        <ele>52</ele>
        <time>2022-03-14T10:47:41Z</time>
      </trkpt>
      <trkpt lat="47.12443" lon="-1.59426">
        <ele>52</ele>
        <time>2022-03-14T10:47:43Z</time>
      </trkpt>
      <trkpt lat="47.12442" lon="-1.59407">
        <ele>52</ele>
        <time>2022-03-14T10:47:45Z</time>
      </trkpt>
      <trkpt lat="47.12441" lon="-1.59388">
        <ele>51</ele>
        <time>2022-03-14T10:47:47Z</time>
      </trkpt>
      <trkpt lat="47.1244" lon="-1.59369">
        <ele>51</ele>
        <time>2022-03-14T10:47:49Z</time>
      </trkpt>
      <trkpt lat="47.12439" lon="-1.59351">
        <ele>51</ele>
        <time>2022-03-14T10:47:51Z</time>
      </trkpt>
      <trkpt lat="47.12438" lon="-1.59332">
        <ele>51</ele>
        <time>2022-03-14T10:47:53Z</time>
      </trkpt>
      <trkpt lat="47.12437" lon="-1.59313">
        <ele>51</ele>
        <time>2022-03-14T10:47:55Z</time>
      </trkpt>
      <trkpt lat="47.12436" lon="-1.59295">
        <ele>52</ele>
        <time>2022-03-14T10:47:57Z</time>
      </trkpt>
      <trkpt lat="47.12435" lon="-1.59278">
        <ele>52</ele>
        <time>2022-03-14T10:47:59Z</time>
      </trkpt>
      <trkpt lat="47.12434" lon="-1.5926">
        <ele>52</ele>
        <time>2022-03-14T10:48:01Z</time>
      </trkpt>
      <trkpt lat="47.12433" lon="-1.59242">
        <ele>51</ele>
        <time>2022-03-14T10:48:03Z</time>
      </trkpt>
      <trkpt lat="47.12431" lon="-1.59225">
        <ele>51</ele>
        <time>2022-03-14T10:48:05Z</time>
      </trkpt>
      <trkpt lat="47.12427" lon="-1.59208">
        <ele>51</ele>
        <time>2022-03-14T10:48:07Z</time>
      </trkpt>
      <trkpt lat="47.12425" lon="-1.59189">
        <ele>51</ele>
        <time>2022-03-14T10:48:09Z</time>
      </trkpt>
      <trkpt lat="47.12427" lon="-1.59171">
        <ele>51</ele>
        <time>2022-03-14T10:48:11Z</time>
      </trkpt>
      <trkpt lat="47.12428" lon="-1.59152">
        <ele>51</ele>
        <time>2022-03-14T10:48:13Z</time>
      </trkpt>
      <trkpt lat="47.12429" lon="-1.59133">
        <ele>51</ele>
        <time>2022-03-14T10:48:15Z</time>
      </trkpt>
      <trkpt lat="47.12429" lon="-1.59114">
        <ele>51</ele>
        <time>2022-03-14T10:48:17Z</time>
      </trkpt>
      <trkpt lat="47.12428" lon="-1.59095">
        <ele>51</ele>
        <time>2022-03-14T10:48:19Z</time>
      </trkpt>
      <trkpt lat="47.12427" lon="-1.59076">
        <ele>51</ele>
        <time>2022-03-14T10:48:21Z</time>
      </trkpt>
      <trkpt lat="47.12427" lon="-1.59058">
        <ele>51</ele>
        <time>2022-03-14T10:48:23Z</time>
      </trkpt>
      <trkpt lat="47.12426" lon="-1.5904">
        <ele>51</ele>
        <time>2022-03-14T10:48:25Z</time>
      </trkpt>
      <trkpt lat="47.12426" lon="-1.59022">
        <ele>51</ele>
        <time>2022-03-14T10:48:27Z</time>
      </trkpt>
      <trkpt lat="47.12424" lon="-1.59005">
        <ele>51</ele>
        <time>2022-03-14T10:48:29Z</time>
      </trkpt>
      <trkpt lat="47.12424" lon="-1.58988">
        <ele>51</ele>
        <time>2022-03-14T10:48:31Z</time>
      </trkpt>
      <trkpt lat="47.12423" lon="-1.58971">
        <ele>51</ele>
        <time>2022-03-14T10:48:33Z</time>
      </trkpt>
      <trkpt lat="47.12422" lon="-1.58955">
        <ele>51</ele>
        <time>2022-03-14T10:48:35Z</time>
      </trkpt>
      <trkpt lat="47.12421" lon="-1.58938">
        <ele>52</ele>
        <time>2022-03-14T10:48:37Z</time>
      </trkpt>
      <trkpt lat="47.12419" lon="-1.58921">
        <ele>52</ele>
        <time>2022-03-14T10:48:39Z</time>
      </trkpt>
      <trkpt lat="47.12418" lon="-1.58904">
        <ele>53</ele>
        <time>2022-03-14T10:48:41Z</time>
      </trkpt>
      <trkpt lat="47.12417" lon="-1.58887">
        <ele>53</ele>
        <time>2022-03-14T10:48:43Z</time>
      </trkpt>
      <trkpt lat="47.12415" lon="-1.58871">
        <ele>53</ele>
        <time>2022-03-14T10:48:45Z</time>
      </trkpt>
      <trkpt lat="47.12413" lon="-1.58854">
        <ele>53</ele>
        <time>2022-03-14T10:48:47Z</time>
      </trkpt>
      <trkpt lat="47.12412" lon="-1.58838">
        <ele>53</ele>
        <time>2022-03-14T10:48:49Z</time>
      </trkpt>
      <trkpt lat="47.1241" lon="-1.58822">
        <ele>53</ele>
        <time>2022-03-14T10:48:51Z</time>
      </trkpt>
      <trkpt lat="47.12407" lon="-1.58805">
        <ele>53</ele>
        <time>2022-03-14T10:48:53Z</time>
      </trkpt>
      <trkpt lat="47.12405" lon="-1.58789">
        <ele>53</ele>
        <time>2022-03-14T10:48:55Z</time>
      </trkpt>
      <trkpt lat="47.12402" lon="-1.58773">
        <ele>52</ele>
        <time>2022-03-14T10:48:57Z</time>
      </trkpt>
      <trkpt lat="47.12399" lon="-1.58757">
        <ele>52</ele>
        <time>2022-03-14T10:48:59Z</time>
      </trkpt>
      <trkpt lat="47.12395" lon="-1.5874">
        <ele>52</ele>
        <time>2022-03-14T10:49:01Z</time>
      </trkpt>
      <trkpt lat="47.12392" lon="-1.58724">
        <ele>52</ele>
        <time>2022-03-14T10:49:03Z</time>
      </trkpt>
      <trkpt lat="47.12388" lon="-1.58707">
        <ele>52</ele>
        <time>2022-03-14T10:49:05Z</time>
      </trkpt>
      <trkpt lat="47.12384" lon="-1.5869">
        <ele>52</ele>
        <time>2022-03-14T10:49:07Z</time>
      </trkpt>
      <trkpt lat="47.1238" lon="-1.58672">
        <ele>53</ele>
        <time>2022-03-14T10:49:09Z</time>
      </trkpt>
      <trkpt lat="47.12376" lon="-1.58655">
        <ele>52</ele>
        <time>2022-03-14T10:49:11Z</time>
      </trkpt>
      <trkpt lat="47.12373" lon="-1.58638">
        <ele>52</ele>
        <time>2022-03-14T10:49:13Z</time>
      </trkpt>
      <trkpt lat="47.12369" lon="-1.5862">
        <ele>52</ele>
        <time>2022-03-14T10:49:15Z</time>
      </trkpt>
      <trkpt lat="47.12365" lon="-1.58602">
        <ele>51</ele>
        <time>2022-03-14T10:49:17Z</time>
      </trkpt>
      <trkpt lat="47.12361" lon="-1.58584">
        <ele>51</ele>
        <time>2022-03-14T10:49:19Z</time>
      </trkpt>
      <trkpt lat="47.12357" lon="-1.58566">
        <ele>50</ele>
        <time>2022-03-14T10:49:21Z</time>
      </trkpt>
      <trkpt lat="47.12352" lon="-1.58548">
        <ele>50</ele>
        <time>2022-03-14T10:49:23Z</time>
      </trkpt>
      <trkpt lat="47.12348" lon="-1.5853">
        <ele>50</ele>
        <time>2022-03-14T10:49:25Z</time>
      </trkpt>
      <trkpt lat="47.12343" lon="-1.58512">
        <ele>50</ele>
        <time>2022-03-14T10:49:27Z</time>
      </trkpt>
      <trkpt lat="47.12339" lon="-1.58495">
        <ele>50</ele>
        <time>2022-03-14T10:49:29Z</time>
      </trkpt>
      <trkpt lat="47.12335" lon="-1.58477">
        <ele>50</ele>
        <time>2022-03-14T10:49:31Z</time>
      </trkpt>
      <trkpt lat="47.12331" lon="-1.58461">
        <ele>51</ele>
        <time>2022-03-14T10:49:33Z</time>
      </trkpt>
      <trkpt lat="47.12325" lon="-1.58446">
        <ele>51</ele>
        <time>2022-03-14T10:49:35Z</time>
      </trkpt>
      <trkpt lat="47.12319" lon="-1.58433">
        <ele>52</ele>
        <time>2022-03-14T10:49:37Z</time>
      </trkpt>
      <trkpt lat="47.12312" lon="-1.58419">
        <ele>52</ele>
        <time>2022-03-14T10:49:39Z</time>
      </trkpt>
      <trkpt lat="47.12306" lon="-1.58405">
        <ele>53</ele>
        <time>2022-03-14T10:49:41Z</time>
      </trkpt>
      <trkpt lat="47.123" lon="-1.58388">
        <ele>52</ele>
        <time>2022-03-14T10:49:43Z</time>
      </trkpt>
      <trkpt lat="47.12298" lon="-1.58368">
        <ele>52</ele>
        <time>2022-03-14T10:49:45Z</time>
      </trkpt>
      <trkpt lat="47.12298" lon="-1.58348">
        <ele>52</ele>
        <time>2022-03-14T10:49:47Z</time>
      </trkpt>
      <trkpt lat="47.12291" lon="-1.58335">
        <ele>52</ele>
        <time>2022-03-14T10:49:49Z</time>
      </trkpt>
      <trkpt lat="47.12282" lon="-1.58322">
        <ele>52</ele>
        <time>2022-03-14T10:49:51Z</time>
      </trkpt>
      <trkpt lat="47.12267" lon="-1.58315">
        <ele>52</ele>
        <time>2022-03-14T10:49:53Z</time>
      </trkpt>
      <trkpt lat="47.12254" lon="-1.58304">
        <ele>52</ele>
        <time>2022-03-14T10:49:55Z</time>
      </trkpt>
      <trkpt lat="47.12242" lon="-1.58293">
        <ele>52</ele>
        <time>2022-03-14T10:49:57Z</time>
      </trkpt>
      <trkpt lat="47.1223" lon="-1.58284">
        <ele>52</ele>
        <time>2022-03-14T10:49:59Z</time>
      </trkpt>
      <trkpt lat="47.12221" lon="-1.58275">
        <ele>52</ele>
        <time>2022-03-14T10:50:01Z</time>
      </trkpt>
      <trkpt lat="47.1221" lon="-1.58265">
        <ele>52</ele>
        <time>2022-03-14T10:50:04Z</time>
      </trkpt>
      <trkpt lat="47.12202" lon="-1.58256">
        <ele>52</ele>
        <time>2022-03-14T10:50:09Z</time>
      </trkpt>
      <trkpt lat="47.12193" lon="-1.58247">
        <ele>54</ele>
        <time>2022-03-14T10:50:12Z</time>
      </trkpt>
      <trkpt lat="47.12185" lon="-1.58238">
        <ele>54</ele>
        <time>2022-03-14T10:50:14Z</time>
      </trkpt>
      <trkpt lat="47.12176" lon="-1.58228">
        <ele>55</ele>
        <time>2022-03-14T10:50:16Z</time>
      </trkpt>
      <trkpt lat="47.12167" lon="-1.58218">
        <ele>56</ele>
        <time>2022-03-14T10:50:18Z</time>
      </trkpt>
      <trkpt lat="47.12157" lon="-1.58209">
        <ele>56</ele>
        <time>2022-03-14T10:50:20Z</time>
      </trkpt>
      <trkpt lat="47.12147" lon="-1.58199">
        <ele>57</ele>
        <time>2022-03-14T10:50:22Z</time>
      </trkpt>
      <trkpt lat="47.12136" lon="-1.58191">
        <ele>57</ele>
        <time>2022-03-14T10:50:24Z</time>
      </trkpt>
      <trkpt lat="47.12127" lon="-1.58182">
        <ele>57</ele>
        <time>2022-03-14T10:50:26Z</time>
      </trkpt>
      <trkpt lat="47.12119" lon="-1.58173">
        <ele>57</ele>
        <time>2022-03-14T10:50:28Z</time>
      </trkpt>
      <trkpt lat="47.12109" lon="-1.58167">
        <ele>58</ele>
        <time>2022-03-14T10:50:30Z</time>
      </trkpt>
      <trkpt lat="47.12099" lon="-1.58161">
        <ele>58</ele>
        <time>2022-03-14T10:50:32Z</time>
      </trkpt>
      <trkpt lat="47.12089" lon="-1.58154">
        <ele>58</ele>
        <time>2022-03-14T10:50:34Z</time>
      </trkpt>
      <trkpt lat="47.12079" lon="-1.58149">
        <ele>59</ele>
        <time>2022-03-14T10:50:36Z</time>
      </trkpt>
      <trkpt lat="47.12068" lon="-1.58142">
        <ele>58</ele>
        <time>2022-03-14T10:50:38Z</time>
      </trkpt>
      <trkpt lat="47.12059" lon="-1.58137">
        <ele>58</ele>
        <time>2022-03-14T10:50:40Z</time>
      </trkpt>
      <trkpt lat="47.12049" lon="-1.5813">
        <ele>59</ele>
        <time>2022-03-14T10:50:42Z</time>
      </trkpt>
      <trkpt lat="47.12038" lon="-1.58123">
        <ele>59</ele>
        <time>2022-03-14T10:50:44Z</time>
      </trkpt>
      <trkpt lat="47.12028" lon="-1.58116">
        <ele>59</ele>
        <time>2022-03-14T10:50:46Z</time>
      </trkpt>
      <trkpt lat="47.12019" lon="-1.58107">
        <ele>59</ele>
        <time>2022-03-14T10:50:48Z</time>
      </trkpt>
      <trkpt lat="47.12013" lon="-1.58094">
        <ele>59</ele>
        <time>2022-03-14T10:50:50Z</time>
      </trkpt>
      <trkpt lat="47.12013" lon="-1.58077">
        <ele>59</ele>
        <time>2022-03-14T10:50:52Z</time>
      </trkpt>
      <trkpt lat="47.12012" lon="-1.5806">
        <ele>59</ele>
        <time>2022-03-14T10:50:54Z</time>
      </trkpt>
      <trkpt lat="47.12011" lon="-1.58044">
        <ele>59</ele>
        <time>2022-03-14T10:50:56Z</time>
      </trkpt>
      <trkpt lat="47.12009" lon="-1.58029">
        <ele>60</ele>
        <time>2022-03-14T10:50:58Z</time>
      </trkpt>
      <trkpt lat="47.12005" lon="-1.58013">
        <ele>60</ele>
        <time>2022-03-14T10:51:00Z</time>
      </trkpt>
      <trkpt lat="47.12001" lon="-1.58">
        <ele>60</ele>
        <time>2022-03-14T10:51:02Z</time>
      </trkpt>
      <trkpt lat="47.11997" lon="-1.57985">
        <ele>59</ele>
        <time>2022-03-14T10:51:04Z</time>
      </trkpt>
      <trkpt lat="47.11993" lon="-1.5797">
        <ele>60</ele>
        <time>2022-03-14T10:51:06Z</time>
      </trkpt>
      <trkpt lat="47.11988" lon="-1.57954">
        <ele>60</ele>
        <time>2022-03-14T10:51:08Z</time>
      </trkpt>
      <trkpt lat="47.11985" lon="-1.57938">
        <ele>60</ele>
        <time>2022-03-14T10:51:10Z</time>
      </trkpt>
      <trkpt lat="47.1198" lon="-1.57923">
        <ele>59</ele>
        <time>2022-03-14T10:51:12Z</time>
      </trkpt>
      <trkpt lat="47.11976" lon="-1.57908">
        <ele>59</ele>
        <time>2022-03-14T10:51:14Z</time>
      </trkpt>
      <trkpt lat="47.11972" lon="-1.57892">
        <ele>59</ele>
        <time>2022-03-14T10:51:16Z</time>
      </trkpt>
      <trkpt lat="47.11968" lon="-1.57876">
        <ele>58</ele>
        <time>2022-03-14T10:51:18Z</time>
      </trkpt>
      <trkpt lat="47.11964" lon="-1.57861">
        <ele>58</ele>
        <time>2022-03-14T10:51:20Z</time>
      </trkpt>
      <trkpt lat="47.11959" lon="-1.57845">
        <ele>57</ele>
        <time>2022-03-14T10:51:22Z</time>
      </trkpt>
      <trkpt lat="47.11953" lon="-1.57831">
        <ele>57</ele>
        <time>2022-03-14T10:51:24Z</time>
      </trkpt>
      <trkpt lat="47.11948" lon="-1.57817">
        <ele>57</ele>
        <time>2022-03-14T10:51:26Z</time>
      </trkpt>
      <trkpt lat="47.11942" lon="-1.57804">
        <ele>57</ele>
        <time>2022-03-14T10:51:28Z</time>
      </trkpt>
      <trkpt lat="47.11935" lon="-1.57789">
        <ele>57</ele>
        <time>2022-03-14T10:51:30Z</time>
      </trkpt>
      <trkpt lat="47.11929" lon="-1.57776">
        <ele>57</ele>
        <time>2022-03-14T10:51:32Z</time>
      </trkpt>
      <trkpt lat="47.11922" lon="-1.57763">
        <ele>57</ele>
        <time>2022-03-14T10:51:34Z</time>
      </trkpt>
      <trkpt lat="47.11915" lon="-1.57749">
        <ele>57</ele>
        <time>2022-03-14T10:51:36Z</time>
      </trkpt>
      <trkpt lat="47.11909" lon="-1.57736">
        <ele>58</ele>
        <time>2022-03-14T10:51:38Z</time>
      </trkpt>
      <trkpt lat="47.11903" lon="-1.57723">
        <ele>57</ele>
        <time>2022-03-14T10:51:40Z</time>
      </trkpt>
      <trkpt lat="47.11896" lon="-1.57709">
        <ele>58</ele>
        <time>2022-03-14T10:51:42Z</time>
      </trkpt>
      <trkpt lat="47.1189" lon="-1.57696">
        <ele>58</ele>
        <time>2022-03-14T10:51:44Z</time>
      </trkpt>
      <trkpt lat="47.11884" lon="-1.57684">
        <ele>58</ele>
        <time>2022-03-14T10:51:46Z</time>
      </trkpt>
      <trkpt lat="47.11878" lon="-1.57671">
        <ele>58</ele>
        <time>2022-03-14T10:51:48Z</time>
      </trkpt>
      <trkpt lat="47.11873" lon="-1.57659">
        <ele>58</ele>
        <time>2022-03-14T10:51:50Z</time>
      </trkpt>
      <trkpt lat="47.11868" lon="-1.57643">
        <ele>59</ele>
        <time>2022-03-14T10:51:52Z</time>
      </trkpt>
      <trkpt lat="47.11867" lon="-1.57626">
        <ele>59</ele>
        <time>2022-03-14T10:51:54Z</time>
      </trkpt>
      <trkpt lat="47.11867" lon="-1.57611">
        <ele>60</ele>
        <time>2022-03-14T10:51:56Z</time>
      </trkpt>
      <trkpt lat="47.11868" lon="-1.57595">
        <ele>60</ele>
        <time>2022-03-14T10:51:58Z</time>
      </trkpt>
      <trkpt lat="47.11869" lon="-1.57577">
        <ele>60</ele>
        <time>2022-03-14T10:52:00Z</time>
      </trkpt>
      <trkpt lat="47.1187" lon="-1.57558">
        <ele>60</ele>
        <time>2022-03-14T10:52:02Z</time>
      </trkpt>
      <trkpt lat="47.11872" lon="-1.57538">
        <ele>60</ele>
        <time>2022-03-14T10:52:04Z</time>
      </trkpt>
      <trkpt lat="47.11874" lon="-1.57517">
        <ele>59</ele>
        <time>2022-03-14T10:52:06Z</time>
      </trkpt>
      <trkpt lat="47.11875" lon="-1.57497">
        <ele>57</ele>
        <time>2022-03-14T10:52:08Z</time>
      </trkpt>
      <trkpt lat="47.11877" lon="-1.57479">
        <ele>57</ele>
        <time>2022-03-14T10:52:10Z</time>
      </trkpt>
      <trkpt lat="47.11879" lon="-1.57462">
        <ele>58</ele>
        <time>2022-03-14T10:52:12Z</time>
      </trkpt>
      <trkpt lat="47.11882" lon="-1.57445">
        <ele>57</ele>
        <time>2022-03-14T10:52:14Z</time>
      </trkpt>
      <trkpt lat="47.11888" lon="-1.57429">
        <ele>57</ele>
        <time>2022-03-14T10:52:16Z</time>
      </trkpt>
      <trkpt lat="47.11895" lon="-1.57413">
        <ele>57</ele>
        <time>2022-03-14T10:52:18Z</time>
      </trkpt>
      <trkpt lat="47.11902" lon="-1.57398">
        <ele>56</ele>
        <time>2022-03-14T10:52:20Z</time>
      </trkpt>
      <trkpt lat="47.11909" lon="-1.57385">
        <ele>56</ele>
        <time>2022-03-14T10:52:22Z</time>
      </trkpt>
      <trkpt lat="47.11917" lon="-1.57372">
        <ele>56</ele>
        <time>2022-03-14T10:52:24Z</time>
      </trkpt>
      <trkpt lat="47.11924" lon="-1.57358">
        <ele>56</ele>
        <time>2022-03-14T10:52:26Z</time>
      </trkpt>
      <trkpt lat="47.11931" lon="-1.57344">
        <ele>56</ele>
        <time>2022-03-14T10:52:28Z</time>
      </trkpt>
      <trkpt lat="47.11938" lon="-1.5733">
        <ele>55</ele>
        <time>2022-03-14T10:52:30Z</time>
      </trkpt>
      <trkpt lat="47.11945" lon="-1.57315">
        <ele>55</ele>
        <time>2022-03-14T10:52:32Z</time>
      </trkpt>
      <trkpt lat="47.11951" lon="-1.573">
        <ele>55</ele>
        <time>2022-03-14T10:52:34Z</time>
      </trkpt>
      <trkpt lat="47.11958" lon="-1.57285">
        <ele>55</ele>
        <time>2022-03-14T10:52:36Z</time>
      </trkpt>
      <trkpt lat="47.11965" lon="-1.57269">
        <ele>55</ele>
        <time>2022-03-14T10:52:38Z</time>
      </trkpt>
      <trkpt lat="47.11971" lon="-1.57253">
        <ele>54</ele>
        <time>2022-03-14T10:52:40Z</time>
      </trkpt>
      <trkpt lat="47.11978" lon="-1.57236">
        <ele>54</ele>
        <time>2022-03-14T10:52:42Z</time>
      </trkpt>
      <trkpt lat="47.11985" lon="-1.5722">
        <ele>53</ele>
        <time>2022-03-14T10:52:44Z</time>
      </trkpt>
      <trkpt lat="47.11992" lon="-1.57202">
        <ele>53</ele>
        <time>2022-03-14T10:52:46Z</time>
      </trkpt>
      <trkpt lat="47.12" lon="-1.57185">
        <ele>52</ele>
        <time>2022-03-14T10:52:48Z</time>
      </trkpt>
      <trkpt lat="47.12007" lon="-1.57168">
        <ele>52</ele>
        <time>2022-03-14T10:52:50Z</time>
      </trkpt>
      <trkpt lat="47.12015" lon="-1.57151">
        <ele>52</ele>
        <time>2022-03-14T10:52:52Z</time>
      </trkpt>
      <trkpt lat="47.12022" lon="-1.57135">
        <ele>51</ele>
        <time>2022-03-14T10:52:54Z</time>
      </trkpt>
      <trkpt lat="47.1203" lon="-1.57119">
        <ele>51</ele>
        <time>2022-03-14T10:52:56Z</time>
      </trkpt>
      <trkpt lat="47.12037" lon="-1.57104">
        <ele>50</ele>
        <time>2022-03-14T10:52:58Z</time>
      </trkpt>
      <trkpt lat="47.12043" lon="-1.57088">
        <ele>50</ele>
        <time>2022-03-14T10:53:00Z</time>
      </trkpt>
      <trkpt lat="47.12048" lon="-1.57071">
        <ele>51</ele>
        <time>2022-03-14T10:53:02Z</time>
      </trkpt>
      <trkpt lat="47.12051" lon="-1.57053">
        <ele>52</ele>
        <time>2022-03-14T10:53:04Z</time>
      </trkpt>
      <trkpt lat="47.12052" lon="-1.57033">
        <ele>52</ele>
        <time>2022-03-14T10:53:06Z</time>
      </trkpt>
      <trkpt lat="47.12055" lon="-1.57013">
        <ele>52</ele>
        <time>2022-03-14T10:53:08Z</time>
      </trkpt>
      <trkpt lat="47.12058" lon="-1.56996">
        <ele>52</ele>
        <time>2022-03-14T10:53:10Z</time>
      </trkpt>
      <trkpt lat="47.12063" lon="-1.5698">
        <ele>52</ele>
        <time>2022-03-14T10:53:12Z</time>
      </trkpt>
      <trkpt lat="47.12067" lon="-1.56964">
        <ele>52</ele>
        <time>2022-03-14T10:53:14Z</time>
      </trkpt>
      <trkpt lat="47.12066" lon="-1.56947">
        <ele>52</ele>
        <time>2022-03-14T10:53:16Z</time>
      </trkpt>
      <trkpt lat="47.12062" lon="-1.5693">
        <ele>51</ele>
        <time>2022-03-14T10:53:18Z</time>
      </trkpt>
      <trkpt lat="47.1206" lon="-1.56916">
        <ele>52</ele>
        <time>2022-03-14T10:53:20Z</time>
      </trkpt>
      <trkpt lat="47.12057" lon="-1.56901">
        <ele>52</ele>
        <time>2022-03-14T10:53:22Z</time>
      </trkpt>
      <trkpt lat="47.12055" lon="-1.56886">
        <ele>52</ele>
        <time>2022-03-14T10:53:24Z</time>
      </trkpt>
      <trkpt lat="47.12051" lon="-1.56871">
        <ele>53</ele>
        <time>2022-03-14T10:53:26Z</time>
      </trkpt>
      <trkpt lat="47.12048" lon="-1.56855">
        <ele>53</ele>
        <time>2022-03-14T10:53:28Z</time>
      </trkpt>
      <trkpt lat="47.12044" lon="-1.56837">
        <ele>53</ele>
        <time>2022-03-14T10:53:30Z</time>
      </trkpt>
      <trkpt lat="47.12041" lon="-1.56819">
        <ele>53</ele>
        <time>2022-03-14T10:53:32Z</time>
      </trkpt>
      <trkpt lat="47.12038" lon="-1.56802">
        <ele>53</ele>
        <time>2022-03-14T10:53:34Z</time>
      </trkpt>
      <trkpt lat="47.12035" lon="-1.56785">
        <ele>55</ele>
        <time>2022-03-14T10:53:36Z</time>
      </trkpt>
      <trkpt lat="47.12032" lon="-1.5677">
        <ele>55</ele>
        <time>2022-03-14T10:53:38Z</time>
      </trkpt>
      <trkpt lat="47.12029" lon="-1.56756">
        <ele>55</ele>
        <time>2022-03-14T10:53:40Z</time>
      </trkpt>
      <trkpt lat="47.12026" lon="-1.56741">
        <ele>56</ele>
        <time>2022-03-14T10:53:42Z</time>
      </trkpt>
      <trkpt lat="47.12023" lon="-1.56726">
        <ele>57</ele>
        <time>2022-03-14T10:53:44Z</time>
      </trkpt>
      <trkpt lat="47.1202" lon="-1.5671">
        <ele>57</ele>
        <time>2022-03-14T10:53:46Z</time>
      </trkpt>
      <trkpt lat="47.12017" lon="-1.56695">
        <ele>57</ele>
        <time>2022-03-14T10:53:48Z</time>
      </trkpt>
      <trkpt lat="47.12014" lon="-1.5668">
        <ele>57</ele>
        <time>2022-03-14T10:53:50Z</time>
      </trkpt>
      <trkpt lat="47.12011" lon="-1.56665">
        <ele>57</ele>
        <time>2022-03-14T10:53:52Z</time>
      </trkpt>
      <trkpt lat="47.12008" lon="-1.5665">
        <ele>58</ele>
        <time>2022-03-14T10:53:54Z</time>
      </trkpt>
      <trkpt lat="47.12005" lon="-1.56635">
        <ele>58</ele>
        <time>2022-03-14T10:53:56Z</time>
      </trkpt>
      <trkpt lat="47.12002" lon="-1.56621">
        <ele>58</ele>
        <time>2022-03-14T10:53:58Z</time>
      </trkpt>
      <trkpt lat="47.11999" lon="-1.56606">
        <ele>58</ele>
        <time>2022-03-14T10:54:00Z</time>
      </trkpt>
      <trkpt lat="47.11997" lon="-1.56592">
        <ele>58</ele>
        <time>2022-03-14T10:54:02Z</time>
      </trkpt>
      <trkpt lat="47.11994" lon="-1.56576">
        <ele>58</ele>
        <time>2022-03-14T10:54:04Z</time>
      </trkpt>
      <trkpt lat="47.11991" lon="-1.56561">
        <ele>58</ele>
        <time>2022-03-14T10:54:06Z</time>
      </trkpt>
      <trkpt lat="47.11988" lon="-1.56547">
        <ele>58</ele>
        <time>2022-03-14T10:54:08Z</time>
      </trkpt>
      <trkpt lat="47.11985" lon="-1.56531">
        <ele>58</ele>
        <time>2022-03-14T10:54:10Z</time>
      </trkpt>
      <trkpt lat="47.11981" lon="-1.56516">
        <ele>58</ele>
        <time>2022-03-14T10:54:12Z</time>
      </trkpt>
      <trkpt lat="47.11978" lon="-1.565">
        <ele>58</ele>
        <time>2022-03-14T10:54:14Z</time>
      </trkpt>
      <trkpt lat="47.11974" lon="-1.56485">
        <ele>58</ele>
        <time>2022-03-14T10:54:16Z</time>
      </trkpt>
      <trkpt lat="47.1197" lon="-1.5647">
        <ele>58</ele>
        <time>2022-03-14T10:54:18Z</time>
      </trkpt>
      <trkpt lat="47.11966" lon="-1.56453">
        <ele>58</ele>
        <time>2022-03-14T10:54:20Z</time>
      </trkpt>
      <trkpt lat="47.11961" lon="-1.56437">
        <ele>58</ele>
        <time>2022-03-14T10:54:22Z</time>
      </trkpt>
      <trkpt lat="47.11957" lon="-1.56421">
        <ele>57</ele>
        <time>2022-03-14T10:54:24Z</time>
      </trkpt>
      <trkpt lat="47.11953" lon="-1.56404">
        <ele>57</ele>
        <time>2022-03-14T10:54:26Z</time>
      </trkpt>
      <trkpt lat="47.11949" lon="-1.56388">
        <ele>57</ele>
        <time>2022-03-14T10:54:28Z</time>
      </trkpt>
      <trkpt lat="47.11945" lon="-1.56373">
        <ele>57</ele>
        <time>2022-03-14T10:54:30Z</time>
      </trkpt>
      <trkpt lat="47.11941" lon="-1.56356">
        <ele>57</ele>
        <time>2022-03-14T10:54:32Z</time>
      </trkpt>
      <trkpt lat="47.11936" lon="-1.5634">
        <ele>57</ele>
        <time>2022-03-14T10:54:34Z</time>
      </trkpt>
      <trkpt lat="47.11933" lon="-1.56325">
        <ele>57</ele>
        <time>2022-03-14T10:54:36Z</time>
      </trkpt>
      <trkpt lat="47.11929" lon="-1.56309">
        <ele>57</ele>
        <time>2022-03-14T10:54:38Z</time>
      </trkpt>
      <trkpt lat="47.11924" lon="-1.56293">
        <ele>57</ele>
        <time>2022-03-14T10:54:40Z</time>
      </trkpt>
      <trkpt lat="47.1192" lon="-1.56277">
        <ele>57</ele>
        <time>2022-03-14T10:54:42Z</time>
      </trkpt>
      <trkpt lat="47.11916" lon="-1.56261">
        <ele>57</ele>
        <time>2022-03-14T10:54:44Z</time>
      </trkpt>
      <trkpt lat="47.11912" lon="-1.56246">
        <ele>57</ele>
        <time>2022-03-14T10:54:46Z</time>
      </trkpt>
      <trkpt lat="47.11908" lon="-1.5623">
        <ele>57</ele>
        <time>2022-03-14T10:54:48Z</time>
      </trkpt>
      <trkpt lat="47.11904" lon="-1.56214">
        <ele>57</ele>
        <time>2022-03-14T10:54:50Z</time>
      </trkpt>
      <trkpt lat="47.119" lon="-1.56198">
        <ele>57</ele>
        <time>2022-03-14T10:54:52Z</time>
      </trkpt>
      <trkpt lat="47.11896" lon="-1.56183">
        <ele>57</ele>
        <time>2022-03-14T10:54:54Z</time>
      </trkpt>
      <trkpt lat="47.11892" lon="-1.56167">
        <ele>57</ele>
        <time>2022-03-14T10:54:56Z</time>
      </trkpt>
      <trkpt lat="47.11887" lon="-1.56151">
        <ele>57</ele>
        <time>2022-03-14T10:54:58Z</time>
      </trkpt>
      <trkpt lat="47.11884" lon="-1.56136">
        <ele>57</ele>
        <time>2022-03-14T10:55:00Z</time>
      </trkpt>
      <trkpt lat="47.1188" lon="-1.5612">
        <ele>58</ele>
        <time>2022-03-14T10:55:02Z</time>
      </trkpt>
      <trkpt lat="47.11876" lon="-1.56105">
        <ele>58</ele>
        <time>2022-03-14T10:55:04Z</time>
      </trkpt>
      <trkpt lat="47.11873" lon="-1.5609">
        <ele>58</ele>
        <time>2022-03-14T10:55:06Z</time>
      </trkpt>
      <trkpt lat="47.1187" lon="-1.56075">
        <ele>58</ele>
        <time>2022-03-14T10:55:08Z</time>
      </trkpt>
      <trkpt lat="47.11867" lon="-1.5606">
        <ele>58</ele>
        <time>2022-03-14T10:55:10Z</time>
      </trkpt>
      <trkpt lat="47.11865" lon="-1.56044">
        <ele>58</ele>
        <time>2022-03-14T10:55:12Z</time>
      </trkpt>
      <trkpt lat="47.11863" lon="-1.56029">
        <ele>58</ele>
        <time>2022-03-14T10:55:14Z</time>
      </trkpt>
      <trkpt lat="47.11862" lon="-1.56014">
        <ele>58</ele>
        <time>2022-03-14T10:55:16Z</time>
      </trkpt>
      <trkpt lat="47.1186" lon="-1.55998">
        <ele>58</ele>
        <time>2022-03-14T10:55:18Z</time>
      </trkpt>
      <trkpt lat="47.11858" lon="-1.55982">
        <ele>58</ele>
        <time>2022-03-14T10:55:20Z</time>
      </trkpt>
      <trkpt lat="47.11857" lon="-1.55966">
        <ele>58</ele>
        <time>2022-03-14T10:55:22Z</time>
      </trkpt>
      <trkpt lat="47.11856" lon="-1.55949">
        <ele>59</ele>
        <time>2022-03-14T10:55:24Z</time>
      </trkpt>
      <trkpt lat="47.11854" lon="-1.55933">
        <ele>59</ele>
        <time>2022-03-14T10:55:26Z</time>
      </trkpt>
      <trkpt lat="47.11854" lon="-1.55918">
        <ele>60</ele>
        <time>2022-03-14T10:55:28Z</time>
      </trkpt>
      <trkpt lat="47.11852" lon="-1.55902">
        <ele>60</ele>
        <time>2022-03-14T10:55:30Z</time>
      </trkpt>
      <trkpt lat="47.11851" lon="-1.55885">
        <ele>60</ele>
        <time>2022-03-14T10:55:32Z</time>
      </trkpt>
      <trkpt lat="47.1185" lon="-1.55869">
        <ele>60</ele>
        <time>2022-03-14T10:55:34Z</time>
      </trkpt>
      <trkpt lat="47.11849" lon="-1.55853">
        <ele>61</ele>
        <time>2022-03-14T10:55:36Z</time>
      </trkpt>
      <trkpt lat="47.11847" lon="-1.55837">
        <ele>61</ele>
        <time>2022-03-14T10:55:38Z</time>
      </trkpt>
      <trkpt lat="47.11846" lon="-1.55821">
        <ele>61</ele>
        <time>2022-03-14T10:55:40Z</time>
      </trkpt>
      <trkpt lat="47.11845" lon="-1.55804">
        <ele>61</ele>
        <time>2022-03-14T10:55:42Z</time>
      </trkpt>
      <trkpt lat="47.11844" lon="-1.55788">
        <ele>61</ele>
        <time>2022-03-14T10:55:44Z</time>
      </trkpt>
      <trkpt lat="47.11843" lon="-1.55772">
        <ele>61</ele>
        <time>2022-03-14T10:55:46Z</time>
      </trkpt>
      <trkpt lat="47.11841" lon="-1.55756">
        <ele>61</ele>
        <time>2022-03-14T10:55:48Z</time>
      </trkpt>
      <trkpt lat="47.1184" lon="-1.5574">
        <ele>61</ele>
        <time>2022-03-14T10:55:50Z</time>
      </trkpt>
      <trkpt lat="47.11839" lon="-1.55723">
        <ele>61</ele>
        <time>2022-03-14T10:55:52Z</time>
      </trkpt>
      <trkpt lat="47.11838" lon="-1.55707">
        <ele>62</ele>
        <time>2022-03-14T10:55:54Z</time>
      </trkpt>
      <trkpt lat="47.11836" lon="-1.55691">
        <ele>62</ele>
        <time>2022-03-14T10:55:56Z</time>
      </trkpt>
      <trkpt lat="47.11835" lon="-1.55675">
        <ele>62</ele>
        <time>2022-03-14T10:55:58Z</time>
      </trkpt>
      <trkpt lat="47.11834" lon="-1.55659">
        <ele>62</ele>
        <time>2022-03-14T10:56:00Z</time>
      </trkpt>
      <trkpt lat="47.11833" lon="-1.55642">
        <ele>62</ele>
        <time>2022-03-14T10:56:02Z</time>
      </trkpt>
      <trkpt lat="47.11832" lon="-1.55626">
        <ele>62</ele>
        <time>2022-03-14T10:56:04Z</time>
      </trkpt>
      <trkpt lat="47.1183" lon="-1.5561">
        <ele>62</ele>
        <time>2022-03-14T10:56:06Z</time>
      </trkpt>
      <trkpt lat="47.11829" lon="-1.55593">
        <ele>62</ele>
        <time>2022-03-14T10:56:08Z</time>
      </trkpt>
      <trkpt lat="47.11828" lon="-1.55577">
        <ele>62</ele>
        <time>2022-03-14T10:56:10Z</time>
      </trkpt>
      <trkpt lat="47.11827" lon="-1.5556">
        <ele>62</ele>
        <time>2022-03-14T10:56:12Z</time>
      </trkpt>
      <trkpt lat="47.11825" lon="-1.55544">
        <ele>62</ele>
        <time>2022-03-14T10:56:14Z</time>
      </trkpt>
      <trkpt lat="47.11825" lon="-1.55528">
        <ele>62</ele>
        <time>2022-03-14T10:56:16Z</time>
      </trkpt>
      <trkpt lat="47.11823" lon="-1.55513">
        <ele>62</ele>
        <time>2022-03-14T10:56:18Z</time>
      </trkpt>
      <trkpt lat="47.11822" lon="-1.55496">
        <ele>62</ele>
        <time>2022-03-14T10:56:20Z</time>
      </trkpt>
      <trkpt lat="47.11821" lon="-1.55481">
        <ele>62</ele>
        <time>2022-03-14T10:56:22Z</time>
      </trkpt>
      <trkpt lat="47.1182" lon="-1.55464">
        <ele>63</ele>
        <time>2022-03-14T10:56:24Z</time>
      </trkpt>
      <trkpt lat="47.11819" lon="-1.55449">
        <ele>63</ele>
        <time>2022-03-14T10:56:26Z</time>
      </trkpt>
      <trkpt lat="47.11818" lon="-1.55433">
        <ele>63</ele>
        <time>2022-03-14T10:56:28Z</time>
      </trkpt>
      <trkpt lat="47.11818" lon="-1.55416">
        <ele>62</ele>
        <time>2022-03-14T10:56:30Z</time>
      </trkpt>
      <trkpt lat="47.11817" lon="-1.554">
        <ele>62</ele>
        <time>2022-03-14T10:56:32Z</time>
      </trkpt>
      <trkpt lat="47.11817" lon="-1.55383">
        <ele>62</ele>
        <time>2022-03-14T10:56:34Z</time>
      </trkpt>
      <trkpt lat="47.11817" lon="-1.55367">
        <ele>63</ele>
        <time>2022-03-14T10:56:36Z</time>
      </trkpt>
      <trkpt lat="47.11817" lon="-1.5535">
        <ele>63</ele>
        <time>2022-03-14T10:56:38Z</time>
      </trkpt>
      <trkpt lat="47.11817" lon="-1.55333">
        <ele>63</ele>
        <time>2022-03-14T10:56:40Z</time>
      </trkpt>
      <trkpt lat="47.11816" lon="-1.55316">
        <ele>63</ele>
        <time>2022-03-14T10:56:42Z</time>
      </trkpt>
      <trkpt lat="47.11816" lon="-1.553">
        <ele>63</ele>
        <time>2022-03-14T10:56:44Z</time>
      </trkpt>
      <trkpt lat="47.11816" lon="-1.55284">
        <ele>63</ele>
        <time>2022-03-14T10:56:46Z</time>
      </trkpt>
      <trkpt lat="47.11815" lon="-1.55267">
        <ele>63</ele>
        <time>2022-03-14T10:56:48Z</time>
      </trkpt>
      <trkpt lat="47.11815" lon="-1.55251">
        <ele>63</ele>
        <time>2022-03-14T10:56:50Z</time>
      </trkpt>
      <trkpt lat="47.11814" lon="-1.55234">
        <ele>63</ele>
        <time>2022-03-14T10:56:52Z</time>
      </trkpt>
      <trkpt lat="47.11813" lon="-1.55217">
        <ele>63</ele>
        <time>2022-03-14T10:56:54Z</time>
      </trkpt>
      <trkpt lat="47.11813" lon="-1.552">
        <ele>63</ele>
        <time>2022-03-14T10:56:56Z</time>
      </trkpt>
      <trkpt lat="47.11812" lon="-1.55183">
        <ele>63</ele>
        <time>2022-03-14T10:56:58Z</time>
      </trkpt>
      <trkpt lat="47.11811" lon="-1.55166">
        <ele>63</ele>
        <time>2022-03-14T10:57:00Z</time>
      </trkpt>
      <trkpt lat="47.1181" lon="-1.5515">
        <ele>63</ele>
        <time>2022-03-14T10:57:02Z</time>
      </trkpt>
      <trkpt lat="47.11809" lon="-1.55133">
        <ele>63</ele>
        <time>2022-03-14T10:57:04Z</time>
      </trkpt>
      <trkpt lat="47.11808" lon="-1.55116">
        <ele>63</ele>
        <time>2022-03-14T10:57:06Z</time>
      </trkpt>
      <trkpt lat="47.11806" lon="-1.55099">
        <ele>63</ele>
        <time>2022-03-14T10:57:08Z</time>
      </trkpt>
      <trkpt lat="47.11804" lon="-1.55082">
        <ele>62</ele>
        <time>2022-03-14T10:57:10Z</time>
      </trkpt>
      <trkpt lat="47.11802" lon="-1.55065">
        <ele>62</ele>
        <time>2022-03-14T10:57:12Z</time>
      </trkpt>
      <trkpt lat="47.118" lon="-1.55048">
        <ele>62</ele>
        <time>2022-03-14T10:57:14Z</time>
      </trkpt>
      <trkpt lat="47.11797" lon="-1.55032">
        <ele>62</ele>
        <time>2022-03-14T10:57:16Z</time>
      </trkpt>
      <trkpt lat="47.11794" lon="-1.55015">
        <ele>62</ele>
        <time>2022-03-14T10:57:18Z</time>
      </trkpt>
      <trkpt lat="47.11791" lon="-1.54998">
        <ele>62</ele>
        <time>2022-03-14T10:57:20Z</time>
      </trkpt>
      <trkpt lat="47.11788" lon="-1.54982">
        <ele>62</ele>
        <time>2022-03-14T10:57:22Z</time>
      </trkpt>
      <trkpt lat="47.11784" lon="-1.54967">
        <ele>62</ele>
        <time>2022-03-14T10:57:24Z</time>
      </trkpt>
      <trkpt lat="47.1178" lon="-1.54951">
        <ele>62</ele>
        <time>2022-03-14T10:57:26Z</time>
      </trkpt>
      <trkpt lat="47.11776" lon="-1.54935">
        <ele>62</ele>
        <time>2022-03-14T10:57:28Z</time>
      </trkpt>
      <trkpt lat="47.11772" lon="-1.54918">
        <ele>62</ele>
        <time>2022-03-14T10:57:30Z</time>
      </trkpt>
      <trkpt lat="47.11767" lon="-1.54902">
        <ele>62</ele>
        <time>2022-03-14T10:57:32Z</time>
      </trkpt>
      <trkpt lat="47.11762" lon="-1.54887">
        <ele>62</ele>
        <time>2022-03-14T10:57:34Z</time>
      </trkpt>
      <trkpt lat="47.11757" lon="-1.5487">
        <ele>62</ele>
        <time>2022-03-14T10:57:36Z</time>
      </trkpt>
      <trkpt lat="47.11753" lon="-1.54855">
        <ele>62</ele>
        <time>2022-03-14T10:57:38Z</time>
      </trkpt>
      <trkpt lat="47.11748" lon="-1.5484">
        <ele>62</ele>
        <time>2022-03-14T10:57:40Z</time>
      </trkpt>
      <trkpt lat="47.11743" lon="-1.54825">
        <ele>63</ele>
        <time>2022-03-14T10:57:42Z</time>
      </trkpt>
      <trkpt lat="47.11738" lon="-1.54809">
        <ele>62</ele>
        <time>2022-03-14T10:57:44Z</time>
      </trkpt>
      <trkpt lat="47.11734" lon="-1.54795">
        <ele>63</ele>
        <time>2022-03-14T10:57:46Z</time>
      </trkpt>
      <trkpt lat="47.11729" lon="-1.5478">
        <ele>63</ele>
        <time>2022-03-14T10:57:48Z</time>
      </trkpt>
      <trkpt lat="47.11724" lon="-1.54765">
        <ele>62</ele>
        <time>2022-03-14T10:57:50Z</time>
      </trkpt>
      <trkpt lat="47.1172" lon="-1.5475">
        <ele>63</ele>
        <time>2022-03-14T10:57:52Z</time>
      </trkpt>
      <trkpt lat="47.11715" lon="-1.54734">
        <ele>63</ele>
        <time>2022-03-14T10:57:54Z</time>
      </trkpt>
      <trkpt lat="47.1171" lon="-1.54718">
        <ele>63</ele>
        <time>2022-03-14T10:57:56Z</time>
      </trkpt>
      <trkpt lat="47.11706" lon="-1.54704">
        <ele>63</ele>
        <time>2022-03-14T10:57:58Z</time>
      </trkpt>
      <trkpt lat="47.11701" lon="-1.54688">
        <ele>64</ele>
        <time>2022-03-14T10:58:00Z</time>
      </trkpt>
      <trkpt lat="47.11697" lon="-1.54673">
        <ele>64</ele>
        <time>2022-03-14T10:58:02Z</time>
      </trkpt>
      <trkpt lat="47.11692" lon="-1.54656">
        <ele>64</ele>
        <time>2022-03-14T10:58:04Z</time>
      </trkpt>
      <trkpt lat="47.11687" lon="-1.54641">
        <ele>64</ele>
        <time>2022-03-14T10:58:06Z</time>
      </trkpt>
      <trkpt lat="47.11682" lon="-1.54626">
        <ele>65</ele>
        <time>2022-03-14T10:58:08Z</time>
      </trkpt>
      <trkpt lat="47.11678" lon="-1.54612">
        <ele>65</ele>
        <time>2022-03-14T10:58:10Z</time>
      </trkpt>
      <trkpt lat="47.11673" lon="-1.54597">
        <ele>65</ele>
        <time>2022-03-14T10:58:12Z</time>
      </trkpt>
      <trkpt lat="47.11668" lon="-1.54582">
        <ele>65</ele>
        <time>2022-03-14T10:58:14Z</time>
      </trkpt>
      <trkpt lat="47.11663" lon="-1.54567">
        <ele>65</ele>
        <time>2022-03-14T10:58:16Z</time>
      </trkpt>
      <trkpt lat="47.11658" lon="-1.54552">
        <ele>65</ele>
        <time>2022-03-14T10:58:18Z</time>
      </trkpt>
      <trkpt lat="47.11653" lon="-1.54537">
        <ele>65</ele>
        <time>2022-03-14T10:58:20Z</time>
      </trkpt>
      <trkpt lat="47.11648" lon="-1.54522">
        <ele>66</ele>
        <time>2022-03-14T10:58:22Z</time>
      </trkpt>
      <trkpt lat="47.11643" lon="-1.54508">
        <ele>66</ele>
        <time>2022-03-14T10:58:24Z</time>
      </trkpt>
      <trkpt lat="47.11638" lon="-1.54493">
        <ele>66</ele>
        <time>2022-03-14T10:58:26Z</time>
      </trkpt>
      <trkpt lat="47.11633" lon="-1.54478">
        <ele>66</ele>
        <time>2022-03-14T10:58:28Z</time>
      </trkpt>
      <trkpt lat="47.11628" lon="-1.54463">
        <ele>66</ele>
        <time>2022-03-14T10:58:30Z</time>
      </trkpt>
      <trkpt lat="47.11623" lon="-1.54448">
        <ele>66</ele>
        <time>2022-03-14T10:58:32Z</time>
      </trkpt>
      <trkpt lat="47.11618" lon="-1.54433">
        <ele>66</ele>
        <time>2022-03-14T10:58:34Z</time>
      </trkpt>
      <trkpt lat="47.11613" lon="-1.54417">
        <ele>66</ele>
        <time>2022-03-14T10:58:36Z</time>
      </trkpt>
      <trkpt lat="47.11608" lon="-1.54401">
        <ele>66</ele>
        <time>2022-03-14T10:58:38Z</time>
      </trkpt>
      <trkpt lat="47.11602" lon="-1.54385">
        <ele>66</ele>
        <time>2022-03-14T10:58:40Z</time>
      </trkpt>
      <trkpt lat="47.11597" lon="-1.5437">
        <ele>66</ele>
        <time>2022-03-14T10:58:42Z</time>
      </trkpt>
      <trkpt lat="47.11591" lon="-1.54354">
        <ele>67</ele>
        <time>2022-03-14T10:58:44Z</time>
      </trkpt>
      <trkpt lat="47.11587" lon="-1.5434">
        <ele>67</ele>
        <time>2022-03-14T10:58:46Z</time>
      </trkpt>
      <trkpt lat="47.11582" lon="-1.54324">
        <ele>66</ele>
        <time>2022-03-14T10:58:48Z</time>
      </trkpt>
      <trkpt lat="47.11576" lon="-1.54309">
        <ele>66</ele>
        <time>2022-03-14T10:58:50Z</time>
      </trkpt>
      <trkpt lat="47.11571" lon="-1.54295">
        <ele>66</ele>
        <time>2022-03-14T10:58:52Z</time>
      </trkpt>
      <trkpt lat="47.11566" lon="-1.54283">
        <ele>67</ele>
        <time>2022-03-14T10:58:54Z</time>
      </trkpt>
      <trkpt lat="47.11563" lon="-1.54264">
        <ele>67</ele>
        <time>2022-03-14T10:58:57Z</time>
      </trkpt>
      <trkpt lat="47.11571" lon="-1.54253">
        <ele>67</ele>
        <time>2022-03-14T10:58:59Z</time>
      </trkpt>
      <trkpt lat="47.11582" lon="-1.54244">
        <ele>67</ele>
        <time>2022-03-14T10:59:01Z</time>
      </trkpt>
      <trkpt lat="47.11593" lon="-1.54237">
        <ele>67</ele>
        <time>2022-03-14T10:59:03Z</time>
      </trkpt>
      <trkpt lat="47.11603" lon="-1.5423">
        <ele>68</ele>
        <time>2022-03-14T10:59:05Z</time>
      </trkpt>
      <trkpt lat="47.11614" lon="-1.54223">
        <ele>68</ele>
        <time>2022-03-14T10:59:07Z</time>
      </trkpt>
      <trkpt lat="47.11625" lon="-1.54215">
        <ele>68</ele>
        <time>2022-03-14T10:59:09Z</time>
      </trkpt>
      <trkpt lat="47.11634" lon="-1.54205">
        <ele>67</ele>
        <time>2022-03-14T10:59:11Z</time>
      </trkpt>
      <trkpt lat="47.11641" lon="-1.54191">
        <ele>67</ele>
        <time>2022-03-14T10:59:13Z</time>
      </trkpt>
      <trkpt lat="47.11645" lon="-1.54176">
        <ele>67</ele>
        <time>2022-03-14T10:59:15Z</time>
      </trkpt>
      <trkpt lat="47.11648" lon="-1.5416">
        <ele>67</ele>
        <time>2022-03-14T10:59:17Z</time>
      </trkpt>
      <trkpt lat="47.11658" lon="-1.54148">
        <ele>66</ele>
        <time>2022-03-14T10:59:19Z</time>
      </trkpt>
      <trkpt lat="47.1167" lon="-1.54145">
        <ele>67</ele>
        <time>2022-03-14T10:59:21Z</time>
      </trkpt>
      <trkpt lat="47.1168" lon="-1.54138">
        <ele>67</ele>
        <time>2022-03-14T10:59:23Z</time>
      </trkpt>
      <trkpt lat="47.11689" lon="-1.54128">
        <ele>67</ele>
        <time>2022-03-14T10:59:25Z</time>
      </trkpt>
      <trkpt lat="47.11698" lon="-1.54116">
        <ele>67</ele>
        <time>2022-03-14T10:59:27Z</time>
      </trkpt>
      <trkpt lat="47.11704" lon="-1.54102">
        <ele>67</ele>
        <time>2022-03-14T10:59:29Z</time>
      </trkpt>
      <trkpt lat="47.1171" lon="-1.54087">
        <ele>67</ele>
        <time>2022-03-14T10:59:31Z</time>
      </trkpt>
      <trkpt lat="47.11716" lon="-1.54073">
        <ele>68</ele>
        <time>2022-03-14T10:59:33Z</time>
      </trkpt>
      <trkpt lat="47.11722" lon="-1.54058">
        <ele>68</ele>
        <time>2022-03-14T10:59:35Z</time>
      </trkpt>
      <trkpt lat="47.11728" lon="-1.54044">
        <ele>68</ele>
        <time>2022-03-14T10:59:37Z</time>
      </trkpt>
      <trkpt lat="47.11733" lon="-1.5403">
        <ele>68</ele>
        <time>2022-03-14T10:59:39Z</time>
      </trkpt>
      <trkpt lat="47.11739" lon="-1.54016">
        <ele>68</ele>
        <time>2022-03-14T10:59:41Z</time>
      </trkpt>
      <trkpt lat="47.11744" lon="-1.54002">
        <ele>68</ele>
        <time>2022-03-14T10:59:43Z</time>
      </trkpt>
      <trkpt lat="47.11749" lon="-1.53988">
        <ele>68</ele>
        <time>2022-03-14T10:59:45Z</time>
      </trkpt>
      <trkpt lat="47.11755" lon="-1.53974">
        <ele>68</ele>
        <time>2022-03-14T10:59:47Z</time>
      </trkpt>
      <trkpt lat="47.11761" lon="-1.53959">
        <ele>67</ele>
        <time>2022-03-14T10:59:49Z</time>
      </trkpt>
      <trkpt lat="47.11767" lon="-1.53943">
        <ele>67</ele>
        <time>2022-03-14T10:59:51Z</time>
      </trkpt>
      <trkpt lat="47.11773" lon="-1.53926">
        <ele>67</ele>
        <time>2022-03-14T10:59:53Z</time>
      </trkpt>
      <trkpt lat="47.11781" lon="-1.5391">
        <ele>67</ele>
        <time>2022-03-14T10:59:55Z</time>
      </trkpt>
      <trkpt lat="47.11789" lon="-1.53894">
        <ele>66</ele>
        <time>2022-03-14T10:59:57Z</time>
      </trkpt>
      <trkpt lat="47.11798" lon="-1.53878">
        <ele>65</ele>
        <time>2022-03-14T10:59:59Z</time>
      </trkpt>
      <trkpt lat="47.11807" lon="-1.53862">
        <ele>65</ele>
        <time>2022-03-14T11:00:01Z</time>
      </trkpt>
      <trkpt lat="47.11815" lon="-1.53847">
        <ele>65</ele>
        <time>2022-03-14T11:00:03Z</time>
      </trkpt>
      <trkpt lat="47.11825" lon="-1.53831">
        <ele>65</ele>
        <time>2022-03-14T11:00:05Z</time>
      </trkpt>
      <trkpt lat="47.11834" lon="-1.53815">
        <ele>65</ele>
        <time>2022-03-14T11:00:07Z</time>
      </trkpt>
      <trkpt lat="47.11842" lon="-1.53798">
        <ele>65</ele>
        <time>2022-03-14T11:00:09Z</time>
      </trkpt>
      <trkpt lat="47.11851" lon="-1.5378">
        <ele>64</ele>
        <time>2022-03-14T11:00:11Z</time>
      </trkpt>
      <trkpt lat="47.11858" lon="-1.53763">
        <ele>63</ele>
        <time>2022-03-14T11:00:13Z</time>
      </trkpt>
      <trkpt lat="47.11865" lon="-1.53745">
        <ele>63</ele>
        <time>2022-03-14T11:00:15Z</time>
      </trkpt>
      <trkpt lat="47.11871" lon="-1.53726">
        <ele>62</ele>
        <time>2022-03-14T11:00:17Z</time>
      </trkpt>
      <trkpt lat="47.11878" lon="-1.53707">
        <ele>62</ele>
        <time>2022-03-14T11:00:19Z</time>
      </trkpt>
      <trkpt lat="47.11886" lon="-1.53689">
        <ele>61</ele>
        <time>2022-03-14T11:00:21Z</time>
      </trkpt>
      <trkpt lat="47.11895" lon="-1.53673">
        <ele>61</ele>
        <time>2022-03-14T11:00:23Z</time>
      </trkpt>
      <trkpt lat="47.11904" lon="-1.53657">
        <ele>61</ele>
        <time>2022-03-14T11:00:25Z</time>
      </trkpt>
      <trkpt lat="47.11912" lon="-1.53642">
        <ele>60</ele>
        <time>2022-03-14T11:00:27Z</time>
      </trkpt>
      <trkpt lat="47.1192" lon="-1.53627">
        <ele>60</ele>
        <time>2022-03-14T11:00:29Z</time>
      </trkpt>
      <trkpt lat="47.11928" lon="-1.53611">
        <ele>60</ele>
        <time>2022-03-14T11:00:31Z</time>
      </trkpt>
      <trkpt lat="47.11937" lon="-1.53596">
        <ele>60</ele>
        <time>2022-03-14T11:00:33Z</time>
      </trkpt>
      <trkpt lat="47.11945" lon="-1.5358">
        <ele>60</ele>
        <time>2022-03-14T11:00:35Z</time>
      </trkpt>
      <trkpt lat="47.11954" lon="-1.53564">
        <ele>59</ele>
        <time>2022-03-14T11:00:37Z</time>
      </trkpt>
      <trkpt lat="47.11962" lon="-1.53547">
        <ele>59</ele>
        <time>2022-03-14T11:00:39Z</time>
      </trkpt>
      <trkpt lat="47.11971" lon="-1.53531">
        <ele>59</ele>
        <time>2022-03-14T11:00:41Z</time>
      </trkpt>
      <trkpt lat="47.1198" lon="-1.53515">
        <ele>58</ele>
        <time>2022-03-14T11:00:43Z</time>
      </trkpt>
      <trkpt lat="47.11988" lon="-1.53499">
        <ele>58</ele>
        <time>2022-03-14T11:00:45Z</time>
      </trkpt>
      <trkpt lat="47.11997" lon="-1.53483">
        <ele>58</ele>
        <time>2022-03-14T11:00:47Z</time>
      </trkpt>
      <trkpt lat="47.12006" lon="-1.53466">
        <ele>57</ele>
        <time>2022-03-14T11:00:49Z</time>
      </trkpt>
      <trkpt lat="47.12015" lon="-1.5345">
        <ele>57</ele>
        <time>2022-03-14T11:00:51Z</time>
      </trkpt>
      <trkpt lat="47.12023" lon="-1.53433">
        <ele>56</ele>
        <time>2022-03-14T11:00:53Z</time>
      </trkpt>
      <trkpt lat="47.12032" lon="-1.53417">
        <ele>56</ele>
        <time>2022-03-14T11:00:55Z</time>
      </trkpt>
      <trkpt lat="47.12041" lon="-1.53401">
        <ele>56</ele>
        <time>2022-03-14T11:00:57Z</time>
      </trkpt>
      <trkpt lat="47.12049" lon="-1.53384">
        <ele>56</ele>
        <time>2022-03-14T11:00:59Z</time>
      </trkpt>
      <trkpt lat="47.12058" lon="-1.53368">
        <ele>56</ele>
        <time>2022-03-14T11:01:01Z</time>
      </trkpt>
      <trkpt lat="47.12067" lon="-1.53351">
        <ele>55</ele>
        <time>2022-03-14T11:01:03Z</time>
      </trkpt>
      <trkpt lat="47.12076" lon="-1.53333">
        <ele>54</ele>
        <time>2022-03-14T11:01:05Z</time>
      </trkpt>
      <trkpt lat="47.12085" lon="-1.53317">
        <ele>54</ele>
        <time>2022-03-14T11:01:07Z</time>
      </trkpt>
      <trkpt lat="47.12094" lon="-1.533">
        <ele>53</ele>
        <time>2022-03-14T11:01:09Z</time>
      </trkpt>
      <trkpt lat="47.12103" lon="-1.53283">
        <ele>53</ele>
        <time>2022-03-14T11:01:11Z</time>
      </trkpt>
      <trkpt lat="47.12111" lon="-1.53266">
        <ele>52</ele>
        <time>2022-03-14T11:01:13Z</time>
      </trkpt>
      <trkpt lat="47.1212" lon="-1.53249">
        <ele>53</ele>
        <time>2022-03-14T11:01:15Z</time>
      </trkpt>
      <trkpt lat="47.12129" lon="-1.53232">
        <ele>53</ele>
        <time>2022-03-14T11:01:17Z</time>
      </trkpt>
      <trkpt lat="47.12138" lon="-1.53216">
        <ele>53</ele>
        <time>2022-03-14T11:01:19Z</time>
      </trkpt>
      <trkpt lat="47.12146" lon="-1.532">
        <ele>53</ele>
        <time>2022-03-14T11:01:21Z</time>
      </trkpt>
      <trkpt lat="47.12155" lon="-1.53184">
        <ele>52</ele>
        <time>2022-03-14T11:01:23Z</time>
      </trkpt>
      <trkpt lat="47.12163" lon="-1.53167">
        <ele>52</ele>
        <time>2022-03-14T11:01:25Z</time>
      </trkpt>
      <trkpt lat="47.12172" lon="-1.53152">
        <ele>51</ele>
        <time>2022-03-14T11:01:27Z</time>
      </trkpt>
      <trkpt lat="47.1218" lon="-1.53137">
        <ele>51</ele>
        <time>2022-03-14T11:01:29Z</time>
      </trkpt>
      <trkpt lat="47.12188" lon="-1.53123">
        <ele>51</ele>
        <time>2022-03-14T11:01:31Z</time>
      </trkpt>
      <trkpt lat="47.12196" lon="-1.53108">
        <ele>51</ele>
        <time>2022-03-14T11:01:33Z</time>
      </trkpt>
      <trkpt lat="47.12203" lon="-1.53093">
        <ele>51</ele>
        <time>2022-03-14T11:01:35Z</time>
      </trkpt>
      <trkpt lat="47.1221" lon="-1.53078">
        <ele>51</ele>
        <time>2022-03-14T11:01:37Z</time>
      </trkpt>
      <trkpt lat="47.12218" lon="-1.53063">
        <ele>51</ele>
        <time>2022-03-14T11:01:39Z</time>
      </trkpt>
      <trkpt lat="47.12226" lon="-1.53049">
        <ele>52</ele>
        <time>2022-03-14T11:01:41Z</time>
      </trkpt>
      <trkpt lat="47.12234" lon="-1.53034">
        <ele>52</ele>
        <time>2022-03-14T11:01:43Z</time>
      </trkpt>
      <trkpt lat="47.1224" lon="-1.5302">
        <ele>52</ele>
        <time>2022-03-14T11:01:45Z</time>
      </trkpt>
      <trkpt lat="47.12248" lon="-1.53006">
        <ele>53</ele>
        <time>2022-03-14T11:01:47Z</time>
      </trkpt>
      <trkpt lat="47.12255" lon="-1.52993">
        <ele>53</ele>
        <time>2022-03-14T11:01:49Z</time>
      </trkpt>
      <trkpt lat="47.12262" lon="-1.5298">
        <ele>53</ele>
        <time>2022-03-14T11:01:51Z</time>
      </trkpt>
      <trkpt lat="47.12269" lon="-1.52968">
        <ele>54</ele>
        <time>2022-03-14T11:01:53Z</time>
      </trkpt>
      <trkpt lat="47.12275" lon="-1.52956">
        <ele>54</ele>
        <time>2022-03-14T11:01:55Z</time>
      </trkpt>
      <trkpt lat="47.12282" lon="-1.52944">
        <ele>54</ele>
        <time>2022-03-14T11:01:57Z</time>
      </trkpt>
      <trkpt lat="47.12289" lon="-1.52932">
        <ele>55</ele>
        <time>2022-03-14T11:01:59Z</time>
      </trkpt>
      <trkpt lat="47.12296" lon="-1.52921">
        <ele>55</ele>
        <time>2022-03-14T11:02:01Z</time>
      </trkpt>
      <trkpt lat="47.12302" lon="-1.52909">
        <ele>56</ele>
        <time>2022-03-14T11:02:03Z</time>
      </trkpt>
      <trkpt lat="47.12308" lon="-1.52898">
        <ele>56</ele>
        <time>2022-03-14T11:02:05Z</time>
      </trkpt>
      <trkpt lat="47.12315" lon="-1.52886">
        <ele>56</ele>
        <time>2022-03-14T11:02:07Z</time>
      </trkpt>
      <trkpt lat="47.12323" lon="-1.52875">
        <ele>57</ele>
        <time>2022-03-14T11:02:09Z</time>
      </trkpt>
      <trkpt lat="47.1233" lon="-1.52864">
        <ele>57</ele>
        <time>2022-03-14T11:02:11Z</time>
      </trkpt>
      <trkpt lat="47.12338" lon="-1.52853">
        <ele>57</ele>
        <time>2022-03-14T11:02:13Z</time>
      </trkpt>
      <trkpt lat="47.12345" lon="-1.52843">
        <ele>58</ele>
        <time>2022-03-14T11:02:15Z</time>
      </trkpt>
      <trkpt lat="47.12357" lon="-1.5283">
        <ele>58</ele>
        <time>2022-03-14T11:02:18Z</time>
      </trkpt>
      <trkpt lat="47.12365" lon="-1.52822">
        <ele>58</ele>
        <time>2022-03-14T11:02:20Z</time>
      </trkpt>
      <trkpt lat="47.12373" lon="-1.52815">
        <ele>59</ele>
        <time>2022-03-14T11:02:22Z</time>
      </trkpt>
      <trkpt lat="47.12381" lon="-1.52807">
        <ele>59</ele>
        <time>2022-03-14T11:02:24Z</time>
      </trkpt>
      <trkpt lat="47.12389" lon="-1.52799">
        <ele>60</ele>
        <time>2022-03-14T11:02:26Z</time>
      </trkpt>
      <trkpt lat="47.12398" lon="-1.52791">
        <ele>60</ele>
        <time>2022-03-14T11:02:28Z</time>
      </trkpt>
      <trkpt lat="47.12405" lon="-1.52783">
        <ele>60</ele>
        <time>2022-03-14T11:02:30Z</time>
      </trkpt>
      <trkpt lat="47.12413" lon="-1.52776">
        <ele>60</ele>
        <time>2022-03-14T11:02:32Z</time>
      </trkpt>
      <trkpt lat="47.12421" lon="-1.52768">
        <ele>61</ele>
        <time>2022-03-14T11:02:34Z</time>
      </trkpt>
      <trkpt lat="47.1243" lon="-1.5276">
        <ele>61</ele>
        <time>2022-03-14T11:02:36Z</time>
      </trkpt>
      <trkpt lat="47.12438" lon="-1.52753">
        <ele>62</ele>
        <time>2022-03-14T11:02:38Z</time>
      </trkpt>
      <trkpt lat="47.12447" lon="-1.52746">
        <ele>62</ele>
        <time>2022-03-14T11:02:40Z</time>
      </trkpt>
      <trkpt lat="47.12456" lon="-1.5274">
        <ele>62</ele>
        <time>2022-03-14T11:02:42Z</time>
      </trkpt>
      <trkpt lat="47.12465" lon="-1.52736">
        <ele>62</ele>
        <time>2022-03-14T11:02:44Z</time>
      </trkpt>
      <trkpt lat="47.12474" lon="-1.52733">
        <ele>63</ele>
        <time>2022-03-14T11:02:46Z</time>
      </trkpt>
      <trkpt lat="47.12487" lon="-1.52731">
        <ele>64</ele>
        <time>2022-03-14T11:02:49Z</time>
      </trkpt>
      <trkpt lat="47.12499" lon="-1.5273">
        <ele>66</ele>
        <time>2022-03-14T11:02:52Z</time>
      </trkpt>
      <trkpt lat="47.12508" lon="-1.5272">
        <ele>66</ele>
        <time>2022-03-14T11:02:55Z</time>
      </trkpt>
      <trkpt lat="47.12502" lon="-1.52707">
        <ele>67</ele>
        <time>2022-03-14T11:02:59Z</time>
      </trkpt>
      <trkpt lat="47.12493" lon="-1.52704">
        <ele>68</ele>
        <time>2022-03-14T11:03:01Z</time>
      </trkpt>
      <trkpt lat="47.12482" lon="-1.527">
        <ele>68</ele>
        <time>2022-03-14T11:03:03Z</time>
      </trkpt>
      <trkpt lat="47.12474" lon="-1.52697">
        <ele>68</ele>
        <time>2022-03-14T11:03:05Z</time>
      </trkpt>
      <trkpt lat="47.12464" lon="-1.52695">
        <ele>69</ele>
        <time>2022-03-14T11:03:07Z</time>
      </trkpt>
      <trkpt lat="47.12455" lon="-1.52693">
        <ele>69</ele>
        <time>2022-03-14T11:03:09Z</time>
      </trkpt>
      <trkpt lat="47.12444" lon="-1.52691">
        <ele>70</ele>
        <time>2022-03-14T11:03:11Z</time>
      </trkpt>
      <trkpt lat="47.12434" lon="-1.52689">
        <ele>70</ele>
        <time>2022-03-14T11:03:13Z</time>
      </trkpt>
      <trkpt lat="47.12423" lon="-1.52687">
        <ele>69</ele>
        <time>2022-03-14T11:03:15Z</time>
      </trkpt>
      <trkpt lat="47.12412" lon="-1.52684">
        <ele>69</ele>
        <time>2022-03-14T11:03:17Z</time>
      </trkpt>
      <trkpt lat="47.124" lon="-1.52682">
        <ele>69</ele>
        <time>2022-03-14T11:03:19Z</time>
      </trkpt>
      <trkpt lat="47.12388" lon="-1.5268">
        <ele>68</ele>
        <time>2022-03-14T11:03:21Z</time>
      </trkpt>
      <trkpt lat="47.12375" lon="-1.52677">
        <ele>68</ele>
        <time>2022-03-14T11:03:23Z</time>
      </trkpt>
      <trkpt lat="47.12361" lon="-1.52673">
        <ele>67</ele>
        <time>2022-03-14T11:03:25Z</time>
      </trkpt>
      <trkpt lat="47.12345" lon="-1.52668">
        <ele>66</ele>
        <time>2022-03-14T11:03:27Z</time>
      </trkpt>
      <trkpt lat="47.12329" lon="-1.52663">
        <ele>65</ele>
        <time>2022-03-14T11:03:29Z</time>
      </trkpt>
      <trkpt lat="47.12313" lon="-1.52657">
        <ele>64</ele>
        <time>2022-03-14T11:03:31Z</time>
      </trkpt>
      <trkpt lat="47.12297" lon="-1.5265">
        <ele>64</ele>
        <time>2022-03-14T11:03:33Z</time>
      </trkpt>
      <trkpt lat="47.12281" lon="-1.52642">
        <ele>63</ele>
        <time>2022-03-14T11:03:35Z</time>
      </trkpt>
      <trkpt lat="47.12266" lon="-1.52633">
        <ele>63</ele>
        <time>2022-03-14T11:03:37Z</time>
      </trkpt>
      <trkpt lat="47.12251" lon="-1.52625">
        <ele>62</ele>
        <time>2022-03-14T11:03:39Z</time>
      </trkpt>
      <trkpt lat="47.12237" lon="-1.52617">
        <ele>62</ele>
        <time>2022-03-14T11:03:41Z</time>
      </trkpt>
      <trkpt lat="47.12222" lon="-1.52611">
        <ele>61</ele>
        <time>2022-03-14T11:03:43Z</time>
      </trkpt>
      <trkpt lat="47.12209" lon="-1.52605">
        <ele>61</ele>
        <time>2022-03-14T11:03:45Z</time>
      </trkpt>
      <trkpt lat="47.12194" lon="-1.52601">
        <ele>61</ele>
        <time>2022-03-14T11:03:47Z</time>
      </trkpt>
      <trkpt lat="47.1218" lon="-1.52597">
        <ele>60</ele>
        <time>2022-03-14T11:03:49Z</time>
      </trkpt>
      <trkpt lat="47.12165" lon="-1.52596">
        <ele>60</ele>
        <time>2022-03-14T11:03:51Z</time>
      </trkpt>
      <trkpt lat="47.12151" lon="-1.52595">
        <ele>61</ele>
        <time>2022-03-14T11:03:53Z</time>
      </trkpt>
      <trkpt lat="47.12136" lon="-1.52595">
        <ele>61</ele>
        <time>2022-03-14T11:03:55Z</time>
      </trkpt>
      <trkpt lat="47.12123" lon="-1.52595">
        <ele>61</ele>
        <time>2022-03-14T11:03:57Z</time>
      </trkpt>
      <trkpt lat="47.12111" lon="-1.52596">
        <ele>61</ele>
        <time>2022-03-14T11:03:59Z</time>
      </trkpt>
      <trkpt lat="47.12097" lon="-1.52595">
        <ele>61</ele>
        <time>2022-03-14T11:04:01Z</time>
      </trkpt>
      <trkpt lat="47.12082" lon="-1.52595">
        <ele>62</ele>
        <time>2022-03-14T11:04:03Z</time>
      </trkpt>
      <trkpt lat="47.12067" lon="-1.52595">
        <ele>61</ele>
        <time>2022-03-14T11:04:05Z</time>
      </trkpt>
      <trkpt lat="47.12052" lon="-1.52596">
        <ele>61</ele>
        <time>2022-03-14T11:04:07Z</time>
      </trkpt>
      <trkpt lat="47.12038" lon="-1.52595">
        <ele>61</ele>
        <time>2022-03-14T11:04:09Z</time>
      </trkpt>
      <trkpt lat="47.12023" lon="-1.52594">
        <ele>61</ele>
        <time>2022-03-14T11:04:11Z</time>
      </trkpt>
      <trkpt lat="47.12009" lon="-1.52591">
        <ele>60</ele>
        <time>2022-03-14T11:04:13Z</time>
      </trkpt>
      <trkpt lat="47.11994" lon="-1.52585">
        <ele>60</ele>
        <time>2022-03-14T11:04:15Z</time>
      </trkpt>
      <trkpt lat="47.1198" lon="-1.52579">
        <ele>60</ele>
        <time>2022-03-14T11:04:17Z</time>
      </trkpt>
      <trkpt lat="47.11967" lon="-1.52573">
        <ele>60</ele>
        <time>2022-03-14T11:04:19Z</time>
      </trkpt>
      <trkpt lat="47.11954" lon="-1.52567">
        <ele>60</ele>
        <time>2022-03-14T11:04:21Z</time>
      </trkpt>
      <trkpt lat="47.1194" lon="-1.5256">
        <ele>60</ele>
        <time>2022-03-14T11:04:23Z</time>
      </trkpt>
      <trkpt lat="47.11927" lon="-1.52552">
        <ele>60</ele>
        <time>2022-03-14T11:04:25Z</time>
      </trkpt>
      <trkpt lat="47.11917" lon="-1.52542">
        <ele>60</ele>
        <time>2022-03-14T11:04:27Z</time>
      </trkpt>
      <trkpt lat="47.11905" lon="-1.52532">
        <ele>59</ele>
        <time>2022-03-14T11:04:29Z</time>
      </trkpt>
      <trkpt lat="47.11891" lon="-1.52519">
        <ele>59</ele>
        <time>2022-03-14T11:04:31Z</time>
      </trkpt>
      <trkpt lat="47.1188" lon="-1.52506">
        <ele>59</ele>
        <time>2022-03-14T11:04:33Z</time>
      </trkpt>
      <trkpt lat="47.1187" lon="-1.52492">
        <ele>60</ele>
        <time>2022-03-14T11:04:35Z</time>
      </trkpt>
      <trkpt lat="47.11861" lon="-1.52477">
        <ele>60</ele>
        <time>2022-03-14T11:04:37Z</time>
      </trkpt>
      <trkpt lat="47.1185" lon="-1.52464">
        <ele>59</ele>
        <time>2022-03-14T11:04:39Z</time>
      </trkpt>
      <trkpt lat="47.11841" lon="-1.52452">
        <ele>60</ele>
        <time>2022-03-14T11:04:41Z</time>
      </trkpt>
      <trkpt lat="47.11832" lon="-1.5244">
        <ele>60</ele>
        <time>2022-03-14T11:04:43Z</time>
      </trkpt>
      <trkpt lat="47.11823" lon="-1.52428">
        <ele>60</ele>
        <time>2022-03-14T11:04:45Z</time>
      </trkpt>
      <trkpt lat="47.11813" lon="-1.52417">
        <ele>60</ele>
        <time>2022-03-14T11:04:47Z</time>
      </trkpt>
      <trkpt lat="47.11804" lon="-1.52405">
        <ele>60</ele>
        <time>2022-03-14T11:04:49Z</time>
      </trkpt>
      <trkpt lat="47.11795" lon="-1.52393">
        <ele>60</ele>
        <time>2022-03-14T11:04:51Z</time>
      </trkpt>
      <trkpt lat="47.11787" lon="-1.52381">
        <ele>61</ele>
        <time>2022-03-14T11:04:53Z</time>
      </trkpt>
      <trkpt lat="47.11778" lon="-1.52369">
        <ele>61</ele>
        <time>2022-03-14T11:04:55Z</time>
      </trkpt>
      <trkpt lat="47.11769" lon="-1.52358">
        <ele>62</ele>
        <time>2022-03-14T11:04:57Z</time>
      </trkpt>
      <trkpt lat="47.1176" lon="-1.52347">
        <ele>62</ele>
        <time>2022-03-14T11:04:59Z</time>
      </trkpt>
      <trkpt lat="47.11751" lon="-1.52336">
        <ele>62</ele>
        <time>2022-03-14T11:05:01Z</time>
      </trkpt>
      <trkpt lat="47.11743" lon="-1.52327">
        <ele>63</ele>
        <time>2022-03-14T11:05:03Z</time>
      </trkpt>
      <trkpt lat="47.11735" lon="-1.52317">
        <ele>63</ele>
        <time>2022-03-14T11:05:05Z</time>
      </trkpt>
      <trkpt lat="47.11726" lon="-1.52307">
        <ele>63</ele>
        <time>2022-03-14T11:05:07Z</time>
      </trkpt>
      <trkpt lat="47.11717" lon="-1.52298">
        <ele>64</ele>
        <time>2022-03-14T11:05:09Z</time>
      </trkpt>
      <trkpt lat="47.11708" lon="-1.5229">
        <ele>64</ele>
        <time>2022-03-14T11:05:11Z</time>
      </trkpt>
      <trkpt lat="47.11698" lon="-1.52284">
        <ele>64</ele>
        <time>2022-03-14T11:05:13Z</time>
      </trkpt>
      <trkpt lat="47.11687" lon="-1.52276">
        <ele>63</ele>
        <time>2022-03-14T11:05:15Z</time>
      </trkpt>
      <trkpt lat="47.11675" lon="-1.52269">
        <ele>63</ele>
        <time>2022-03-14T11:05:17Z</time>
      </trkpt>
      <trkpt lat="47.11662" lon="-1.52261">
        <ele>62</ele>
        <time>2022-03-14T11:05:19Z</time>
      </trkpt>
      <trkpt lat="47.11648" lon="-1.52253">
        <ele>61</ele>
        <time>2022-03-14T11:05:21Z</time>
      </trkpt>
      <trkpt lat="47.11634" lon="-1.52245">
        <ele>60</ele>
        <time>2022-03-14T11:05:23Z</time>
      </trkpt>
      <trkpt lat="47.1162" lon="-1.52237">
        <ele>60</ele>
        <time>2022-03-14T11:05:25Z</time>
      </trkpt>
      <trkpt lat="47.11606" lon="-1.52227">
        <ele>59</ele>
        <time>2022-03-14T11:05:27Z</time>
      </trkpt>
      <trkpt lat="47.11593" lon="-1.52216">
        <ele>58</ele>
        <time>2022-03-14T11:05:29Z</time>
      </trkpt>
      <trkpt lat="47.1158" lon="-1.52201">
        <ele>58</ele>
        <time>2022-03-14T11:05:31Z</time>
      </trkpt>
      <trkpt lat="47.11569" lon="-1.52186">
        <ele>57</ele>
        <time>2022-03-14T11:05:33Z</time>
      </trkpt>
      <trkpt lat="47.11558" lon="-1.52168">
        <ele>57</ele>
        <time>2022-03-14T11:05:35Z</time>
      </trkpt>
      <trkpt lat="47.11549" lon="-1.52152">
        <ele>57</ele>
        <time>2022-03-14T11:05:37Z</time>
      </trkpt>
      <trkpt lat="47.11539" lon="-1.52134">
        <ele>57</ele>
        <time>2022-03-14T11:05:39Z</time>
      </trkpt>
      <trkpt lat="47.1153" lon="-1.52117">
        <ele>56</ele>
        <time>2022-03-14T11:05:41Z</time>
      </trkpt>
      <trkpt lat="47.11521" lon="-1.52101">
        <ele>56</ele>
        <time>2022-03-14T11:05:43Z</time>
      </trkpt>
      <trkpt lat="47.11512" lon="-1.52086">
        <ele>57</ele>
        <time>2022-03-14T11:05:45Z</time>
      </trkpt>
      <trkpt lat="47.11504" lon="-1.52071">
        <ele>57</ele>
        <time>2022-03-14T11:05:47Z</time>
      </trkpt>
      <trkpt lat="47.11495" lon="-1.52057">
        <ele>57</ele>
        <time>2022-03-14T11:05:49Z</time>
      </trkpt>
      <trkpt lat="47.11487" lon="-1.52043">
        <ele>57</ele>
        <time>2022-03-14T11:05:51Z</time>
      </trkpt>
      <trkpt lat="47.11479" lon="-1.52026">
        <ele>57</ele>
        <time>2022-03-14T11:05:53Z</time>
      </trkpt>
      <trkpt lat="47.1147" lon="-1.52009">
        <ele>57</ele>
        <time>2022-03-14T11:05:55Z</time>
      </trkpt>
      <trkpt lat="47.11462" lon="-1.51994">
        <ele>57</ele>
        <time>2022-03-14T11:05:57Z</time>
      </trkpt>
      <trkpt lat="47.11454" lon="-1.5198">
        <ele>57</ele>
        <time>2022-03-14T11:05:59Z</time>
      </trkpt>
      <trkpt lat="47.11445" lon="-1.51966">
        <ele>58</ele>
        <time>2022-03-14T11:06:01Z</time>
      </trkpt>
      <trkpt lat="47.11437" lon="-1.51951">
        <ele>58</ele>
        <time>2022-03-14T11:06:03Z</time>
      </trkpt>
      <trkpt lat="47.11428" lon="-1.51934">
        <ele>57</ele>
        <time>2022-03-14T11:06:05Z</time>
      </trkpt>
      <trkpt lat="47.11419" lon="-1.51917">
        <ele>57</ele>
        <time>2022-03-14T11:06:07Z</time>
      </trkpt>
      <trkpt lat="47.1141" lon="-1.51902">
        <ele>56</ele>
        <time>2022-03-14T11:06:09Z</time>
      </trkpt>
      <trkpt lat="47.11401" lon="-1.51886">
        <ele>57</ele>
        <time>2022-03-14T11:06:11Z</time>
      </trkpt>
      <trkpt lat="47.11392" lon="-1.51871">
        <ele>57</ele>
        <time>2022-03-14T11:06:13Z</time>
      </trkpt>
      <trkpt lat="47.11384" lon="-1.51856">
        <ele>57</ele>
        <time>2022-03-14T11:06:15Z</time>
      </trkpt>
      <trkpt lat="47.11376" lon="-1.51841">
        <ele>57</ele>
        <time>2022-03-14T11:06:17Z</time>
      </trkpt>
      <trkpt lat="47.11367" lon="-1.51826">
        <ele>56</ele>
        <time>2022-03-14T11:06:19Z</time>
      </trkpt>
      <trkpt lat="47.11358" lon="-1.51811">
        <ele>56</ele>
        <time>2022-03-14T11:06:21Z</time>
      </trkpt>
      <trkpt lat="47.11348" lon="-1.51798">
        <ele>56</ele>
        <time>2022-03-14T11:06:23Z</time>
      </trkpt>
      <trkpt lat="47.11338" lon="-1.51788">
        <ele>56</ele>
        <time>2022-03-14T11:06:25Z</time>
      </trkpt>
      <trkpt lat="47.11327" lon="-1.51778">
        <ele>56</ele>
        <time>2022-03-14T11:06:27Z</time>
      </trkpt>
      <trkpt lat="47.11317" lon="-1.5177">
        <ele>56</ele>
        <time>2022-03-14T11:06:29Z</time>
      </trkpt>
      <trkpt lat="47.11308" lon="-1.51761">
        <ele>56</ele>
        <time>2022-03-14T11:06:31Z</time>
      </trkpt>
      <trkpt lat="47.11298" lon="-1.51752">
        <ele>56</ele>
        <time>2022-03-14T11:06:33Z</time>
      </trkpt>
      <trkpt lat="47.11287" lon="-1.51744">
        <ele>56</ele>
        <time>2022-03-14T11:06:35Z</time>
      </trkpt>
      <trkpt lat="47.11277" lon="-1.51735">
        <ele>56</ele>
        <time>2022-03-14T11:06:37Z</time>
      </trkpt>
      <trkpt lat="47.11268" lon="-1.51726">
        <ele>57</ele>
        <time>2022-03-14T11:06:39Z</time>
      </trkpt>
      <trkpt lat="47.11258" lon="-1.51718">
        <ele>57</ele>
        <time>2022-03-14T11:06:41Z</time>
      </trkpt>
      <trkpt lat="47.11249" lon="-1.5171">
        <ele>57</ele>
        <time>2022-03-14T11:06:43Z</time>
      </trkpt>
      <trkpt lat="47.11239" lon="-1.51701">
        <ele>58</ele>
        <time>2022-03-14T11:06:45Z</time>
      </trkpt>
      <trkpt lat="47.1123" lon="-1.51693">
        <ele>58</ele>
        <time>2022-03-14T11:06:47Z</time>
      </trkpt>
      <trkpt lat="47.11221" lon="-1.51685">
        <ele>59</ele>
        <time>2022-03-14T11:06:49Z</time>
      </trkpt>
      <trkpt lat="47.11212" lon="-1.51677">
        <ele>59</ele>
        <time>2022-03-14T11:06:51Z</time>
      </trkpt>
      <trkpt lat="47.11203" lon="-1.51668">
        <ele>59</ele>
        <time>2022-03-14T11:06:53Z</time>
      </trkpt>
      <trkpt lat="47.11195" lon="-1.5166">
        <ele>60</ele>
        <time>2022-03-14T11:06:55Z</time>
      </trkpt>
      <trkpt lat="47.11187" lon="-1.51651">
        <ele>59</ele>
        <time>2022-03-14T11:06:57Z</time>
      </trkpt>
      <trkpt lat="47.11179" lon="-1.51641">
        <ele>60</ele>
        <time>2022-03-14T11:06:59Z</time>
      </trkpt>
      <trkpt lat="47.11173" lon="-1.51631">
        <ele>60</ele>
        <time>2022-03-14T11:07:01Z</time>
      </trkpt>
      <trkpt lat="47.11166" lon="-1.5162">
        <ele>60</ele>
        <time>2022-03-14T11:07:03Z</time>
      </trkpt>
      <trkpt lat="47.1116" lon="-1.51609">
        <ele>61</ele>
        <time>2022-03-14T11:07:05Z</time>
      </trkpt>
      <trkpt lat="47.11153" lon="-1.51598">
        <ele>61</ele>
        <time>2022-03-14T11:07:07Z</time>
      </trkpt>
      <trkpt lat="47.11146" lon="-1.51588">
        <ele>62</ele>
        <time>2022-03-14T11:07:09Z</time>
      </trkpt>
      <trkpt lat="47.1114" lon="-1.51579">
        <ele>62</ele>
        <time>2022-03-14T11:07:11Z</time>
      </trkpt>
      <trkpt lat="47.11133" lon="-1.51568">
        <ele>63</ele>
        <time>2022-03-14T11:07:13Z</time>
      </trkpt>
      <trkpt lat="47.11126" lon="-1.51556">
        <ele>64</ele>
        <time>2022-03-14T11:07:15Z</time>
      </trkpt>
      <trkpt lat="47.11119" lon="-1.51545">
        <ele>65</ele>
        <time>2022-03-14T11:07:17Z</time>
      </trkpt>
      <trkpt lat="47.11112" lon="-1.51535">
        <ele>65</ele>
        <time>2022-03-14T11:07:19Z</time>
      </trkpt>
      <trkpt lat="47.11105" lon="-1.51524">
        <ele>65</ele>
        <time>2022-03-14T11:07:21Z</time>
      </trkpt>
      <trkpt lat="47.11098" lon="-1.51513">
        <ele>66</ele>
        <time>2022-03-14T11:07:23Z</time>
      </trkpt>
      <trkpt lat="47.11092" lon="-1.51503">
        <ele>67</ele>
        <time>2022-03-14T11:07:25Z</time>
      </trkpt>
      <trkpt lat="47.11085" lon="-1.51493">
        <ele>67</ele>
        <time>2022-03-14T11:07:27Z</time>
      </trkpt>
      <trkpt lat="47.11077" lon="-1.51484">
        <ele>67</ele>
        <time>2022-03-14T11:07:29Z</time>
      </trkpt>
      <trkpt lat="47.11068" lon="-1.51475">
        <ele>67</ele>
        <time>2022-03-14T11:07:31Z</time>
      </trkpt>
      <trkpt lat="47.1106" lon="-1.51467">
        <ele>68</ele>
        <time>2022-03-14T11:07:33Z</time>
      </trkpt>
      <trkpt lat="47.11051" lon="-1.51458">
        <ele>68</ele>
        <time>2022-03-14T11:07:35Z</time>
      </trkpt>
      <trkpt lat="47.11042" lon="-1.5145">
        <ele>67</ele>
        <time>2022-03-14T11:07:37Z</time>
      </trkpt>
      <trkpt lat="47.11034" lon="-1.51442">
        <ele>67</ele>
        <time>2022-03-14T11:07:39Z</time>
      </trkpt>
      <trkpt lat="47.11026" lon="-1.51434">
        <ele>68</ele>
        <time>2022-03-14T11:07:41Z</time>
      </trkpt>
      <trkpt lat="47.11017" lon="-1.51426">
        <ele>68</ele>
        <time>2022-03-14T11:07:43Z</time>
      </trkpt>
      <trkpt lat="47.11008" lon="-1.51417">
        <ele>68</ele>
        <time>2022-03-14T11:07:45Z</time>
      </trkpt>
      <trkpt lat="47.10999" lon="-1.51409">
        <ele>68</ele>
        <time>2022-03-14T11:07:47Z</time>
      </trkpt>
      <trkpt lat="47.1099" lon="-1.514">
        <ele>68</ele>
        <time>2022-03-14T11:07:49Z</time>
      </trkpt>
      <trkpt lat="47.1098" lon="-1.51392">
        <ele>68</ele>
        <time>2022-03-14T11:07:51Z</time>
      </trkpt>
      <trkpt lat="47.10971" lon="-1.51383">
        <ele>68</ele>
        <time>2022-03-14T11:07:53Z</time>
      </trkpt>
      <trkpt lat="47.10962" lon="-1.51374">
        <ele>68</ele>
        <time>2022-03-14T11:07:55Z</time>
      </trkpt>
      <trkpt lat="47.10953" lon="-1.51365">
        <ele>68</ele>
        <time>2022-03-14T11:07:57Z</time>
      </trkpt>
      <trkpt lat="47.10943" lon="-1.51356">
        <ele>68</ele>
        <time>2022-03-14T11:07:59Z</time>
      </trkpt>
      <trkpt lat="47.10933" lon="-1.51347">
        <ele>68</ele>
        <time>2022-03-14T11:08:01Z</time>
      </trkpt>
      <trkpt lat="47.10924" lon="-1.51339">
        <ele>68</ele>
        <time>2022-03-14T11:08:03Z</time>
      </trkpt>
      <trkpt lat="47.10915" lon="-1.51329">
        <ele>68</ele>
        <time>2022-03-14T11:08:05Z</time>
      </trkpt>
      <trkpt lat="47.10906" lon="-1.5132">
        <ele>68</ele>
        <time>2022-03-14T11:08:07Z</time>
      </trkpt>
      <trkpt lat="47.10896" lon="-1.51311">
        <ele>68</ele>
        <time>2022-03-14T11:08:09Z</time>
      </trkpt>
      <trkpt lat="47.10887" lon="-1.51303">
        <ele>68</ele>
        <time>2022-03-14T11:08:11Z</time>
      </trkpt>
      <trkpt lat="47.10878" lon="-1.51293">
        <ele>68</ele>
        <time>2022-03-14T11:08:13Z</time>
      </trkpt>
      <trkpt lat="47.10868" lon="-1.51284">
        <ele>68</ele>
        <time>2022-03-14T11:08:15Z</time>
      </trkpt>
      <trkpt lat="47.10859" lon="-1.51275">
        <ele>68</ele>
        <time>2022-03-14T11:08:17Z</time>
      </trkpt>
      <trkpt lat="47.10849" lon="-1.51267">
        <ele>68</ele>
        <time>2022-03-14T11:08:19Z</time>
      </trkpt>
      <trkpt lat="47.1084" lon="-1.51258">
        <ele>68</ele>
        <time>2022-03-14T11:08:21Z</time>
      </trkpt>
      <trkpt lat="47.10831" lon="-1.51249">
        <ele>68</ele>
        <time>2022-03-14T11:08:23Z</time>
      </trkpt>
      <trkpt lat="47.10822" lon="-1.5124">
        <ele>68</ele>
        <time>2022-03-14T11:08:25Z</time>
      </trkpt>
      <trkpt lat="47.10812" lon="-1.51231">
        <ele>68</ele>
        <time>2022-03-14T11:08:27Z</time>
      </trkpt>
      <trkpt lat="47.10803" lon="-1.51222">
        <ele>69</ele>
        <time>2022-03-14T11:08:29Z</time>
      </trkpt>
      <trkpt lat="47.10793" lon="-1.51213">
        <ele>68</ele>
        <time>2022-03-14T11:08:31Z</time>
      </trkpt>
      <trkpt lat="47.10784" lon="-1.51203">
        <ele>68</ele>
        <time>2022-03-14T11:08:33Z</time>
      </trkpt>
      <trkpt lat="47.10775" lon="-1.51194">
        <ele>68</ele>
        <time>2022-03-14T11:08:35Z</time>
      </trkpt>
      <trkpt lat="47.10765" lon="-1.51185">
        <ele>68</ele>
        <time>2022-03-14T11:08:37Z</time>
      </trkpt>
      <trkpt lat="47.10755" lon="-1.51176">
        <ele>68</ele>
        <time>2022-03-14T11:08:39Z</time>
      </trkpt>
      <trkpt lat="47.10745" lon="-1.51167">
        <ele>68</ele>
        <time>2022-03-14T11:08:41Z</time>
      </trkpt>
      <trkpt lat="47.10736" lon="-1.51158">
        <ele>68</ele>
        <time>2022-03-14T11:08:43Z</time>
      </trkpt>
      <trkpt lat="47.10726" lon="-1.51148">
        <ele>68</ele>
        <time>2022-03-14T11:08:45Z</time>
      </trkpt>
      <trkpt lat="47.10716" lon="-1.51139">
        <ele>68</ele>
        <time>2022-03-14T11:08:47Z</time>
      </trkpt>
      <trkpt lat="47.10706" lon="-1.51129">
        <ele>67</ele>
        <time>2022-03-14T11:08:49Z</time>
      </trkpt>
      <trkpt lat="47.10696" lon="-1.51118">
        <ele>67</ele>
        <time>2022-03-14T11:08:51Z</time>
      </trkpt>
      <trkpt lat="47.10688" lon="-1.51106">
        <ele>67</ele>
        <time>2022-03-14T11:08:53Z</time>
      </trkpt>
      <trkpt lat="47.10681" lon="-1.51091">
        <ele>66</ele>
        <time>2022-03-14T11:08:55Z</time>
      </trkpt>
      <trkpt lat="47.10674" lon="-1.51075">
        <ele>66</ele>
        <time>2022-03-14T11:08:57Z</time>
      </trkpt>
      <trkpt lat="47.10669" lon="-1.51057">
        <ele>66</ele>
        <time>2022-03-14T11:08:59Z</time>
      </trkpt>
      <trkpt lat="47.10663" lon="-1.51038">
        <ele>65</ele>
        <time>2022-03-14T11:09:01Z</time>
      </trkpt>
      <trkpt lat="47.10657" lon="-1.5102">
        <ele>65</ele>
        <time>2022-03-14T11:09:03Z</time>
      </trkpt>
      <trkpt lat="47.10649" lon="-1.51003">
        <ele>64</ele>
        <time>2022-03-14T11:09:05Z</time>
      </trkpt>
      <trkpt lat="47.10639" lon="-1.50988">
        <ele>64</ele>
        <time>2022-03-14T11:09:07Z</time>
      </trkpt>
      <trkpt lat="47.10628" lon="-1.50975">
        <ele>64</ele>
        <time>2022-03-14T11:09:09Z</time>
      </trkpt>
      <trkpt lat="47.10616" lon="-1.50963">
        <ele>64</ele>
        <time>2022-03-14T11:09:11Z</time>
      </trkpt>
      <trkpt lat="47.10604" lon="-1.5095">
        <ele>63</ele>
        <time>2022-03-14T11:09:13Z</time>
      </trkpt>
      <trkpt lat="47.10592" lon="-1.50938">
        <ele>63</ele>
        <time>2022-03-14T11:09:15Z</time>
      </trkpt>
      <trkpt lat="47.1058" lon="-1.50925">
        <ele>63</ele>
        <time>2022-03-14T11:09:17Z</time>
      </trkpt>
      <trkpt lat="47.10568" lon="-1.50912">
        <ele>62</ele>
        <time>2022-03-14T11:09:19Z</time>
      </trkpt>
      <trkpt lat="47.10556" lon="-1.50899">
        <ele>62</ele>
        <time>2022-03-14T11:09:21Z</time>
      </trkpt>
      <trkpt lat="47.10544" lon="-1.50885">
        <ele>62</ele>
        <time>2022-03-14T11:09:23Z</time>
      </trkpt>
      <trkpt lat="47.10533" lon="-1.50871">
        <ele>62</ele>
        <time>2022-03-14T11:09:25Z</time>
      </trkpt>
      <trkpt lat="47.10523" lon="-1.50855">
        <ele>61</ele>
        <time>2022-03-14T11:09:27Z</time>
      </trkpt>
      <trkpt lat="47.10514" lon="-1.5084">
        <ele>61</ele>
        <time>2022-03-14T11:09:29Z</time>
      </trkpt>
      <trkpt lat="47.10505" lon="-1.50824">
        <ele>61</ele>
        <time>2022-03-14T11:09:31Z</time>
      </trkpt>
      <trkpt lat="47.10496" lon="-1.50807">
        <ele>60</ele>
        <time>2022-03-14T11:09:33Z</time>
      </trkpt>
      <trkpt lat="47.10486" lon="-1.5079">
        <ele>60</ele>
        <time>2022-03-14T11:09:35Z</time>
      </trkpt>
      <trkpt lat="47.10478" lon="-1.50772">
        <ele>59</ele>
        <time>2022-03-14T11:09:37Z</time>
      </trkpt>
      <trkpt lat="47.1047" lon="-1.50754">
        <ele>59</ele>
        <time>2022-03-14T11:09:39Z</time>
      </trkpt>
      <trkpt lat="47.10464" lon="-1.50735">
        <ele>59</ele>
        <time>2022-03-14T11:09:41Z</time>
      </trkpt>
      <trkpt lat="47.10459" lon="-1.50715">
        <ele>58</ele>
        <time>2022-03-14T11:09:43Z</time>
      </trkpt>
      <trkpt lat="47.10454" lon="-1.50697">
        <ele>58</ele>
        <time>2022-03-14T11:09:45Z</time>
      </trkpt>
      <trkpt lat="47.10449" lon="-1.50678">
        <ele>58</ele>
        <time>2022-03-14T11:09:47Z</time>
      </trkpt>
      <trkpt lat="47.10443" lon="-1.5066">
        <ele>58</ele>
        <time>2022-03-14T11:09:49Z</time>
      </trkpt>
      <trkpt lat="47.10433" lon="-1.50645">
        <ele>58</ele>
        <time>2022-03-14T11:09:51Z</time>
      </trkpt>
      <trkpt lat="47.10423" lon="-1.50632">
        <ele>58</ele>
        <time>2022-03-14T11:09:53Z</time>
      </trkpt>
      <trkpt lat="47.10411" lon="-1.50622">
        <ele>58</ele>
        <time>2022-03-14T11:09:55Z</time>
      </trkpt>
      <trkpt lat="47.10399" lon="-1.50613">
        <ele>59</ele>
        <time>2022-03-14T11:09:57Z</time>
      </trkpt>
      <trkpt lat="47.10388" lon="-1.50603">
        <ele>59</ele>
        <time>2022-03-14T11:09:59Z</time>
      </trkpt>
      <trkpt lat="47.10378" lon="-1.50591">
        <ele>59</ele>
        <time>2022-03-14T11:10:01Z</time>
      </trkpt>
      <trkpt lat="47.1037" lon="-1.50577">
        <ele>59</ele>
        <time>2022-03-14T11:10:03Z</time>
      </trkpt>
      <trkpt lat="47.10362" lon="-1.50564">
        <ele>59</ele>
        <time>2022-03-14T11:10:05Z</time>
      </trkpt>
      <trkpt lat="47.10354" lon="-1.50551">
        <ele>59</ele>
        <time>2022-03-14T11:10:07Z</time>
      </trkpt>
      <trkpt lat="47.10346" lon="-1.50538">
        <ele>59</ele>
        <time>2022-03-14T11:10:09Z</time>
      </trkpt>
      <trkpt lat="47.10339" lon="-1.50525">
        <ele>59</ele>
        <time>2022-03-14T11:10:11Z</time>
      </trkpt>
      <trkpt lat="47.10331" lon="-1.50512">
        <ele>60</ele>
        <time>2022-03-14T11:10:13Z</time>
      </trkpt>
      <trkpt lat="47.10323" lon="-1.50499">
        <ele>60</ele>
        <time>2022-03-14T11:10:15Z</time>
      </trkpt>
      <trkpt lat="47.10316" lon="-1.50487">
        <ele>60</ele>
        <time>2022-03-14T11:10:17Z</time>
      </trkpt>
      <trkpt lat="47.10308" lon="-1.50474">
        <ele>61</ele>
        <time>2022-03-14T11:10:19Z</time>
      </trkpt>
      <trkpt lat="47.10301" lon="-1.50462">
        <ele>61</ele>
        <time>2022-03-14T11:10:21Z</time>
      </trkpt>
      <trkpt lat="47.10294" lon="-1.5045">
        <ele>61</ele>
        <time>2022-03-14T11:10:23Z</time>
      </trkpt>
      <trkpt lat="47.10286" lon="-1.50438">
        <ele>62</ele>
        <time>2022-03-14T11:10:25Z</time>
      </trkpt>
      <trkpt lat="47.10279" lon="-1.50427">
        <ele>62</ele>
        <time>2022-03-14T11:10:27Z</time>
      </trkpt>
      <trkpt lat="47.10271" lon="-1.50415">
        <ele>62</ele>
        <time>2022-03-14T11:10:29Z</time>
      </trkpt>
      <trkpt lat="47.10263" lon="-1.50401">
        <ele>62</ele>
        <time>2022-03-14T11:10:31Z</time>
      </trkpt>
      <trkpt lat="47.10256" lon="-1.50389">
        <ele>62</ele>
        <time>2022-03-14T11:10:33Z</time>
      </trkpt>
      <trkpt lat="47.10248" lon="-1.50377">
        <ele>62</ele>
        <time>2022-03-14T11:10:35Z</time>
      </trkpt>
      <trkpt lat="47.10241" lon="-1.50365">
        <ele>63</ele>
        <time>2022-03-14T11:10:37Z</time>
      </trkpt>
      <trkpt lat="47.10234" lon="-1.50354">
        <ele>64</ele>
        <time>2022-03-14T11:10:39Z</time>
      </trkpt>
      <trkpt lat="47.10227" lon="-1.50342">
        <ele>64</ele>
        <time>2022-03-14T11:10:41Z</time>
      </trkpt>
      <trkpt lat="47.1022" lon="-1.50331">
        <ele>65</ele>
        <time>2022-03-14T11:10:43Z</time>
      </trkpt>
      <trkpt lat="47.10213" lon="-1.5032">
        <ele>65</ele>
        <time>2022-03-14T11:10:45Z</time>
      </trkpt>
      <trkpt lat="47.10206" lon="-1.5031">
        <ele>65</ele>
        <time>2022-03-14T11:10:47Z</time>
      </trkpt>
      <trkpt lat="47.10198" lon="-1.50302">
        <ele>65</ele>
        <time>2022-03-14T11:10:49Z</time>
      </trkpt>
      <trkpt lat="47.10189" lon="-1.50294">
        <ele>65</ele>
        <time>2022-03-14T11:10:51Z</time>
      </trkpt>
      <trkpt lat="47.1018" lon="-1.50287">
        <ele>66</ele>
        <time>2022-03-14T11:10:53Z</time>
      </trkpt>
      <trkpt lat="47.1017" lon="-1.50279">
        <ele>66</ele>
        <time>2022-03-14T11:10:55Z</time>
      </trkpt>
      <trkpt lat="47.10162" lon="-1.50272">
        <ele>66</ele>
        <time>2022-03-14T11:10:57Z</time>
      </trkpt>
      <trkpt lat="47.10153" lon="-1.50266">
        <ele>66</ele>
        <time>2022-03-14T11:10:59Z</time>
      </trkpt>
      <trkpt lat="47.10144" lon="-1.5026">
        <ele>67</ele>
        <time>2022-03-14T11:11:01Z</time>
      </trkpt>
      <trkpt lat="47.10135" lon="-1.50253">
        <ele>67</ele>
        <time>2022-03-14T11:11:03Z</time>
      </trkpt>
      <trkpt lat="47.10126" lon="-1.50247">
        <ele>67</ele>
        <time>2022-03-14T11:11:05Z</time>
      </trkpt>
      <trkpt lat="47.10118" lon="-1.5024">
        <ele>67</ele>
        <time>2022-03-14T11:11:07Z</time>
      </trkpt>
      <trkpt lat="47.10109" lon="-1.50232">
        <ele>67</ele>
        <time>2022-03-14T11:11:09Z</time>
      </trkpt>
      <trkpt lat="47.10102" lon="-1.50224">
        <ele>67</ele>
        <time>2022-03-14T11:11:11Z</time>
      </trkpt>
      <trkpt lat="47.10095" lon="-1.50215">
        <ele>67</ele>
        <time>2022-03-14T11:11:13Z</time>
      </trkpt>
      <trkpt lat="47.1009" lon="-1.50204">
        <ele>68</ele>
        <time>2022-03-14T11:11:15Z</time>
      </trkpt>
      <trkpt lat="47.10085" lon="-1.50191">
        <ele>68</ele>
        <time>2022-03-14T11:11:17Z</time>
      </trkpt>
      <trkpt lat="47.10082" lon="-1.50177">
        <ele>68</ele>
        <time>2022-03-14T11:11:19Z</time>
      </trkpt>
      <trkpt lat="47.10081" lon="-1.50162">
        <ele>68</ele>
        <time>2022-03-14T11:11:21Z</time>
      </trkpt>
      <trkpt lat="47.1008" lon="-1.50147">
        <ele>68</ele>
        <time>2022-03-14T11:11:23Z</time>
      </trkpt>
      <trkpt lat="47.10079" lon="-1.50132">
        <ele>67</ele>
        <time>2022-03-14T11:11:25Z</time>
      </trkpt>
      <trkpt lat="47.10079" lon="-1.50118">
        <ele>67</ele>
        <time>2022-03-14T11:11:27Z</time>
      </trkpt>
      <trkpt lat="47.10078" lon="-1.50103">
        <ele>67</ele>
        <time>2022-03-14T11:11:29Z</time>
      </trkpt>
      <trkpt lat="47.10078" lon="-1.50088">
        <ele>67</ele>
        <time>2022-03-14T11:11:31Z</time>
      </trkpt>
      <trkpt lat="47.10078" lon="-1.50074">
        <ele>67</ele>
        <time>2022-03-14T11:11:33Z</time>
      </trkpt>
      <trkpt lat="47.10077" lon="-1.50059">
        <ele>67</ele>
        <time>2022-03-14T11:11:35Z</time>
      </trkpt>
      <trkpt lat="47.10077" lon="-1.50044">
        <ele>68</ele>
        <time>2022-03-14T11:11:37Z</time>
      </trkpt>
      <trkpt lat="47.10076" lon="-1.50029">
        <ele>68</ele>
        <time>2022-03-14T11:11:39Z</time>
      </trkpt>
      <trkpt lat="47.10076" lon="-1.50015">
        <ele>68</ele>
        <time>2022-03-14T11:11:41Z</time>
      </trkpt>
      <trkpt lat="47.10075" lon="-1.49999">
        <ele>68</ele>
        <time>2022-03-14T11:11:43Z</time>
      </trkpt>
      <trkpt lat="47.10074" lon="-1.49983">
        <ele>67</ele>
        <time>2022-03-14T11:11:45Z</time>
      </trkpt>
      <trkpt lat="47.10074" lon="-1.49968">
        <ele>68</ele>
        <time>2022-03-14T11:11:47Z</time>
      </trkpt>
      <trkpt lat="47.10073" lon="-1.49953">
        <ele>68</ele>
        <time>2022-03-14T11:11:49Z</time>
      </trkpt>
      <trkpt lat="47.10072" lon="-1.49937">
        <ele>68</ele>
        <time>2022-03-14T11:11:51Z</time>
      </trkpt>
      <trkpt lat="47.10071" lon="-1.49922">
        <ele>68</ele>
        <time>2022-03-14T11:11:53Z</time>
      </trkpt>
      <trkpt lat="47.10068" lon="-1.49905">
        <ele>68</ele>
        <time>2022-03-14T11:11:55Z</time>
      </trkpt>
      <trkpt lat="47.10065" lon="-1.49889">
        <ele>68</ele>
        <time>2022-03-14T11:11:57Z</time>
      </trkpt>
      <trkpt lat="47.1006" lon="-1.49873">
        <ele>68</ele>
        <time>2022-03-14T11:11:59Z</time>
      </trkpt>
      <trkpt lat="47.10055" lon="-1.49858">
        <ele>68</ele>
        <time>2022-03-14T11:12:01Z</time>
      </trkpt>
      <trkpt lat="47.10049" lon="-1.49843">
        <ele>67</ele>
        <time>2022-03-14T11:12:03Z</time>
      </trkpt>
      <trkpt lat="47.10042" lon="-1.49829">
        <ele>67</ele>
        <time>2022-03-14T11:12:05Z</time>
      </trkpt>
      <trkpt lat="47.10036" lon="-1.49814">
        <ele>68</ele>
        <time>2022-03-14T11:12:07Z</time>
      </trkpt>
      <trkpt lat="47.1003" lon="-1.498">
        <ele>68</ele>
        <time>2022-03-14T11:12:09Z</time>
      </trkpt>
      <trkpt lat="47.10023" lon="-1.49785">
        <ele>68</ele>
        <time>2022-03-14T11:12:11Z</time>
      </trkpt>
      <trkpt lat="47.10017" lon="-1.4977">
        <ele>67</ele>
        <time>2022-03-14T11:12:13Z</time>
      </trkpt>
      <trkpt lat="47.1001" lon="-1.49755">
        <ele>67</ele>
        <time>2022-03-14T11:12:15Z</time>
      </trkpt>
      <trkpt lat="47.10004" lon="-1.4974">
        <ele>68</ele>
        <time>2022-03-14T11:12:17Z</time>
      </trkpt>
      <trkpt lat="47.09998" lon="-1.49725">
        <ele>68</ele>
        <time>2022-03-14T11:12:19Z</time>
      </trkpt>
      <trkpt lat="47.09992" lon="-1.49711">
        <ele>68</ele>
        <time>2022-03-14T11:12:21Z</time>
      </trkpt>
      <trkpt lat="47.09986" lon="-1.49697">
        <ele>68</ele>
        <time>2022-03-14T11:12:23Z</time>
      </trkpt>
      <trkpt lat="47.0998" lon="-1.49683">
        <ele>69</ele>
        <time>2022-03-14T11:12:25Z</time>
      </trkpt>
      <trkpt lat="47.09974" lon="-1.4967">
        <ele>69</ele>
        <time>2022-03-14T11:12:27Z</time>
      </trkpt>
      <trkpt lat="47.09968" lon="-1.49656">
        <ele>69</ele>
        <time>2022-03-14T11:12:29Z</time>
      </trkpt>
      <trkpt lat="47.09962" lon="-1.49643">
        <ele>69</ele>
        <time>2022-03-14T11:12:31Z</time>
      </trkpt>
      <trkpt lat="47.09955" lon="-1.4963">
        <ele>69</ele>
        <time>2022-03-14T11:12:33Z</time>
      </trkpt>
      <trkpt lat="47.09949" lon="-1.49617">
        <ele>69</ele>
        <time>2022-03-14T11:12:35Z</time>
      </trkpt>
      <trkpt lat="47.09943" lon="-1.49603">
        <ele>69</ele>
        <time>2022-03-14T11:12:37Z</time>
      </trkpt>
      <trkpt lat="47.09938" lon="-1.4959">
        <ele>70</ele>
        <time>2022-03-14T11:12:39Z</time>
      </trkpt>
      <trkpt lat="47.09931" lon="-1.49577">
        <ele>70</ele>
        <time>2022-03-14T11:12:41Z</time>
      </trkpt>
      <trkpt lat="47.09926" lon="-1.49564">
        <ele>70</ele>
        <time>2022-03-14T11:12:43Z</time>
      </trkpt>
      <trkpt lat="47.09919" lon="-1.4955">
        <ele>70</ele>
        <time>2022-03-14T11:12:45Z</time>
      </trkpt>
      <trkpt lat="47.09913" lon="-1.49535">
        <ele>70</ele>
        <time>2022-03-14T11:12:47Z</time>
      </trkpt>
      <trkpt lat="47.09907" lon="-1.49522">
        <ele>70</ele>
        <time>2022-03-14T11:12:49Z</time>
      </trkpt>
      <trkpt lat="47.09901" lon="-1.49509">
        <ele>70</ele>
        <time>2022-03-14T11:12:51Z</time>
      </trkpt>
      <trkpt lat="47.09895" lon="-1.49495">
        <ele>70</ele>
        <time>2022-03-14T11:12:53Z</time>
      </trkpt>
      <trkpt lat="47.0989" lon="-1.4948">
        <ele>70</ele>
        <time>2022-03-14T11:12:55Z</time>
      </trkpt>
      <trkpt lat="47.09886" lon="-1.49465">
        <ele>70</ele>
        <time>2022-03-14T11:12:57Z</time>
      </trkpt>
      <trkpt lat="47.09881" lon="-1.49452">
        <ele>70</ele>
        <time>2022-03-14T11:12:59Z</time>
      </trkpt>
      <trkpt lat="47.09877" lon="-1.49437">
        <ele>71</ele>
        <time>2022-03-14T11:13:01Z</time>
      </trkpt>
      <trkpt lat="47.09875" lon="-1.49421">
        <ele>70</ele>
        <time>2022-03-14T11:13:03Z</time>
      </trkpt>
      <trkpt lat="47.09873" lon="-1.49405">
        <ele>70</ele>
        <time>2022-03-14T11:13:05Z</time>
      </trkpt>
      <trkpt lat="47.09871" lon="-1.4939">
        <ele>71</ele>
        <time>2022-03-14T11:13:07Z</time>
      </trkpt>
      <trkpt lat="47.09868" lon="-1.49374">
        <ele>71</ele>
        <time>2022-03-14T11:13:09Z</time>
      </trkpt>
      <trkpt lat="47.09866" lon="-1.49358">
        <ele>71</ele>
        <time>2022-03-14T11:13:11Z</time>
      </trkpt>
      <trkpt lat="47.09865" lon="-1.49343">
        <ele>71</ele>
        <time>2022-03-14T11:13:13Z</time>
      </trkpt>
      <trkpt lat="47.09863" lon="-1.49328">
        <ele>71</ele>
        <time>2022-03-14T11:13:15Z</time>
      </trkpt>
      <trkpt lat="47.09861" lon="-1.49313">
        <ele>71</ele>
        <time>2022-03-14T11:13:17Z</time>
      </trkpt>
      <trkpt lat="47.09859" lon="-1.49299">
        <ele>71</ele>
        <time>2022-03-14T11:13:19Z</time>
      </trkpt>
      <trkpt lat="47.09857" lon="-1.49285">
        <ele>71</ele>
        <time>2022-03-14T11:13:21Z</time>
      </trkpt>
      <trkpt lat="47.09856" lon="-1.49271">
        <ele>71</ele>
        <time>2022-03-14T11:13:23Z</time>
      </trkpt>
      <trkpt lat="47.09856" lon="-1.49255">
        <ele>71</ele>
        <time>2022-03-14T11:13:25Z</time>
      </trkpt>
      <trkpt lat="47.09855" lon="-1.4924">
        <ele>70</ele>
        <time>2022-03-14T11:13:27Z</time>
      </trkpt>
      <trkpt lat="47.09855" lon="-1.49224">
        <ele>70</ele>
        <time>2022-03-14T11:13:29Z</time>
      </trkpt>
      <trkpt lat="47.09854" lon="-1.49208">
        <ele>70</ele>
        <time>2022-03-14T11:13:31Z</time>
      </trkpt>
      <trkpt lat="47.09854" lon="-1.49191">
        <ele>69</ele>
        <time>2022-03-14T11:13:33Z</time>
      </trkpt>
      <trkpt lat="47.09854" lon="-1.49175">
        <ele>69</ele>
        <time>2022-03-14T11:13:35Z</time>
      </trkpt>
      <trkpt lat="47.09853" lon="-1.49158">
        <ele>68</ele>
        <time>2022-03-14T11:13:37Z</time>
      </trkpt>
      <trkpt lat="47.09853" lon="-1.49141">
        <ele>68</ele>
        <time>2022-03-14T11:13:39Z</time>
      </trkpt>
      <trkpt lat="47.09852" lon="-1.49126">
        <ele>68</ele>
        <time>2022-03-14T11:13:41Z</time>
      </trkpt>
      <trkpt lat="47.09852" lon="-1.4911">
        <ele>68</ele>
        <time>2022-03-14T11:13:43Z</time>
      </trkpt>
      <trkpt lat="47.09854" lon="-1.49092">
        <ele>68</ele>
        <time>2022-03-14T11:13:45Z</time>
      </trkpt>
      <trkpt lat="47.09854" lon="-1.49074">
        <ele>68</ele>
        <time>2022-03-14T11:13:47Z</time>
      </trkpt>
      <trkpt lat="47.09851" lon="-1.49058">
        <ele>68</ele>
        <time>2022-03-14T11:13:49Z</time>
      </trkpt>
      <trkpt lat="47.09846" lon="-1.49044">
        <ele>69</ele>
        <time>2022-03-14T11:13:51Z</time>
      </trkpt>
      <trkpt lat="47.0984" lon="-1.4903">
        <ele>69</ele>
        <time>2022-03-14T11:13:53Z</time>
      </trkpt>
      <trkpt lat="47.09834" lon="-1.49015">
        <ele>69</ele>
        <time>2022-03-14T11:13:55Z</time>
      </trkpt>
      <trkpt lat="47.09829" lon="-1.49001">
        <ele>69</ele>
        <time>2022-03-14T11:13:57Z</time>
      </trkpt>
      <trkpt lat="47.09825" lon="-1.48986">
        <ele>69</ele>
        <time>2022-03-14T11:14:00Z</time>
      </trkpt>
      <trkpt lat="47.09819" lon="-1.48973">
        <ele>69</ele>
        <time>2022-03-14T11:14:07Z</time>
      </trkpt>
      <trkpt lat="47.09807" lon="-1.48964">
        <ele>69</ele>
        <time>2022-03-14T11:14:10Z</time>
      </trkpt>
      <trkpt lat="47.09797" lon="-1.48954">
        <ele>68</ele>
        <time>2022-03-14T11:14:13Z</time>
      </trkpt>
      <trkpt lat="47.09795" lon="-1.4894">
        <ele>68</ele>
        <time>2022-03-14T11:14:15Z</time>
      </trkpt>
      <trkpt lat="47.09798" lon="-1.48924">
        <ele>68</ele>
        <time>2022-03-14T11:14:17Z</time>
      </trkpt>
      <trkpt lat="47.09801" lon="-1.48907">
        <ele>69</ele>
        <time>2022-03-14T11:14:19Z</time>
      </trkpt>
      <trkpt lat="47.09799" lon="-1.48891">
        <ele>70</ele>
        <time>2022-03-14T11:14:21Z</time>
      </trkpt>
      <trkpt lat="47.09793" lon="-1.48876">
        <ele>69</ele>
        <time>2022-03-14T11:14:23Z</time>
      </trkpt>
      <trkpt lat="47.09788" lon="-1.48861">
        <ele>69</ele>
        <time>2022-03-14T11:14:25Z</time>
      </trkpt>
      <trkpt lat="47.09782" lon="-1.48846">
        <ele>68</ele>
        <time>2022-03-14T11:14:27Z</time>
      </trkpt>
      <trkpt lat="47.09777" lon="-1.48831">
        <ele>68</ele>
        <time>2022-03-14T11:14:29Z</time>
      </trkpt>
      <trkpt lat="47.09771" lon="-1.48817">
        <ele>68</ele>
        <time>2022-03-14T11:14:31Z</time>
      </trkpt>
      <trkpt lat="47.09767" lon="-1.488">
        <ele>67</ele>
        <time>2022-03-14T11:14:33Z</time>
      </trkpt>
      <trkpt lat="47.09766" lon="-1.48783">
        <ele>67</ele>
        <time>2022-03-14T11:14:35Z</time>
      </trkpt>
      <trkpt lat="47.09766" lon="-1.48767">
        <ele>67</ele>
        <time>2022-03-14T11:14:37Z</time>
      </trkpt>
      <trkpt lat="47.0977" lon="-1.48752">
        <ele>67</ele>
        <time>2022-03-14T11:14:39Z</time>
      </trkpt>
      <trkpt lat="47.09778" lon="-1.4874">
        <ele>67</ele>
        <time>2022-03-14T11:14:41Z</time>
      </trkpt>
      <trkpt lat="47.09786" lon="-1.48728">
        <ele>67</ele>
        <time>2022-03-14T11:14:43Z</time>
      </trkpt>
      <trkpt lat="47.09794" lon="-1.48716">
        <ele>66</ele>
        <time>2022-03-14T11:14:45Z</time>
      </trkpt>
      <trkpt lat="47.09801" lon="-1.48703">
        <ele>66</ele>
        <time>2022-03-14T11:14:47Z</time>
      </trkpt>
      <trkpt lat="47.09808" lon="-1.48689">
        <ele>66</ele>
        <time>2022-03-14T11:14:49Z</time>
      </trkpt>
      <trkpt lat="47.09815" lon="-1.48677">
        <ele>65</ele>
        <time>2022-03-14T11:14:51Z</time>
      </trkpt>
      <trkpt lat="47.09822" lon="-1.48664">
        <ele>65</ele>
        <time>2022-03-14T11:14:53Z</time>
      </trkpt>
      <trkpt lat="47.09829" lon="-1.48651">
        <ele>65</ele>
        <time>2022-03-14T11:14:55Z</time>
      </trkpt>
      <trkpt lat="47.09836" lon="-1.48639">
        <ele>65</ele>
        <time>2022-03-14T11:14:57Z</time>
      </trkpt>
      <trkpt lat="47.09843" lon="-1.48626">
        <ele>65</ele>
        <time>2022-03-14T11:14:59Z</time>
      </trkpt>
      <trkpt lat="47.0985" lon="-1.48613">
        <ele>65</ele>
        <time>2022-03-14T11:15:01Z</time>
      </trkpt>
      <trkpt lat="47.09856" lon="-1.48601">
        <ele>65</ele>
        <time>2022-03-14T11:15:03Z</time>
      </trkpt>
      <trkpt lat="47.0986" lon="-1.48586">
        <ele>65</ele>
        <time>2022-03-14T11:15:05Z</time>
      </trkpt>
      <trkpt lat="47.09864" lon="-1.4857">
        <ele>65</ele>
        <time>2022-03-14T11:15:07Z</time>
      </trkpt>
      <trkpt lat="47.09866" lon="-1.48554">
        <ele>65</ele>
        <time>2022-03-14T11:15:09Z</time>
      </trkpt>
      <trkpt lat="47.09866" lon="-1.48539">
        <ele>65</ele>
        <time>2022-03-14T11:15:11Z</time>
      </trkpt>
      <trkpt lat="47.09867" lon="-1.48523">
        <ele>65</ele>
        <time>2022-03-14T11:15:13Z</time>
      </trkpt>
      <trkpt lat="47.09867" lon="-1.48507">
        <ele>65</ele>
        <time>2022-03-14T11:15:15Z</time>
      </trkpt>
      <trkpt lat="47.09866" lon="-1.48491">
        <ele>65</ele>
        <time>2022-03-14T11:15:17Z</time>
      </trkpt>
      <trkpt lat="47.09864" lon="-1.48475">
        <ele>65</ele>
        <time>2022-03-14T11:15:19Z</time>
      </trkpt>
      <trkpt lat="47.09862" lon="-1.48458">
        <ele>66</ele>
        <time>2022-03-14T11:15:21Z</time>
      </trkpt>
      <trkpt lat="47.0986" lon="-1.48443">
        <ele>66</ele>
        <time>2022-03-14T11:15:23Z</time>
      </trkpt>
      <trkpt lat="47.09858" lon="-1.48427">
        <ele>67</ele>
        <time>2022-03-14T11:15:25Z</time>
      </trkpt>
      <trkpt lat="47.09857" lon="-1.48411">
        <ele>67</ele>
        <time>2022-03-14T11:15:27Z</time>
      </trkpt>
      <trkpt lat="47.09856" lon="-1.48394">
        <ele>67</ele>
        <time>2022-03-14T11:15:29Z</time>
      </trkpt>
      <trkpt lat="47.09854" lon="-1.48378">
        <ele>67</ele>
        <time>2022-03-14T11:15:31Z</time>
      </trkpt>
      <trkpt lat="47.09852" lon="-1.48362">
        <ele>68</ele>
        <time>2022-03-14T11:15:33Z</time>
      </trkpt>
      <trkpt lat="47.09851" lon="-1.48346">
        <ele>68</ele>
        <time>2022-03-14T11:15:35Z</time>
      </trkpt>
      <trkpt lat="47.0985" lon="-1.4833">
        <ele>68</ele>
        <time>2022-03-14T11:15:37Z</time>
      </trkpt>
      <trkpt lat="47.0985" lon="-1.48313">
        <ele>68</ele>
        <time>2022-03-14T11:15:39Z</time>
      </trkpt>
      <trkpt lat="47.09848" lon="-1.48296">
        <ele>68</ele>
        <time>2022-03-14T11:15:41Z</time>
      </trkpt>
      <trkpt lat="47.09845" lon="-1.4828">
        <ele>68</ele>
        <time>2022-03-14T11:15:43Z</time>
      </trkpt>
      <trkpt lat="47.09844" lon="-1.48264">
        <ele>68</ele>
        <time>2022-03-14T11:15:45Z</time>
      </trkpt>
      <trkpt lat="47.09842" lon="-1.48249">
        <ele>69</ele>
        <time>2022-03-14T11:15:47Z</time>
      </trkpt>
      <trkpt lat="47.09841" lon="-1.48232">
        <ele>70</ele>
        <time>2022-03-14T11:15:49Z</time>
      </trkpt>
      <trkpt lat="47.09839" lon="-1.48216">
        <ele>70</ele>
        <time>2022-03-14T11:15:51Z</time>
      </trkpt>
      <trkpt lat="47.09838" lon="-1.482">
        <ele>70</ele>
        <time>2022-03-14T11:15:53Z</time>
      </trkpt>
      <trkpt lat="47.09838" lon="-1.48182">
        <ele>70</ele>
        <time>2022-03-14T11:15:55Z</time>
      </trkpt>
      <trkpt lat="47.0984" lon="-1.48166">
        <ele>70</ele>
        <time>2022-03-14T11:15:57Z</time>
      </trkpt>
      <trkpt lat="47.09841" lon="-1.48152">
        <ele>70</ele>
        <time>2022-03-14T11:15:59Z</time>
      </trkpt>
      <trkpt lat="47.09841" lon="-1.48139">
        <ele>70</ele>
        <time>2022-03-14T11:16:01Z</time>
      </trkpt>
      <trkpt lat="47.09842" lon="-1.4812">
        <ele>69</ele>
        <time>2022-03-14T11:16:04Z</time>
      </trkpt>
      <trkpt lat="47.09841" lon="-1.48107">
        <ele>69</ele>
        <time>2022-03-14T11:16:06Z</time>
      </trkpt>
      <trkpt lat="47.09839" lon="-1.48093">
        <ele>69</ele>
        <time>2022-03-14T11:16:08Z</time>
      </trkpt>
      <trkpt lat="47.09838" lon="-1.48078">
        <ele>69</ele>
        <time>2022-03-14T11:16:10Z</time>
      </trkpt>
      <trkpt lat="47.09836" lon="-1.48062">
        <ele>69</ele>
        <time>2022-03-14T11:16:12Z</time>
      </trkpt>
      <trkpt lat="47.09835" lon="-1.48044">
        <ele>70</ele>
        <time>2022-03-14T11:16:14Z</time>
      </trkpt>
      <trkpt lat="47.09834" lon="-1.48025">
        <ele>70</ele>
        <time>2022-03-14T11:16:16Z</time>
      </trkpt>
      <trkpt lat="47.09833" lon="-1.48008">
        <ele>70</ele>
        <time>2022-03-14T11:16:18Z</time>
      </trkpt>
      <trkpt lat="47.09832" lon="-1.47992">
        <ele>70</ele>
        <time>2022-03-14T11:16:20Z</time>
      </trkpt>
      <trkpt lat="47.09832" lon="-1.47975">
        <ele>71</ele>
        <time>2022-03-14T11:16:22Z</time>
      </trkpt>
      <trkpt lat="47.0983" lon="-1.47959">
        <ele>72</ele>
        <time>2022-03-14T11:16:24Z</time>
      </trkpt>
      <trkpt lat="47.09829" lon="-1.47943">
        <ele>73</ele>
        <time>2022-03-14T11:16:26Z</time>
      </trkpt>
      <trkpt lat="47.09828" lon="-1.47927">
        <ele>73</ele>
        <time>2022-03-14T11:16:28Z</time>
      </trkpt>
      <trkpt lat="47.09827" lon="-1.47911">
        <ele>73</ele>
        <time>2022-03-14T11:16:30Z</time>
      </trkpt>
      <trkpt lat="47.09825" lon="-1.47897">
        <ele>72</ele>
        <time>2022-03-14T11:16:32Z</time>
      </trkpt>
      <trkpt lat="47.09824" lon="-1.47882">
        <ele>72</ele>
        <time>2022-03-14T11:16:34Z</time>
      </trkpt>
      <trkpt lat="47.09822" lon="-1.47867">
        <ele>71</ele>
        <time>2022-03-14T11:16:36Z</time>
      </trkpt>
      <trkpt lat="47.09821" lon="-1.47852">
        <ele>72</ele>
        <time>2022-03-14T11:16:38Z</time>
      </trkpt>
      <trkpt lat="47.09819" lon="-1.47836">
        <ele>72</ele>
        <time>2022-03-14T11:16:40Z</time>
      </trkpt>
      <trkpt lat="47.09819" lon="-1.47819">
        <ele>73</ele>
        <time>2022-03-14T11:16:42Z</time>
      </trkpt>
      <trkpt lat="47.09817" lon="-1.47802">
        <ele>74</ele>
        <time>2022-03-14T11:16:44Z</time>
      </trkpt>
      <trkpt lat="47.09816" lon="-1.47785">
        <ele>74</ele>
        <time>2022-03-14T11:16:46Z</time>
      </trkpt>
      <trkpt lat="47.09815" lon="-1.47768">
        <ele>74</ele>
        <time>2022-03-14T11:16:48Z</time>
      </trkpt>
      <trkpt lat="47.09814" lon="-1.47751">
        <ele>74</ele>
        <time>2022-03-14T11:16:50Z</time>
      </trkpt>
      <trkpt lat="47.09814" lon="-1.47733">
        <ele>73</ele>
        <time>2022-03-14T11:16:52Z</time>
      </trkpt>
      <trkpt lat="47.09814" lon="-1.47716">
        <ele>73</ele>
        <time>2022-03-14T11:16:54Z</time>
      </trkpt>
      <trkpt lat="47.09815" lon="-1.47698">
        <ele>72</ele>
        <time>2022-03-14T11:16:56Z</time>
      </trkpt>
      <trkpt lat="47.09816" lon="-1.4768">
        <ele>72</ele>
        <time>2022-03-14T11:16:58Z</time>
      </trkpt>
      <trkpt lat="47.09817" lon="-1.47664">
        <ele>71</ele>
        <time>2022-03-14T11:17:00Z</time>
      </trkpt>
      <trkpt lat="47.09819" lon="-1.47648">
        <ele>71</ele>
        <time>2022-03-14T11:17:02Z</time>
      </trkpt>
      <trkpt lat="47.09822" lon="-1.47634">
        <ele>72</ele>
        <time>2022-03-14T11:17:04Z</time>
      </trkpt>
      <trkpt lat="47.09825" lon="-1.47619">
        <ele>72</ele>
        <time>2022-03-14T11:17:06Z</time>
      </trkpt>
      <trkpt lat="47.09828" lon="-1.47605">
        <ele>72</ele>
        <time>2022-03-14T11:17:08Z</time>
      </trkpt>
      <trkpt lat="47.09831" lon="-1.47592">
        <ele>72</ele>
        <time>2022-03-14T11:17:10Z</time>
      </trkpt>
      <trkpt lat="47.09835" lon="-1.47579">
        <ele>72</ele>
        <time>2022-03-14T11:17:12Z</time>
      </trkpt>
      <trkpt lat="47.09841" lon="-1.47562">
        <ele>72</ele>
        <time>2022-03-14T11:17:15Z</time>
      </trkpt>
      <trkpt lat="47.09848" lon="-1.47545">
        <ele>73</ele>
        <time>2022-03-14T11:17:18Z</time>
      </trkpt>
      <trkpt lat="47.09854" lon="-1.4753">
        <ele>74</ele>
        <time>2022-03-14T11:17:21Z</time>
      </trkpt>
      <trkpt lat="47.09862" lon="-1.47514">
        <ele>74</ele>
        <time>2022-03-14T11:17:24Z</time>
      </trkpt>
      <trkpt lat="47.0987" lon="-1.47499">
        <ele>74</ele>
        <time>2022-03-14T11:17:27Z</time>
      </trkpt>
      <trkpt lat="47.09878" lon="-1.47484">
        <ele>74</ele>
        <time>2022-03-14T11:17:30Z</time>
      </trkpt>
      <trkpt lat="47.09886" lon="-1.47469">
        <ele>75</ele>
        <time>2022-03-14T11:17:33Z</time>
      </trkpt>
      <trkpt lat="47.09894" lon="-1.47455">
        <ele>75</ele>
        <time>2022-03-14T11:17:36Z</time>
      </trkpt>
      <trkpt lat="47.09903" lon="-1.4744">
        <ele>75</ele>
        <time>2022-03-14T11:17:39Z</time>
      </trkpt>
      <trkpt lat="47.09908" lon="-1.47429">
        <ele>76</ele>
        <time>2022-03-14T11:17:41Z</time>
      </trkpt>
      <trkpt lat="47.09914" lon="-1.47419">
        <ele>76</ele>
        <time>2022-03-14T11:17:43Z</time>
      </trkpt>
      <trkpt lat="47.09922" lon="-1.47405">
        <ele>77</ele>
        <time>2022-03-14T11:17:46Z</time>
      </trkpt>
      <trkpt lat="47.0993" lon="-1.4739">
        <ele>77</ele>
        <time>2022-03-14T11:17:49Z</time>
      </trkpt>
      <trkpt lat="47.09938" lon="-1.47375">
        <ele>77</ele>
        <time>2022-03-14T11:17:52Z</time>
      </trkpt>
      <trkpt lat="47.09946" lon="-1.47361">
        <ele>77</ele>
        <time>2022-03-14T11:17:55Z</time>
      </trkpt>
      <trkpt lat="47.09953" lon="-1.47346">
        <ele>78</ele>
        <time>2022-03-14T11:17:58Z</time>
      </trkpt>
      <trkpt lat="47.09962" lon="-1.47331">
        <ele>78</ele>
        <time>2022-03-14T11:18:01Z</time>
      </trkpt>
      <trkpt lat="47.0997" lon="-1.47316">
        <ele>79</ele>
        <time>2022-03-14T11:18:04Z</time>
      </trkpt>
      <trkpt lat="47.09978" lon="-1.47301">
        <ele>80</ele>
        <time>2022-03-14T11:18:07Z</time>
      </trkpt>
      <trkpt lat="47.09987" lon="-1.47286">
        <ele>80</ele>
        <time>2022-03-14T11:18:10Z</time>
      </trkpt>
      <trkpt lat="47.09994" lon="-1.47271">
        <ele>81</ele>
        <time>2022-03-14T11:18:13Z</time>
      </trkpt>
      <trkpt lat="47.1" lon="-1.4726">
        <ele>81</ele>
        <time>2022-03-14T11:18:15Z</time>
      </trkpt>
      <trkpt lat="47.10006" lon="-1.47249">
        <ele>82</ele>
        <time>2022-03-14T11:18:17Z</time>
      </trkpt>
      <trkpt lat="47.10012" lon="-1.47237">
        <ele>82</ele>
        <time>2022-03-14T11:18:19Z</time>
      </trkpt>
      <trkpt lat="47.10018" lon="-1.47226">
        <ele>81</ele>
        <time>2022-03-14T11:18:21Z</time>
      </trkpt>
      <trkpt lat="47.10024" lon="-1.47215">
        <ele>81</ele>
        <time>2022-03-14T11:18:23Z</time>
      </trkpt>
      <trkpt lat="47.10031" lon="-1.47203">
        <ele>81</ele>
        <time>2022-03-14T11:18:25Z</time>
      </trkpt>
      <trkpt lat="47.10037" lon="-1.47191">
        <ele>81</ele>
        <time>2022-03-14T11:18:27Z</time>
      </trkpt>
      <trkpt lat="47.10044" lon="-1.47178">
        <ele>81</ele>
        <time>2022-03-14T11:18:29Z</time>
      </trkpt>
      <trkpt lat="47.10051" lon="-1.47164">
        <ele>81</ele>
        <time>2022-03-14T11:18:31Z</time>
      </trkpt>
      <trkpt lat="47.10057" lon="-1.4715">
        <ele>81</ele>
        <time>2022-03-14T11:18:33Z</time>
      </trkpt>
      <trkpt lat="47.10064" lon="-1.47134">
        <ele>80</ele>
        <time>2022-03-14T11:18:35Z</time>
      </trkpt>
      <trkpt lat="47.1007" lon="-1.47118">
        <ele>80</ele>
        <time>2022-03-14T11:18:37Z</time>
      </trkpt>
      <trkpt lat="47.10075" lon="-1.47101">
        <ele>80</ele>
        <time>2022-03-14T11:18:39Z</time>
      </trkpt>
      <trkpt lat="47.10081" lon="-1.47083">
        <ele>80</ele>
        <time>2022-03-14T11:18:41Z</time>
      </trkpt>
      <trkpt lat="47.10086" lon="-1.47066">
        <ele>80</ele>
        <time>2022-03-14T11:18:43Z</time>
      </trkpt>
      <trkpt lat="47.10091" lon="-1.47048">
        <ele>80</ele>
        <time>2022-03-14T11:18:45Z</time>
      </trkpt>
      <trkpt lat="47.10095" lon="-1.4703">
        <ele>80</ele>
        <time>2022-03-14T11:18:47Z</time>
      </trkpt>
      <trkpt lat="47.101" lon="-1.47014">
        <ele>80</ele>
        <time>2022-03-14T11:18:49Z</time>
      </trkpt>
      <trkpt lat="47.10104" lon="-1.46997">
        <ele>80</ele>
        <time>2022-03-14T11:18:51Z</time>
      </trkpt>
      <trkpt lat="47.10109" lon="-1.46981">
        <ele>80</ele>
        <time>2022-03-14T11:18:53Z</time>
      </trkpt>
      <trkpt lat="47.10112" lon="-1.46966">
        <ele>81</ele>
        <time>2022-03-14T11:18:55Z</time>
      </trkpt>
      <trkpt lat="47.10116" lon="-1.46952">
        <ele>81</ele>
        <time>2022-03-14T11:18:57Z</time>
      </trkpt>
      <trkpt lat="47.1012" lon="-1.46937">
        <ele>81</ele>
        <time>2022-03-14T11:18:59Z</time>
      </trkpt>
      <trkpt lat="47.10124" lon="-1.46923">
        <ele>81</ele>
        <time>2022-03-14T11:19:01Z</time>
      </trkpt>
      <trkpt lat="47.10127" lon="-1.46909">
        <ele>82</ele>
        <time>2022-03-14T11:19:03Z</time>
      </trkpt>
      <trkpt lat="47.10131" lon="-1.46896">
        <ele>82</ele>
        <time>2022-03-14T11:19:05Z</time>
      </trkpt>
      <trkpt lat="47.10134" lon="-1.46882">
        <ele>82</ele>
        <time>2022-03-14T11:19:07Z</time>
      </trkpt>
      <trkpt lat="47.10138" lon="-1.46869">
        <ele>82</ele>
        <time>2022-03-14T11:19:09Z</time>
      </trkpt>
      <trkpt lat="47.10142" lon="-1.46855">
        <ele>83</ele>
        <time>2022-03-14T11:19:11Z</time>
      </trkpt>
      <trkpt lat="47.10145" lon="-1.46841">
        <ele>83</ele>
        <time>2022-03-14T11:19:13Z</time>
      </trkpt>
      <trkpt lat="47.10148" lon="-1.46828">
        <ele>83</ele>
        <time>2022-03-14T11:19:15Z</time>
      </trkpt>
      <trkpt lat="47.10151" lon="-1.46814">
        <ele>84</ele>
        <time>2022-03-14T11:19:17Z</time>
      </trkpt>
      <trkpt lat="47.10154" lon="-1.46801">
        <ele>84</ele>
        <time>2022-03-14T11:19:19Z</time>
      </trkpt>
      <trkpt lat="47.10157" lon="-1.46788">
        <ele>83</ele>
        <time>2022-03-14T11:19:21Z</time>
      </trkpt>
      <trkpt lat="47.1016" lon="-1.46775">
        <ele>84</ele>
        <time>2022-03-14T11:19:23Z</time>
      </trkpt>
      <trkpt lat="47.10163" lon="-1.46761">
        <ele>84</ele>
        <time>2022-03-14T11:19:25Z</time>
      </trkpt>
      <trkpt lat="47.10165" lon="-1.46747">
        <ele>85</ele>
        <time>2022-03-14T11:19:27Z</time>
      </trkpt>
      <trkpt lat="47.10167" lon="-1.46732">
        <ele>85</ele>
        <time>2022-03-14T11:19:29Z</time>
      </trkpt>
      <trkpt lat="47.10169" lon="-1.46718">
        <ele>85</ele>
        <time>2022-03-14T11:19:31Z</time>
      </trkpt>
      <trkpt lat="47.1017" lon="-1.46704">
        <ele>85</ele>
        <time>2022-03-14T11:19:33Z</time>
      </trkpt>
      <trkpt lat="47.10173" lon="-1.46691">
        <ele>85</ele>
        <time>2022-03-14T11:19:35Z</time>
      </trkpt>
      <trkpt lat="47.10174" lon="-1.46678">
        <ele>85</ele>
        <time>2022-03-14T11:19:37Z</time>
      </trkpt>
      <trkpt lat="47.10177" lon="-1.46664">
        <ele>85</ele>
        <time>2022-03-14T11:19:39Z</time>
      </trkpt>
      <trkpt lat="47.10178" lon="-1.46651">
        <ele>85</ele>
        <time>2022-03-14T11:19:41Z</time>
      </trkpt>
      <trkpt lat="47.10181" lon="-1.46638">
        <ele>85</ele>
        <time>2022-03-14T11:19:43Z</time>
      </trkpt>
      <trkpt lat="47.10183" lon="-1.46624">
        <ele>85</ele>
        <time>2022-03-14T11:19:45Z</time>
      </trkpt>
      <trkpt lat="47.10185" lon="-1.4661">
        <ele>85</ele>
        <time>2022-03-14T11:19:47Z</time>
      </trkpt>
      <trkpt lat="47.10187" lon="-1.46597">
        <ele>85</ele>
        <time>2022-03-14T11:19:49Z</time>
      </trkpt>
      <trkpt lat="47.10189" lon="-1.46583">
        <ele>86</ele>
        <time>2022-03-14T11:19:51Z</time>
      </trkpt>
      <trkpt lat="47.10191" lon="-1.46569">
        <ele>86</ele>
        <time>2022-03-14T11:19:53Z</time>
      </trkpt>
      <trkpt lat="47.10192" lon="-1.46555">
        <ele>87</ele>
        <time>2022-03-14T11:19:55Z</time>
      </trkpt>
      <trkpt lat="47.10192" lon="-1.46541">
        <ele>87</ele>
        <time>2022-03-14T11:19:57Z</time>
      </trkpt>
      <trkpt lat="47.10194" lon="-1.46522">
        <ele>87</ele>
        <time>2022-03-14T11:20:00Z</time>
      </trkpt>
      <trkpt lat="47.10194" lon="-1.46508">
        <ele>87</ele>
        <time>2022-03-14T11:20:02Z</time>
      </trkpt>
      <trkpt lat="47.10195" lon="-1.46489">
        <ele>88</ele>
        <time>2022-03-14T11:20:05Z</time>
      </trkpt>
      <trkpt lat="47.10196" lon="-1.46469">
        <ele>89</ele>
        <time>2022-03-14T11:20:08Z</time>
      </trkpt>
      <trkpt lat="47.10197" lon="-1.46449">
        <ele>90</ele>
        <time>2022-03-14T11:20:11Z</time>
      </trkpt>
      <trkpt lat="47.10198" lon="-1.46431">
        <ele>90</ele>
        <time>2022-03-14T11:20:14Z</time>
      </trkpt>
      <trkpt lat="47.102" lon="-1.46411">
        <ele>91</ele>
        <time>2022-03-14T11:20:17Z</time>
      </trkpt>
      <trkpt lat="47.10201" lon="-1.46391">
        <ele>92</ele>
        <time>2022-03-14T11:20:20Z</time>
      </trkpt>
      <trkpt lat="47.10204" lon="-1.46378">
        <ele>92</ele>
        <time>2022-03-14T11:20:22Z</time>
      </trkpt>
      <trkpt lat="47.10207" lon="-1.46366">
        <ele>92</ele>
        <time>2022-03-14T11:20:24Z</time>
      </trkpt>
      <trkpt lat="47.10213" lon="-1.46348">
        <ele>93</ele>
        <time>2022-03-14T11:20:27Z</time>
      </trkpt>
      <trkpt lat="47.10218" lon="-1.46338">
        <ele>93</ele>
        <time>2022-03-14T11:20:29Z</time>
      </trkpt>
      <trkpt lat="47.10227" lon="-1.46323">
        <ele>94</ele>
        <time>2022-03-14T11:20:32Z</time>
      </trkpt>
      <trkpt lat="47.10236" lon="-1.46308">
        <ele>94</ele>
        <time>2022-03-14T11:20:35Z</time>
      </trkpt>
      <trkpt lat="47.10242" lon="-1.46299">
        <ele>94</ele>
        <time>2022-03-14T11:20:37Z</time>
      </trkpt>
      <trkpt lat="47.10248" lon="-1.46288">
        <ele>94</ele>
        <time>2022-03-14T11:20:39Z</time>
      </trkpt>
      <trkpt lat="47.10255" lon="-1.46278">
        <ele>95</ele>
        <time>2022-03-14T11:20:41Z</time>
      </trkpt>
      <trkpt lat="47.10261" lon="-1.46269">
        <ele>95</ele>
        <time>2022-03-14T11:20:43Z</time>
      </trkpt>
      <trkpt lat="47.10268" lon="-1.46259">
        <ele>95</ele>
        <time>2022-03-14T11:20:45Z</time>
      </trkpt>
      <trkpt lat="47.10274" lon="-1.46249">
        <ele>95</ele>
        <time>2022-03-14T11:20:47Z</time>
      </trkpt>
      <trkpt lat="47.10283" lon="-1.46235">
        <ele>96</ele>
        <time>2022-03-14T11:20:50Z</time>
      </trkpt>
      <trkpt lat="47.1029" lon="-1.46221">
        <ele>96</ele>
        <time>2022-03-14T11:20:53Z</time>
      </trkpt>
      <trkpt lat="47.10284" lon="-1.46206">
        <ele>97</ele>
        <time>2022-03-14T11:20:56Z</time>
      </trkpt>
      <trkpt lat="47.10279" lon="-1.46195">
        <ele>98</ele>
        <time>2022-03-14T11:20:58Z</time>
      </trkpt>
      <trkpt lat="47.10273" lon="-1.46185">
        <ele>98</ele>
        <time>2022-03-14T11:21:00Z</time>
      </trkpt>
      <trkpt lat="47.10266" lon="-1.46174">
        <ele>98</ele>
        <time>2022-03-14T11:21:02Z</time>
      </trkpt>
      <trkpt lat="47.1026" lon="-1.46162">
        <ele>98</ele>
        <time>2022-03-14T11:21:04Z</time>
      </trkpt>
      <trkpt lat="47.10254" lon="-1.46151">
        <ele>97</ele>
        <time>2022-03-14T11:21:06Z</time>
      </trkpt>
      <trkpt lat="47.10248" lon="-1.4614">
        <ele>98</ele>
        <time>2022-03-14T11:21:08Z</time>
      </trkpt>
      <trkpt lat="47.10241" lon="-1.46127">
        <ele>98</ele>
        <time>2022-03-14T11:21:10Z</time>
      </trkpt>
      <trkpt lat="47.10234" lon="-1.46115">
        <ele>98</ele>
        <time>2022-03-14T11:21:12Z</time>
      </trkpt>
      <trkpt lat="47.10228" lon="-1.46103">
        <ele>99</ele>
        <time>2022-03-14T11:21:14Z</time>
      </trkpt>
      <trkpt lat="47.10221" lon="-1.46091">
        <ele>99</ele>
        <time>2022-03-14T11:21:16Z</time>
      </trkpt>
      <trkpt lat="47.10214" lon="-1.46079">
        <ele>99</ele>
        <time>2022-03-14T11:21:18Z</time>
      </trkpt>
      <trkpt lat="47.10208" lon="-1.46067">
        <ele>100</ele>
        <time>2022-03-14T11:21:20Z</time>
      </trkpt>
      <trkpt lat="47.10201" lon="-1.46055">
        <ele>100</ele>
        <time>2022-03-14T11:21:22Z</time>
      </trkpt>
      <trkpt lat="47.10194" lon="-1.46043">
        <ele>100</ele>
        <time>2022-03-14T11:21:24Z</time>
      </trkpt>
      <trkpt lat="47.10186" lon="-1.46032">
        <ele>100</ele>
        <time>2022-03-14T11:21:26Z</time>
      </trkpt>
      <trkpt lat="47.10178" lon="-1.46019">
        <ele>99</ele>
        <time>2022-03-14T11:21:28Z</time>
      </trkpt>
      <trkpt lat="47.10172" lon="-1.46006">
        <ele>99</ele>
        <time>2022-03-14T11:21:30Z</time>
      </trkpt>
      <trkpt lat="47.10164" lon="-1.45993">
        <ele>99</ele>
        <time>2022-03-14T11:21:32Z</time>
      </trkpt>
      <trkpt lat="47.10157" lon="-1.4598">
        <ele>100</ele>
        <time>2022-03-14T11:21:34Z</time>
      </trkpt>
      <trkpt lat="47.1015" lon="-1.45968">
        <ele>100</ele>
        <time>2022-03-14T11:21:36Z</time>
      </trkpt>
      <trkpt lat="47.10143" lon="-1.45955">
        <ele>100</ele>
        <time>2022-03-14T11:21:38Z</time>
      </trkpt>
      <trkpt lat="47.10136" lon="-1.45941">
        <ele>101</ele>
        <time>2022-03-14T11:21:40Z</time>
      </trkpt>
      <trkpt lat="47.10129" lon="-1.45928">
        <ele>101</ele>
        <time>2022-03-14T11:21:42Z</time>
      </trkpt>
      <trkpt lat="47.10121" lon="-1.45915">
        <ele>100</ele>
        <time>2022-03-14T11:21:44Z</time>
      </trkpt>
      <trkpt lat="47.10115" lon="-1.45902">
        <ele>100</ele>
        <time>2022-03-14T11:21:46Z</time>
      </trkpt>
      <trkpt lat="47.10108" lon="-1.45889">
        <ele>100</ele>
        <time>2022-03-14T11:21:48Z</time>
      </trkpt>
      <trkpt lat="47.10101" lon="-1.45876">
        <ele>100</ele>
        <time>2022-03-14T11:21:50Z</time>
      </trkpt>
      <trkpt lat="47.10094" lon="-1.45863">
        <ele>100</ele>
        <time>2022-03-14T11:21:52Z</time>
      </trkpt>
      <trkpt lat="47.10086" lon="-1.4585">
        <ele>100</ele>
        <time>2022-03-14T11:21:54Z</time>
      </trkpt>
      <trkpt lat="47.1008" lon="-1.45836">
        <ele>100</ele>
        <time>2022-03-14T11:21:56Z</time>
      </trkpt>
      <trkpt lat="47.10073" lon="-1.45822">
        <ele>100</ele>
        <time>2022-03-14T11:21:58Z</time>
      </trkpt>
      <trkpt lat="47.10065" lon="-1.45808">
        <ele>100</ele>
        <time>2022-03-14T11:22:00Z</time>
      </trkpt>
      <trkpt lat="47.10058" lon="-1.45793">
        <ele>99</ele>
        <time>2022-03-14T11:22:02Z</time>
      </trkpt>
      <trkpt lat="47.10051" lon="-1.45779">
        <ele>100</ele>
        <time>2022-03-14T11:22:04Z</time>
      </trkpt>
      <trkpt lat="47.10043" lon="-1.45764">
        <ele>100</ele>
        <time>2022-03-14T11:22:06Z</time>
      </trkpt>
      <trkpt lat="47.10035" lon="-1.45749">
        <ele>100</ele>
        <time>2022-03-14T11:22:08Z</time>
      </trkpt>
      <trkpt lat="47.10027" lon="-1.45734">
        <ele>100</ele>
        <time>2022-03-14T11:22:10Z</time>
      </trkpt>
      <trkpt lat="47.10019" lon="-1.45718">
        <ele>99</ele>
        <time>2022-03-14T11:22:12Z</time>
      </trkpt>
      <trkpt lat="47.10012" lon="-1.45703">
        <ele>99</ele>
        <time>2022-03-14T11:22:14Z</time>
      </trkpt>
      <trkpt lat="47.10003" lon="-1.45689">
        <ele>100</ele>
        <time>2022-03-14T11:22:16Z</time>
      </trkpt>
      <trkpt lat="47.09996" lon="-1.45673">
        <ele>100</ele>
        <time>2022-03-14T11:22:18Z</time>
      </trkpt>
      <trkpt lat="47.09988" lon="-1.45659">
        <ele>100</ele>
        <time>2022-03-14T11:22:20Z</time>
      </trkpt>
      <trkpt lat="47.0998" lon="-1.45644">
        <ele>100</ele>
        <time>2022-03-14T11:22:22Z</time>
      </trkpt>
      <trkpt lat="47.09973" lon="-1.4563">
        <ele>100</ele>
        <time>2022-03-14T11:22:24Z</time>
      </trkpt>
      <trkpt lat="47.09965" lon="-1.45616">
        <ele>101</ele>
        <time>2022-03-14T11:22:26Z</time>
      </trkpt>
      <trkpt lat="47.09958" lon="-1.456">
        <ele>101</ele>
        <time>2022-03-14T11:22:28Z</time>
      </trkpt>
      <trkpt lat="47.0995" lon="-1.45586">
        <ele>101</ele>
        <time>2022-03-14T11:22:30Z</time>
      </trkpt>
      <trkpt lat="47.09942" lon="-1.45571">
        <ele>100</ele>
        <time>2022-03-14T11:22:32Z</time>
      </trkpt>
      <trkpt lat="47.09934" lon="-1.45555">
        <ele>100</ele>
        <time>2022-03-14T11:22:34Z</time>
      </trkpt>
      <trkpt lat="47.09927" lon="-1.4554">
        <ele>100</ele>
        <time>2022-03-14T11:22:36Z</time>
      </trkpt>
      <trkpt lat="47.09916" lon="-1.45516">
        <ele>100</ele>
        <time>2022-03-14T11:22:39Z</time>
      </trkpt>
      <trkpt lat="47.09907" lon="-1.45492">
        <ele>100</ele>
        <time>2022-03-14T11:22:42Z</time>
      </trkpt>
      <trkpt lat="47.09899" lon="-1.45478">
        <ele>100</ele>
        <time>2022-03-14T11:22:44Z</time>
      </trkpt>
      <trkpt lat="47.09893" lon="-1.45462">
        <ele>100</ele>
        <time>2022-03-14T11:22:46Z</time>
      </trkpt>
      <trkpt lat="47.09886" lon="-1.45447">
        <ele>100</ele>
        <time>2022-03-14T11:22:48Z</time>
      </trkpt>
      <trkpt lat="47.09879" lon="-1.45431">
        <ele>99</ele>
        <time>2022-03-14T11:22:50Z</time>
      </trkpt>
      <trkpt lat="47.09872" lon="-1.45415">
        <ele>99</ele>
        <time>2022-03-14T11:22:52Z</time>
      </trkpt>
      <trkpt lat="47.09865" lon="-1.454">
        <ele>99</ele>
        <time>2022-03-14T11:22:54Z</time>
      </trkpt>
      <trkpt lat="47.09858" lon="-1.45383">
        <ele>99</ele>
        <time>2022-03-14T11:22:56Z</time>
      </trkpt>
      <trkpt lat="47.09851" lon="-1.45368">
        <ele>98</ele>
        <time>2022-03-14T11:22:58Z</time>
      </trkpt>
      <trkpt lat="47.09844" lon="-1.45352">
        <ele>98</ele>
        <time>2022-03-14T11:23:00Z</time>
      </trkpt>
      <trkpt lat="47.09837" lon="-1.45336">
        <ele>98</ele>
        <time>2022-03-14T11:23:02Z</time>
      </trkpt>
      <trkpt lat="47.09831" lon="-1.45319">
        <ele>98</ele>
        <time>2022-03-14T11:23:04Z</time>
      </trkpt>
      <trkpt lat="47.09823" lon="-1.45303">
        <ele>98</ele>
        <time>2022-03-14T11:23:06Z</time>
      </trkpt>
      <trkpt lat="47.09816" lon="-1.45287">
        <ele>98</ele>
        <time>2022-03-14T11:23:08Z</time>
      </trkpt>
      <trkpt lat="47.0981" lon="-1.45271">
        <ele>98</ele>
        <time>2022-03-14T11:23:10Z</time>
      </trkpt>
      <trkpt lat="47.09802" lon="-1.45255">
        <ele>98</ele>
        <time>2022-03-14T11:23:12Z</time>
      </trkpt>
      <trkpt lat="47.09795" lon="-1.45239">
        <ele>98</ele>
        <time>2022-03-14T11:23:14Z</time>
      </trkpt>
      <trkpt lat="47.09788" lon="-1.45223">
        <ele>97</ele>
        <time>2022-03-14T11:23:16Z</time>
      </trkpt>
      <trkpt lat="47.09782" lon="-1.45208">
        <ele>98</ele>
        <time>2022-03-14T11:23:18Z</time>
      </trkpt>
      <trkpt lat="47.09775" lon="-1.45193">
        <ele>98</ele>
        <time>2022-03-14T11:23:20Z</time>
      </trkpt>
      <trkpt lat="47.09768" lon="-1.45179">
        <ele>98</ele>
        <time>2022-03-14T11:23:22Z</time>
      </trkpt>
      <trkpt lat="47.09762" lon="-1.45164">
        <ele>98</ele>
        <time>2022-03-14T11:23:24Z</time>
      </trkpt>
      <trkpt lat="47.09755" lon="-1.4515">
        <ele>98</ele>
        <time>2022-03-14T11:23:26Z</time>
      </trkpt>
      <trkpt lat="47.09748" lon="-1.45136">
        <ele>98</ele>
        <time>2022-03-14T11:23:28Z</time>
      </trkpt>
      <trkpt lat="47.09741" lon="-1.45121">
        <ele>97</ele>
        <time>2022-03-14T11:23:30Z</time>
      </trkpt>
      <trkpt lat="47.09734" lon="-1.45107">
        <ele>97</ele>
        <time>2022-03-14T11:23:32Z</time>
      </trkpt>
      <trkpt lat="47.09728" lon="-1.45093">
        <ele>97</ele>
        <time>2022-03-14T11:23:34Z</time>
      </trkpt>
      <trkpt lat="47.09721" lon="-1.45079">
        <ele>97</ele>
        <time>2022-03-14T11:23:36Z</time>
      </trkpt>
      <trkpt lat="47.09714" lon="-1.45064">
        <ele>97</ele>
        <time>2022-03-14T11:23:38Z</time>
      </trkpt>
      <trkpt lat="47.09708" lon="-1.45049">
        <ele>97</ele>
        <time>2022-03-14T11:23:40Z</time>
      </trkpt>
      <trkpt lat="47.09702" lon="-1.45036">
        <ele>96</ele>
        <time>2022-03-14T11:23:42Z</time>
      </trkpt>
      <trkpt lat="47.09695" lon="-1.45022">
        <ele>96</ele>
        <time>2022-03-14T11:23:44Z</time>
      </trkpt>
      <trkpt lat="47.09689" lon="-1.45009">
        <ele>96</ele>
        <time>2022-03-14T11:23:46Z</time>
      </trkpt>
      <trkpt lat="47.09682" lon="-1.44997">
        <ele>96</ele>
        <time>2022-03-14T11:23:48Z</time>
      </trkpt>
      <trkpt lat="47.09674" lon="-1.44986">
        <ele>96</ele>
        <time>2022-03-14T11:23:50Z</time>
      </trkpt>
      <trkpt lat="47.09665" lon="-1.44975">
        <ele>96</ele>
        <time>2022-03-14T11:23:52Z</time>
      </trkpt>
      <trkpt lat="47.09657" lon="-1.44967">
        <ele>96</ele>
        <time>2022-03-14T11:23:54Z</time>
      </trkpt>
      <trkpt lat="47.09646" lon="-1.44963">
        <ele>96</ele>
        <time>2022-03-14T11:23:56Z</time>
      </trkpt>
      <trkpt lat="47.09635" lon="-1.44955">
        <ele>96</ele>
        <time>2022-03-14T11:23:58Z</time>
      </trkpt>
      <trkpt lat="47.09628" lon="-1.4494">
        <ele>96</ele>
        <time>2022-03-14T11:24:00Z</time>
      </trkpt>
      <trkpt lat="47.09627" lon="-1.44923">
        <ele>97</ele>
        <time>2022-03-14T11:24:02Z</time>
      </trkpt>
      <trkpt lat="47.09631" lon="-1.44905">
        <ele>96</ele>
        <time>2022-03-14T11:24:04Z</time>
      </trkpt>
      <trkpt lat="47.0964" lon="-1.44889">
        <ele>97</ele>
        <time>2022-03-14T11:24:06Z</time>
      </trkpt>
      <trkpt lat="47.09653" lon="-1.44881">
        <ele>96</ele>
        <time>2022-03-14T11:24:08Z</time>
      </trkpt>
      <trkpt lat="47.09665" lon="-1.44871">
        <ele>96</ele>
        <time>2022-03-14T11:24:10Z</time>
      </trkpt>
      <trkpt lat="47.09673" lon="-1.44857">
        <ele>95</ele>
        <time>2022-03-14T11:24:12Z</time>
      </trkpt>
      <trkpt lat="47.0968" lon="-1.44842">
        <ele>95</ele>
        <time>2022-03-14T11:24:14Z</time>
      </trkpt>
      <trkpt lat="47.09685" lon="-1.44826">
        <ele>95</ele>
        <time>2022-03-14T11:24:16Z</time>
      </trkpt>
      <trkpt lat="47.09686" lon="-1.4481">
        <ele>95</ele>
        <time>2022-03-14T11:24:18Z</time>
      </trkpt>
      <trkpt lat="47.09685" lon="-1.44795">
        <ele>95</ele>
        <time>2022-03-14T11:24:20Z</time>
      </trkpt>
      <trkpt lat="47.09681" lon="-1.44781">
        <ele>95</ele>
        <time>2022-03-14T11:24:22Z</time>
      </trkpt>
      <trkpt lat="47.09676" lon="-1.44769">
        <ele>96</ele>
        <time>2022-03-14T11:24:24Z</time>
      </trkpt>
      <trkpt lat="47.09669" lon="-1.44758">
        <ele>96</ele>
        <time>2022-03-14T11:24:26Z</time>
      </trkpt>
      <trkpt lat="47.09662" lon="-1.44747">
        <ele>97</ele>
        <time>2022-03-14T11:24:28Z</time>
      </trkpt>
      <trkpt lat="47.09655" lon="-1.44735">
        <ele>97</ele>
        <time>2022-03-14T11:24:30Z</time>
      </trkpt>
      <trkpt lat="47.0965" lon="-1.44721">
        <ele>97</ele>
        <time>2022-03-14T11:24:32Z</time>
      </trkpt>
      <trkpt lat="47.09646" lon="-1.44706">
        <ele>97</ele>
        <time>2022-03-14T11:24:34Z</time>
      </trkpt>
      <trkpt lat="47.09645" lon="-1.44692">
        <ele>97</ele>
        <time>2022-03-14T11:24:36Z</time>
      </trkpt>
      <trkpt lat="47.09645" lon="-1.44677">
        <ele>97</ele>
        <time>2022-03-14T11:24:38Z</time>
      </trkpt>
      <trkpt lat="47.09647" lon="-1.44663">
        <ele>97</ele>
        <time>2022-03-14T11:24:40Z</time>
      </trkpt>
      <trkpt lat="47.0965" lon="-1.44648">
        <ele>97</ele>
        <time>2022-03-14T11:24:42Z</time>
      </trkpt>
      <trkpt lat="47.09656" lon="-1.44635">
        <ele>96</ele>
        <time>2022-03-14T11:24:44Z</time>
      </trkpt>
      <trkpt lat="47.09662" lon="-1.44624">
        <ele>96</ele>
        <time>2022-03-14T11:24:46Z</time>
      </trkpt>
      <trkpt lat="47.09671" lon="-1.44613">
        <ele>95</ele>
        <time>2022-03-14T11:24:48Z</time>
      </trkpt>
      <trkpt lat="47.09681" lon="-1.44606">
        <ele>95</ele>
        <time>2022-03-14T11:24:50Z</time>
      </trkpt>
      <trkpt lat="47.09691" lon="-1.44597">
        <ele>94</ele>
        <time>2022-03-14T11:24:52Z</time>
      </trkpt>
      <trkpt lat="47.09702" lon="-1.4459">
        <ele>94</ele>
        <time>2022-03-14T11:24:54Z</time>
      </trkpt>
      <trkpt lat="47.09713" lon="-1.44583">
        <ele>94</ele>
        <time>2022-03-14T11:24:56Z</time>
      </trkpt>
      <trkpt lat="47.09724" lon="-1.44576">
        <ele>94</ele>
        <time>2022-03-14T11:24:58Z</time>
      </trkpt>
      <trkpt lat="47.09737" lon="-1.4457">
        <ele>93</ele>
        <time>2022-03-14T11:25:00Z</time>
      </trkpt>
      <trkpt lat="47.09749" lon="-1.44564">
        <ele>93</ele>
        <time>2022-03-14T11:25:02Z</time>
      </trkpt>
      <trkpt lat="47.09762" lon="-1.44558">
        <ele>92</ele>
        <time>2022-03-14T11:25:04Z</time>
      </trkpt>
      <trkpt lat="47.09775" lon="-1.44552">
        <ele>92</ele>
        <time>2022-03-14T11:25:06Z</time>
      </trkpt>
      <trkpt lat="47.09789" lon="-1.44546">
        <ele>92</ele>
        <time>2022-03-14T11:25:08Z</time>
      </trkpt>
      <trkpt lat="47.09803" lon="-1.44541">
        <ele>92</ele>
        <time>2022-03-14T11:25:10Z</time>
      </trkpt>
      <trkpt lat="47.09817" lon="-1.44536">
        <ele>91</ele>
        <time>2022-03-14T11:25:12Z</time>
      </trkpt>
      <trkpt lat="47.09831" lon="-1.44531">
        <ele>91</ele>
        <time>2022-03-14T11:25:14Z</time>
      </trkpt>
      <trkpt lat="47.09846" lon="-1.44526">
        <ele>90</ele>
        <time>2022-03-14T11:25:16Z</time>
      </trkpt>
      <trkpt lat="47.09862" lon="-1.4452">
        <ele>90</ele>
        <time>2022-03-14T11:25:18Z</time>
      </trkpt>
      <trkpt lat="47.09878" lon="-1.44514">
        <ele>89</ele>
        <time>2022-03-14T11:25:20Z</time>
      </trkpt>
      <trkpt lat="47.09894" lon="-1.44507">
        <ele>88</ele>
        <time>2022-03-14T11:25:22Z</time>
      </trkpt>
      <trkpt lat="47.09911" lon="-1.44501">
        <ele>88</ele>
        <time>2022-03-14T11:25:24Z</time>
      </trkpt>
      <trkpt lat="47.09928" lon="-1.44495">
        <ele>87</ele>
        <time>2022-03-14T11:25:26Z</time>
      </trkpt>
      <trkpt lat="47.09945" lon="-1.44488">
        <ele>87</ele>
        <time>2022-03-14T11:25:28Z</time>
      </trkpt>
      <trkpt lat="47.09954" lon="-1.44484">
        <ele>86</ele>
        <time>2022-03-14T11:25:29Z</time>
      </trkpt>
      <trkpt lat="47.09963" lon="-1.44481">
        <ele>85</ele>
        <time>2022-03-14T11:25:30Z</time>
      </trkpt>
      <trkpt lat="47.09972" lon="-1.44478">
        <ele>85</ele>
        <time>2022-03-14T11:25:31Z</time>
      </trkpt>
      <trkpt lat="47.09982" lon="-1.44475">
        <ele>84</ele>
        <time>2022-03-14T11:25:32Z</time>
      </trkpt>
      <trkpt lat="47.09991" lon="-1.44471">
        <ele>83</ele>
        <time>2022-03-14T11:25:33Z</time>
      </trkpt>
      <trkpt lat="47.1" lon="-1.44467">
        <ele>83</ele>
        <time>2022-03-14T11:25:34Z</time>
      </trkpt>
      <trkpt lat="47.10009" lon="-1.44464">
        <ele>82</ele>
        <time>2022-03-14T11:25:35Z</time>
      </trkpt>
      <trkpt lat="47.10018" lon="-1.4446">
        <ele>81</ele>
        <time>2022-03-14T11:25:36Z</time>
      </trkpt>
      <trkpt lat="47.10027" lon="-1.44456">
        <ele>81</ele>
        <time>2022-03-14T11:25:37Z</time>
      </trkpt>
      <trkpt lat="47.10036" lon="-1.44453">
        <ele>81</ele>
        <time>2022-03-14T11:25:38Z</time>
      </trkpt>
      <trkpt lat="47.10045" lon="-1.44449">
        <ele>81</ele>
        <time>2022-03-14T11:25:39Z</time>
      </trkpt>
      <trkpt lat="47.10054" lon="-1.44446">
        <ele>80</ele>
        <time>2022-03-14T11:25:40Z</time>
      </trkpt>
      <trkpt lat="47.10063" lon="-1.44442">
        <ele>80</ele>
        <time>2022-03-14T11:25:41Z</time>
      </trkpt>
      <trkpt lat="47.1008" lon="-1.44436">
        <ele>80</ele>
        <time>2022-03-14T11:25:43Z</time>
      </trkpt>
      <trkpt lat="47.10097" lon="-1.4443">
        <ele>79</ele>
        <time>2022-03-14T11:25:45Z</time>
      </trkpt>
      <trkpt lat="47.10114" lon="-1.44423">
        <ele>79</ele>
        <time>2022-03-14T11:25:47Z</time>
      </trkpt>
      <trkpt lat="47.10129" lon="-1.44412">
        <ele>79</ele>
        <time>2022-03-14T11:25:49Z</time>
      </trkpt>
      <trkpt lat="47.10143" lon="-1.44399">
        <ele>79</ele>
        <time>2022-03-14T11:25:51Z</time>
      </trkpt>
      <trkpt lat="47.10156" lon="-1.44385">
        <ele>79</ele>
        <time>2022-03-14T11:25:53Z</time>
      </trkpt>
      <trkpt lat="47.1017" lon="-1.4437">
        <ele>79</ele>
        <time>2022-03-14T11:25:55Z</time>
      </trkpt>
      <trkpt lat="47.10182" lon="-1.44355">
        <ele>79</ele>
        <time>2022-03-14T11:25:57Z</time>
      </trkpt>
      <trkpt lat="47.10194" lon="-1.44341">
        <ele>79</ele>
        <time>2022-03-14T11:25:59Z</time>
      </trkpt>
      <trkpt lat="47.10206" lon="-1.44327">
        <ele>78</ele>
        <time>2022-03-14T11:26:01Z</time>
      </trkpt>
      <trkpt lat="47.10218" lon="-1.44313">
        <ele>77</ele>
        <time>2022-03-14T11:26:03Z</time>
      </trkpt>
      <trkpt lat="47.10231" lon="-1.44299">
        <ele>76</ele>
        <time>2022-03-14T11:26:05Z</time>
      </trkpt>
      <trkpt lat="47.10242" lon="-1.44284">
        <ele>75</ele>
        <time>2022-03-14T11:26:07Z</time>
      </trkpt>
      <trkpt lat="47.10254" lon="-1.44271">
        <ele>74</ele>
        <time>2022-03-14T11:26:09Z</time>
      </trkpt>
      <trkpt lat="47.10267" lon="-1.44258">
        <ele>74</ele>
        <time>2022-03-14T11:26:11Z</time>
      </trkpt>
      <trkpt lat="47.10279" lon="-1.44246">
        <ele>73</ele>
        <time>2022-03-14T11:26:13Z</time>
      </trkpt>
      <trkpt lat="47.10292" lon="-1.44235">
        <ele>72</ele>
        <time>2022-03-14T11:26:15Z</time>
      </trkpt>
      <trkpt lat="47.10305" lon="-1.44226">
        <ele>72</ele>
        <time>2022-03-14T11:26:17Z</time>
      </trkpt>
      <trkpt lat="47.10319" lon="-1.44219">
        <ele>72</ele>
        <time>2022-03-14T11:26:19Z</time>
      </trkpt>
      <trkpt lat="47.10332" lon="-1.44211">
        <ele>72</ele>
        <time>2022-03-14T11:26:21Z</time>
      </trkpt>
      <trkpt lat="47.10344" lon="-1.44205">
        <ele>73</ele>
        <time>2022-03-14T11:26:23Z</time>
      </trkpt>
      <trkpt lat="47.10356" lon="-1.44198">
        <ele>73</ele>
        <time>2022-03-14T11:26:25Z</time>
      </trkpt>
      <trkpt lat="47.10369" lon="-1.44192">
        <ele>74</ele>
        <time>2022-03-14T11:26:27Z</time>
      </trkpt>
      <trkpt lat="47.10381" lon="-1.44187">
        <ele>75</ele>
        <time>2022-03-14T11:26:29Z</time>
      </trkpt>
      <trkpt lat="47.10393" lon="-1.44182">
        <ele>74</ele>
        <time>2022-03-14T11:26:31Z</time>
      </trkpt>
      <trkpt lat="47.10406" lon="-1.44177">
        <ele>74</ele>
        <time>2022-03-14T11:26:33Z</time>
      </trkpt>
      <trkpt lat="47.10419" lon="-1.44172">
        <ele>73</ele>
        <time>2022-03-14T11:26:35Z</time>
      </trkpt>
      <trkpt lat="47.10431" lon="-1.44167">
        <ele>73</ele>
        <time>2022-03-14T11:26:37Z</time>
      </trkpt>
      <trkpt lat="47.10444" lon="-1.44162">
        <ele>74</ele>
        <time>2022-03-14T11:26:39Z</time>
      </trkpt>
      <trkpt lat="47.10455" lon="-1.44156">
        <ele>73</ele>
        <time>2022-03-14T11:26:41Z</time>
      </trkpt>
      <trkpt lat="47.10467" lon="-1.44151">
        <ele>73</ele>
        <time>2022-03-14T11:26:43Z</time>
      </trkpt>
      <trkpt lat="47.10478" lon="-1.44145">
        <ele>74</ele>
        <time>2022-03-14T11:26:45Z</time>
      </trkpt>
      <trkpt lat="47.10489" lon="-1.44138">
        <ele>74</ele>
        <time>2022-03-14T11:26:47Z</time>
      </trkpt>
      <trkpt lat="47.105" lon="-1.44132">
        <ele>74</ele>
        <time>2022-03-14T11:26:49Z</time>
      </trkpt>
      <trkpt lat="47.10511" lon="-1.44125">
        <ele>74</ele>
        <time>2022-03-14T11:26:51Z</time>
      </trkpt>
      <trkpt lat="47.10521" lon="-1.44117">
        <ele>74</ele>
        <time>2022-03-14T11:26:53Z</time>
      </trkpt>
      <trkpt lat="47.10531" lon="-1.44109">
        <ele>75</ele>
        <time>2022-03-14T11:26:55Z</time>
      </trkpt>
      <trkpt lat="47.10541" lon="-1.441">
        <ele>75</ele>
        <time>2022-03-14T11:26:57Z</time>
      </trkpt>
      <trkpt lat="47.10552" lon="-1.44092">
        <ele>75</ele>
        <time>2022-03-14T11:26:59Z</time>
      </trkpt>
      <trkpt lat="47.10562" lon="-1.44083">
        <ele>76</ele>
        <time>2022-03-14T11:27:01Z</time>
      </trkpt>
      <trkpt lat="47.10571" lon="-1.44074">
        <ele>75</ele>
        <time>2022-03-14T11:27:03Z</time>
      </trkpt>
      <trkpt lat="47.1058" lon="-1.44064">
        <ele>75</ele>
        <time>2022-03-14T11:27:05Z</time>
      </trkpt>
      <trkpt lat="47.10589" lon="-1.44054">
        <ele>75</ele>
        <time>2022-03-14T11:27:07Z</time>
      </trkpt>
      <trkpt lat="47.10599" lon="-1.44046">
        <ele>76</ele>
        <time>2022-03-14T11:27:09Z</time>
      </trkpt>
      <trkpt lat="47.10609" lon="-1.44038">
        <ele>76</ele>
        <time>2022-03-14T11:27:11Z</time>
      </trkpt>
      <trkpt lat="47.10619" lon="-1.44032">
        <ele>75</ele>
        <time>2022-03-14T11:27:13Z</time>
      </trkpt>
      <trkpt lat="47.1063" lon="-1.44026">
        <ele>76</ele>
        <time>2022-03-14T11:27:15Z</time>
      </trkpt>
      <trkpt lat="47.10639" lon="-1.4402">
        <ele>76</ele>
        <time>2022-03-14T11:27:17Z</time>
      </trkpt>
      <trkpt lat="47.10648" lon="-1.44015">
        <ele>76</ele>
        <time>2022-03-14T11:27:19Z</time>
      </trkpt>
      <trkpt lat="47.10658" lon="-1.44008">
        <ele>77</ele>
        <time>2022-03-14T11:27:21Z</time>
      </trkpt>
      <trkpt lat="47.10668" lon="-1.44003">
        <ele>78</ele>
        <time>2022-03-14T11:27:23Z</time>
      </trkpt>
      <trkpt lat="47.10677" lon="-1.43998">
        <ele>78</ele>
        <time>2022-03-14T11:27:25Z</time>
      </trkpt>
      <trkpt lat="47.10687" lon="-1.43993">
        <ele>77</ele>
        <time>2022-03-14T11:27:27Z</time>
      </trkpt>
      <trkpt lat="47.10696" lon="-1.43988">
        <ele>77</ele>
        <time>2022-03-14T11:27:29Z</time>
      </trkpt>
      <trkpt lat="47.10705" lon="-1.43983">
        <ele>78</ele>
        <time>2022-03-14T11:27:31Z</time>
      </trkpt>
      <trkpt lat="47.10716" lon="-1.43974">
        <ele>78</ele>
        <time>2022-03-14T11:27:34Z</time>
      </trkpt>
      <trkpt lat="47.10723" lon="-1.43966">
        <ele>78</ele>
        <time>2022-03-14T11:27:36Z</time>
      </trkpt>
      <trkpt lat="47.10731" lon="-1.43958">
        <ele>79</ele>
        <time>2022-03-14T11:27:38Z</time>
      </trkpt>
      <trkpt lat="47.10739" lon="-1.43949">
        <ele>79</ele>
        <time>2022-03-14T11:27:40Z</time>
      </trkpt>
      <trkpt lat="47.10748" lon="-1.4394">
        <ele>79</ele>
        <time>2022-03-14T11:27:42Z</time>
      </trkpt>
      <trkpt lat="47.10756" lon="-1.4393">
        <ele>79</ele>
        <time>2022-03-14T11:27:44Z</time>
      </trkpt>
      <trkpt lat="47.10764" lon="-1.43923">
        <ele>80</ele>
        <time>2022-03-14T11:27:46Z</time>
      </trkpt>
      <trkpt lat="47.10773" lon="-1.43916">
        <ele>80</ele>
        <time>2022-03-14T11:27:48Z</time>
      </trkpt>
      <trkpt lat="47.10781" lon="-1.43909">
        <ele>80</ele>
        <time>2022-03-14T11:27:50Z</time>
      </trkpt>
      <trkpt lat="47.10789" lon="-1.43902">
        <ele>80</ele>
        <time>2022-03-14T11:27:52Z</time>
      </trkpt>
      <trkpt lat="47.10797" lon="-1.43895">
        <ele>81</ele>
        <time>2022-03-14T11:27:54Z</time>
      </trkpt>
      <trkpt lat="47.10806" lon="-1.43887">
        <ele>81</ele>
        <time>2022-03-14T11:27:56Z</time>
      </trkpt>
      <trkpt lat="47.10818" lon="-1.43878">
        <ele>81</ele>
        <time>2022-03-14T11:27:59Z</time>
      </trkpt>
      <trkpt lat="47.10826" lon="-1.43872">
        <ele>81</ele>
        <time>2022-03-14T11:28:01Z</time>
      </trkpt>
      <trkpt lat="47.10834" lon="-1.43865">
        <ele>82</ele>
        <time>2022-03-14T11:28:03Z</time>
      </trkpt>
      <trkpt lat="47.10842" lon="-1.43856">
        <ele>82</ele>
        <time>2022-03-14T11:28:05Z</time>
      </trkpt>
      <trkpt lat="47.1085" lon="-1.43849">
        <ele>82</ele>
        <time>2022-03-14T11:28:07Z</time>
      </trkpt>
      <trkpt lat="47.10857" lon="-1.4384">
        <ele>82</ele>
        <time>2022-03-14T11:28:09Z</time>
      </trkpt>
      <trkpt lat="47.10866" lon="-1.43833">
        <ele>83</ele>
        <time>2022-03-14T11:28:11Z</time>
      </trkpt>
      <trkpt lat="47.10874" lon="-1.43826">
        <ele>83</ele>
        <time>2022-03-14T11:28:13Z</time>
      </trkpt>
      <trkpt lat="47.10883" lon="-1.43818">
        <ele>83</ele>
        <time>2022-03-14T11:28:15Z</time>
      </trkpt>
      <trkpt lat="47.10891" lon="-1.4381">
        <ele>82</ele>
        <time>2022-03-14T11:28:17Z</time>
      </trkpt>
      <trkpt lat="47.10899" lon="-1.43803">
        <ele>83</ele>
        <time>2022-03-14T11:28:19Z</time>
      </trkpt>
      <trkpt lat="47.10906" lon="-1.43795">
        <ele>83</ele>
        <time>2022-03-14T11:28:21Z</time>
      </trkpt>
      <trkpt lat="47.10914" lon="-1.43787">
        <ele>83</ele>
        <time>2022-03-14T11:28:23Z</time>
      </trkpt>
      <trkpt lat="47.10922" lon="-1.43779">
        <ele>83</ele>
        <time>2022-03-14T11:28:25Z</time>
      </trkpt>
      <trkpt lat="47.1093" lon="-1.43771">
        <ele>84</ele>
        <time>2022-03-14T11:28:27Z</time>
      </trkpt>
      <trkpt lat="47.10941" lon="-1.4376">
        <ele>84</ele>
        <time>2022-03-14T11:28:30Z</time>
      </trkpt>
      <trkpt lat="47.10949" lon="-1.43752">
        <ele>84</ele>
        <time>2022-03-14T11:28:32Z</time>
      </trkpt>
      <trkpt lat="47.10957" lon="-1.43744">
        <ele>85</ele>
        <time>2022-03-14T11:28:34Z</time>
      </trkpt>
      <trkpt lat="47.10964" lon="-1.43736">
        <ele>85</ele>
        <time>2022-03-14T11:28:36Z</time>
      </trkpt>
      <trkpt lat="47.10972" lon="-1.43729">
        <ele>85</ele>
        <time>2022-03-14T11:28:38Z</time>
      </trkpt>
      <trkpt lat="47.1098" lon="-1.43721">
        <ele>86</ele>
        <time>2022-03-14T11:28:40Z</time>
      </trkpt>
      <trkpt lat="47.10988" lon="-1.43713">
        <ele>86</ele>
        <time>2022-03-14T11:28:42Z</time>
      </trkpt>
      <trkpt lat="47.10995" lon="-1.43704">
        <ele>86</ele>
        <time>2022-03-14T11:28:44Z</time>
      </trkpt>
      <trkpt lat="47.11002" lon="-1.43696">
        <ele>86</ele>
        <time>2022-03-14T11:28:46Z</time>
      </trkpt>
      <trkpt lat="47.11009" lon="-1.43686">
        <ele>87</ele>
        <time>2022-03-14T11:28:48Z</time>
      </trkpt>
      <trkpt lat="47.11017" lon="-1.43677">
        <ele>87</ele>
        <time>2022-03-14T11:28:50Z</time>
      </trkpt>
      <trkpt lat="47.11024" lon="-1.43668">
        <ele>87</ele>
        <time>2022-03-14T11:28:52Z</time>
      </trkpt>
      <trkpt lat="47.11031" lon="-1.4366">
        <ele>87</ele>
        <time>2022-03-14T11:28:54Z</time>
      </trkpt>
      <trkpt lat="47.11041" lon="-1.43646">
        <ele>87</ele>
        <time>2022-03-14T11:28:57Z</time>
      </trkpt>
      <trkpt lat="47.11048" lon="-1.43636">
        <ele>88</ele>
        <time>2022-03-14T11:28:59Z</time>
      </trkpt>
      <trkpt lat="47.11055" lon="-1.43626">
        <ele>88</ele>
        <time>2022-03-14T11:29:01Z</time>
      </trkpt>
      <trkpt lat="47.11063" lon="-1.43616">
        <ele>88</ele>
        <time>2022-03-14T11:29:03Z</time>
      </trkpt>
      <trkpt lat="47.11071" lon="-1.43607">
        <ele>88</ele>
        <time>2022-03-14T11:29:05Z</time>
      </trkpt>
      <trkpt lat="47.11078" lon="-1.43598">
        <ele>88</ele>
        <time>2022-03-14T11:29:07Z</time>
      </trkpt>
      <trkpt lat="47.11087" lon="-1.43591">
        <ele>89</ele>
        <time>2022-03-14T11:29:09Z</time>
      </trkpt>
      <trkpt lat="47.11095" lon="-1.43584">
        <ele>89</ele>
        <time>2022-03-14T11:29:11Z</time>
      </trkpt>
      <trkpt lat="47.11103" lon="-1.43575">
        <ele>89</ele>
        <time>2022-03-14T11:29:13Z</time>
      </trkpt>
      <trkpt lat="47.1111" lon="-1.43565">
        <ele>89</ele>
        <time>2022-03-14T11:29:15Z</time>
      </trkpt>
      <trkpt lat="47.11117" lon="-1.43554">
        <ele>90</ele>
        <time>2022-03-14T11:29:17Z</time>
      </trkpt>
      <trkpt lat="47.11124" lon="-1.43543">
        <ele>89</ele>
        <time>2022-03-14T11:29:19Z</time>
      </trkpt>
      <trkpt lat="47.1113" lon="-1.43532">
        <ele>89</ele>
        <time>2022-03-14T11:29:21Z</time>
      </trkpt>
      <trkpt lat="47.11137" lon="-1.4352">
        <ele>89</ele>
        <time>2022-03-14T11:29:23Z</time>
      </trkpt>
      <trkpt lat="47.11144" lon="-1.43508">
        <ele>90</ele>
        <time>2022-03-14T11:29:25Z</time>
      </trkpt>
      <trkpt lat="47.1115" lon="-1.43496">
        <ele>89</ele>
        <time>2022-03-14T11:29:27Z</time>
      </trkpt>
      <trkpt lat="47.11156" lon="-1.43485">
        <ele>89</ele>
        <time>2022-03-14T11:29:29Z</time>
      </trkpt>
      <trkpt lat="47.11163" lon="-1.43474">
        <ele>89</ele>
        <time>2022-03-14T11:29:31Z</time>
      </trkpt>
      <trkpt lat="47.11169" lon="-1.43463">
        <ele>90</ele>
        <time>2022-03-14T11:29:33Z</time>
      </trkpt>
      <trkpt lat="47.11176" lon="-1.43453">
        <ele>90</ele>
        <time>2022-03-14T11:29:35Z</time>
      </trkpt>
      <trkpt lat="47.11182" lon="-1.43441">
        <ele>90</ele>
        <time>2022-03-14T11:29:37Z</time>
      </trkpt>
      <trkpt lat="47.11188" lon="-1.43431">
        <ele>90</ele>
        <time>2022-03-14T11:29:39Z</time>
      </trkpt>
      <trkpt lat="47.11194" lon="-1.4342">
        <ele>90</ele>
        <time>2022-03-14T11:29:41Z</time>
      </trkpt>
      <trkpt lat="47.11201" lon="-1.43408">
        <ele>90</ele>
        <time>2022-03-14T11:29:43Z</time>
      </trkpt>
      <trkpt lat="47.11207" lon="-1.43397">
        <ele>90</ele>
        <time>2022-03-14T11:29:45Z</time>
      </trkpt>
      <trkpt lat="47.11214" lon="-1.43385">
        <ele>90</ele>
        <time>2022-03-14T11:29:47Z</time>
      </trkpt>
      <trkpt lat="47.1122" lon="-1.43374">
        <ele>90</ele>
        <time>2022-03-14T11:29:49Z</time>
      </trkpt>
      <trkpt lat="47.11227" lon="-1.43363">
        <ele>90</ele>
        <time>2022-03-14T11:29:51Z</time>
      </trkpt>
      <trkpt lat="47.11234" lon="-1.43352">
        <ele>90</ele>
        <time>2022-03-14T11:29:53Z</time>
      </trkpt>
      <trkpt lat="47.1124" lon="-1.43341">
        <ele>90</ele>
        <time>2022-03-14T11:29:55Z</time>
      </trkpt>
      <trkpt lat="47.11247" lon="-1.4333">
        <ele>90</ele>
        <time>2022-03-14T11:29:57Z</time>
      </trkpt>
      <trkpt lat="47.11254" lon="-1.4332">
        <ele>90</ele>
        <time>2022-03-14T11:29:59Z</time>
      </trkpt>
      <trkpt lat="47.11262" lon="-1.43309">
        <ele>90</ele>
        <time>2022-03-14T11:30:01Z</time>
      </trkpt>
      <trkpt lat="47.1127" lon="-1.43299">
        <ele>90</ele>
        <time>2022-03-14T11:30:03Z</time>
      </trkpt>
      <trkpt lat="47.11279" lon="-1.43289">
        <ele>90</ele>
        <time>2022-03-14T11:30:05Z</time>
      </trkpt>
      <trkpt lat="47.11287" lon="-1.43279">
        <ele>89</ele>
        <time>2022-03-14T11:30:07Z</time>
      </trkpt>
      <trkpt lat="47.11296" lon="-1.43269">
        <ele>89</ele>
        <time>2022-03-14T11:30:09Z</time>
      </trkpt>
      <trkpt lat="47.11305" lon="-1.43258">
        <ele>89</ele>
        <time>2022-03-14T11:30:11Z</time>
      </trkpt>
      <trkpt lat="47.11314" lon="-1.43247">
        <ele>88</ele>
        <time>2022-03-14T11:30:13Z</time>
      </trkpt>
      <trkpt lat="47.11323" lon="-1.43237">
        <ele>88</ele>
        <time>2022-03-14T11:30:15Z</time>
      </trkpt>
      <trkpt lat="47.11332" lon="-1.43226">
        <ele>88</ele>
        <time>2022-03-14T11:30:17Z</time>
      </trkpt>
      <trkpt lat="47.11341" lon="-1.43215">
        <ele>88</ele>
        <time>2022-03-14T11:30:19Z</time>
      </trkpt>
      <trkpt lat="47.1135" lon="-1.43204">
        <ele>88</ele>
        <time>2022-03-14T11:30:21Z</time>
      </trkpt>
      <trkpt lat="47.11359" lon="-1.43193">
        <ele>87</ele>
        <time>2022-03-14T11:30:23Z</time>
      </trkpt>
      <trkpt lat="47.11369" lon="-1.43182">
        <ele>87</ele>
        <time>2022-03-14T11:30:25Z</time>
      </trkpt>
      <trkpt lat="47.11378" lon="-1.4317">
        <ele>86</ele>
        <time>2022-03-14T11:30:27Z</time>
      </trkpt>
      <trkpt lat="47.11387" lon="-1.43158">
        <ele>86</ele>
        <time>2022-03-14T11:30:29Z</time>
      </trkpt>
      <trkpt lat="47.11396" lon="-1.43146">
        <ele>86</ele>
        <time>2022-03-14T11:30:31Z</time>
      </trkpt>
      <trkpt lat="47.11406" lon="-1.43135">
        <ele>86</ele>
        <time>2022-03-14T11:30:33Z</time>
      </trkpt>
      <trkpt lat="47.11415" lon="-1.43123">
        <ele>86</ele>
        <time>2022-03-14T11:30:35Z</time>
      </trkpt>
      <trkpt lat="47.11424" lon="-1.4311">
        <ele>86</ele>
        <time>2022-03-14T11:30:37Z</time>
      </trkpt>
      <trkpt lat="47.11433" lon="-1.43098">
        <ele>86</ele>
        <time>2022-03-14T11:30:39Z</time>
      </trkpt>
      <trkpt lat="47.11443" lon="-1.43089">
        <ele>86</ele>
        <time>2022-03-14T11:30:41Z</time>
      </trkpt>
      <trkpt lat="47.11454" lon="-1.43078">
        <ele>86</ele>
        <time>2022-03-14T11:30:43Z</time>
      </trkpt>
      <trkpt lat="47.11465" lon="-1.43068">
        <ele>85</ele>
        <time>2022-03-14T11:30:45Z</time>
      </trkpt>
      <trkpt lat="47.11477" lon="-1.43058">
        <ele>84</ele>
        <time>2022-03-14T11:30:47Z</time>
      </trkpt>
      <trkpt lat="47.11489" lon="-1.43046">
        <ele>84</ele>
        <time>2022-03-14T11:30:49Z</time>
      </trkpt>
      <trkpt lat="47.115" lon="-1.43036">
        <ele>83</ele>
        <time>2022-03-14T11:30:51Z</time>
      </trkpt>
      <trkpt lat="47.11511" lon="-1.43026">
        <ele>83</ele>
        <time>2022-03-14T11:30:53Z</time>
      </trkpt>
      <trkpt lat="47.11522" lon="-1.43015">
        <ele>84</ele>
        <time>2022-03-14T11:30:55Z</time>
      </trkpt>
      <trkpt lat="47.11533" lon="-1.43005">
        <ele>84</ele>
        <time>2022-03-14T11:30:57Z</time>
      </trkpt>
      <trkpt lat="47.11544" lon="-1.42994">
        <ele>84</ele>
        <time>2022-03-14T11:30:59Z</time>
      </trkpt>
      <trkpt lat="47.11556" lon="-1.42983">
        <ele>84</ele>
        <time>2022-03-14T11:31:01Z</time>
      </trkpt>
      <trkpt lat="47.11568" lon="-1.42972">
        <ele>84</ele>
        <time>2022-03-14T11:31:03Z</time>
      </trkpt>
      <trkpt lat="47.11581" lon="-1.42961">
        <ele>84</ele>
        <time>2022-03-14T11:31:05Z</time>
      </trkpt>
      <trkpt lat="47.11593" lon="-1.42949">
        <ele>83</ele>
        <time>2022-03-14T11:31:07Z</time>
      </trkpt>
      <trkpt lat="47.11605" lon="-1.42936">
        <ele>83</ele>
        <time>2022-03-14T11:31:09Z</time>
      </trkpt>
      <trkpt lat="47.11617" lon="-1.42922">
        <ele>82</ele>
        <time>2022-03-14T11:31:11Z</time>
      </trkpt>
      <trkpt lat="47.11627" lon="-1.42906">
        <ele>82</ele>
        <time>2022-03-14T11:31:13Z</time>
      </trkpt>
      <trkpt lat="47.11636" lon="-1.42889">
        <ele>82</ele>
        <time>2022-03-14T11:31:15Z</time>
      </trkpt>
      <trkpt lat="47.11644" lon="-1.42873">
        <ele>81</ele>
        <time>2022-03-14T11:31:17Z</time>
      </trkpt>
      <trkpt lat="47.1165" lon="-1.42859">
        <ele>81</ele>
        <time>2022-03-14T11:31:19Z</time>
      </trkpt>
      <trkpt lat="47.11657" lon="-1.42846">
        <ele>81</ele>
        <time>2022-03-14T11:31:21Z</time>
      </trkpt>
      <trkpt lat="47.11663" lon="-1.4283">
        <ele>81</ele>
        <time>2022-03-14T11:31:23Z</time>
      </trkpt>
      <trkpt lat="47.11669" lon="-1.42817">
        <ele>81</ele>
        <time>2022-03-14T11:31:25Z</time>
      </trkpt>
      <trkpt lat="47.11675" lon="-1.42801">
        <ele>82</ele>
        <time>2022-03-14T11:31:28Z</time>
      </trkpt>
      <trkpt lat="47.1168" lon="-1.42782">
        <ele>82</ele>
        <time>2022-03-14T11:31:31Z</time>
      </trkpt>
      <trkpt lat="47.11683" lon="-1.42769">
        <ele>82</ele>
        <time>2022-03-14T11:31:33Z</time>
      </trkpt>
      <trkpt lat="47.11687" lon="-1.42754">
        <ele>82</ele>
        <time>2022-03-14T11:31:36Z</time>
      </trkpt>
      <trkpt lat="47.11693" lon="-1.42737">
        <ele>82</ele>
        <time>2022-03-14T11:31:39Z</time>
      </trkpt>
      <trkpt lat="47.11699" lon="-1.42722">
        <ele>82</ele>
        <time>2022-03-14T11:31:41Z</time>
      </trkpt>
      <trkpt lat="47.11705" lon="-1.4271">
        <ele>82</ele>
        <time>2022-03-14T11:31:43Z</time>
      </trkpt>
      <trkpt lat="47.11713" lon="-1.427">
        <ele>83</ele>
        <time>2022-03-14T11:31:45Z</time>
      </trkpt>
      <trkpt lat="47.11721" lon="-1.42691">
        <ele>84</ele>
        <time>2022-03-14T11:31:47Z</time>
      </trkpt>
      <trkpt lat="47.1173" lon="-1.42685">
        <ele>84</ele>
        <time>2022-03-14T11:31:49Z</time>
      </trkpt>
      <trkpt lat="47.1174" lon="-1.42679">
        <ele>84</ele>
        <time>2022-03-14T11:31:51Z</time>
      </trkpt>
      <trkpt lat="47.11749" lon="-1.42674">
        <ele>85</ele>
        <time>2022-03-14T11:31:53Z</time>
      </trkpt>
      <trkpt lat="47.11757" lon="-1.42668">
        <ele>86</ele>
        <time>2022-03-14T11:31:55Z</time>
      </trkpt>
      <trkpt lat="47.11769" lon="-1.42661">
        <ele>86</ele>
        <time>2022-03-14T11:31:58Z</time>
      </trkpt>
      <trkpt lat="47.11781" lon="-1.42654">
        <ele>87</ele>
        <time>2022-03-14T11:32:01Z</time>
      </trkpt>
      <trkpt lat="47.11793" lon="-1.42646">
        <ele>88</ele>
        <time>2022-03-14T11:32:04Z</time>
      </trkpt>
      <trkpt lat="47.11804" lon="-1.42639">
        <ele>88</ele>
        <time>2022-03-14T11:32:07Z</time>
      </trkpt>
      <trkpt lat="47.11816" lon="-1.42632">
        <ele>89</ele>
        <time>2022-03-14T11:32:10Z</time>
      </trkpt>
      <trkpt lat="47.11828" lon="-1.42624">
        <ele>89</ele>
        <time>2022-03-14T11:32:13Z</time>
      </trkpt>
      <trkpt lat="47.11839" lon="-1.42617">
        <ele>90</ele>
        <time>2022-03-14T11:32:16Z</time>
      </trkpt>
      <trkpt lat="47.1185" lon="-1.4261">
        <ele>90</ele>
        <time>2022-03-14T11:32:19Z</time>
      </trkpt>
      <trkpt lat="47.11861" lon="-1.42602">
        <ele>91</ele>
        <time>2022-03-14T11:32:22Z</time>
      </trkpt>
      <trkpt lat="47.11872" lon="-1.42592">
        <ele>91</ele>
        <time>2022-03-14T11:32:25Z</time>
      </trkpt>
      <trkpt lat="47.11883" lon="-1.42581">
        <ele>92</ele>
        <time>2022-03-14T11:32:28Z</time>
      </trkpt>
      <trkpt lat="47.11893" lon="-1.42571">
        <ele>92</ele>
        <time>2022-03-14T11:32:31Z</time>
      </trkpt>
      <trkpt lat="47.11903" lon="-1.4256">
        <ele>93</ele>
        <time>2022-03-14T11:32:34Z</time>
      </trkpt>
      <trkpt lat="47.11913" lon="-1.42549">
        <ele>93</ele>
        <time>2022-03-14T11:32:37Z</time>
      </trkpt>
      <trkpt lat="47.11924" lon="-1.42539">
        <ele>93</ele>
        <time>2022-03-14T11:32:40Z</time>
      </trkpt>
      <trkpt lat="47.11937" lon="-1.42525">
        <ele>94</ele>
        <time>2022-03-14T11:32:44Z</time>
      </trkpt>
      <trkpt lat="47.11948" lon="-1.42516">
        <ele>95</ele>
        <time>2022-03-14T11:32:47Z</time>
      </trkpt>
      <trkpt lat="47.11958" lon="-1.42506">
        <ele>96</ele>
        <time>2022-03-14T11:32:50Z</time>
      </trkpt>
      <trkpt lat="47.11969" lon="-1.42495">
        <ele>96</ele>
        <time>2022-03-14T11:32:53Z</time>
      </trkpt>
      <trkpt lat="47.11979" lon="-1.42485">
        <ele>96</ele>
        <time>2022-03-14T11:32:56Z</time>
      </trkpt>
      <trkpt lat="47.1199" lon="-1.42475">
        <ele>97</ele>
        <time>2022-03-14T11:32:59Z</time>
      </trkpt>
      <trkpt lat="47.11997" lon="-1.42467">
        <ele>96</ele>
        <time>2022-03-14T11:33:01Z</time>
      </trkpt>
      <trkpt lat="47.12005" lon="-1.42459">
        <ele>97</ele>
        <time>2022-03-14T11:33:03Z</time>
      </trkpt>
      <trkpt lat="47.12016" lon="-1.42449">
        <ele>97</ele>
        <time>2022-03-14T11:33:06Z</time>
      </trkpt>
      <trkpt lat="47.12023" lon="-1.42441">
        <ele>98</ele>
        <time>2022-03-14T11:33:08Z</time>
      </trkpt>
      <trkpt lat="47.12031" lon="-1.42434">
        <ele>98</ele>
        <time>2022-03-14T11:33:10Z</time>
      </trkpt>
      <trkpt lat="47.12042" lon="-1.42423">
        <ele>98</ele>
        <time>2022-03-14T11:33:13Z</time>
      </trkpt>
      <trkpt lat="47.12052" lon="-1.4241">
        <ele>98</ele>
        <time>2022-03-14T11:33:16Z</time>
      </trkpt>
      <trkpt lat="47.12058" lon="-1.42399">
        <ele>99</ele>
        <time>2022-03-14T11:33:18Z</time>
      </trkpt>
      <trkpt lat="47.12063" lon="-1.42387">
        <ele>100</ele>
        <time>2022-03-14T11:33:20Z</time>
      </trkpt>
      <trkpt lat="47.12067" lon="-1.42374">
        <ele>100</ele>
        <time>2022-03-14T11:33:22Z</time>
      </trkpt>
      <trkpt lat="47.12071" lon="-1.42361">
        <ele>100</ele>
        <time>2022-03-14T11:33:24Z</time>
      </trkpt>
      <trkpt lat="47.12075" lon="-1.42346">
        <ele>100</ele>
        <time>2022-03-14T11:33:26Z</time>
      </trkpt>
      <trkpt lat="47.1208" lon="-1.42332">
        <ele>100</ele>
        <time>2022-03-14T11:33:28Z</time>
      </trkpt>
      <trkpt lat="47.12084" lon="-1.42318">
        <ele>100</ele>
        <time>2022-03-14T11:33:30Z</time>
      </trkpt>
      <trkpt lat="47.12088" lon="-1.42303">
        <ele>100</ele>
        <time>2022-03-14T11:33:32Z</time>
      </trkpt>
      <trkpt lat="47.12093" lon="-1.42288">
        <ele>100</ele>
        <time>2022-03-14T11:33:34Z</time>
      </trkpt>
      <trkpt lat="47.12097" lon="-1.42274">
        <ele>100</ele>
        <time>2022-03-14T11:33:36Z</time>
      </trkpt>
      <trkpt lat="47.12101" lon="-1.42259">
        <ele>100</ele>
        <time>2022-03-14T11:33:38Z</time>
      </trkpt>
      <trkpt lat="47.12106" lon="-1.42245">
        <ele>100</ele>
        <time>2022-03-14T11:33:40Z</time>
      </trkpt>
      <trkpt lat="47.12111" lon="-1.4223">
        <ele>100</ele>
        <time>2022-03-14T11:33:42Z</time>
      </trkpt>
      <trkpt lat="47.12115" lon="-1.42215">
        <ele>100</ele>
        <time>2022-03-14T11:33:44Z</time>
      </trkpt>
      <trkpt lat="47.1212" lon="-1.42202">
        <ele>100</ele>
        <time>2022-03-14T11:33:46Z</time>
      </trkpt>
      <trkpt lat="47.12126" lon="-1.4219">
        <ele>100</ele>
        <time>2022-03-14T11:33:48Z</time>
      </trkpt>
      <trkpt lat="47.12135" lon="-1.42179">
        <ele>100</ele>
        <time>2022-03-14T11:33:50Z</time>
      </trkpt>
      <trkpt lat="47.12144" lon="-1.42169">
        <ele>100</ele>
        <time>2022-03-14T11:33:52Z</time>
      </trkpt>
      <trkpt lat="47.12154" lon="-1.42161">
        <ele>100</ele>
        <time>2022-03-14T11:33:54Z</time>
      </trkpt>
      <trkpt lat="47.12164" lon="-1.42156">
        <ele>100</ele>
        <time>2022-03-14T11:33:56Z</time>
      </trkpt>
      <trkpt lat="47.12174" lon="-1.4215">
        <ele>100</ele>
        <time>2022-03-14T11:33:58Z</time>
      </trkpt>
      <trkpt lat="47.12184" lon="-1.42144">
        <ele>101</ele>
        <time>2022-03-14T11:34:00Z</time>
      </trkpt>
      <trkpt lat="47.12195" lon="-1.42138">
        <ele>101</ele>
        <time>2022-03-14T11:34:02Z</time>
      </trkpt>
      <trkpt lat="47.12206" lon="-1.42133">
        <ele>101</ele>
        <time>2022-03-14T11:34:04Z</time>
      </trkpt>
      <trkpt lat="47.12216" lon="-1.42128">
        <ele>102</ele>
        <time>2022-03-14T11:34:06Z</time>
      </trkpt>
      <trkpt lat="47.12226" lon="-1.4212">
        <ele>102</ele>
        <time>2022-03-14T11:34:08Z</time>
      </trkpt>
      <trkpt lat="47.12236" lon="-1.42111">
        <ele>101</ele>
        <time>2022-03-14T11:34:10Z</time>
      </trkpt>
      <trkpt lat="47.12245" lon="-1.42102">
        <ele>101</ele>
        <time>2022-03-14T11:34:12Z</time>
      </trkpt>
      <trkpt lat="47.12255" lon="-1.42093">
        <ele>101</ele>
        <time>2022-03-14T11:34:14Z</time>
      </trkpt>
      <trkpt lat="47.12264" lon="-1.42086">
        <ele>101</ele>
        <time>2022-03-14T11:34:16Z</time>
      </trkpt>
      <trkpt lat="47.12274" lon="-1.42078">
        <ele>101</ele>
        <time>2022-03-14T11:34:18Z</time>
      </trkpt>
      <trkpt lat="47.12283" lon="-1.42071">
        <ele>101</ele>
        <time>2022-03-14T11:34:20Z</time>
      </trkpt>
      <trkpt lat="47.12293" lon="-1.42063">
        <ele>100</ele>
        <time>2022-03-14T11:34:22Z</time>
      </trkpt>
      <trkpt lat="47.12302" lon="-1.42055">
        <ele>101</ele>
        <time>2022-03-14T11:34:24Z</time>
      </trkpt>
      <trkpt lat="47.12312" lon="-1.42047">
        <ele>101</ele>
        <time>2022-03-14T11:34:26Z</time>
      </trkpt>
      <trkpt lat="47.12321" lon="-1.42041">
        <ele>101</ele>
        <time>2022-03-14T11:34:28Z</time>
      </trkpt>
      <trkpt lat="47.12331" lon="-1.42043">
        <ele>101</ele>
        <time>2022-03-14T11:34:30Z</time>
      </trkpt>
      <trkpt lat="47.12339" lon="-1.42051">
        <ele>101</ele>
        <time>2022-03-14T11:34:32Z</time>
      </trkpt>
      <trkpt lat="47.12352" lon="-1.4205">
        <ele>102</ele>
        <time>2022-03-14T11:34:35Z</time>
      </trkpt>
      <trkpt lat="47.12362" lon="-1.42041">
        <ele>103</ele>
        <time>2022-03-14T11:34:37Z</time>
      </trkpt>
      <trkpt lat="47.12373" lon="-1.42032">
        <ele>103</ele>
        <time>2022-03-14T11:34:39Z</time>
      </trkpt>
      <trkpt lat="47.12383" lon="-1.42024">
        <ele>103</ele>
        <time>2022-03-14T11:34:41Z</time>
      </trkpt>
      <trkpt lat="47.12392" lon="-1.42016">
        <ele>103</ele>
        <time>2022-03-14T11:34:43Z</time>
      </trkpt>
      <trkpt lat="47.12401" lon="-1.42005">
        <ele>103</ele>
        <time>2022-03-14T11:34:45Z</time>
      </trkpt>
      <trkpt lat="47.12409" lon="-1.41993">
        <ele>102</ele>
        <time>2022-03-14T11:34:47Z</time>
      </trkpt>
      <trkpt lat="47.12416" lon="-1.41979">
        <ele>102</ele>
        <time>2022-03-14T11:34:49Z</time>
      </trkpt>
      <trkpt lat="47.12424" lon="-1.41965">
        <ele>101</ele>
        <time>2022-03-14T11:34:51Z</time>
      </trkpt>
      <trkpt lat="47.12433" lon="-1.41951">
        <ele>101</ele>
        <time>2022-03-14T11:34:53Z</time>
      </trkpt>
      <trkpt lat="47.12442" lon="-1.41937">
        <ele>101</ele>
        <time>2022-03-14T11:34:55Z</time>
      </trkpt>
      <trkpt lat="47.12451" lon="-1.41924">
        <ele>101</ele>
        <time>2022-03-14T11:34:57Z</time>
      </trkpt>
      <trkpt lat="47.12459" lon="-1.41912">
        <ele>101</ele>
        <time>2022-03-14T11:34:59Z</time>
      </trkpt>
      <trkpt lat="47.12469" lon="-1.41902">
        <ele>100</ele>
        <time>2022-03-14T11:35:01Z</time>
      </trkpt>
      <trkpt lat="47.12478" lon="-1.41893">
        <ele>101</ele>
        <time>2022-03-14T11:35:03Z</time>
      </trkpt>
      <trkpt lat="47.12489" lon="-1.41884">
        <ele>101</ele>
        <time>2022-03-14T11:35:05Z</time>
      </trkpt>
      <trkpt lat="47.12501" lon="-1.41876">
        <ele>101</ele>
        <time>2022-03-14T11:35:07Z</time>
      </trkpt>
      <trkpt lat="47.12514" lon="-1.41869">
        <ele>101</ele>
        <time>2022-03-14T11:35:09Z</time>
      </trkpt>
      <trkpt lat="47.12527" lon="-1.41863">
        <ele>101</ele>
        <time>2022-03-14T11:35:11Z</time>
      </trkpt>
      <trkpt lat="47.1254" lon="-1.41857">
        <ele>101</ele>
        <time>2022-03-14T11:35:13Z</time>
      </trkpt>
      <trkpt lat="47.12554" lon="-1.4185">
        <ele>101</ele>
        <time>2022-03-14T11:35:15Z</time>
      </trkpt>
      <trkpt lat="47.12566" lon="-1.41837">
        <ele>100</ele>
        <time>2022-03-14T11:35:17Z</time>
      </trkpt>
      <trkpt lat="47.12571" lon="-1.41815">
        <ele>100</ele>
        <time>2022-03-14T11:35:19Z</time>
      </trkpt>
      <trkpt lat="47.12577" lon="-1.41793">
        <ele>98</ele>
        <time>2022-03-14T11:35:21Z</time>
      </trkpt>
      <trkpt lat="47.12582" lon="-1.4177">
        <ele>96</ele>
        <time>2022-03-14T11:35:23Z</time>
      </trkpt>
      <trkpt lat="47.12591" lon="-1.41748">
        <ele>95</ele>
        <time>2022-03-14T11:35:25Z</time>
      </trkpt>
      <trkpt lat="47.12599" lon="-1.4174">
        <ele>94</ele>
        <time>2022-03-14T11:35:26Z</time>
      </trkpt>
      <trkpt lat="47.12615" lon="-1.41734">
        <ele>92</ele>
        <time>2022-03-14T11:35:28Z</time>
      </trkpt>
      <trkpt lat="47.12631" lon="-1.41731">
        <ele>91</ele>
        <time>2022-03-14T11:35:30Z</time>
      </trkpt>
      <trkpt lat="47.1264" lon="-1.41727">
        <ele>92</ele>
        <time>2022-03-14T11:35:31Z</time>
      </trkpt>
      <trkpt lat="47.1265" lon="-1.41722">
        <ele>92</ele>
        <time>2022-03-14T11:35:32Z</time>
      </trkpt>
      <trkpt lat="47.12658" lon="-1.41717">
        <ele>92</ele>
        <time>2022-03-14T11:35:33Z</time>
      </trkpt>
      <trkpt lat="47.12668" lon="-1.41711">
        <ele>92</ele>
        <time>2022-03-14T11:35:34Z</time>
      </trkpt>
      <trkpt lat="47.12677" lon="-1.41704">
        <ele>92</ele>
        <time>2022-03-14T11:35:35Z</time>
      </trkpt>
      <trkpt lat="47.12687" lon="-1.41696">
        <ele>91</ele>
        <time>2022-03-14T11:35:36Z</time>
      </trkpt>
      <trkpt lat="47.12697" lon="-1.4169">
        <ele>91</ele>
        <time>2022-03-14T11:35:37Z</time>
      </trkpt>
      <trkpt lat="47.12708" lon="-1.41684">
        <ele>91</ele>
        <time>2022-03-14T11:35:38Z</time>
      </trkpt>
      <trkpt lat="47.12719" lon="-1.4168">
        <ele>90</ele>
        <time>2022-03-14T11:35:39Z</time>
      </trkpt>
      <trkpt lat="47.1273" lon="-1.41679">
        <ele>89</ele>
        <time>2022-03-14T11:35:40Z</time>
      </trkpt>
      <trkpt lat="47.12741" lon="-1.41677">
        <ele>87</ele>
        <time>2022-03-14T11:35:41Z</time>
      </trkpt>
      <trkpt lat="47.12753" lon="-1.41673">
        <ele>86</ele>
        <time>2022-03-14T11:35:42Z</time>
      </trkpt>
      <trkpt lat="47.12763" lon="-1.41665">
        <ele>85</ele>
        <time>2022-03-14T11:35:43Z</time>
      </trkpt>
      <trkpt lat="47.12772" lon="-1.41653">
        <ele>84</ele>
        <time>2022-03-14T11:35:44Z</time>
      </trkpt>
      <trkpt lat="47.12777" lon="-1.41639">
        <ele>81</ele>
        <time>2022-03-14T11:35:45Z</time>
      </trkpt>
      <trkpt lat="47.12779" lon="-1.41624">
        <ele>79</ele>
        <time>2022-03-14T11:35:46Z</time>
      </trkpt>
      <trkpt lat="47.12777" lon="-1.41608">
        <ele>77</ele>
        <time>2022-03-14T11:35:47Z</time>
      </trkpt>
      <trkpt lat="47.12771" lon="-1.41595">
        <ele>75</ele>
        <time>2022-03-14T11:35:48Z</time>
      </trkpt>
      <trkpt lat="47.12762" lon="-1.41588">
        <ele>75</ele>
        <time>2022-03-14T11:35:49Z</time>
      </trkpt>
      <trkpt lat="47.1275" lon="-1.41589">
        <ele>74</ele>
        <time>2022-03-14T11:35:50Z</time>
      </trkpt>
      <trkpt lat="47.12738" lon="-1.41591">
        <ele>74</ele>
        <time>2022-03-14T11:35:51Z</time>
      </trkpt>
      <trkpt lat="47.12727" lon="-1.41595">
        <ele>73</ele>
        <time>2022-03-14T11:35:52Z</time>
      </trkpt>
      <trkpt lat="47.12718" lon="-1.41597">
        <ele>72</ele>
        <time>2022-03-14T11:35:53Z</time>
      </trkpt>
      <trkpt lat="47.12709" lon="-1.41597">
        <ele>70</ele>
        <time>2022-03-14T11:35:54Z</time>
      </trkpt>
      <trkpt lat="47.127" lon="-1.41593">
        <ele>70</ele>
        <time>2022-03-14T11:35:55Z</time>
      </trkpt>
      <trkpt lat="47.1269" lon="-1.41586">
        <ele>69</ele>
        <time>2022-03-14T11:35:56Z</time>
      </trkpt>
      <trkpt lat="47.12681" lon="-1.4158">
        <ele>69</ele>
        <time>2022-03-14T11:35:57Z</time>
      </trkpt>
      <trkpt lat="47.12671" lon="-1.41577">
        <ele>68</ele>
        <time>2022-03-14T11:35:58Z</time>
      </trkpt>
      <trkpt lat="47.12661" lon="-1.41579">
        <ele>68</ele>
        <time>2022-03-14T11:35:59Z</time>
      </trkpt>
      <trkpt lat="47.12651" lon="-1.41583">
        <ele>68</ele>
        <time>2022-03-14T11:36:00Z</time>
      </trkpt>
      <trkpt lat="47.12641" lon="-1.41586">
        <ele>68</ele>
        <time>2022-03-14T11:36:01Z</time>
      </trkpt>
      <trkpt lat="47.12631" lon="-1.41589">
        <ele>67</ele>
        <time>2022-03-14T11:36:02Z</time>
      </trkpt>
      <trkpt lat="47.12613" lon="-1.41585">
        <ele>64</ele>
        <time>2022-03-14T11:36:04Z</time>
      </trkpt>
      <trkpt lat="47.12602" lon="-1.41572">
        <ele>63</ele>
        <time>2022-03-14T11:36:05Z</time>
      </trkpt>
      <trkpt lat="47.12594" lon="-1.41557">
        <ele>62</ele>
        <time>2022-03-14T11:36:06Z</time>
      </trkpt>
      <trkpt lat="47.12586" lon="-1.41541">
        <ele>61</ele>
        <time>2022-03-14T11:36:07Z</time>
      </trkpt>
      <trkpt lat="47.12578" lon="-1.41525">
        <ele>60</ele>
        <time>2022-03-14T11:36:08Z</time>
      </trkpt>
      <trkpt lat="47.1257" lon="-1.4151">
        <ele>60</ele>
        <time>2022-03-14T11:36:09Z</time>
      </trkpt>
      <trkpt lat="47.12562" lon="-1.41496">
        <ele>60</ele>
        <time>2022-03-14T11:36:10Z</time>
      </trkpt>
      <trkpt lat="47.12555" lon="-1.41483">
        <ele>59</ele>
        <time>2022-03-14T11:36:11Z</time>
      </trkpt>
      <trkpt lat="47.12548" lon="-1.41472">
        <ele>59</ele>
        <time>2022-03-14T11:36:12Z</time>
      </trkpt>
      <trkpt lat="47.12542" lon="-1.41461">
        <ele>59</ele>
        <time>2022-03-14T11:36:13Z</time>
      </trkpt>
      <trkpt lat="47.12537" lon="-1.41451">
        <ele>59</ele>
        <time>2022-03-14T11:36:14Z</time>
      </trkpt>
      <trkpt lat="47.12528" lon="-1.41432">
        <ele>58</ele>
        <time>2022-03-14T11:36:16Z</time>
      </trkpt>
      <trkpt lat="47.12529" lon="-1.41414">
        <ele>58</ele>
        <time>2022-03-14T11:36:18Z</time>
      </trkpt>
      <trkpt lat="47.12535" lon="-1.41401">
        <ele>58</ele>
        <time>2022-03-14T11:36:20Z</time>
      </trkpt>
      <trkpt lat="47.12542" lon="-1.41391">
        <ele>58</ele>
        <time>2022-03-14T11:36:22Z</time>
      </trkpt>
      <trkpt lat="47.12549" lon="-1.4138">
        <ele>58</ele>
        <time>2022-03-14T11:36:24Z</time>
      </trkpt>
      <trkpt lat="47.12558" lon="-1.41366">
        <ele>59</ele>
        <time>2022-03-14T11:36:27Z</time>
      </trkpt>
      <trkpt lat="47.12567" lon="-1.41352">
        <ele>59</ele>
        <time>2022-03-14T11:36:30Z</time>
      </trkpt>
      <trkpt lat="47.12576" lon="-1.41337">
        <ele>59</ele>
        <time>2022-03-14T11:36:33Z</time>
      </trkpt>
      <trkpt lat="47.12583" lon="-1.41326">
        <ele>59</ele>
        <time>2022-03-14T11:36:36Z</time>
      </trkpt>
      <trkpt lat="47.1259" lon="-1.41315">
        <ele>59</ele>
        <time>2022-03-14T11:36:40Z</time>
      </trkpt>
      <trkpt lat="47.12598" lon="-1.41304">
        <ele>60</ele>
        <time>2022-03-14T11:36:44Z</time>
      </trkpt>
      <trkpt lat="47.12605" lon="-1.41292">
        <ele>62</ele>
        <time>2022-03-14T11:36:49Z</time>
      </trkpt>
      <trkpt lat="47.12614" lon="-1.41285">
        <ele>65</ele>
        <time>2022-03-14T11:36:54Z</time>
      </trkpt>
      <trkpt lat="47.12624" lon="-1.41283">
        <ele>68</ele>
        <time>2022-03-14T11:36:58Z</time>
      </trkpt>
      <trkpt lat="47.12634" lon="-1.41275">
        <ele>70</ele>
        <time>2022-03-14T11:37:03Z</time>
      </trkpt>
      <trkpt lat="47.12645" lon="-1.4127">
        <ele>71</ele>
        <time>2022-03-14T11:37:07Z</time>
      </trkpt>
      <trkpt lat="47.12654" lon="-1.41267">
        <ele>72</ele>
        <time>2022-03-14T11:37:10Z</time>
      </trkpt>
      <trkpt lat="47.12664" lon="-1.41264">
        <ele>73</ele>
        <time>2022-03-14T11:37:13Z</time>
      </trkpt>
      <trkpt lat="47.12675" lon="-1.4126">
        <ele>75</ele>
        <time>2022-03-14T11:37:17Z</time>
      </trkpt>
      <trkpt lat="47.12685" lon="-1.41254">
        <ele>78</ele>
        <time>2022-03-14T11:37:20Z</time>
      </trkpt>
      <trkpt lat="47.12694" lon="-1.41248">
        <ele>78</ele>
        <time>2022-03-14T11:37:23Z</time>
      </trkpt>
      <trkpt lat="47.12704" lon="-1.41242">
        <ele>79</ele>
        <time>2022-03-14T11:37:26Z</time>
      </trkpt>
      <trkpt lat="47.12712" lon="-1.41235">
        <ele>80</ele>
        <time>2022-03-14T11:37:29Z</time>
      </trkpt>
      <trkpt lat="47.12722" lon="-1.41225">
        <ele>80</ele>
        <time>2022-03-14T11:37:33Z</time>
      </trkpt>
      <trkpt lat="47.1273" lon="-1.41214">
        <ele>80</ele>
        <time>2022-03-14T11:37:36Z</time>
      </trkpt>
      <trkpt lat="47.12739" lon="-1.41201">
        <ele>81</ele>
        <time>2022-03-14T11:37:39Z</time>
      </trkpt>
      <trkpt lat="47.12746" lon="-1.41188">
        <ele>82</ele>
        <time>2022-03-14T11:37:42Z</time>
      </trkpt>
      <trkpt lat="47.12752" lon="-1.41176">
        <ele>83</ele>
        <time>2022-03-14T11:37:45Z</time>
      </trkpt>
      <trkpt lat="47.12759" lon="-1.41164">
        <ele>83</ele>
        <time>2022-03-14T11:37:48Z</time>
      </trkpt>
      <trkpt lat="47.12766" lon="-1.41154">
        <ele>84</ele>
        <time>2022-03-14T11:37:51Z</time>
      </trkpt>
      <trkpt lat="47.12771" lon="-1.41143">
        <ele>85</ele>
        <time>2022-03-14T11:37:54Z</time>
      </trkpt>
      <trkpt lat="47.12777" lon="-1.41132">
        <ele>86</ele>
        <time>2022-03-14T11:37:57Z</time>
      </trkpt>
      <trkpt lat="47.12783" lon="-1.41118">
        <ele>87</ele>
        <time>2022-03-14T11:38:01Z</time>
      </trkpt>
      <trkpt lat="47.12787" lon="-1.41105">
        <ele>88</ele>
        <time>2022-03-14T11:38:04Z</time>
      </trkpt>
      <trkpt lat="47.1279" lon="-1.41089">
        <ele>88</ele>
        <time>2022-03-14T11:38:07Z</time>
      </trkpt>
      <trkpt lat="47.12791" lon="-1.41074">
        <ele>90</ele>
        <time>2022-03-14T11:38:09Z</time>
      </trkpt>
      <trkpt lat="47.1279" lon="-1.4106">
        <ele>91</ele>
        <time>2022-03-14T11:38:11Z</time>
      </trkpt>
      <trkpt lat="47.12787" lon="-1.41047">
        <ele>92</ele>
        <time>2022-03-14T11:38:13Z</time>
      </trkpt>
      <trkpt lat="47.12784" lon="-1.41028">
        <ele>94</ele>
        <time>2022-03-14T11:38:16Z</time>
      </trkpt>
      <trkpt lat="47.1278" lon="-1.4101">
        <ele>94</ele>
        <time>2022-03-14T11:38:19Z</time>
      </trkpt>
      <trkpt lat="47.12774" lon="-1.40995">
        <ele>94</ele>
        <time>2022-03-14T11:38:22Z</time>
      </trkpt>
      <trkpt lat="47.12769" lon="-1.40979">
        <ele>94</ele>
        <time>2022-03-14T11:38:25Z</time>
      </trkpt>
      <trkpt lat="47.12765" lon="-1.40964">
        <ele>93</ele>
        <time>2022-03-14T11:38:28Z</time>
      </trkpt>
      <trkpt lat="47.1276" lon="-1.40949">
        <ele>93</ele>
        <time>2022-03-14T11:38:31Z</time>
      </trkpt>
      <trkpt lat="47.12754" lon="-1.40936">
        <ele>93</ele>
        <time>2022-03-14T11:38:34Z</time>
      </trkpt>
      <trkpt lat="47.12747" lon="-1.40924">
        <ele>92</ele>
        <time>2022-03-14T11:38:37Z</time>
      </trkpt>
      <trkpt lat="47.12737" lon="-1.40917">
        <ele>91</ele>
        <time>2022-03-14T11:38:40Z</time>
      </trkpt>
      <trkpt lat="47.12727" lon="-1.40913">
        <ele>93</ele>
        <time>2022-03-14T11:38:43Z</time>
      </trkpt>
      <trkpt lat="47.12717" lon="-1.4091">
        <ele>93</ele>
        <time>2022-03-14T11:38:46Z</time>
      </trkpt>
      <trkpt lat="47.12705" lon="-1.40907">
        <ele>94</ele>
        <time>2022-03-14T11:38:49Z</time>
      </trkpt>
      <trkpt lat="47.12695" lon="-1.40905">
        <ele>94</ele>
        <time>2022-03-14T11:38:52Z</time>
      </trkpt>
      <trkpt lat="47.12684" lon="-1.40902">
        <ele>95</ele>
        <time>2022-03-14T11:38:55Z</time>
      </trkpt>
      <trkpt lat="47.12674" lon="-1.409">
        <ele>95</ele>
        <time>2022-03-14T11:38:58Z</time>
      </trkpt>
      <trkpt lat="47.12664" lon="-1.40898">
        <ele>96</ele>
        <time>2022-03-14T11:39:01Z</time>
      </trkpt>
      <trkpt lat="47.12653" lon="-1.40896">
        <ele>96</ele>
        <time>2022-03-14T11:39:04Z</time>
      </trkpt>
      <trkpt lat="47.12642" lon="-1.40893">
        <ele>96</ele>
        <time>2022-03-14T11:39:07Z</time>
      </trkpt>
      <trkpt lat="47.12631" lon="-1.4089">
        <ele>97</ele>
        <time>2022-03-14T11:39:10Z</time>
      </trkpt>
      <trkpt lat="47.1262" lon="-1.40887">
        <ele>97</ele>
        <time>2022-03-14T11:39:13Z</time>
      </trkpt>
      <trkpt lat="47.12608" lon="-1.40885">
        <ele>98</ele>
        <time>2022-03-14T11:39:16Z</time>
      </trkpt>
      <trkpt lat="47.12596" lon="-1.40882">
        <ele>99</ele>
        <time>2022-03-14T11:39:19Z</time>
      </trkpt>
      <trkpt lat="47.12584" lon="-1.4088">
        <ele>99</ele>
        <time>2022-03-14T11:39:22Z</time>
      </trkpt>
      <trkpt lat="47.12571" lon="-1.40876">
        <ele>99</ele>
        <time>2022-03-14T11:39:25Z</time>
      </trkpt>
      <trkpt lat="47.12558" lon="-1.40874">
        <ele>99</ele>
        <time>2022-03-14T11:39:28Z</time>
      </trkpt>
      <trkpt lat="47.12549" lon="-1.40872">
        <ele>99</ele>
        <time>2022-03-14T11:39:30Z</time>
      </trkpt>
      <trkpt lat="47.1254" lon="-1.4087">
        <ele>99</ele>
        <time>2022-03-14T11:39:32Z</time>
      </trkpt>
      <trkpt lat="47.12531" lon="-1.40868">
        <ele>99</ele>
        <time>2022-03-14T11:39:34Z</time>
      </trkpt>
      <trkpt lat="47.12522" lon="-1.40866">
        <ele>100</ele>
        <time>2022-03-14T11:39:36Z</time>
      </trkpt>
      <trkpt lat="47.12509" lon="-1.40863">
        <ele>100</ele>
        <time>2022-03-14T11:39:39Z</time>
      </trkpt>
      <trkpt lat="47.12499" lon="-1.4086">
        <ele>100</ele>
        <time>2022-03-14T11:39:41Z</time>
      </trkpt>
      <trkpt lat="47.12489" lon="-1.40858">
        <ele>100</ele>
        <time>2022-03-14T11:39:43Z</time>
      </trkpt>
      <trkpt lat="47.1248" lon="-1.40855">
        <ele>100</ele>
        <time>2022-03-14T11:39:45Z</time>
      </trkpt>
      <trkpt lat="47.12471" lon="-1.40853">
        <ele>100</ele>
        <time>2022-03-14T11:39:47Z</time>
      </trkpt>
      <trkpt lat="47.12461" lon="-1.40849">
        <ele>100</ele>
        <time>2022-03-14T11:39:49Z</time>
      </trkpt>
      <trkpt lat="47.12452" lon="-1.40845">
        <ele>100</ele>
        <time>2022-03-14T11:39:51Z</time>
      </trkpt>
      <trkpt lat="47.12443" lon="-1.4084">
        <ele>100</ele>
        <time>2022-03-14T11:39:53Z</time>
      </trkpt>
      <trkpt lat="47.12435" lon="-1.40833">
        <ele>100</ele>
        <time>2022-03-14T11:39:55Z</time>
      </trkpt>
      <trkpt lat="47.12428" lon="-1.40825">
        <ele>100</ele>
        <time>2022-03-14T11:39:57Z</time>
      </trkpt>
      <trkpt lat="47.12418" lon="-1.40812">
        <ele>100</ele>
        <time>2022-03-14T11:40:00Z</time>
      </trkpt>
      <trkpt lat="47.12409" lon="-1.40798">
        <ele>101</ele>
        <time>2022-03-14T11:40:03Z</time>
      </trkpt>
      <trkpt lat="47.124" lon="-1.40784">
        <ele>101</ele>
        <time>2022-03-14T11:40:06Z</time>
      </trkpt>
      <trkpt lat="47.12391" lon="-1.4077">
        <ele>102</ele>
        <time>2022-03-14T11:40:09Z</time>
      </trkpt>
      <trkpt lat="47.12382" lon="-1.40756">
        <ele>102</ele>
        <time>2022-03-14T11:40:12Z</time>
      </trkpt>
      <trkpt lat="47.12374" lon="-1.40743">
        <ele>102</ele>
        <time>2022-03-14T11:40:15Z</time>
      </trkpt>
      <trkpt lat="47.12365" lon="-1.40729">
        <ele>103</ele>
        <time>2022-03-14T11:40:18Z</time>
      </trkpt>
      <trkpt lat="47.12355" lon="-1.40715">
        <ele>103</ele>
        <time>2022-03-14T11:40:21Z</time>
      </trkpt>
      <trkpt lat="47.12348" lon="-1.40709">
        <ele>103</ele>
        <time>2022-03-14T11:40:23Z</time>
      </trkpt>
      <trkpt lat="47.12336" lon="-1.407">
        <ele>104</ele>
        <time>2022-03-14T11:40:26Z</time>
      </trkpt>
      <trkpt lat="47.12323" lon="-1.40692">
        <ele>104</ele>
        <time>2022-03-14T11:40:29Z</time>
      </trkpt>
      <trkpt lat="47.12314" lon="-1.40689">
        <ele>104</ele>
        <time>2022-03-14T11:40:31Z</time>
      </trkpt>
      <trkpt lat="47.12305" lon="-1.40686">
        <ele>104</ele>
        <time>2022-03-14T11:40:33Z</time>
      </trkpt>
      <trkpt lat="47.12296" lon="-1.40682">
        <ele>104</ele>
        <time>2022-03-14T11:40:35Z</time>
      </trkpt>
      <trkpt lat="47.12284" lon="-1.40675">
        <ele>104</ele>
        <time>2022-03-14T11:40:38Z</time>
      </trkpt>
      <trkpt lat="47.12277" lon="-1.40664">
        <ele>104</ele>
        <time>2022-03-14T11:40:40Z</time>
      </trkpt>
      <trkpt lat="47.12272" lon="-1.40653">
        <ele>104</ele>
        <time>2022-03-14T11:40:42Z</time>
      </trkpt>
      <trkpt lat="47.12265" lon="-1.40636">
        <ele>104</ele>
        <time>2022-03-14T11:40:45Z</time>
      </trkpt>
      <trkpt lat="47.1226" lon="-1.40623">
        <ele>104</ele>
        <time>2022-03-14T11:40:47Z</time>
      </trkpt>
      <trkpt lat="47.12255" lon="-1.40611">
        <ele>104</ele>
        <time>2022-03-14T11:40:49Z</time>
      </trkpt>
      <trkpt lat="47.12248" lon="-1.40595">
        <ele>104</ele>
        <time>2022-03-14T11:40:52Z</time>
      </trkpt>
      <trkpt lat="47.12243" lon="-1.40583">
        <ele>104</ele>
        <time>2022-03-14T11:40:54Z</time>
      </trkpt>
      <trkpt lat="47.12239" lon="-1.4057">
        <ele>105</ele>
        <time>2022-03-14T11:40:56Z</time>
      </trkpt>
      <trkpt lat="47.12235" lon="-1.40556">
        <ele>105</ele>
        <time>2022-03-14T11:40:58Z</time>
      </trkpt>
      <trkpt lat="47.1223" lon="-1.40543">
        <ele>104</ele>
        <time>2022-03-14T11:41:00Z</time>
      </trkpt>
      <trkpt lat="47.12226" lon="-1.4053">
        <ele>104</ele>
        <time>2022-03-14T11:41:02Z</time>
      </trkpt>
      <trkpt lat="47.12222" lon="-1.40515">
        <ele>104</ele>
        <time>2022-03-14T11:41:04Z</time>
      </trkpt>
      <trkpt lat="47.1222" lon="-1.40501">
        <ele>104</ele>
        <time>2022-03-14T11:41:06Z</time>
      </trkpt>
      <trkpt lat="47.12217" lon="-1.40487">
        <ele>104</ele>
        <time>2022-03-14T11:41:08Z</time>
      </trkpt>
      <trkpt lat="47.12214" lon="-1.40472">
        <ele>104</ele>
        <time>2022-03-14T11:41:10Z</time>
      </trkpt>
      <trkpt lat="47.12212" lon="-1.40459">
        <ele>104</ele>
        <time>2022-03-14T11:41:12Z</time>
      </trkpt>
      <trkpt lat="47.12209" lon="-1.40445">
        <ele>105</ele>
        <time>2022-03-14T11:41:14Z</time>
      </trkpt>
      <trkpt lat="47.12207" lon="-1.40431">
        <ele>104</ele>
        <time>2022-03-14T11:41:16Z</time>
      </trkpt>
      <trkpt lat="47.12204" lon="-1.40417">
        <ele>105</ele>
        <time>2022-03-14T11:41:18Z</time>
      </trkpt>
      <trkpt lat="47.12201" lon="-1.40404">
        <ele>105</ele>
        <time>2022-03-14T11:41:20Z</time>
      </trkpt>
      <trkpt lat="47.12198" lon="-1.4039">
        <ele>105</ele>
        <time>2022-03-14T11:41:22Z</time>
      </trkpt>
      <trkpt lat="47.12195" lon="-1.40375">
        <ele>105</ele>
        <time>2022-03-14T11:41:24Z</time>
      </trkpt>
      <trkpt lat="47.12192" lon="-1.40362">
        <ele>105</ele>
        <time>2022-03-14T11:41:26Z</time>
      </trkpt>
      <trkpt lat="47.12188" lon="-1.40344">
        <ele>105</ele>
        <time>2022-03-14T11:41:29Z</time>
      </trkpt>
      <trkpt lat="47.12183" lon="-1.40328">
        <ele>105</ele>
        <time>2022-03-14T11:41:32Z</time>
      </trkpt>
      <trkpt lat="47.12182" lon="-1.40314">
        <ele>105</ele>
        <time>2022-03-14T11:41:35Z</time>
      </trkpt>
      <trkpt lat="47.1219" lon="-1.403">
        <ele>105</ele>
        <time>2022-03-14T11:41:38Z</time>
      </trkpt>
      <trkpt lat="47.122" lon="-1.40292">
        <ele>105</ele>
        <time>2022-03-14T11:41:40Z</time>
      </trkpt>
      <trkpt lat="47.1221" lon="-1.40286">
        <ele>105</ele>
        <time>2022-03-14T11:41:42Z</time>
      </trkpt>
      <trkpt lat="47.12221" lon="-1.40281">
        <ele>105</ele>
        <time>2022-03-14T11:41:44Z</time>
      </trkpt>
      <trkpt lat="47.12233" lon="-1.40275">
        <ele>105</ele>
        <time>2022-03-14T11:41:46Z</time>
      </trkpt>
      <trkpt lat="47.12244" lon="-1.4027">
        <ele>106</ele>
        <time>2022-03-14T11:41:48Z</time>
      </trkpt>
      <trkpt lat="47.12255" lon="-1.40266">
        <ele>105</ele>
        <time>2022-03-14T11:41:50Z</time>
      </trkpt>
      <trkpt lat="47.12266" lon="-1.40261">
        <ele>105</ele>
        <time>2022-03-14T11:41:52Z</time>
      </trkpt>
      <trkpt lat="47.12276" lon="-1.40256">
        <ele>104</ele>
        <time>2022-03-14T11:41:54Z</time>
      </trkpt>
      <trkpt lat="47.12288" lon="-1.40251">
        <ele>104</ele>
        <time>2022-03-14T11:41:56Z</time>
      </trkpt>
      <trkpt lat="47.12299" lon="-1.40246">
        <ele>104</ele>
        <time>2022-03-14T11:41:58Z</time>
      </trkpt>
      <trkpt lat="47.12311" lon="-1.40241">
        <ele>104</ele>
        <time>2022-03-14T11:42:00Z</time>
      </trkpt>
      <trkpt lat="47.12322" lon="-1.40235">
        <ele>103</ele>
        <time>2022-03-14T11:42:02Z</time>
      </trkpt>
      <trkpt lat="47.12335" lon="-1.40229">
        <ele>103</ele>
        <time>2022-03-14T11:42:04Z</time>
      </trkpt>
      <trkpt lat="47.12347" lon="-1.40224">
        <ele>102</ele>
        <time>2022-03-14T11:42:06Z</time>
      </trkpt>
      <trkpt lat="47.1236" lon="-1.40218">
        <ele>102</ele>
        <time>2022-03-14T11:42:08Z</time>
      </trkpt>
      <trkpt lat="47.12373" lon="-1.40213">
        <ele>103</ele>
        <time>2022-03-14T11:42:10Z</time>
      </trkpt>
      <trkpt lat="47.12386" lon="-1.40206">
        <ele>103</ele>
        <time>2022-03-14T11:42:12Z</time>
      </trkpt>
      <trkpt lat="47.12399" lon="-1.402">
        <ele>102</ele>
        <time>2022-03-14T11:42:14Z</time>
      </trkpt>
      <trkpt lat="47.12412" lon="-1.40195">
        <ele>102</ele>
        <time>2022-03-14T11:42:16Z</time>
      </trkpt>
      <trkpt lat="47.12426" lon="-1.40188">
        <ele>102</ele>
        <time>2022-03-14T11:42:18Z</time>
      </trkpt>
      <trkpt lat="47.1244" lon="-1.40181">
        <ele>101</ele>
        <time>2022-03-14T11:42:20Z</time>
      </trkpt>
      <trkpt lat="47.12453" lon="-1.40175">
        <ele>101</ele>
        <time>2022-03-14T11:42:22Z</time>
      </trkpt>
      <trkpt lat="47.12467" lon="-1.40168">
        <ele>101</ele>
        <time>2022-03-14T11:42:24Z</time>
      </trkpt>
      <trkpt lat="47.12481" lon="-1.40162">
        <ele>101</ele>
        <time>2022-03-14T11:42:26Z</time>
      </trkpt>
      <trkpt lat="47.12495" lon="-1.40157">
        <ele>100</ele>
        <time>2022-03-14T11:42:28Z</time>
      </trkpt>
      <trkpt lat="47.12509" lon="-1.40153">
        <ele>100</ele>
        <time>2022-03-14T11:42:30Z</time>
      </trkpt>
      <trkpt lat="47.12523" lon="-1.4015">
        <ele>99</ele>
        <time>2022-03-14T11:42:32Z</time>
      </trkpt>
      <trkpt lat="47.12537" lon="-1.40151">
        <ele>98</ele>
        <time>2022-03-14T11:42:34Z</time>
      </trkpt>
      <trkpt lat="47.1255" lon="-1.40154">
        <ele>97</ele>
        <time>2022-03-14T11:42:36Z</time>
      </trkpt>
      <trkpt lat="47.12564" lon="-1.40157">
        <ele>97</ele>
        <time>2022-03-14T11:42:38Z</time>
      </trkpt>
      <trkpt lat="47.12577" lon="-1.40162">
        <ele>96</ele>
        <time>2022-03-14T11:42:40Z</time>
      </trkpt>
      <trkpt lat="47.12591" lon="-1.40165">
        <ele>96</ele>
        <time>2022-03-14T11:42:42Z</time>
      </trkpt>
      <trkpt lat="47.12606" lon="-1.40166">
        <ele>96</ele>
        <time>2022-03-14T11:42:44Z</time>
      </trkpt>
      <trkpt lat="47.12621" lon="-1.40164">
        <ele>96</ele>
        <time>2022-03-14T11:42:46Z</time>
      </trkpt>
      <trkpt lat="47.12637" lon="-1.40161">
        <ele>95</ele>
        <time>2022-03-14T11:42:48Z</time>
      </trkpt>
      <trkpt lat="47.12651" lon="-1.40159">
        <ele>95</ele>
        <time>2022-03-14T11:42:50Z</time>
      </trkpt>
      <trkpt lat="47.12666" lon="-1.40157">
        <ele>94</ele>
        <time>2022-03-14T11:42:52Z</time>
      </trkpt>
      <trkpt lat="47.12681" lon="-1.40153">
        <ele>94</ele>
        <time>2022-03-14T11:42:54Z</time>
      </trkpt>
      <trkpt lat="47.12696" lon="-1.40146">
        <ele>94</ele>
        <time>2022-03-14T11:42:56Z</time>
      </trkpt>
      <trkpt lat="47.12708" lon="-1.40136">
        <ele>93</ele>
        <time>2022-03-14T11:42:58Z</time>
      </trkpt>
      <trkpt lat="47.1272" lon="-1.40124">
        <ele>92</ele>
        <time>2022-03-14T11:43:00Z</time>
      </trkpt>
      <trkpt lat="47.12731" lon="-1.40112">
        <ele>92</ele>
        <time>2022-03-14T11:43:02Z</time>
      </trkpt>
      <trkpt lat="47.12743" lon="-1.40101">
        <ele>92</ele>
        <time>2022-03-14T11:43:04Z</time>
      </trkpt>
      <trkpt lat="47.12754" lon="-1.4009">
        <ele>92</ele>
        <time>2022-03-14T11:43:06Z</time>
      </trkpt>
      <trkpt lat="47.12766" lon="-1.40079">
        <ele>91</ele>
        <time>2022-03-14T11:43:08Z</time>
      </trkpt>
      <trkpt lat="47.12776" lon="-1.40069">
        <ele>91</ele>
        <time>2022-03-14T11:43:10Z</time>
      </trkpt>
      <trkpt lat="47.12787" lon="-1.40058">
        <ele>90</ele>
        <time>2022-03-14T11:43:12Z</time>
      </trkpt>
      <trkpt lat="47.12798" lon="-1.40047">
        <ele>90</ele>
        <time>2022-03-14T11:43:14Z</time>
      </trkpt>
      <trkpt lat="47.12809" lon="-1.40036">
        <ele>89</ele>
        <time>2022-03-14T11:43:16Z</time>
      </trkpt>
      <trkpt lat="47.1282" lon="-1.40025">
        <ele>89</ele>
        <time>2022-03-14T11:43:18Z</time>
      </trkpt>
      <trkpt lat="47.12831" lon="-1.40015">
        <ele>89</ele>
        <time>2022-03-14T11:43:20Z</time>
      </trkpt>
      <trkpt lat="47.12841" lon="-1.40005">
        <ele>89</ele>
        <time>2022-03-14T11:43:22Z</time>
      </trkpt>
      <trkpt lat="47.12851" lon="-1.39994">
        <ele>89</ele>
        <time>2022-03-14T11:43:24Z</time>
      </trkpt>
      <trkpt lat="47.12861" lon="-1.39983">
        <ele>90</ele>
        <time>2022-03-14T11:43:26Z</time>
      </trkpt>
      <trkpt lat="47.12871" lon="-1.39974">
        <ele>91</ele>
        <time>2022-03-14T11:43:28Z</time>
      </trkpt>
      <trkpt lat="47.12882" lon="-1.39966">
        <ele>91</ele>
        <time>2022-03-14T11:43:30Z</time>
      </trkpt>
      <trkpt lat="47.12892" lon="-1.39956">
        <ele>90</ele>
        <time>2022-03-14T11:43:32Z</time>
      </trkpt>
      <trkpt lat="47.12903" lon="-1.39949">
        <ele>90</ele>
        <time>2022-03-14T11:43:34Z</time>
      </trkpt>
      <trkpt lat="47.12917" lon="-1.39943">
        <ele>91</ele>
        <time>2022-03-14T11:43:36Z</time>
      </trkpt>
      <trkpt lat="47.1293" lon="-1.39939">
        <ele>92</ele>
        <time>2022-03-14T11:43:38Z</time>
      </trkpt>
      <trkpt lat="47.12942" lon="-1.39934">
        <ele>92</ele>
        <time>2022-03-14T11:43:40Z</time>
      </trkpt>
      <trkpt lat="47.12953" lon="-1.3993">
        <ele>92</ele>
        <time>2022-03-14T11:43:42Z</time>
      </trkpt>
      <trkpt lat="47.12965" lon="-1.39925">
        <ele>92</ele>
        <time>2022-03-14T11:43:44Z</time>
      </trkpt>
      <trkpt lat="47.12975" lon="-1.39919">
        <ele>92</ele>
        <time>2022-03-14T11:43:46Z</time>
      </trkpt>
      <trkpt lat="47.12983" lon="-1.39911">
        <ele>92</ele>
        <time>2022-03-14T11:43:48Z</time>
      </trkpt>
      <trkpt lat="47.12992" lon="-1.39899">
        <ele>92</ele>
        <time>2022-03-14T11:43:51Z</time>
      </trkpt>
      <trkpt lat="47.13003" lon="-1.39899">
        <ele>91</ele>
        <time>2022-03-14T11:43:54Z</time>
      </trkpt>
      <trkpt lat="47.1301" lon="-1.39911">
        <ele>89</ele>
        <time>2022-03-14T11:43:56Z</time>
      </trkpt>
      <trkpt lat="47.13018" lon="-1.39926">
        <ele>88</ele>
        <time>2022-03-14T11:43:58Z</time>
      </trkpt>
      <trkpt lat="47.13027" lon="-1.39941">
        <ele>88</ele>
        <time>2022-03-14T11:44:00Z</time>
      </trkpt>
      <trkpt lat="47.13037" lon="-1.39955">
        <ele>87</ele>
        <time>2022-03-14T11:44:02Z</time>
      </trkpt>
      <trkpt lat="47.13048" lon="-1.39968">
        <ele>87</ele>
        <time>2022-03-14T11:44:04Z</time>
      </trkpt>
      <trkpt lat="47.13061" lon="-1.39979">
        <ele>87</ele>
        <time>2022-03-14T11:44:06Z</time>
      </trkpt>
      <trkpt lat="47.13074" lon="-1.39988">
        <ele>87</ele>
        <time>2022-03-14T11:44:08Z</time>
      </trkpt>
      <trkpt lat="47.13088" lon="-1.39996">
        <ele>86</ele>
        <time>2022-03-14T11:44:10Z</time>
      </trkpt>
      <trkpt lat="47.13101" lon="-1.40003">
        <ele>86</ele>
        <time>2022-03-14T11:44:12Z</time>
      </trkpt>
      <trkpt lat="47.13114" lon="-1.4001">
        <ele>86</ele>
        <time>2022-03-14T11:44:14Z</time>
      </trkpt>
      <trkpt lat="47.13128" lon="-1.40016">
        <ele>86</ele>
        <time>2022-03-14T11:44:16Z</time>
      </trkpt>
      <trkpt lat="47.13141" lon="-1.40023">
        <ele>85</ele>
        <time>2022-03-14T11:44:18Z</time>
      </trkpt>
      <trkpt lat="47.13154" lon="-1.4003">
        <ele>85</ele>
        <time>2022-03-14T11:44:20Z</time>
      </trkpt>
      <trkpt lat="47.13167" lon="-1.40037">
        <ele>85</ele>
        <time>2022-03-14T11:44:22Z</time>
      </trkpt>
      <trkpt lat="47.1318" lon="-1.40045">
        <ele>84</ele>
        <time>2022-03-14T11:44:24Z</time>
      </trkpt>
      <trkpt lat="47.13193" lon="-1.40053">
        <ele>84</ele>
        <time>2022-03-14T11:44:26Z</time>
      </trkpt>
      <trkpt lat="47.13206" lon="-1.40061">
        <ele>83</ele>
        <time>2022-03-14T11:44:28Z</time>
      </trkpt>
      <trkpt lat="47.13218" lon="-1.4007">
        <ele>84</ele>
        <time>2022-03-14T11:44:30Z</time>
      </trkpt>
      <trkpt lat="47.13231" lon="-1.4008">
        <ele>84</ele>
        <time>2022-03-14T11:44:32Z</time>
      </trkpt>
      <trkpt lat="47.13243" lon="-1.4009">
        <ele>83</ele>
        <time>2022-03-14T11:44:34Z</time>
      </trkpt>
      <trkpt lat="47.13255" lon="-1.401">
        <ele>83</ele>
        <time>2022-03-14T11:44:36Z</time>
      </trkpt>
      <trkpt lat="47.13267" lon="-1.4011">
        <ele>83</ele>
        <time>2022-03-14T11:44:38Z</time>
      </trkpt>
      <trkpt lat="47.13279" lon="-1.4012">
        <ele>83</ele>
        <time>2022-03-14T11:44:40Z</time>
      </trkpt>
      <trkpt lat="47.13291" lon="-1.4013">
        <ele>83</ele>
        <time>2022-03-14T11:44:42Z</time>
      </trkpt>
      <trkpt lat="47.13303" lon="-1.40139">
        <ele>82</ele>
        <time>2022-03-14T11:44:44Z</time>
      </trkpt>
      <trkpt lat="47.13314" lon="-1.40149">
        <ele>82</ele>
        <time>2022-03-14T11:44:46Z</time>
      </trkpt>
      <trkpt lat="47.13325" lon="-1.40158">
        <ele>82</ele>
        <time>2022-03-14T11:44:48Z</time>
      </trkpt>
      <trkpt lat="47.13338" lon="-1.40167">
        <ele>82</ele>
        <time>2022-03-14T11:44:50Z</time>
      </trkpt>
      <trkpt lat="47.1335" lon="-1.40174">
        <ele>82</ele>
        <time>2022-03-14T11:44:52Z</time>
      </trkpt>
      <trkpt lat="47.13362" lon="-1.40178">
        <ele>82</ele>
        <time>2022-03-14T11:44:54Z</time>
      </trkpt>
      <trkpt lat="47.13375" lon="-1.4018">
        <ele>82</ele>
        <time>2022-03-14T11:44:56Z</time>
      </trkpt>
      <trkpt lat="47.13388" lon="-1.4018">
        <ele>83</ele>
        <time>2022-03-14T11:44:58Z</time>
      </trkpt>
      <trkpt lat="47.134" lon="-1.4018">
        <ele>84</ele>
        <time>2022-03-14T11:45:00Z</time>
      </trkpt>
      <trkpt lat="47.13413" lon="-1.40181">
        <ele>84</ele>
        <time>2022-03-14T11:45:02Z</time>
      </trkpt>
      <trkpt lat="47.13425" lon="-1.40181">
        <ele>84</ele>
        <time>2022-03-14T11:45:04Z</time>
      </trkpt>
      <trkpt lat="47.13437" lon="-1.40183">
        <ele>84</ele>
        <time>2022-03-14T11:45:06Z</time>
      </trkpt>
      <trkpt lat="47.13449" lon="-1.40187">
        <ele>84</ele>
        <time>2022-03-14T11:45:08Z</time>
      </trkpt>
      <trkpt lat="47.13461" lon="-1.40192">
        <ele>84</ele>
        <time>2022-03-14T11:45:10Z</time>
      </trkpt>
      <trkpt lat="47.13473" lon="-1.40198">
        <ele>84</ele>
        <time>2022-03-14T11:45:12Z</time>
      </trkpt>
      <trkpt lat="47.13486" lon="-1.40204">
        <ele>84</ele>
        <time>2022-03-14T11:45:14Z</time>
      </trkpt>
      <trkpt lat="47.13498" lon="-1.4021">
        <ele>84</ele>
        <time>2022-03-14T11:45:16Z</time>
      </trkpt>
      <trkpt lat="47.1351" lon="-1.40215">
        <ele>84</ele>
        <time>2022-03-14T11:45:18Z</time>
      </trkpt>
      <trkpt lat="47.13522" lon="-1.40221">
        <ele>84</ele>
        <time>2022-03-14T11:45:20Z</time>
      </trkpt>
      <trkpt lat="47.13534" lon="-1.40226">
        <ele>84</ele>
        <time>2022-03-14T11:45:22Z</time>
      </trkpt>
      <trkpt lat="47.13546" lon="-1.40232">
        <ele>84</ele>
        <time>2022-03-14T11:45:24Z</time>
      </trkpt>
      <trkpt lat="47.13558" lon="-1.40237">
        <ele>85</ele>
        <time>2022-03-14T11:45:26Z</time>
      </trkpt>
      <trkpt lat="47.1357" lon="-1.40242">
        <ele>85</ele>
        <time>2022-03-14T11:45:28Z</time>
      </trkpt>
      <trkpt lat="47.13583" lon="-1.40249">
        <ele>85</ele>
        <time>2022-03-14T11:45:30Z</time>
      </trkpt>
      <trkpt lat="47.13595" lon="-1.40254">
        <ele>85</ele>
        <time>2022-03-14T11:45:32Z</time>
      </trkpt>
      <trkpt lat="47.13608" lon="-1.4026">
        <ele>85</ele>
        <time>2022-03-14T11:45:34Z</time>
      </trkpt>
      <trkpt lat="47.13621" lon="-1.40266">
        <ele>85</ele>
        <time>2022-03-14T11:45:36Z</time>
      </trkpt>
      <trkpt lat="47.13633" lon="-1.40271">
        <ele>85</ele>
        <time>2022-03-14T11:45:38Z</time>
      </trkpt>
      <trkpt lat="47.13646" lon="-1.40276">
        <ele>85</ele>
        <time>2022-03-14T11:45:40Z</time>
      </trkpt>
      <trkpt lat="47.13659" lon="-1.40279">
        <ele>85</ele>
        <time>2022-03-14T11:45:42Z</time>
      </trkpt>
      <trkpt lat="47.13672" lon="-1.4028">
        <ele>85</ele>
        <time>2022-03-14T11:45:44Z</time>
      </trkpt>
      <trkpt lat="47.13685" lon="-1.4028">
        <ele>85</ele>
        <time>2022-03-14T11:45:46Z</time>
      </trkpt>
      <trkpt lat="47.13699" lon="-1.40278">
        <ele>85</ele>
        <time>2022-03-14T11:45:48Z</time>
      </trkpt>
      <trkpt lat="47.13712" lon="-1.40275">
        <ele>85</ele>
        <time>2022-03-14T11:45:50Z</time>
      </trkpt>
      <trkpt lat="47.13725" lon="-1.40273">
        <ele>85</ele>
        <time>2022-03-14T11:45:52Z</time>
      </trkpt>
      <trkpt lat="47.13738" lon="-1.4027">
        <ele>84</ele>
        <time>2022-03-14T11:45:54Z</time>
      </trkpt>
      <trkpt lat="47.13751" lon="-1.40268">
        <ele>84</ele>
        <time>2022-03-14T11:45:56Z</time>
      </trkpt>
      <trkpt lat="47.13764" lon="-1.40266">
        <ele>84</ele>
        <time>2022-03-14T11:45:58Z</time>
      </trkpt>
      <trkpt lat="47.13777" lon="-1.40264">
        <ele>84</ele>
        <time>2022-03-14T11:46:00Z</time>
      </trkpt>
      <trkpt lat="47.13789" lon="-1.40261">
        <ele>84</ele>
        <time>2022-03-14T11:46:02Z</time>
      </trkpt>
      <trkpt lat="47.13802" lon="-1.40259">
        <ele>84</ele>
        <time>2022-03-14T11:46:04Z</time>
      </trkpt>
      <trkpt lat="47.13814" lon="-1.40256">
        <ele>84</ele>
        <time>2022-03-14T11:46:06Z</time>
      </trkpt>
      <trkpt lat="47.13827" lon="-1.40254">
        <ele>83</ele>
        <time>2022-03-14T11:46:08Z</time>
      </trkpt>
      <trkpt lat="47.13839" lon="-1.40252">
        <ele>84</ele>
        <time>2022-03-14T11:46:10Z</time>
      </trkpt>
      <trkpt lat="47.13852" lon="-1.4025">
        <ele>83</ele>
        <time>2022-03-14T11:46:12Z</time>
      </trkpt>
      <trkpt lat="47.13865" lon="-1.40247">
        <ele>83</ele>
        <time>2022-03-14T11:46:14Z</time>
      </trkpt>
      <trkpt lat="47.13877" lon="-1.40245">
        <ele>84</ele>
        <time>2022-03-14T11:46:16Z</time>
      </trkpt>
      <trkpt lat="47.1389" lon="-1.40243">
        <ele>84</ele>
        <time>2022-03-14T11:46:18Z</time>
      </trkpt>
      <trkpt lat="47.13902" lon="-1.40243">
        <ele>84</ele>
        <time>2022-03-14T11:46:20Z</time>
      </trkpt>
      <trkpt lat="47.13914" lon="-1.40244">
        <ele>84</ele>
        <time>2022-03-14T11:46:22Z</time>
      </trkpt>
      <trkpt lat="47.13926" lon="-1.40247">
        <ele>85</ele>
        <time>2022-03-14T11:46:24Z</time>
      </trkpt>
      <trkpt lat="47.13938" lon="-1.4025">
        <ele>85</ele>
        <time>2022-03-14T11:46:26Z</time>
      </trkpt>
      <trkpt lat="47.13951" lon="-1.40255">
        <ele>85</ele>
        <time>2022-03-14T11:46:28Z</time>
      </trkpt>
      <trkpt lat="47.13963" lon="-1.40261">
        <ele>85</ele>
        <time>2022-03-14T11:46:30Z</time>
      </trkpt>
      <trkpt lat="47.13975" lon="-1.40268">
        <ele>85</ele>
        <time>2022-03-14T11:46:32Z</time>
      </trkpt>
      <trkpt lat="47.13986" lon="-1.40276">
        <ele>85</ele>
        <time>2022-03-14T11:46:34Z</time>
      </trkpt>
      <trkpt lat="47.13997" lon="-1.40286">
        <ele>84</ele>
        <time>2022-03-14T11:46:36Z</time>
      </trkpt>
      <trkpt lat="47.14008" lon="-1.40298">
        <ele>85</ele>
        <time>2022-03-14T11:46:38Z</time>
      </trkpt>
      <trkpt lat="47.14017" lon="-1.40311">
        <ele>85</ele>
        <time>2022-03-14T11:46:40Z</time>
      </trkpt>
      <trkpt lat="47.14026" lon="-1.40325">
        <ele>85</ele>
        <time>2022-03-14T11:46:42Z</time>
      </trkpt>
      <trkpt lat="47.14034" lon="-1.40341">
        <ele>84</ele>
        <time>2022-03-14T11:46:44Z</time>
      </trkpt>
      <trkpt lat="47.14041" lon="-1.40358">
        <ele>84</ele>
        <time>2022-03-14T11:46:46Z</time>
      </trkpt>
      <trkpt lat="47.14047" lon="-1.40376">
        <ele>84</ele>
        <time>2022-03-14T11:46:48Z</time>
      </trkpt>
      <trkpt lat="47.14052" lon="-1.40394">
        <ele>85</ele>
        <time>2022-03-14T11:46:50Z</time>
      </trkpt>
      <trkpt lat="47.14058" lon="-1.40412">
        <ele>85</ele>
        <time>2022-03-14T11:46:52Z</time>
      </trkpt>
      <trkpt lat="47.14064" lon="-1.4043">
        <ele>85</ele>
        <time>2022-03-14T11:46:54Z</time>
      </trkpt>
      <trkpt lat="47.14071" lon="-1.40447">
        <ele>85</ele>
        <time>2022-03-14T11:46:56Z</time>
      </trkpt>
      <trkpt lat="47.14079" lon="-1.40463">
        <ele>85</ele>
        <time>2022-03-14T11:46:58Z</time>
      </trkpt>
      <trkpt lat="47.14088" lon="-1.40478">
        <ele>85</ele>
        <time>2022-03-14T11:47:00Z</time>
      </trkpt>
      <trkpt lat="47.14098" lon="-1.40492">
        <ele>85</ele>
        <time>2022-03-14T11:47:02Z</time>
      </trkpt>
      <trkpt lat="47.14108" lon="-1.40506">
        <ele>84</ele>
        <time>2022-03-14T11:47:04Z</time>
      </trkpt>
      <trkpt lat="47.14118" lon="-1.4052">
        <ele>84</ele>
        <time>2022-03-14T11:47:06Z</time>
      </trkpt>
      <trkpt lat="47.14128" lon="-1.40535">
        <ele>84</ele>
        <time>2022-03-14T11:47:08Z</time>
      </trkpt>
      <trkpt lat="47.14138" lon="-1.40549">
        <ele>84</ele>
        <time>2022-03-14T11:47:10Z</time>
      </trkpt>
      <trkpt lat="47.14148" lon="-1.40563">
        <ele>84</ele>
        <time>2022-03-14T11:47:12Z</time>
      </trkpt>
      <trkpt lat="47.14159" lon="-1.40578">
        <ele>84</ele>
        <time>2022-03-14T11:47:14Z</time>
      </trkpt>
      <trkpt lat="47.14169" lon="-1.40592">
        <ele>84</ele>
        <time>2022-03-14T11:47:16Z</time>
      </trkpt>
      <trkpt lat="47.1418" lon="-1.40607">
        <ele>84</ele>
        <time>2022-03-14T11:47:18Z</time>
      </trkpt>
      <trkpt lat="47.1419" lon="-1.40622">
        <ele>83</ele>
        <time>2022-03-14T11:47:20Z</time>
      </trkpt>
      <trkpt lat="47.14201" lon="-1.40637">
        <ele>83</ele>
        <time>2022-03-14T11:47:22Z</time>
      </trkpt>
      <trkpt lat="47.14211" lon="-1.40652">
        <ele>83</ele>
        <time>2022-03-14T11:47:24Z</time>
      </trkpt>
      <trkpt lat="47.14222" lon="-1.40667">
        <ele>83</ele>
        <time>2022-03-14T11:47:26Z</time>
      </trkpt>
      <trkpt lat="47.14232" lon="-1.40682">
        <ele>83</ele>
        <time>2022-03-14T11:47:28Z</time>
      </trkpt>
      <trkpt lat="47.14241" lon="-1.40698">
        <ele>83</ele>
        <time>2022-03-14T11:47:30Z</time>
      </trkpt>
      <trkpt lat="47.14251" lon="-1.40715">
        <ele>83</ele>
        <time>2022-03-14T11:47:32Z</time>
      </trkpt>
      <trkpt lat="47.1426" lon="-1.40732">
        <ele>82</ele>
        <time>2022-03-14T11:47:34Z</time>
      </trkpt>
      <trkpt lat="47.14269" lon="-1.40749">
        <ele>82</ele>
        <time>2022-03-14T11:47:36Z</time>
      </trkpt>
      <trkpt lat="47.14279" lon="-1.40766">
        <ele>82</ele>
        <time>2022-03-14T11:47:38Z</time>
      </trkpt>
      <trkpt lat="47.14288" lon="-1.40783">
        <ele>81</ele>
        <time>2022-03-14T11:47:40Z</time>
      </trkpt>
      <trkpt lat="47.14298" lon="-1.40801">
        <ele>81</ele>
        <time>2022-03-14T11:47:42Z</time>
      </trkpt>
      <trkpt lat="47.14307" lon="-1.40818">
        <ele>80</ele>
        <time>2022-03-14T11:47:44Z</time>
      </trkpt>
      <trkpt lat="47.14316" lon="-1.40834">
        <ele>80</ele>
        <time>2022-03-14T11:47:46Z</time>
      </trkpt>
      <trkpt lat="47.14325" lon="-1.40849">
        <ele>80</ele>
        <time>2022-03-14T11:47:48Z</time>
      </trkpt>
      <trkpt lat="47.14333" lon="-1.40865">
        <ele>80</ele>
        <time>2022-03-14T11:47:50Z</time>
      </trkpt>
      <trkpt lat="47.14341" lon="-1.40881">
        <ele>80</ele>
        <time>2022-03-14T11:47:52Z</time>
      </trkpt>
      <trkpt lat="47.1435" lon="-1.40896">
        <ele>80</ele>
        <time>2022-03-14T11:47:54Z</time>
      </trkpt>
      <trkpt lat="47.14358" lon="-1.40911">
        <ele>80</ele>
        <time>2022-03-14T11:47:56Z</time>
      </trkpt>
      <trkpt lat="47.14366" lon="-1.40925">
        <ele>80</ele>
        <time>2022-03-14T11:47:58Z</time>
      </trkpt>
      <trkpt lat="47.14374" lon="-1.40939">
        <ele>80</ele>
        <time>2022-03-14T11:48:00Z</time>
      </trkpt>
      <trkpt lat="47.14381" lon="-1.40953">
        <ele>80</ele>
        <time>2022-03-14T11:48:02Z</time>
      </trkpt>
      <trkpt lat="47.14388" lon="-1.40966">
        <ele>80</ele>
        <time>2022-03-14T11:48:04Z</time>
      </trkpt>
      <trkpt lat="47.14395" lon="-1.4098">
        <ele>81</ele>
        <time>2022-03-14T11:48:06Z</time>
      </trkpt>
      <trkpt lat="47.14401" lon="-1.40994">
        <ele>82</ele>
        <time>2022-03-14T11:48:08Z</time>
      </trkpt>
      <trkpt lat="47.14405" lon="-1.4101">
        <ele>82</ele>
        <time>2022-03-14T11:48:10Z</time>
      </trkpt>
      <trkpt lat="47.14409" lon="-1.41027">
        <ele>83</ele>
        <time>2022-03-14T11:48:12Z</time>
      </trkpt>
      <trkpt lat="47.1441" lon="-1.41046">
        <ele>83</ele>
        <time>2022-03-14T11:48:14Z</time>
      </trkpt>
      <trkpt lat="47.1441" lon="-1.41065">
        <ele>83</ele>
        <time>2022-03-14T11:48:16Z</time>
      </trkpt>
      <trkpt lat="47.14409" lon="-1.41082">
        <ele>83</ele>
        <time>2022-03-14T11:48:18Z</time>
      </trkpt>
      <trkpt lat="47.14407" lon="-1.411">
        <ele>84</ele>
        <time>2022-03-14T11:48:20Z</time>
      </trkpt>
      <trkpt lat="47.14406" lon="-1.41118">
        <ele>84</ele>
        <time>2022-03-14T11:48:22Z</time>
      </trkpt>
      <trkpt lat="47.14405" lon="-1.41135">
        <ele>84</ele>
        <time>2022-03-14T11:48:24Z</time>
      </trkpt>
      <trkpt lat="47.14404" lon="-1.41153">
        <ele>85</ele>
        <time>2022-03-14T11:48:26Z</time>
      </trkpt>
      <trkpt lat="47.14403" lon="-1.41171">
        <ele>85</ele>
        <time>2022-03-14T11:48:28Z</time>
      </trkpt>
      <trkpt lat="47.14402" lon="-1.41189">
        <ele>85</ele>
        <time>2022-03-14T11:48:30Z</time>
      </trkpt>
      <trkpt lat="47.14401" lon="-1.41207">
        <ele>85</ele>
        <time>2022-03-14T11:48:32Z</time>
      </trkpt>
      <trkpt lat="47.144" lon="-1.41226">
        <ele>86</ele>
        <time>2022-03-14T11:48:34Z</time>
      </trkpt>
      <trkpt lat="47.14399" lon="-1.41244">
        <ele>86</ele>
        <time>2022-03-14T11:48:36Z</time>
      </trkpt>
      <trkpt lat="47.14397" lon="-1.41262">
        <ele>86</ele>
        <time>2022-03-14T11:48:38Z</time>
      </trkpt>
      <trkpt lat="47.14396" lon="-1.4128">
        <ele>86</ele>
        <time>2022-03-14T11:48:40Z</time>
      </trkpt>
      <trkpt lat="47.14395" lon="-1.41298">
        <ele>86</ele>
        <time>2022-03-14T11:48:42Z</time>
      </trkpt>
      <trkpt lat="47.14395" lon="-1.41317">
        <ele>86</ele>
        <time>2022-03-14T11:48:44Z</time>
      </trkpt>
      <trkpt lat="47.14395" lon="-1.41336">
        <ele>87</ele>
        <time>2022-03-14T11:48:46Z</time>
      </trkpt>
      <trkpt lat="47.14396" lon="-1.41355">
        <ele>87</ele>
        <time>2022-03-14T11:48:48Z</time>
      </trkpt>
      <trkpt lat="47.14396" lon="-1.41374">
        <ele>87</ele>
        <time>2022-03-14T11:48:50Z</time>
      </trkpt>
      <trkpt lat="47.14396" lon="-1.41394">
        <ele>87</ele>
        <time>2022-03-14T11:48:52Z</time>
      </trkpt>
      <trkpt lat="47.14396" lon="-1.41412">
        <ele>87</ele>
        <time>2022-03-14T11:48:54Z</time>
      </trkpt>
      <trkpt lat="47.14397" lon="-1.41431">
        <ele>87</ele>
        <time>2022-03-14T11:48:56Z</time>
      </trkpt>
      <trkpt lat="47.14396" lon="-1.41449">
        <ele>88</ele>
        <time>2022-03-14T11:48:58Z</time>
      </trkpt>
      <trkpt lat="47.14396" lon="-1.41468">
        <ele>88</ele>
        <time>2022-03-14T11:49:00Z</time>
      </trkpt>
      <trkpt lat="47.14397" lon="-1.41487">
        <ele>88</ele>
        <time>2022-03-14T11:49:02Z</time>
      </trkpt>
      <trkpt lat="47.14397" lon="-1.41505">
        <ele>88</ele>
        <time>2022-03-14T11:49:04Z</time>
      </trkpt>
      <trkpt lat="47.14398" lon="-1.41523">
        <ele>87</ele>
        <time>2022-03-14T11:49:06Z</time>
      </trkpt>
      <trkpt lat="47.14399" lon="-1.41541">
        <ele>87</ele>
        <time>2022-03-14T11:49:08Z</time>
      </trkpt>
      <trkpt lat="47.14399" lon="-1.4156">
        <ele>87</ele>
        <time>2022-03-14T11:49:10Z</time>
      </trkpt>
      <trkpt lat="47.144" lon="-1.41578">
        <ele>87</ele>
        <time>2022-03-14T11:49:12Z</time>
      </trkpt>
      <trkpt lat="47.14399" lon="-1.41595">
        <ele>87</ele>
        <time>2022-03-14T11:49:14Z</time>
      </trkpt>
      <trkpt lat="47.14396" lon="-1.41612">
        <ele>87</ele>
        <time>2022-03-14T11:49:16Z</time>
      </trkpt>
      <trkpt lat="47.14391" lon="-1.41628">
        <ele>87</ele>
        <time>2022-03-14T11:49:18Z</time>
      </trkpt>
      <trkpt lat="47.14387" lon="-1.41644">
        <ele>87</ele>
        <time>2022-03-14T11:49:20Z</time>
      </trkpt>
      <trkpt lat="47.14385" lon="-1.4166">
        <ele>87</ele>
        <time>2022-03-14T11:49:22Z</time>
      </trkpt>
      <trkpt lat="47.14386" lon="-1.41678">
        <ele>87</ele>
        <time>2022-03-14T11:49:24Z</time>
      </trkpt>
      <trkpt lat="47.14389" lon="-1.41695">
        <ele>87</ele>
        <time>2022-03-14T11:49:26Z</time>
      </trkpt>
      <trkpt lat="47.14394" lon="-1.41714">
        <ele>86</ele>
        <time>2022-03-14T11:49:28Z</time>
      </trkpt>
      <trkpt lat="47.14399" lon="-1.41732">
        <ele>85</ele>
        <time>2022-03-14T11:49:30Z</time>
      </trkpt>
      <trkpt lat="47.14403" lon="-1.41753">
        <ele>85</ele>
        <time>2022-03-14T11:49:32Z</time>
      </trkpt>
      <trkpt lat="47.14404" lon="-1.41775">
        <ele>85</ele>
        <time>2022-03-14T11:49:34Z</time>
      </trkpt>
      <trkpt lat="47.14406" lon="-1.41797">
        <ele>84</ele>
        <time>2022-03-14T11:49:36Z</time>
      </trkpt>
      <trkpt lat="47.14407" lon="-1.41822">
        <ele>83</ele>
        <time>2022-03-14T11:49:38Z</time>
      </trkpt>
      <trkpt lat="47.14409" lon="-1.41846">
        <ele>82</ele>
        <time>2022-03-14T11:49:40Z</time>
      </trkpt>
      <trkpt lat="47.14414" lon="-1.41871">
        <ele>82</ele>
        <time>2022-03-14T11:49:42Z</time>
      </trkpt>
      <trkpt lat="47.14419" lon="-1.41894">
        <ele>81</ele>
        <time>2022-03-14T11:49:44Z</time>
      </trkpt>
      <trkpt lat="47.14425" lon="-1.41919">
        <ele>80</ele>
        <time>2022-03-14T11:49:46Z</time>
      </trkpt>
      <trkpt lat="47.14432" lon="-1.41943">
        <ele>80</ele>
        <time>2022-03-14T11:49:48Z</time>
      </trkpt>
      <trkpt lat="47.14438" lon="-1.41968">
        <ele>78</ele>
        <time>2022-03-14T11:49:50Z</time>
      </trkpt>
      <trkpt lat="47.1444" lon="-1.4198">
        <ele>78</ele>
        <time>2022-03-14T11:49:51Z</time>
      </trkpt>
      <trkpt lat="47.14443" lon="-1.41993">
        <ele>77</ele>
        <time>2022-03-14T11:49:52Z</time>
      </trkpt>
      <trkpt lat="47.14447" lon="-1.42007">
        <ele>77</ele>
        <time>2022-03-14T11:49:53Z</time>
      </trkpt>
      <trkpt lat="47.1445" lon="-1.4202">
        <ele>77</ele>
        <time>2022-03-14T11:49:54Z</time>
      </trkpt>
      <trkpt lat="47.14454" lon="-1.42033">
        <ele>77</ele>
        <time>2022-03-14T11:49:55Z</time>
      </trkpt>
      <trkpt lat="47.14459" lon="-1.42046">
        <ele>76</ele>
        <time>2022-03-14T11:49:56Z</time>
      </trkpt>
      <trkpt lat="47.14464" lon="-1.42059">
        <ele>75</ele>
        <time>2022-03-14T11:49:57Z</time>
      </trkpt>
      <trkpt lat="47.14469" lon="-1.42072">
        <ele>75</ele>
        <time>2022-03-14T11:49:58Z</time>
      </trkpt>
      <trkpt lat="47.14475" lon="-1.42085">
        <ele>74</ele>
        <time>2022-03-14T11:49:59Z</time>
      </trkpt>
      <trkpt lat="47.14481" lon="-1.42098">
        <ele>74</ele>
        <time>2022-03-14T11:50:00Z</time>
      </trkpt>
      <trkpt lat="47.14487" lon="-1.42112">
        <ele>73</ele>
        <time>2022-03-14T11:50:01Z</time>
      </trkpt>
      <trkpt lat="47.14493" lon="-1.42125">
        <ele>72</ele>
        <time>2022-03-14T11:50:02Z</time>
      </trkpt>
      <trkpt lat="47.14498" lon="-1.42139">
        <ele>72</ele>
        <time>2022-03-14T11:50:03Z</time>
      </trkpt>
      <trkpt lat="47.14504" lon="-1.42153">
        <ele>71</ele>
        <time>2022-03-14T11:50:04Z</time>
      </trkpt>
      <trkpt lat="47.1451" lon="-1.42168">
        <ele>71</ele>
        <time>2022-03-14T11:50:05Z</time>
      </trkpt>
      <trkpt lat="47.14516" lon="-1.42183">
        <ele>70</ele>
        <time>2022-03-14T11:50:06Z</time>
      </trkpt>
      <trkpt lat="47.14521" lon="-1.42198">
        <ele>69</ele>
        <time>2022-03-14T11:50:07Z</time>
      </trkpt>
      <trkpt lat="47.14526" lon="-1.42214">
        <ele>69</ele>
        <time>2022-03-14T11:50:08Z</time>
      </trkpt>
      <trkpt lat="47.14531" lon="-1.42229">
        <ele>68</ele>
        <time>2022-03-14T11:50:09Z</time>
      </trkpt>
      <trkpt lat="47.14536" lon="-1.42245">
        <ele>67</ele>
        <time>2022-03-14T11:50:10Z</time>
      </trkpt>
      <trkpt lat="47.14541" lon="-1.42259">
        <ele>67</ele>
        <time>2022-03-14T11:50:11Z</time>
      </trkpt>
      <trkpt lat="47.14547" lon="-1.42272">
        <ele>67</ele>
        <time>2022-03-14T11:50:12Z</time>
      </trkpt>
      <trkpt lat="47.14553" lon="-1.42285">
        <ele>67</ele>
        <time>2022-03-14T11:50:13Z</time>
      </trkpt>
      <trkpt lat="47.14559" lon="-1.42297">
        <ele>67</ele>
        <time>2022-03-14T11:50:14Z</time>
      </trkpt>
      <trkpt lat="47.14566" lon="-1.42307">
        <ele>67</ele>
        <time>2022-03-14T11:50:15Z</time>
      </trkpt>
      <trkpt lat="47.14573" lon="-1.42317">
        <ele>67</ele>
        <time>2022-03-14T11:50:16Z</time>
      </trkpt>
      <trkpt lat="47.14587" lon="-1.42334">
        <ele>68</ele>
        <time>2022-03-14T11:50:18Z</time>
      </trkpt>
      <trkpt lat="47.14601" lon="-1.42349">
        <ele>68</ele>
        <time>2022-03-14T11:50:20Z</time>
      </trkpt>
      <trkpt lat="47.14615" lon="-1.42363">
        <ele>69</ele>
        <time>2022-03-14T11:50:22Z</time>
      </trkpt>
      <trkpt lat="47.14627" lon="-1.42375">
        <ele>70</ele>
        <time>2022-03-14T11:50:24Z</time>
      </trkpt>
      <trkpt lat="47.14639" lon="-1.42387">
        <ele>71</ele>
        <time>2022-03-14T11:50:26Z</time>
      </trkpt>
      <trkpt lat="47.14651" lon="-1.42399">
        <ele>71</ele>
        <time>2022-03-14T11:50:28Z</time>
      </trkpt>
      <trkpt lat="47.14663" lon="-1.4241">
        <ele>72</ele>
        <time>2022-03-14T11:50:30Z</time>
      </trkpt>
      <trkpt lat="47.14674" lon="-1.42421">
        <ele>72</ele>
        <time>2022-03-14T11:50:32Z</time>
      </trkpt>
      <trkpt lat="47.14685" lon="-1.42432">
        <ele>73</ele>
        <time>2022-03-14T11:50:34Z</time>
      </trkpt>
      <trkpt lat="47.14696" lon="-1.42443">
        <ele>73</ele>
        <time>2022-03-14T11:50:36Z</time>
      </trkpt>
      <trkpt lat="47.14708" lon="-1.42454">
        <ele>73</ele>
        <time>2022-03-14T11:50:38Z</time>
      </trkpt>
      <trkpt lat="47.14719" lon="-1.42465">
        <ele>74</ele>
        <time>2022-03-14T11:50:40Z</time>
      </trkpt>
      <trkpt lat="47.1473" lon="-1.42476">
        <ele>75</ele>
        <time>2022-03-14T11:50:42Z</time>
      </trkpt>
      <trkpt lat="47.14741" lon="-1.42487">
        <ele>75</ele>
        <time>2022-03-14T11:50:44Z</time>
      </trkpt>
      <trkpt lat="47.14753" lon="-1.42499">
        <ele>75</ele>
        <time>2022-03-14T11:50:46Z</time>
      </trkpt>
      <trkpt lat="47.14764" lon="-1.4251">
        <ele>76</ele>
        <time>2022-03-14T11:50:48Z</time>
      </trkpt>
      <trkpt lat="47.14775" lon="-1.4252">
        <ele>76</ele>
        <time>2022-03-14T11:50:50Z</time>
      </trkpt>
      <trkpt lat="47.14786" lon="-1.42532">
        <ele>76</ele>
        <time>2022-03-14T11:50:52Z</time>
      </trkpt>
      <trkpt lat="47.14796" lon="-1.42543">
        <ele>76</ele>
        <time>2022-03-14T11:50:54Z</time>
      </trkpt>
      <trkpt lat="47.14807" lon="-1.42556">
        <ele>77</ele>
        <time>2022-03-14T11:50:56Z</time>
      </trkpt>
      <trkpt lat="47.14817" lon="-1.42569">
        <ele>77</ele>
        <time>2022-03-14T11:50:58Z</time>
      </trkpt>
      <trkpt lat="47.14827" lon="-1.42582">
        <ele>77</ele>
        <time>2022-03-14T11:51:00Z</time>
      </trkpt>
      <trkpt lat="47.14837" lon="-1.42595">
        <ele>77</ele>
        <time>2022-03-14T11:51:02Z</time>
      </trkpt>
      <trkpt lat="47.14848" lon="-1.42609">
        <ele>76</ele>
        <time>2022-03-14T11:51:04Z</time>
      </trkpt>
      <trkpt lat="47.14859" lon="-1.42623">
        <ele>76</ele>
        <time>2022-03-14T11:51:06Z</time>
      </trkpt>
      <trkpt lat="47.14869" lon="-1.42639">
        <ele>75</ele>
        <time>2022-03-14T11:51:08Z</time>
      </trkpt>
      <trkpt lat="47.1488" lon="-1.42653">
        <ele>75</ele>
        <time>2022-03-14T11:51:10Z</time>
      </trkpt>
      <trkpt lat="47.14891" lon="-1.42669">
        <ele>75</ele>
        <time>2022-03-14T11:51:12Z</time>
      </trkpt>
      <trkpt lat="47.14902" lon="-1.42685">
        <ele>74</ele>
        <time>2022-03-14T11:51:14Z</time>
      </trkpt>
      <trkpt lat="47.14914" lon="-1.42702">
        <ele>74</ele>
        <time>2022-03-14T11:51:16Z</time>
      </trkpt>
      <trkpt lat="47.14926" lon="-1.4272">
        <ele>73</ele>
        <time>2022-03-14T11:51:18Z</time>
      </trkpt>
      <trkpt lat="47.14937" lon="-1.42738">
        <ele>73</ele>
        <time>2022-03-14T11:51:20Z</time>
      </trkpt>
      <trkpt lat="47.14948" lon="-1.42755">
        <ele>73</ele>
        <time>2022-03-14T11:51:22Z</time>
      </trkpt>
      <trkpt lat="47.14959" lon="-1.42773">
        <ele>72</ele>
        <time>2022-03-14T11:51:24Z</time>
      </trkpt>
      <trkpt lat="47.14971" lon="-1.42792">
        <ele>71</ele>
        <time>2022-03-14T11:51:26Z</time>
      </trkpt>
      <trkpt lat="47.14982" lon="-1.4281">
        <ele>71</ele>
        <time>2022-03-14T11:51:28Z</time>
      </trkpt>
      <trkpt lat="47.14994" lon="-1.42828">
        <ele>71</ele>
        <time>2022-03-14T11:51:30Z</time>
      </trkpt>
      <trkpt lat="47.15006" lon="-1.42844">
        <ele>71</ele>
        <time>2022-03-14T11:51:32Z</time>
      </trkpt>
      <trkpt lat="47.15019" lon="-1.42857">
        <ele>71</ele>
        <time>2022-03-14T11:51:34Z</time>
      </trkpt>
      <trkpt lat="47.15033" lon="-1.42865">
        <ele>72</ele>
        <time>2022-03-14T11:51:36Z</time>
      </trkpt>
      <trkpt lat="47.15047" lon="-1.4287">
        <ele>72</ele>
        <time>2022-03-14T11:51:38Z</time>
      </trkpt>
      <trkpt lat="47.15061" lon="-1.42874">
        <ele>72</ele>
        <time>2022-03-14T11:51:40Z</time>
      </trkpt>
      <trkpt lat="47.15075" lon="-1.42878">
        <ele>72</ele>
        <time>2022-03-14T11:51:42Z</time>
      </trkpt>
      <trkpt lat="47.1509" lon="-1.42882">
        <ele>72</ele>
        <time>2022-03-14T11:51:44Z</time>
      </trkpt>
      <trkpt lat="47.15104" lon="-1.42887">
        <ele>72</ele>
        <time>2022-03-14T11:51:46Z</time>
      </trkpt>
      <trkpt lat="47.15118" lon="-1.42892">
        <ele>71</ele>
        <time>2022-03-14T11:51:48Z</time>
      </trkpt>
      <trkpt lat="47.15133" lon="-1.42898">
        <ele>71</ele>
        <time>2022-03-14T11:51:50Z</time>
      </trkpt>
      <trkpt lat="47.15147" lon="-1.42906">
        <ele>71</ele>
        <time>2022-03-14T11:51:52Z</time>
      </trkpt>
      <trkpt lat="47.1516" lon="-1.42914">
        <ele>70</ele>
        <time>2022-03-14T11:51:54Z</time>
      </trkpt>
      <trkpt lat="47.15174" lon="-1.42923">
        <ele>69</ele>
        <time>2022-03-14T11:51:56Z</time>
      </trkpt>
      <trkpt lat="47.15187" lon="-1.42933">
        <ele>68</ele>
        <time>2022-03-14T11:51:58Z</time>
      </trkpt>
      <trkpt lat="47.15199" lon="-1.42946">
        <ele>68</ele>
        <time>2022-03-14T11:52:00Z</time>
      </trkpt>
      <trkpt lat="47.1521" lon="-1.42963">
        <ele>68</ele>
        <time>2022-03-14T11:52:02Z</time>
      </trkpt>
      <trkpt lat="47.1522" lon="-1.42982">
        <ele>68</ele>
        <time>2022-03-14T11:52:04Z</time>
      </trkpt>
      <trkpt lat="47.1523" lon="-1.43001">
        <ele>68</ele>
        <time>2022-03-14T11:52:06Z</time>
      </trkpt>
      <trkpt lat="47.15239" lon="-1.43024">
        <ele>67</ele>
        <time>2022-03-14T11:52:08Z</time>
      </trkpt>
      <trkpt lat="47.15243" lon="-1.43036">
        <ele>67</ele>
        <time>2022-03-14T11:52:09Z</time>
      </trkpt>
      <trkpt lat="47.15247" lon="-1.43049">
        <ele>66</ele>
        <time>2022-03-14T11:52:10Z</time>
      </trkpt>
      <trkpt lat="47.1525" lon="-1.43062">
        <ele>65</ele>
        <time>2022-03-14T11:52:11Z</time>
      </trkpt>
      <trkpt lat="47.15252" lon="-1.43076">
        <ele>65</ele>
        <time>2022-03-14T11:52:12Z</time>
      </trkpt>
      <trkpt lat="47.15254" lon="-1.4309">
        <ele>65</ele>
        <time>2022-03-14T11:52:13Z</time>
      </trkpt>
      <trkpt lat="47.15255" lon="-1.43105">
        <ele>64</ele>
        <time>2022-03-14T11:52:14Z</time>
      </trkpt>
      <trkpt lat="47.15255" lon="-1.4312">
        <ele>63</ele>
        <time>2022-03-14T11:52:15Z</time>
      </trkpt>
      <trkpt lat="47.15254" lon="-1.43134">
        <ele>62</ele>
        <time>2022-03-14T11:52:16Z</time>
      </trkpt>
      <trkpt lat="47.15254" lon="-1.43149">
        <ele>61</ele>
        <time>2022-03-14T11:52:17Z</time>
      </trkpt>
      <trkpt lat="47.15254" lon="-1.43164">
        <ele>61</ele>
        <time>2022-03-14T11:52:18Z</time>
      </trkpt>
      <trkpt lat="47.15253" lon="-1.4318">
        <ele>61</ele>
        <time>2022-03-14T11:52:19Z</time>
      </trkpt>
      <trkpt lat="47.15253" lon="-1.43195">
        <ele>60</ele>
        <time>2022-03-14T11:52:20Z</time>
      </trkpt>
      <trkpt lat="47.15253" lon="-1.4321">
        <ele>59</ele>
        <time>2022-03-14T11:52:21Z</time>
      </trkpt>
      <trkpt lat="47.15252" lon="-1.43226">
        <ele>59</ele>
        <time>2022-03-14T11:52:22Z</time>
      </trkpt>
      <trkpt lat="47.15252" lon="-1.43241">
        <ele>58</ele>
        <time>2022-03-14T11:52:23Z</time>
      </trkpt>
      <trkpt lat="47.15252" lon="-1.43256">
        <ele>57</ele>
        <time>2022-03-14T11:52:24Z</time>
      </trkpt>
      <trkpt lat="47.15251" lon="-1.43271">
        <ele>57</ele>
        <time>2022-03-14T11:52:25Z</time>
      </trkpt>
      <trkpt lat="47.15251" lon="-1.43286">
        <ele>57</ele>
        <time>2022-03-14T11:52:26Z</time>
      </trkpt>
      <trkpt lat="47.1525" lon="-1.43301">
        <ele>57</ele>
        <time>2022-03-14T11:52:27Z</time>
      </trkpt>
      <trkpt lat="47.15249" lon="-1.43315">
        <ele>57</ele>
        <time>2022-03-14T11:52:28Z</time>
      </trkpt>
      <trkpt lat="47.15249" lon="-1.4333">
        <ele>57</ele>
        <time>2022-03-14T11:52:29Z</time>
      </trkpt>
      <trkpt lat="47.15249" lon="-1.43345">
        <ele>56</ele>
        <time>2022-03-14T11:52:30Z</time>
      </trkpt>
      <trkpt lat="47.15249" lon="-1.4336">
        <ele>56</ele>
        <time>2022-03-14T11:52:31Z</time>
      </trkpt>
      <trkpt lat="47.15249" lon="-1.43374">
        <ele>56</ele>
        <time>2022-03-14T11:52:32Z</time>
      </trkpt>
      <trkpt lat="47.1525" lon="-1.43388">
        <ele>55</ele>
        <time>2022-03-14T11:52:33Z</time>
      </trkpt>
      <trkpt lat="47.15251" lon="-1.43402">
        <ele>55</ele>
        <time>2022-03-14T11:52:34Z</time>
      </trkpt>
      <trkpt lat="47.15252" lon="-1.43416">
        <ele>55</ele>
        <time>2022-03-14T11:52:35Z</time>
      </trkpt>
      <trkpt lat="47.15255" lon="-1.4344">
        <ele>55</ele>
        <time>2022-03-14T11:52:37Z</time>
      </trkpt>
      <trkpt lat="47.15258" lon="-1.43466">
        <ele>55</ele>
        <time>2022-03-14T11:52:39Z</time>
      </trkpt>
      <trkpt lat="47.15261" lon="-1.43491">
        <ele>55</ele>
        <time>2022-03-14T11:52:41Z</time>
      </trkpt>
      <trkpt lat="47.15264" lon="-1.43516">
        <ele>55</ele>
        <time>2022-03-14T11:52:43Z</time>
      </trkpt>
      <trkpt lat="47.15266" lon="-1.4354">
        <ele>55</ele>
        <time>2022-03-14T11:52:45Z</time>
      </trkpt>
      <trkpt lat="47.15268" lon="-1.43565">
        <ele>55</ele>
        <time>2022-03-14T11:52:47Z</time>
      </trkpt>
      <trkpt lat="47.1527" lon="-1.43589">
        <ele>54</ele>
        <time>2022-03-14T11:52:49Z</time>
      </trkpt>
      <trkpt lat="47.15273" lon="-1.43613">
        <ele>55</ele>
        <time>2022-03-14T11:52:51Z</time>
      </trkpt>
      <trkpt lat="47.15275" lon="-1.43635">
        <ele>53</ele>
        <time>2022-03-14T11:52:53Z</time>
      </trkpt>
      <trkpt lat="47.15277" lon="-1.43658">
        <ele>54</ele>
        <time>2022-03-14T11:52:55Z</time>
      </trkpt>
      <trkpt lat="47.15279" lon="-1.43682">
        <ele>53</ele>
        <time>2022-03-14T11:52:57Z</time>
      </trkpt>
      <trkpt lat="47.1528" lon="-1.43706">
        <ele>53</ele>
        <time>2022-03-14T11:52:59Z</time>
      </trkpt>
      <trkpt lat="47.1528" lon="-1.43731">
        <ele>53</ele>
        <time>2022-03-14T11:53:01Z</time>
      </trkpt>
      <trkpt lat="47.1528" lon="-1.43754">
        <ele>53</ele>
        <time>2022-03-14T11:53:03Z</time>
      </trkpt>
      <trkpt lat="47.15278" lon="-1.43775">
        <ele>52</ele>
        <time>2022-03-14T11:53:05Z</time>
      </trkpt>
      <trkpt lat="47.15276" lon="-1.43798">
        <ele>52</ele>
        <time>2022-03-14T11:53:07Z</time>
      </trkpt>
      <trkpt lat="47.15275" lon="-1.43823">
        <ele>52</ele>
        <time>2022-03-14T11:53:09Z</time>
      </trkpt>
      <trkpt lat="47.15275" lon="-1.43847">
        <ele>53</ele>
        <time>2022-03-14T11:53:11Z</time>
      </trkpt>
      <trkpt lat="47.15276" lon="-1.43871">
        <ele>52</ele>
        <time>2022-03-14T11:53:13Z</time>
      </trkpt>
      <trkpt lat="47.15282" lon="-1.43889">
        <ele>52</ele>
        <time>2022-03-14T11:53:15Z</time>
      </trkpt>
      <trkpt lat="47.15289" lon="-1.43905">
        <ele>52</ele>
        <time>2022-03-14T11:53:17Z</time>
      </trkpt>
      <trkpt lat="47.15297" lon="-1.43922">
        <ele>53</ele>
        <time>2022-03-14T11:53:19Z</time>
      </trkpt>
      <trkpt lat="47.15307" lon="-1.43939">
        <ele>53</ele>
        <time>2022-03-14T11:53:21Z</time>
      </trkpt>
      <trkpt lat="47.15318" lon="-1.43954">
        <ele>53</ele>
        <time>2022-03-14T11:53:23Z</time>
      </trkpt>
      <trkpt lat="47.15327" lon="-1.43966">
        <ele>53</ele>
        <time>2022-03-14T11:53:25Z</time>
      </trkpt>
      <trkpt lat="47.15336" lon="-1.43979">
        <ele>54</ele>
        <time>2022-03-14T11:53:27Z</time>
      </trkpt>
      <trkpt lat="47.15346" lon="-1.43992">
        <ele>53</ele>
        <time>2022-03-14T11:53:29Z</time>
      </trkpt>
      <trkpt lat="47.15357" lon="-1.44007">
        <ele>53</ele>
        <time>2022-03-14T11:53:31Z</time>
      </trkpt>
      <trkpt lat="47.15373" lon="-1.44031">
        <ele>53</ele>
        <time>2022-03-14T11:53:34Z</time>
      </trkpt>
      <trkpt lat="47.1538" lon="-1.44052">
        <ele>52</ele>
        <time>2022-03-14T11:53:36Z</time>
      </trkpt>
      <trkpt lat="47.15386" lon="-1.44085">
        <ele>52</ele>
        <time>2022-03-14T11:53:39Z</time>
      </trkpt>
      <trkpt lat="47.15383" lon="-1.44107">
        <ele>51</ele>
        <time>2022-03-14T11:53:41Z</time>
      </trkpt>
      <trkpt lat="47.15379" lon="-1.44129">
        <ele>52</ele>
        <time>2022-03-14T11:53:43Z</time>
      </trkpt>
      <trkpt lat="47.15375" lon="-1.44151">
        <ele>52</ele>
        <time>2022-03-14T11:53:45Z</time>
      </trkpt>
      <trkpt lat="47.15372" lon="-1.44172">
        <ele>52</ele>
        <time>2022-03-14T11:53:47Z</time>
      </trkpt>
      <trkpt lat="47.15369" lon="-1.44192">
        <ele>53</ele>
        <time>2022-03-14T11:53:49Z</time>
      </trkpt>
      <trkpt lat="47.15368" lon="-1.44213">
        <ele>54</ele>
        <time>2022-03-14T11:53:51Z</time>
      </trkpt>
      <trkpt lat="47.15369" lon="-1.44232">
        <ele>54</ele>
        <time>2022-03-14T11:53:53Z</time>
      </trkpt>
      <trkpt lat="47.1537" lon="-1.44252">
        <ele>54</ele>
        <time>2022-03-14T11:53:55Z</time>
      </trkpt>
      <trkpt lat="47.15375" lon="-1.44282">
        <ele>54</ele>
        <time>2022-03-14T11:53:58Z</time>
      </trkpt>
      <trkpt lat="47.15379" lon="-1.443">
        <ele>54</ele>
        <time>2022-03-14T11:54:00Z</time>
      </trkpt>
      <trkpt lat="47.15385" lon="-1.44317">
        <ele>53</ele>
        <time>2022-03-14T11:54:02Z</time>
      </trkpt>
      <trkpt lat="47.15393" lon="-1.44334">
        <ele>54</ele>
        <time>2022-03-14T11:54:04Z</time>
      </trkpt>
      <trkpt lat="47.15403" lon="-1.44351">
        <ele>54</ele>
        <time>2022-03-14T11:54:06Z</time>
      </trkpt>
      <trkpt lat="47.15415" lon="-1.44367">
        <ele>55</ele>
        <time>2022-03-14T11:54:08Z</time>
      </trkpt>
      <trkpt lat="47.15426" lon="-1.4438">
        <ele>54</ele>
        <time>2022-03-14T11:54:10Z</time>
      </trkpt>
      <trkpt lat="47.15438" lon="-1.4439">
        <ele>54</ele>
        <time>2022-03-14T11:54:12Z</time>
      </trkpt>
      <trkpt lat="47.15449" lon="-1.44397">
        <ele>54</ele>
        <time>2022-03-14T11:54:14Z</time>
      </trkpt>
      <trkpt lat="47.15461" lon="-1.44403">
        <ele>55</ele>
        <time>2022-03-14T11:54:16Z</time>
      </trkpt>
      <trkpt lat="47.15472" lon="-1.44408">
        <ele>55</ele>
        <time>2022-03-14T11:54:18Z</time>
      </trkpt>
      <trkpt lat="47.15482" lon="-1.44413">
        <ele>55</ele>
        <time>2022-03-14T11:54:20Z</time>
      </trkpt>
      <trkpt lat="47.15494" lon="-1.44418">
        <ele>54</ele>
        <time>2022-03-14T11:54:23Z</time>
      </trkpt>
      <trkpt lat="47.15507" lon="-1.4442">
        <ele>56</ele>
        <time>2022-03-14T11:54:26Z</time>
      </trkpt>
      <trkpt lat="47.15518" lon="-1.44421">
        <ele>57</ele>
        <time>2022-03-14T11:54:29Z</time>
      </trkpt>
      <trkpt lat="47.15528" lon="-1.44423">
        <ele>58</ele>
        <time>2022-03-14T11:54:32Z</time>
      </trkpt>
      <trkpt lat="47.15539" lon="-1.44424">
        <ele>59</ele>
        <time>2022-03-14T11:54:35Z</time>
      </trkpt>
      <trkpt lat="47.15551" lon="-1.44426">
        <ele>60</ele>
        <time>2022-03-14T11:54:38Z</time>
      </trkpt>
      <trkpt lat="47.15564" lon="-1.44427">
        <ele>61</ele>
        <time>2022-03-14T11:54:41Z</time>
      </trkpt>
      <trkpt lat="47.15576" lon="-1.44422">
        <ele>62</ele>
        <time>2022-03-14T11:54:44Z</time>
      </trkpt>
      <trkpt lat="47.15587" lon="-1.44416">
        <ele>63</ele>
        <time>2022-03-14T11:54:47Z</time>
      </trkpt>
      <trkpt lat="47.15599" lon="-1.44409">
        <ele>63</ele>
        <time>2022-03-14T11:54:50Z</time>
      </trkpt>
      <trkpt lat="47.15608" lon="-1.44403">
        <ele>64</ele>
        <time>2022-03-14T11:54:52Z</time>
      </trkpt>
      <trkpt lat="47.1562" lon="-1.44398">
        <ele>66</ele>
        <time>2022-03-14T11:54:55Z</time>
      </trkpt>
      <trkpt lat="47.15632" lon="-1.44393">
        <ele>68</ele>
        <time>2022-03-14T11:54:58Z</time>
      </trkpt>
      <trkpt lat="47.15644" lon="-1.4439">
        <ele>69</ele>
        <time>2022-03-14T11:55:01Z</time>
      </trkpt>
      <trkpt lat="47.15655" lon="-1.44385">
        <ele>70</ele>
        <time>2022-03-14T11:55:04Z</time>
      </trkpt>
      <trkpt lat="47.15664" lon="-1.44382">
        <ele>70</ele>
        <time>2022-03-14T11:55:06Z</time>
      </trkpt>
      <trkpt lat="47.15674" lon="-1.44379">
        <ele>71</ele>
        <time>2022-03-14T11:55:08Z</time>
      </trkpt>
      <trkpt lat="47.15685" lon="-1.44372">
        <ele>72</ele>
        <time>2022-03-14T11:55:10Z</time>
      </trkpt>
      <trkpt lat="47.15697" lon="-1.44366">
        <ele>74</ele>
        <time>2022-03-14T11:55:13Z</time>
      </trkpt>
      <trkpt lat="47.15706" lon="-1.44361">
        <ele>75</ele>
        <time>2022-03-14T11:55:15Z</time>
      </trkpt>
      <trkpt lat="47.15717" lon="-1.44357">
        <ele>76</ele>
        <time>2022-03-14T11:55:17Z</time>
      </trkpt>
      <trkpt lat="47.15727" lon="-1.44354">
        <ele>76</ele>
        <time>2022-03-14T11:55:19Z</time>
      </trkpt>
      <trkpt lat="47.15736" lon="-1.44352">
        <ele>76</ele>
        <time>2022-03-14T11:55:21Z</time>
      </trkpt>
      <trkpt lat="47.15747" lon="-1.44349">
        <ele>75</ele>
        <time>2022-03-14T11:55:23Z</time>
      </trkpt>
      <trkpt lat="47.15763" lon="-1.44345">
        <ele>72</ele>
        <time>2022-03-14T11:55:25Z</time>
      </trkpt>
      <trkpt lat="47.15779" lon="-1.4434">
        <ele>72</ele>
        <time>2022-03-14T11:55:27Z</time>
      </trkpt>
      <trkpt lat="47.15793" lon="-1.44338">
        <ele>73</ele>
        <time>2022-03-14T11:55:29Z</time>
      </trkpt>
      <trkpt lat="47.15805" lon="-1.44341">
        <ele>75</ele>
        <time>2022-03-14T11:55:31Z</time>
      </trkpt>
      <trkpt lat="47.15814" lon="-1.44349">
        <ele>78</ele>
        <time>2022-03-14T11:55:33Z</time>
      </trkpt>
      <trkpt lat="47.15821" lon="-1.44359">
        <ele>78</ele>
        <time>2022-03-14T11:55:35Z</time>
      </trkpt>
      <trkpt lat="47.15828" lon="-1.44371">
        <ele>78</ele>
        <time>2022-03-14T11:55:37Z</time>
      </trkpt>
      <trkpt lat="47.15833" lon="-1.44384">
        <ele>77</ele>
        <time>2022-03-14T11:55:39Z</time>
      </trkpt>
      <trkpt lat="47.15839" lon="-1.44396">
        <ele>77</ele>
        <time>2022-03-14T11:55:41Z</time>
      </trkpt>
      <trkpt lat="47.15844" lon="-1.44409">
        <ele>77</ele>
        <time>2022-03-14T11:55:43Z</time>
      </trkpt>
      <trkpt lat="47.15852" lon="-1.44425">
        <ele>77</ele>
        <time>2022-03-14T11:55:46Z</time>
      </trkpt>
      <trkpt lat="47.15857" lon="-1.44438">
        <ele>77</ele>
        <time>2022-03-14T11:55:48Z</time>
      </trkpt>
      <trkpt lat="47.15862" lon="-1.4445">
        <ele>77</ele>
        <time>2022-03-14T11:55:50Z</time>
      </trkpt>
      <trkpt lat="47.15868" lon="-1.44462">
        <ele>77</ele>
        <time>2022-03-14T11:55:52Z</time>
      </trkpt>
      <trkpt lat="47.15873" lon="-1.44474">
        <ele>76</ele>
        <time>2022-03-14T11:55:54Z</time>
      </trkpt>
      <trkpt lat="47.15878" lon="-1.44486">
        <ele>76</ele>
        <time>2022-03-14T11:55:56Z</time>
      </trkpt>
      <trkpt lat="47.15882" lon="-1.44497">
        <ele>76</ele>
        <time>2022-03-14T11:55:58Z</time>
      </trkpt>
      <trkpt lat="47.1589" lon="-1.44514">
        <ele>76</ele>
        <time>2022-03-14T11:56:01Z</time>
      </trkpt>
      <trkpt lat="47.15894" lon="-1.44526">
        <ele>75</ele>
        <time>2022-03-14T11:56:03Z</time>
      </trkpt>
      <trkpt lat="47.15899" lon="-1.4454">
        <ele>76</ele>
        <time>2022-03-14T11:56:05Z</time>
      </trkpt>
      <trkpt lat="47.15904" lon="-1.44554">
        <ele>76</ele>
        <time>2022-03-14T11:56:07Z</time>
      </trkpt>
      <trkpt lat="47.15909" lon="-1.44568">
        <ele>75</ele>
        <time>2022-03-14T11:56:09Z</time>
      </trkpt>
      <trkpt lat="47.15914" lon="-1.44581">
        <ele>75</ele>
        <time>2022-03-14T11:56:11Z</time>
      </trkpt>
      <trkpt lat="47.15918" lon="-1.44594">
        <ele>75</ele>
        <time>2022-03-14T11:56:13Z</time>
      </trkpt>
      <trkpt lat="47.15922" lon="-1.44608">
        <ele>75</ele>
        <time>2022-03-14T11:56:15Z</time>
      </trkpt>
      <trkpt lat="47.15926" lon="-1.44621">
        <ele>75</ele>
        <time>2022-03-14T11:56:17Z</time>
      </trkpt>
      <trkpt lat="47.1593" lon="-1.44633">
        <ele>75</ele>
        <time>2022-03-14T11:56:19Z</time>
      </trkpt>
      <trkpt lat="47.15934" lon="-1.44647">
        <ele>76</ele>
        <time>2022-03-14T11:56:21Z</time>
      </trkpt>
      <trkpt lat="47.15938" lon="-1.4466">
        <ele>76</ele>
        <time>2022-03-14T11:56:23Z</time>
      </trkpt>
      <trkpt lat="47.15942" lon="-1.44672">
        <ele>76</ele>
        <time>2022-03-14T11:56:25Z</time>
      </trkpt>
      <trkpt lat="47.15945" lon="-1.44685">
        <ele>76</ele>
        <time>2022-03-14T11:56:27Z</time>
      </trkpt>
      <trkpt lat="47.15949" lon="-1.44698">
        <ele>77</ele>
        <time>2022-03-14T11:56:29Z</time>
      </trkpt>
      <trkpt lat="47.15953" lon="-1.44711">
        <ele>77</ele>
        <time>2022-03-14T11:56:31Z</time>
      </trkpt>
      <trkpt lat="47.15957" lon="-1.44723">
        <ele>77</ele>
        <time>2022-03-14T11:56:33Z</time>
      </trkpt>
      <trkpt lat="47.15961" lon="-1.44735">
        <ele>77</ele>
        <time>2022-03-14T11:56:35Z</time>
      </trkpt>
      <trkpt lat="47.15965" lon="-1.44749">
        <ele>77</ele>
        <time>2022-03-14T11:56:37Z</time>
      </trkpt>
      <trkpt lat="47.1597" lon="-1.44762">
        <ele>77</ele>
        <time>2022-03-14T11:56:39Z</time>
      </trkpt>
      <trkpt lat="47.15974" lon="-1.44777">
        <ele>76</ele>
        <time>2022-03-14T11:56:41Z</time>
      </trkpt>
      <trkpt lat="47.1598" lon="-1.44793">
        <ele>76</ele>
        <time>2022-03-14T11:56:43Z</time>
      </trkpt>
      <trkpt lat="47.15986" lon="-1.44809">
        <ele>76</ele>
        <time>2022-03-14T11:56:45Z</time>
      </trkpt>
      <trkpt lat="47.15994" lon="-1.44826">
        <ele>75</ele>
        <time>2022-03-14T11:56:47Z</time>
      </trkpt>
      <trkpt lat="47.16002" lon="-1.4484">
        <ele>74</ele>
        <time>2022-03-14T11:56:49Z</time>
      </trkpt>
      <trkpt lat="47.16011" lon="-1.44854">
        <ele>75</ele>
        <time>2022-03-14T11:56:51Z</time>
      </trkpt>
      <trkpt lat="47.16021" lon="-1.44867">
        <ele>75</ele>
        <time>2022-03-14T11:56:53Z</time>
      </trkpt>
      <trkpt lat="47.16032" lon="-1.4488">
        <ele>75</ele>
        <time>2022-03-14T11:56:55Z</time>
      </trkpt>
      <trkpt lat="47.16042" lon="-1.44892">
        <ele>75</ele>
        <time>2022-03-14T11:56:57Z</time>
      </trkpt>
      <trkpt lat="47.16052" lon="-1.44903">
        <ele>76</ele>
        <time>2022-03-14T11:56:59Z</time>
      </trkpt>
      <trkpt lat="47.16063" lon="-1.44915">
        <ele>75</ele>
        <time>2022-03-14T11:57:01Z</time>
      </trkpt>
      <trkpt lat="47.16073" lon="-1.44928">
        <ele>75</ele>
        <time>2022-03-14T11:57:03Z</time>
      </trkpt>
      <trkpt lat="47.16083" lon="-1.44943">
        <ele>75</ele>
        <time>2022-03-14T11:57:05Z</time>
      </trkpt>
      <trkpt lat="47.16092" lon="-1.44957">
        <ele>75</ele>
        <time>2022-03-14T11:57:07Z</time>
      </trkpt>
      <trkpt lat="47.16099" lon="-1.44973">
        <ele>75</ele>
        <time>2022-03-14T11:57:09Z</time>
      </trkpt>
      <trkpt lat="47.16106" lon="-1.4499">
        <ele>75</ele>
        <time>2022-03-14T11:57:11Z</time>
      </trkpt>
      <trkpt lat="47.16111" lon="-1.45007">
        <ele>75</ele>
        <time>2022-03-14T11:57:13Z</time>
      </trkpt>
      <trkpt lat="47.16117" lon="-1.45023">
        <ele>76</ele>
        <time>2022-03-14T11:57:15Z</time>
      </trkpt>
      <trkpt lat="47.16123" lon="-1.4504">
        <ele>76</ele>
        <time>2022-03-14T11:57:17Z</time>
      </trkpt>
      <trkpt lat="47.16129" lon="-1.45056">
        <ele>76</ele>
        <time>2022-03-14T11:57:19Z</time>
      </trkpt>
      <trkpt lat="47.16133" lon="-1.45073">
        <ele>76</ele>
        <time>2022-03-14T11:57:21Z</time>
      </trkpt>
      <trkpt lat="47.16137" lon="-1.45089">
        <ele>76</ele>
        <time>2022-03-14T11:57:23Z</time>
      </trkpt>
      <trkpt lat="47.1614" lon="-1.45105">
        <ele>77</ele>
        <time>2022-03-14T11:57:25Z</time>
      </trkpt>
      <trkpt lat="47.16144" lon="-1.45121">
        <ele>77</ele>
        <time>2022-03-14T11:57:27Z</time>
      </trkpt>
      <trkpt lat="47.1615" lon="-1.45137">
        <ele>78</ele>
        <time>2022-03-14T11:57:29Z</time>
      </trkpt>
      <trkpt lat="47.16157" lon="-1.45152">
        <ele>78</ele>
        <time>2022-03-14T11:57:31Z</time>
      </trkpt>
      <trkpt lat="47.16167" lon="-1.45161">
        <ele>78</ele>
        <time>2022-03-14T11:57:33Z</time>
      </trkpt>
      <trkpt lat="47.16178" lon="-1.45169">
        <ele>78</ele>
        <time>2022-03-14T11:57:35Z</time>
      </trkpt>
      <trkpt lat="47.16188" lon="-1.45175">
        <ele>78</ele>
        <time>2022-03-14T11:57:37Z</time>
      </trkpt>
      <trkpt lat="47.16199" lon="-1.45181">
        <ele>79</ele>
        <time>2022-03-14T11:57:39Z</time>
      </trkpt>
      <trkpt lat="47.16209" lon="-1.45186">
        <ele>80</ele>
        <time>2022-03-14T11:57:41Z</time>
      </trkpt>
      <trkpt lat="47.1622" lon="-1.45193">
        <ele>79</ele>
        <time>2022-03-14T11:57:43Z</time>
      </trkpt>
      <trkpt lat="47.1623" lon="-1.45202">
        <ele>80</ele>
        <time>2022-03-14T11:57:45Z</time>
      </trkpt>
      <trkpt lat="47.1624" lon="-1.45211">
        <ele>80</ele>
        <time>2022-03-14T11:57:47Z</time>
      </trkpt>
      <trkpt lat="47.16249" lon="-1.45223">
        <ele>80</ele>
        <time>2022-03-14T11:57:49Z</time>
      </trkpt>
      <trkpt lat="47.16256" lon="-1.45237">
        <ele>80</ele>
        <time>2022-03-14T11:57:51Z</time>
      </trkpt>
      <trkpt lat="47.16261" lon="-1.45252">
        <ele>80</ele>
        <time>2022-03-14T11:57:53Z</time>
      </trkpt>
      <trkpt lat="47.16267" lon="-1.45269">
        <ele>79</ele>
        <time>2022-03-14T11:57:55Z</time>
      </trkpt>
      <trkpt lat="47.16272" lon="-1.45286">
        <ele>79</ele>
        <time>2022-03-14T11:57:57Z</time>
      </trkpt>
      <trkpt lat="47.16279" lon="-1.45303">
        <ele>79</ele>
        <time>2022-03-14T11:57:59Z</time>
      </trkpt>
      <trkpt lat="47.16285" lon="-1.45321">
        <ele>79</ele>
        <time>2022-03-14T11:58:01Z</time>
      </trkpt>
      <trkpt lat="47.1629" lon="-1.45341">
        <ele>78</ele>
        <time>2022-03-14T11:58:03Z</time>
      </trkpt>
      <trkpt lat="47.16293" lon="-1.45363">
        <ele>77</ele>
        <time>2022-03-14T11:58:05Z</time>
      </trkpt>
      <trkpt lat="47.16296" lon="-1.45386">
        <ele>77</ele>
        <time>2022-03-14T11:58:07Z</time>
      </trkpt>
      <trkpt lat="47.163" lon="-1.45412">
        <ele>75</ele>
        <time>2022-03-14T11:58:09Z</time>
      </trkpt>
      <trkpt lat="47.16304" lon="-1.45424">
        <ele>75</ele>
        <time>2022-03-14T11:58:10Z</time>
      </trkpt>
      <trkpt lat="47.16313" lon="-1.45446">
        <ele>74</ele>
        <time>2022-03-14T11:58:12Z</time>
      </trkpt>
      <trkpt lat="47.16319" lon="-1.45457">
        <ele>74</ele>
        <time>2022-03-14T11:58:13Z</time>
      </trkpt>
      <trkpt lat="47.16325" lon="-1.45467">
        <ele>74</ele>
        <time>2022-03-14T11:58:14Z</time>
      </trkpt>
      <trkpt lat="47.16331" lon="-1.45478">
        <ele>74</ele>
        <time>2022-03-14T11:58:15Z</time>
      </trkpt>
      <trkpt lat="47.16342" lon="-1.45497">
        <ele>73</ele>
        <time>2022-03-14T11:58:17Z</time>
      </trkpt>
      <trkpt lat="47.16352" lon="-1.45517">
        <ele>73</ele>
        <time>2022-03-14T11:58:19Z</time>
      </trkpt>
      <trkpt lat="47.16362" lon="-1.45535">
        <ele>73</ele>
        <time>2022-03-14T11:58:21Z</time>
      </trkpt>
      <trkpt lat="47.16372" lon="-1.45553">
        <ele>73</ele>
        <time>2022-03-14T11:58:23Z</time>
      </trkpt>
      <trkpt lat="47.16382" lon="-1.45572">
        <ele>73</ele>
        <time>2022-03-14T11:58:25Z</time>
      </trkpt>
      <trkpt lat="47.16391" lon="-1.4559">
        <ele>72</ele>
        <time>2022-03-14T11:58:27Z</time>
      </trkpt>
      <trkpt lat="47.16399" lon="-1.4561">
        <ele>72</ele>
        <time>2022-03-14T11:58:29Z</time>
      </trkpt>
      <trkpt lat="47.16407" lon="-1.45629">
        <ele>71</ele>
        <time>2022-03-14T11:58:31Z</time>
      </trkpt>
      <trkpt lat="47.16414" lon="-1.45649">
        <ele>71</ele>
        <time>2022-03-14T11:58:33Z</time>
      </trkpt>
      <trkpt lat="47.16419" lon="-1.45669">
        <ele>70</ele>
        <time>2022-03-14T11:58:35Z</time>
      </trkpt>
      <trkpt lat="47.16424" lon="-1.45689">
        <ele>70</ele>
        <time>2022-03-14T11:58:37Z</time>
      </trkpt>
      <trkpt lat="47.16429" lon="-1.45709">
        <ele>70</ele>
        <time>2022-03-14T11:58:39Z</time>
      </trkpt>
      <trkpt lat="47.16434" lon="-1.45729">
        <ele>70</ele>
        <time>2022-03-14T11:58:41Z</time>
      </trkpt>
      <trkpt lat="47.16439" lon="-1.45749">
        <ele>70</ele>
        <time>2022-03-14T11:58:43Z</time>
      </trkpt>
      <trkpt lat="47.16443" lon="-1.45768">
        <ele>70</ele>
        <time>2022-03-14T11:58:45Z</time>
      </trkpt>
      <trkpt lat="47.16448" lon="-1.45788">
        <ele>70</ele>
        <time>2022-03-14T11:58:47Z</time>
      </trkpt>
      <trkpt lat="47.16451" lon="-1.45806">
        <ele>70</ele>
        <time>2022-03-14T11:58:49Z</time>
      </trkpt>
      <trkpt lat="47.16456" lon="-1.45826">
        <ele>70</ele>
        <time>2022-03-14T11:58:51Z</time>
      </trkpt>
      <trkpt lat="47.16462" lon="-1.45844">
        <ele>71</ele>
        <time>2022-03-14T11:58:53Z</time>
      </trkpt>
      <trkpt lat="47.16467" lon="-1.45862">
        <ele>72</ele>
        <time>2022-03-14T11:58:55Z</time>
      </trkpt>
      <trkpt lat="47.16472" lon="-1.45879">
        <ele>72</ele>
        <time>2022-03-14T11:58:57Z</time>
      </trkpt>
      <trkpt lat="47.16476" lon="-1.45896">
        <ele>72</ele>
        <time>2022-03-14T11:58:59Z</time>
      </trkpt>
      <trkpt lat="47.16481" lon="-1.45914">
        <ele>73</ele>
        <time>2022-03-14T11:59:01Z</time>
      </trkpt>
      <trkpt lat="47.16486" lon="-1.4593">
        <ele>73</ele>
        <time>2022-03-14T11:59:03Z</time>
      </trkpt>
      <trkpt lat="47.16492" lon="-1.45945">
        <ele>74</ele>
        <time>2022-03-14T11:59:05Z</time>
      </trkpt>
      <trkpt lat="47.16497" lon="-1.45959">
        <ele>75</ele>
        <time>2022-03-14T11:59:07Z</time>
      </trkpt>
      <trkpt lat="47.16503" lon="-1.45974">
        <ele>76</ele>
        <time>2022-03-14T11:59:09Z</time>
      </trkpt>
      <trkpt lat="47.16508" lon="-1.45989">
        <ele>76</ele>
        <time>2022-03-14T11:59:11Z</time>
      </trkpt>
      <trkpt lat="47.16514" lon="-1.46004">
        <ele>77</ele>
        <time>2022-03-14T11:59:13Z</time>
      </trkpt>
      <trkpt lat="47.16519" lon="-1.46017">
        <ele>77</ele>
        <time>2022-03-14T11:59:15Z</time>
      </trkpt>
      <trkpt lat="47.16526" lon="-1.46029">
        <ele>77</ele>
        <time>2022-03-14T11:59:17Z</time>
      </trkpt>
      <trkpt lat="47.16538" lon="-1.46034">
        <ele>77</ele>
        <time>2022-03-14T11:59:19Z</time>
      </trkpt>
      <trkpt lat="47.16549" lon="-1.46043">
        <ele>77</ele>
        <time>2022-03-14T11:59:21Z</time>
      </trkpt>
      <trkpt lat="47.16556" lon="-1.46061">
        <ele>78</ele>
        <time>2022-03-14T11:59:23Z</time>
      </trkpt>
      <trkpt lat="47.1656" lon="-1.46081">
        <ele>78</ele>
        <time>2022-03-14T11:59:25Z</time>
      </trkpt>
      <trkpt lat="47.16563" lon="-1.461">
        <ele>78</ele>
        <time>2022-03-14T11:59:27Z</time>
      </trkpt>
      <trkpt lat="47.16568" lon="-1.46116">
        <ele>78</ele>
        <time>2022-03-14T11:59:29Z</time>
      </trkpt>
      <trkpt lat="47.16573" lon="-1.46133">
        <ele>79</ele>
        <time>2022-03-14T11:59:31Z</time>
      </trkpt>
      <trkpt lat="47.16581" lon="-1.46149">
        <ele>79</ele>
        <time>2022-03-14T11:59:33Z</time>
      </trkpt>
      <trkpt lat="47.16588" lon="-1.46164">
        <ele>79</ele>
        <time>2022-03-14T11:59:35Z</time>
      </trkpt>
      <trkpt lat="47.16596" lon="-1.46179">
        <ele>80</ele>
        <time>2022-03-14T11:59:37Z</time>
      </trkpt>
      <trkpt lat="47.16603" lon="-1.46193">
        <ele>80</ele>
        <time>2022-03-14T11:59:39Z</time>
      </trkpt>
      <trkpt lat="47.16612" lon="-1.46204">
        <ele>80</ele>
        <time>2022-03-14T11:59:41Z</time>
      </trkpt>
      <trkpt lat="47.16623" lon="-1.46213">
        <ele>80</ele>
        <time>2022-03-14T11:59:43Z</time>
      </trkpt>
      <trkpt lat="47.16628" lon="-1.46229">
        <ele>80</ele>
        <time>2022-03-14T11:59:45Z</time>
      </trkpt>
      <trkpt lat="47.16632" lon="-1.46247">
        <ele>79</ele>
        <time>2022-03-14T11:59:47Z</time>
      </trkpt>
      <trkpt lat="47.1664" lon="-1.46262">
        <ele>79</ele>
        <time>2022-03-14T11:59:49Z</time>
      </trkpt>
      <trkpt lat="47.16648" lon="-1.46276">
        <ele>79</ele>
        <time>2022-03-14T11:59:51Z</time>
      </trkpt>
      <trkpt lat="47.16657" lon="-1.46291">
        <ele>79</ele>
        <time>2022-03-14T11:59:53Z</time>
      </trkpt>
      <trkpt lat="47.16663" lon="-1.46308">
        <ele>79</ele>
        <time>2022-03-14T11:59:55Z</time>
      </trkpt>
      <trkpt lat="47.16669" lon="-1.46324">
        <ele>79</ele>
        <time>2022-03-14T11:59:57Z</time>
      </trkpt>
      <trkpt lat="47.16676" lon="-1.4634">
        <ele>79</ele>
        <time>2022-03-14T11:59:59Z</time>
      </trkpt>
      <trkpt lat="47.16685" lon="-1.46355">
        <ele>79</ele>
        <time>2022-03-14T12:00:01Z</time>
      </trkpt>
      <trkpt lat="47.16693" lon="-1.4637">
        <ele>80</ele>
        <time>2022-03-14T12:00:03Z</time>
      </trkpt>
      <trkpt lat="47.16703" lon="-1.46386">
        <ele>80</ele>
        <time>2022-03-14T12:00:05Z</time>
      </trkpt>
      <trkpt lat="47.16712" lon="-1.464">
        <ele>80</ele>
        <time>2022-03-14T12:00:07Z</time>
      </trkpt>
      <trkpt lat="47.16722" lon="-1.46413">
        <ele>80</ele>
        <time>2022-03-14T12:00:09Z</time>
      </trkpt>
      <trkpt lat="47.16732" lon="-1.46427">
        <ele>81</ele>
        <time>2022-03-14T12:00:11Z</time>
      </trkpt>
      <trkpt lat="47.16742" lon="-1.46441">
        <ele>81</ele>
        <time>2022-03-14T12:00:13Z</time>
      </trkpt>
      <trkpt lat="47.16753" lon="-1.46457">
        <ele>82</ele>
        <time>2022-03-14T12:00:15Z</time>
      </trkpt>
      <trkpt lat="47.16763" lon="-1.46472">
        <ele>81</ele>
        <time>2022-03-14T12:00:17Z</time>
      </trkpt>
      <trkpt lat="47.16774" lon="-1.46487">
        <ele>81</ele>
        <time>2022-03-14T12:00:19Z</time>
      </trkpt>
      <trkpt lat="47.16786" lon="-1.46502">
        <ele>82</ele>
        <time>2022-03-14T12:00:21Z</time>
      </trkpt>
      <trkpt lat="47.16797" lon="-1.46516">
        <ele>81</ele>
        <time>2022-03-14T12:00:23Z</time>
      </trkpt>
      <trkpt lat="47.16808" lon="-1.4653">
        <ele>81</ele>
        <time>2022-03-14T12:00:25Z</time>
      </trkpt>
      <trkpt lat="47.1682" lon="-1.46544">
        <ele>81</ele>
        <time>2022-03-14T12:00:27Z</time>
      </trkpt>
      <trkpt lat="47.16833" lon="-1.46559">
        <ele>81</ele>
        <time>2022-03-14T12:00:29Z</time>
      </trkpt>
      <trkpt lat="47.16846" lon="-1.46572">
        <ele>81</ele>
        <time>2022-03-14T12:00:31Z</time>
      </trkpt>
      <trkpt lat="47.1686" lon="-1.46584">
        <ele>81</ele>
        <time>2022-03-14T12:00:33Z</time>
      </trkpt>
      <trkpt lat="47.16873" lon="-1.46596">
        <ele>81</ele>
        <time>2022-03-14T12:00:35Z</time>
      </trkpt>
      <trkpt lat="47.16887" lon="-1.46608">
        <ele>81</ele>
        <time>2022-03-14T12:00:37Z</time>
      </trkpt>
      <trkpt lat="47.16901" lon="-1.46621">
        <ele>80</ele>
        <time>2022-03-14T12:00:39Z</time>
      </trkpt>
      <trkpt lat="47.16915" lon="-1.46633">
        <ele>79</ele>
        <time>2022-03-14T12:00:41Z</time>
      </trkpt>
      <trkpt lat="47.16928" lon="-1.46643">
        <ele>78</ele>
        <time>2022-03-14T12:00:43Z</time>
      </trkpt>
      <trkpt lat="47.16942" lon="-1.46651">
        <ele>78</ele>
        <time>2022-03-14T12:00:45Z</time>
      </trkpt>
      <trkpt lat="47.16957" lon="-1.4666">
        <ele>78</ele>
        <time>2022-03-14T12:00:47Z</time>
      </trkpt>
      <trkpt lat="47.16972" lon="-1.46668">
        <ele>78</ele>
        <time>2022-03-14T12:00:49Z</time>
      </trkpt>
      <trkpt lat="47.16985" lon="-1.46686">
        <ele>76</ele>
        <time>2022-03-14T12:00:51Z</time>
      </trkpt>
      <trkpt lat="47.16991" lon="-1.46695">
        <ele>75</ele>
        <time>2022-03-14T12:00:52Z</time>
      </trkpt>
      <trkpt lat="47.17005" lon="-1.46708">
        <ele>73</ele>
        <time>2022-03-14T12:00:54Z</time>
      </trkpt>
      <trkpt lat="47.1702" lon="-1.4672">
        <ele>72</ele>
        <time>2022-03-14T12:00:56Z</time>
      </trkpt>
      <trkpt lat="47.17034" lon="-1.46732">
        <ele>71</ele>
        <time>2022-03-14T12:00:58Z</time>
      </trkpt>
      <trkpt lat="47.17048" lon="-1.46743">
        <ele>69</ele>
        <time>2022-03-14T12:01:00Z</time>
      </trkpt>
      <trkpt lat="47.17063" lon="-1.46754">
        <ele>69</ele>
        <time>2022-03-14T12:01:02Z</time>
      </trkpt>
      <trkpt lat="47.17076" lon="-1.46767">
        <ele>68</ele>
        <time>2022-03-14T12:01:04Z</time>
      </trkpt>
      <trkpt lat="47.17091" lon="-1.46781">
        <ele>67</ele>
        <time>2022-03-14T12:01:06Z</time>
      </trkpt>
      <trkpt lat="47.17098" lon="-1.46789">
        <ele>67</ele>
        <time>2022-03-14T12:01:07Z</time>
      </trkpt>
      <trkpt lat="47.17106" lon="-1.46797">
        <ele>66</ele>
        <time>2022-03-14T12:01:08Z</time>
      </trkpt>
      <trkpt lat="47.17115" lon="-1.46803">
        <ele>65</ele>
        <time>2022-03-14T12:01:09Z</time>
      </trkpt>
      <trkpt lat="47.17123" lon="-1.46809">
        <ele>65</ele>
        <time>2022-03-14T12:01:10Z</time>
      </trkpt>
      <trkpt lat="47.17131" lon="-1.46816">
        <ele>64</ele>
        <time>2022-03-14T12:01:11Z</time>
      </trkpt>
      <trkpt lat="47.17138" lon="-1.46827">
        <ele>64</ele>
        <time>2022-03-14T12:01:12Z</time>
      </trkpt>
      <trkpt lat="47.17143" lon="-1.46839">
        <ele>63</ele>
        <time>2022-03-14T12:01:13Z</time>
      </trkpt>
      <trkpt lat="47.17149" lon="-1.46849">
        <ele>63</ele>
        <time>2022-03-14T12:01:14Z</time>
      </trkpt>
      <trkpt lat="47.17161" lon="-1.46867">
        <ele>62</ele>
        <time>2022-03-14T12:01:16Z</time>
      </trkpt>
      <trkpt lat="47.17172" lon="-1.46883">
        <ele>62</ele>
        <time>2022-03-14T12:01:18Z</time>
      </trkpt>
      <trkpt lat="47.17181" lon="-1.46901">
        <ele>62</ele>
        <time>2022-03-14T12:01:20Z</time>
      </trkpt>
      <trkpt lat="47.17189" lon="-1.46921">
        <ele>61</ele>
        <time>2022-03-14T12:01:22Z</time>
      </trkpt>
      <trkpt lat="47.17199" lon="-1.46942">
        <ele>61</ele>
        <time>2022-03-14T12:01:24Z</time>
      </trkpt>
      <trkpt lat="47.17209" lon="-1.46964">
        <ele>60</ele>
        <time>2022-03-14T12:01:26Z</time>
      </trkpt>
      <trkpt lat="47.17218" lon="-1.46987">
        <ele>60</ele>
        <time>2022-03-14T12:01:28Z</time>
      </trkpt>
      <trkpt lat="47.17225" lon="-1.47009">
        <ele>59</ele>
        <time>2022-03-14T12:01:30Z</time>
      </trkpt>
      <trkpt lat="47.17233" lon="-1.4703">
        <ele>59</ele>
        <time>2022-03-14T12:01:32Z</time>
      </trkpt>
      <trkpt lat="47.1724" lon="-1.47053">
        <ele>59</ele>
        <time>2022-03-14T12:01:34Z</time>
      </trkpt>
      <trkpt lat="47.17247" lon="-1.47077">
        <ele>57</ele>
        <time>2022-03-14T12:01:36Z</time>
      </trkpt>
      <trkpt lat="47.17253" lon="-1.471">
        <ele>57</ele>
        <time>2022-03-14T12:01:38Z</time>
      </trkpt>
      <trkpt lat="47.17259" lon="-1.47121">
        <ele>57</ele>
        <time>2022-03-14T12:01:40Z</time>
      </trkpt>
      <trkpt lat="47.17263" lon="-1.47143">
        <ele>57</ele>
        <time>2022-03-14T12:01:42Z</time>
      </trkpt>
      <trkpt lat="47.17268" lon="-1.47166">
        <ele>57</ele>
        <time>2022-03-14T12:01:44Z</time>
      </trkpt>
      <trkpt lat="47.17272" lon="-1.47187">
        <ele>57</ele>
        <time>2022-03-14T12:01:46Z</time>
      </trkpt>
      <trkpt lat="47.17275" lon="-1.4721">
        <ele>58</ele>
        <time>2022-03-14T12:01:48Z</time>
      </trkpt>
      <trkpt lat="47.17279" lon="-1.47234">
        <ele>57</ele>
        <time>2022-03-14T12:01:50Z</time>
      </trkpt>
      <trkpt lat="47.17284" lon="-1.47256">
        <ele>56</ele>
        <time>2022-03-14T12:01:52Z</time>
      </trkpt>
      <trkpt lat="47.17289" lon="-1.47278">
        <ele>56</ele>
        <time>2022-03-14T12:01:54Z</time>
      </trkpt>
      <trkpt lat="47.17292" lon="-1.47301">
        <ele>56</ele>
        <time>2022-03-14T12:01:56Z</time>
      </trkpt>
      <trkpt lat="47.17296" lon="-1.47323">
        <ele>56</ele>
        <time>2022-03-14T12:01:58Z</time>
      </trkpt>
      <trkpt lat="47.173" lon="-1.47344">
        <ele>55</ele>
        <time>2022-03-14T12:02:00Z</time>
      </trkpt>
      <trkpt lat="47.17307" lon="-1.47358">
        <ele>55</ele>
        <time>2022-03-14T12:02:02Z</time>
      </trkpt>
      <trkpt lat="47.17319" lon="-1.47366">
        <ele>55</ele>
        <time>2022-03-14T12:02:04Z</time>
      </trkpt>
      <trkpt lat="47.17335" lon="-1.47366">
        <ele>55</ele>
        <time>2022-03-14T12:02:06Z</time>
      </trkpt>
      <trkpt lat="47.17351" lon="-1.47363">
        <ele>54</ele>
        <time>2022-03-14T12:02:08Z</time>
      </trkpt>
      <trkpt lat="47.17367" lon="-1.47359">
        <ele>54</ele>
        <time>2022-03-14T12:02:10Z</time>
      </trkpt>
      <trkpt lat="47.17382" lon="-1.47356">
        <ele>54</ele>
        <time>2022-03-14T12:02:12Z</time>
      </trkpt>
      <trkpt lat="47.17397" lon="-1.47355">
        <ele>54</ele>
        <time>2022-03-14T12:02:14Z</time>
      </trkpt>
      <trkpt lat="47.17411" lon="-1.47354">
        <ele>53</ele>
        <time>2022-03-14T12:02:16Z</time>
      </trkpt>
      <trkpt lat="47.17426" lon="-1.47352">
        <ele>53</ele>
        <time>2022-03-14T12:02:18Z</time>
      </trkpt>
      <trkpt lat="47.17441" lon="-1.47351">
        <ele>53</ele>
        <time>2022-03-14T12:02:20Z</time>
      </trkpt>
      <trkpt lat="47.17456" lon="-1.47351">
        <ele>53</ele>
        <time>2022-03-14T12:02:22Z</time>
      </trkpt>
      <trkpt lat="47.17471" lon="-1.47351">
        <ele>52</ele>
        <time>2022-03-14T12:02:24Z</time>
      </trkpt>
      <trkpt lat="47.17487" lon="-1.47351">
        <ele>53</ele>
        <time>2022-03-14T12:02:26Z</time>
      </trkpt>
      <trkpt lat="47.17503" lon="-1.47353">
        <ele>52</ele>
        <time>2022-03-14T12:02:28Z</time>
      </trkpt>
      <trkpt lat="47.17519" lon="-1.47353">
        <ele>52</ele>
        <time>2022-03-14T12:02:30Z</time>
      </trkpt>
      <trkpt lat="47.17535" lon="-1.47353">
        <ele>51</ele>
        <time>2022-03-14T12:02:32Z</time>
      </trkpt>
      <trkpt lat="47.17551" lon="-1.47354">
        <ele>50</ele>
        <time>2022-03-14T12:02:34Z</time>
      </trkpt>
      <trkpt lat="47.17566" lon="-1.47356">
        <ele>50</ele>
        <time>2022-03-14T12:02:36Z</time>
      </trkpt>
      <trkpt lat="47.17582" lon="-1.47358">
        <ele>50</ele>
        <time>2022-03-14T12:02:38Z</time>
      </trkpt>
      <trkpt lat="47.17597" lon="-1.47362">
        <ele>49</ele>
        <time>2022-03-14T12:02:40Z</time>
      </trkpt>
      <trkpt lat="47.17613" lon="-1.47365">
        <ele>49</ele>
        <time>2022-03-14T12:02:42Z</time>
      </trkpt>
      <trkpt lat="47.17628" lon="-1.47369">
        <ele>49</ele>
        <time>2022-03-14T12:02:44Z</time>
      </trkpt>
      <trkpt lat="47.17642" lon="-1.47374">
        <ele>49</ele>
        <time>2022-03-14T12:02:46Z</time>
      </trkpt>
      <trkpt lat="47.17655" lon="-1.4738">
        <ele>49</ele>
        <time>2022-03-14T12:02:48Z</time>
      </trkpt>
      <trkpt lat="47.17667" lon="-1.47387">
        <ele>49</ele>
        <time>2022-03-14T12:02:50Z</time>
      </trkpt>
      <trkpt lat="47.17679" lon="-1.47393">
        <ele>50</ele>
        <time>2022-03-14T12:02:52Z</time>
      </trkpt>
      <trkpt lat="47.17691" lon="-1.47399">
        <ele>50</ele>
        <time>2022-03-14T12:02:54Z</time>
      </trkpt>
      <trkpt lat="47.17703" lon="-1.47405">
        <ele>51</ele>
        <time>2022-03-14T12:02:56Z</time>
      </trkpt>
      <trkpt lat="47.17715" lon="-1.47411">
        <ele>51</ele>
        <time>2022-03-14T12:02:58Z</time>
      </trkpt>
      <trkpt lat="47.17727" lon="-1.47417">
        <ele>51</ele>
        <time>2022-03-14T12:03:00Z</time>
      </trkpt>
      <trkpt lat="47.1774" lon="-1.47423">
        <ele>51</ele>
        <time>2022-03-14T12:03:02Z</time>
      </trkpt>
      <trkpt lat="47.17752" lon="-1.4743">
        <ele>50</ele>
        <time>2022-03-14T12:03:04Z</time>
      </trkpt>
      <trkpt lat="47.17764" lon="-1.47436">
        <ele>50</ele>
        <time>2022-03-14T12:03:06Z</time>
      </trkpt>
      <trkpt lat="47.17777" lon="-1.47442">
        <ele>51</ele>
        <time>2022-03-14T12:03:08Z</time>
      </trkpt>
      <trkpt lat="47.1779" lon="-1.47448">
        <ele>51</ele>
        <time>2022-03-14T12:03:10Z</time>
      </trkpt>
      <trkpt lat="47.17803" lon="-1.47453">
        <ele>50</ele>
        <time>2022-03-14T12:03:12Z</time>
      </trkpt>
      <trkpt lat="47.17816" lon="-1.47458">
        <ele>51</ele>
        <time>2022-03-14T12:03:14Z</time>
      </trkpt>
      <trkpt lat="47.17829" lon="-1.47464">
        <ele>51</ele>
        <time>2022-03-14T12:03:16Z</time>
      </trkpt>
      <trkpt lat="47.17843" lon="-1.47467">
        <ele>51</ele>
        <time>2022-03-14T12:03:18Z</time>
      </trkpt>
      <trkpt lat="47.17856" lon="-1.47471">
        <ele>51</ele>
        <time>2022-03-14T12:03:20Z</time>
      </trkpt>
      <trkpt lat="47.17868" lon="-1.47474">
        <ele>51</ele>
        <time>2022-03-14T12:03:22Z</time>
      </trkpt>
      <trkpt lat="47.17879" lon="-1.47475">
        <ele>52</ele>
        <time>2022-03-14T12:03:24Z</time>
      </trkpt>
      <trkpt lat="47.17889" lon="-1.47475">
        <ele>51</ele>
        <time>2022-03-14T12:03:26Z</time>
      </trkpt>
      <trkpt lat="47.17898" lon="-1.47469">
        <ele>51</ele>
        <time>2022-03-14T12:03:28Z</time>
      </trkpt>
      <trkpt lat="47.17911" lon="-1.47466">
        <ele>50</ele>
        <time>2022-03-14T12:03:30Z</time>
      </trkpt>
      <trkpt lat="47.17924" lon="-1.47476">
        <ele>50</ele>
        <time>2022-03-14T12:03:32Z</time>
      </trkpt>
      <trkpt lat="47.17933" lon="-1.47489">
        <ele>49</ele>
        <time>2022-03-14T12:03:34Z</time>
      </trkpt>
      <trkpt lat="47.17947" lon="-1.47492">
        <ele>49</ele>
        <time>2022-03-14T12:03:36Z</time>
      </trkpt>
      <trkpt lat="47.17961" lon="-1.47496">
        <ele>50</ele>
        <time>2022-03-14T12:03:38Z</time>
      </trkpt>
      <trkpt lat="47.17974" lon="-1.47501">
        <ele>49</ele>
        <time>2022-03-14T12:03:40Z</time>
      </trkpt>
      <trkpt lat="47.17987" lon="-1.47505">
        <ele>49</ele>
        <time>2022-03-14T12:03:42Z</time>
      </trkpt>
      <trkpt lat="47.18007" lon="-1.47509">
        <ele>49</ele>
        <time>2022-03-14T12:03:45Z</time>
      </trkpt>
      <trkpt lat="47.18019" lon="-1.47513">
        <ele>49</ele>
        <time>2022-03-14T12:03:47Z</time>
      </trkpt>
      <trkpt lat="47.18031" lon="-1.47516">
        <ele>49</ele>
        <time>2022-03-14T12:03:49Z</time>
      </trkpt>
      <trkpt lat="47.18041" lon="-1.47518">
        <ele>49</ele>
        <time>2022-03-14T12:03:51Z</time>
      </trkpt>
      <trkpt lat="47.18051" lon="-1.4752">
        <ele>49</ele>
        <time>2022-03-14T12:03:53Z</time>
      </trkpt>
      <trkpt lat="47.1806" lon="-1.47523">
        <ele>50</ele>
        <time>2022-03-14T12:03:55Z</time>
      </trkpt>
      <trkpt lat="47.1807" lon="-1.47526">
        <ele>51</ele>
        <time>2022-03-14T12:03:57Z</time>
      </trkpt>
      <trkpt lat="47.1808" lon="-1.47529">
        <ele>51</ele>
        <time>2022-03-14T12:03:59Z</time>
      </trkpt>
      <trkpt lat="47.18091" lon="-1.47533">
        <ele>51</ele>
        <time>2022-03-14T12:04:01Z</time>
      </trkpt>
      <trkpt lat="47.18102" lon="-1.47539">
        <ele>52</ele>
        <time>2022-03-14T12:04:03Z</time>
      </trkpt>
      <trkpt lat="47.18113" lon="-1.47543">
        <ele>52</ele>
        <time>2022-03-14T12:04:05Z</time>
      </trkpt>
      <trkpt lat="47.18125" lon="-1.47547">
        <ele>53</ele>
        <time>2022-03-14T12:04:07Z</time>
      </trkpt>
      <trkpt lat="47.18137" lon="-1.4755">
        <ele>53</ele>
        <time>2022-03-14T12:04:09Z</time>
      </trkpt>
      <trkpt lat="47.18148" lon="-1.47552">
        <ele>53</ele>
        <time>2022-03-14T12:04:11Z</time>
      </trkpt>
      <trkpt lat="47.18161" lon="-1.47554">
        <ele>54</ele>
        <time>2022-03-14T12:04:13Z</time>
      </trkpt>
      <trkpt lat="47.18173" lon="-1.47555">
        <ele>55</ele>
        <time>2022-03-14T12:04:15Z</time>
      </trkpt>
      <trkpt lat="47.18184" lon="-1.47555">
        <ele>56</ele>
        <time>2022-03-14T12:04:17Z</time>
      </trkpt>
      <trkpt lat="47.18195" lon="-1.47555">
        <ele>56</ele>
        <time>2022-03-14T12:04:19Z</time>
      </trkpt>
      <trkpt lat="47.18206" lon="-1.47556">
        <ele>57</ele>
        <time>2022-03-14T12:04:21Z</time>
      </trkpt>
      <trkpt lat="47.18217" lon="-1.4756">
        <ele>58</ele>
        <time>2022-03-14T12:04:23Z</time>
      </trkpt>
      <trkpt lat="47.18229" lon="-1.47564">
        <ele>59</ele>
        <time>2022-03-14T12:04:25Z</time>
      </trkpt>
      <trkpt lat="47.18239" lon="-1.47566">
        <ele>59</ele>
        <time>2022-03-14T12:04:27Z</time>
      </trkpt>
      <trkpt lat="47.1825" lon="-1.47568">
        <ele>59</ele>
        <time>2022-03-14T12:04:29Z</time>
      </trkpt>
      <trkpt lat="47.1826" lon="-1.47572">
        <ele>58</ele>
        <time>2022-03-14T12:04:31Z</time>
      </trkpt>
      <trkpt lat="47.1827" lon="-1.47575">
        <ele>57</ele>
        <time>2022-03-14T12:04:33Z</time>
      </trkpt>
      <trkpt lat="47.1828" lon="-1.47579">
        <ele>58</ele>
        <time>2022-03-14T12:04:35Z</time>
      </trkpt>
      <trkpt lat="47.1829" lon="-1.47583">
        <ele>58</ele>
        <time>2022-03-14T12:04:37Z</time>
      </trkpt>
      <trkpt lat="47.183" lon="-1.47587">
        <ele>57</ele>
        <time>2022-03-14T12:04:39Z</time>
      </trkpt>
      <trkpt lat="47.1831" lon="-1.4759">
        <ele>57</ele>
        <time>2022-03-14T12:04:41Z</time>
      </trkpt>
      <trkpt lat="47.18321" lon="-1.47593">
        <ele>57</ele>
        <time>2022-03-14T12:04:43Z</time>
      </trkpt>
      <trkpt lat="47.18332" lon="-1.47596">
        <ele>57</ele>
        <time>2022-03-14T12:04:45Z</time>
      </trkpt>
      <trkpt lat="47.18343" lon="-1.47598">
        <ele>57</ele>
        <time>2022-03-14T12:04:47Z</time>
      </trkpt>
      <trkpt lat="47.18352" lon="-1.476">
        <ele>57</ele>
        <time>2022-03-14T12:04:49Z</time>
      </trkpt>
      <trkpt lat="47.18363" lon="-1.47602">
        <ele>57</ele>
        <time>2022-03-14T12:04:52Z</time>
      </trkpt>
      <trkpt lat="47.18374" lon="-1.47604">
        <ele>58</ele>
        <time>2022-03-14T12:04:56Z</time>
      </trkpt>
      <trkpt lat="47.18384" lon="-1.47606">
        <ele>59</ele>
        <time>2022-03-14T12:05:03Z</time>
      </trkpt>
      <trkpt lat="47.18394" lon="-1.47611">
        <ele>60</ele>
        <time>2022-03-14T12:05:18Z</time>
      </trkpt>
      <trkpt lat="47.18407" lon="-1.47613">
        <ele>59</ele>
        <time>2022-03-14T12:05:21Z</time>
      </trkpt>
      <trkpt lat="47.18421" lon="-1.47617">
        <ele>58</ele>
        <time>2022-03-14T12:05:24Z</time>
      </trkpt>
      <trkpt lat="47.1843" lon="-1.47618">
        <ele>58</ele>
        <time>2022-03-14T12:05:26Z</time>
      </trkpt>
      <trkpt lat="47.18439" lon="-1.47621">
        <ele>59</ele>
        <time>2022-03-14T12:05:28Z</time>
      </trkpt>
      <trkpt lat="47.18453" lon="-1.47627">
        <ele>60</ele>
        <time>2022-03-14T12:05:31Z</time>
      </trkpt>
      <trkpt lat="47.18462" lon="-1.47629">
        <ele>61</ele>
        <time>2022-03-14T12:05:33Z</time>
      </trkpt>
      <trkpt lat="47.18475" lon="-1.47634">
        <ele>63</ele>
        <time>2022-03-14T12:05:36Z</time>
      </trkpt>
      <trkpt lat="47.18488" lon="-1.47639">
        <ele>65</ele>
        <time>2022-03-14T12:05:39Z</time>
      </trkpt>
      <trkpt lat="47.18497" lon="-1.47641">
        <ele>66</ele>
        <time>2022-03-14T12:05:41Z</time>
      </trkpt>
      <trkpt lat="47.18507" lon="-1.47644">
        <ele>68</ele>
        <time>2022-03-14T12:05:43Z</time>
      </trkpt>
      <trkpt lat="47.18516" lon="-1.47645">
        <ele>68</ele>
        <time>2022-03-14T12:05:45Z</time>
      </trkpt>
      <trkpt lat="47.18526" lon="-1.47647">
        <ele>68</ele>
        <time>2022-03-14T12:05:47Z</time>
      </trkpt>
      <trkpt lat="47.18539" lon="-1.4765">
        <ele>69</ele>
        <time>2022-03-14T12:05:50Z</time>
      </trkpt>
      <trkpt lat="47.18548" lon="-1.47653">
        <ele>70</ele>
        <time>2022-03-14T12:05:52Z</time>
      </trkpt>
      <trkpt lat="47.18557" lon="-1.47656">
        <ele>71</ele>
        <time>2022-03-14T12:05:54Z</time>
      </trkpt>
      <trkpt lat="47.18567" lon="-1.47659">
        <ele>71</ele>
        <time>2022-03-14T12:05:56Z</time>
      </trkpt>
      <trkpt lat="47.18577" lon="-1.47662">
        <ele>71</ele>
        <time>2022-03-14T12:05:58Z</time>
      </trkpt>
      <trkpt lat="47.18587" lon="-1.47665">
        <ele>71</ele>
        <time>2022-03-14T12:06:00Z</time>
      </trkpt>
      <trkpt lat="47.18597" lon="-1.47666">
        <ele>71</ele>
        <time>2022-03-14T12:06:02Z</time>
      </trkpt>
      <trkpt lat="47.18606" lon="-1.47669">
        <ele>71</ele>
        <time>2022-03-14T12:06:04Z</time>
      </trkpt>
      <trkpt lat="47.18618" lon="-1.47671">
        <ele>71</ele>
        <time>2022-03-14T12:06:07Z</time>
      </trkpt>
      <trkpt lat="47.1863" lon="-1.47675">
        <ele>71</ele>
        <time>2022-03-14T12:06:10Z</time>
      </trkpt>
      <trkpt lat="47.1864" lon="-1.47678">
        <ele>72</ele>
        <time>2022-03-14T12:06:12Z</time>
      </trkpt>
      <trkpt lat="47.18649" lon="-1.4768">
        <ele>72</ele>
        <time>2022-03-14T12:06:14Z</time>
      </trkpt>
      <trkpt lat="47.1866" lon="-1.47681">
        <ele>73</ele>
        <time>2022-03-14T12:06:18Z</time>
      </trkpt>
      <trkpt lat="47.1867" lon="-1.47683">
        <ele>73</ele>
        <time>2022-03-14T12:06:23Z</time>
      </trkpt>
      <trkpt lat="47.1868" lon="-1.47684">
        <ele>73</ele>
        <time>2022-03-14T12:06:52Z</time>
      </trkpt>
      <trkpt lat="47.18694" lon="-1.47682">
        <ele>73</ele>
        <time>2022-03-14T12:06:55Z</time>
      </trkpt>
      <trkpt lat="47.18703" lon="-1.47678">
        <ele>73</ele>
        <time>2022-03-14T12:06:57Z</time>
      </trkpt>
      <trkpt lat="47.18711" lon="-1.47666">
        <ele>72</ele>
        <time>2022-03-14T12:06:59Z</time>
      </trkpt>
      <trkpt lat="47.18716" lon="-1.47653">
        <ele>74</ele>
        <time>2022-03-14T12:07:01Z</time>
      </trkpt>
      <trkpt lat="47.18722" lon="-1.4764">
        <ele>74</ele>
        <time>2022-03-14T12:07:03Z</time>
      </trkpt>
      <trkpt lat="47.18729" lon="-1.47626">
        <ele>74</ele>
        <time>2022-03-14T12:07:05Z</time>
      </trkpt>
      <trkpt lat="47.18735" lon="-1.47613">
        <ele>74</ele>
        <time>2022-03-14T12:07:07Z</time>
      </trkpt>
      <trkpt lat="47.18742" lon="-1.47598">
        <ele>74</ele>
        <time>2022-03-14T12:07:09Z</time>
      </trkpt>
      <trkpt lat="47.18749" lon="-1.47585">
        <ele>74</ele>
        <time>2022-03-14T12:07:11Z</time>
      </trkpt>
      <trkpt lat="47.18756" lon="-1.47572">
        <ele>75</ele>
        <time>2022-03-14T12:07:13Z</time>
      </trkpt>
      <trkpt lat="47.18763" lon="-1.47559">
        <ele>75</ele>
        <time>2022-03-14T12:07:15Z</time>
      </trkpt>
      <trkpt lat="47.18768" lon="-1.47546">
        <ele>74</ele>
        <time>2022-03-14T12:07:17Z</time>
      </trkpt>
      <trkpt lat="47.18774" lon="-1.47534">
        <ele>74</ele>
        <time>2022-03-14T12:07:19Z</time>
      </trkpt>
      <trkpt lat="47.18781" lon="-1.47521">
        <ele>74</ele>
        <time>2022-03-14T12:07:21Z</time>
      </trkpt>
      <trkpt lat="47.18787" lon="-1.4751">
        <ele>74</ele>
        <time>2022-03-14T12:07:23Z</time>
      </trkpt>
      <trkpt lat="47.18792" lon="-1.47499">
        <ele>74</ele>
        <time>2022-03-14T12:07:25Z</time>
      </trkpt>
      <trkpt lat="47.18799" lon="-1.47487">
        <ele>74</ele>
        <time>2022-03-14T12:07:27Z</time>
      </trkpt>
      <trkpt lat="47.18805" lon="-1.47474">
        <ele>74</ele>
        <time>2022-03-14T12:07:29Z</time>
      </trkpt>
      <trkpt lat="47.18812" lon="-1.47461">
        <ele>74</ele>
        <time>2022-03-14T12:07:31Z</time>
      </trkpt>
      <trkpt lat="47.18818" lon="-1.47449">
        <ele>73</ele>
        <time>2022-03-14T12:07:33Z</time>
      </trkpt>
      <trkpt lat="47.18823" lon="-1.47435">
        <ele>73</ele>
        <time>2022-03-14T12:07:35Z</time>
      </trkpt>
      <trkpt lat="47.18829" lon="-1.47421">
        <ele>74</ele>
        <time>2022-03-14T12:07:37Z</time>
      </trkpt>
      <trkpt lat="47.18836" lon="-1.47408">
        <ele>73</ele>
        <time>2022-03-14T12:07:40Z</time>
      </trkpt>
      <trkpt lat="47.18842" lon="-1.47395">
        <ele>73</ele>
        <time>2022-03-14T12:07:42Z</time>
      </trkpt>
      <trkpt lat="47.18848" lon="-1.47382">
        <ele>74</ele>
        <time>2022-03-14T12:07:44Z</time>
      </trkpt>
      <trkpt lat="47.18855" lon="-1.47366">
        <ele>74</ele>
        <time>2022-03-14T12:07:46Z</time>
      </trkpt>
      <trkpt lat="47.18861" lon="-1.47351">
        <ele>75</ele>
        <time>2022-03-14T12:07:48Z</time>
      </trkpt>
      <trkpt lat="47.18867" lon="-1.47335">
        <ele>76</ele>
        <time>2022-03-14T12:07:50Z</time>
      </trkpt>
      <trkpt lat="47.18873" lon="-1.4732">
        <ele>77</ele>
        <time>2022-03-14T12:07:52Z</time>
      </trkpt>
      <trkpt lat="47.1888" lon="-1.47307">
        <ele>77</ele>
        <time>2022-03-14T12:07:54Z</time>
      </trkpt>
      <trkpt lat="47.18885" lon="-1.47294">
        <ele>77</ele>
        <time>2022-03-14T12:07:56Z</time>
      </trkpt>
      <trkpt lat="47.18892" lon="-1.47281">
        <ele>78</ele>
        <time>2022-03-14T12:07:58Z</time>
      </trkpt>
      <trkpt lat="47.18898" lon="-1.47269">
        <ele>78</ele>
        <time>2022-03-14T12:08:00Z</time>
      </trkpt>
      <trkpt lat="47.18903" lon="-1.47257">
        <ele>78</ele>
        <time>2022-03-14T12:08:02Z</time>
      </trkpt>
      <trkpt lat="47.18911" lon="-1.47243">
        <ele>78</ele>
        <time>2022-03-14T12:08:05Z</time>
      </trkpt>
      <trkpt lat="47.18919" lon="-1.47229">
        <ele>77</ele>
        <time>2022-03-14T12:08:08Z</time>
      </trkpt>
      <trkpt lat="47.18924" lon="-1.47216">
        <ele>78</ele>
        <time>2022-03-14T12:08:10Z</time>
      </trkpt>
      <trkpt lat="47.18927" lon="-1.472">
        <ele>79</ele>
        <time>2022-03-14T12:08:12Z</time>
      </trkpt>
      <trkpt lat="47.18933" lon="-1.47186">
        <ele>80</ele>
        <time>2022-03-14T12:08:14Z</time>
      </trkpt>
      <trkpt lat="47.18942" lon="-1.47175">
        <ele>79</ele>
        <time>2022-03-14T12:08:16Z</time>
      </trkpt>
      <trkpt lat="47.18951" lon="-1.47163">
        <ele>80</ele>
        <time>2022-03-14T12:08:18Z</time>
      </trkpt>
      <trkpt lat="47.18958" lon="-1.47151">
        <ele>81</ele>
        <time>2022-03-14T12:08:20Z</time>
      </trkpt>
      <trkpt lat="47.18964" lon="-1.4714">
        <ele>82</ele>
        <time>2022-03-14T12:08:22Z</time>
      </trkpt>
      <trkpt lat="47.18971" lon="-1.47129">
        <ele>83</ele>
        <time>2022-03-14T12:08:24Z</time>
      </trkpt>
      <trkpt lat="47.18977" lon="-1.47116">
        <ele>83</ele>
        <time>2022-03-14T12:08:26Z</time>
      </trkpt>
      <trkpt lat="47.18984" lon="-1.47103">
        <ele>83</ele>
        <time>2022-03-14T12:08:28Z</time>
      </trkpt>
      <trkpt lat="47.18992" lon="-1.47087">
        <ele>83</ele>
        <time>2022-03-14T12:08:30Z</time>
      </trkpt>
      <trkpt lat="47.18999" lon="-1.4707">
        <ele>82</ele>
        <time>2022-03-14T12:08:32Z</time>
      </trkpt>
      <trkpt lat="47.19007" lon="-1.47052">
        <ele>82</ele>
        <time>2022-03-14T12:08:34Z</time>
      </trkpt>
      <trkpt lat="47.19015" lon="-1.47035">
        <ele>82</ele>
        <time>2022-03-14T12:08:36Z</time>
      </trkpt>
      <trkpt lat="47.19023" lon="-1.47018">
        <ele>81</ele>
        <time>2022-03-14T12:08:38Z</time>
      </trkpt>
      <trkpt lat="47.19031" lon="-1.47001">
        <ele>80</ele>
        <time>2022-03-14T12:08:40Z</time>
      </trkpt>
      <trkpt lat="47.19038" lon="-1.46985">
        <ele>79</ele>
        <time>2022-03-14T12:08:42Z</time>
      </trkpt>
      <trkpt lat="47.19045" lon="-1.46969">
        <ele>79</ele>
        <time>2022-03-14T12:08:44Z</time>
      </trkpt>
      <trkpt lat="47.19052" lon="-1.46954">
        <ele>79</ele>
        <time>2022-03-14T12:08:46Z</time>
      </trkpt>
      <trkpt lat="47.19059" lon="-1.4694">
        <ele>79</ele>
        <time>2022-03-14T12:08:48Z</time>
      </trkpt>
      <trkpt lat="47.19064" lon="-1.46926">
        <ele>78</ele>
        <time>2022-03-14T12:08:50Z</time>
      </trkpt>
      <trkpt lat="47.1907" lon="-1.46914">
        <ele>79</ele>
        <time>2022-03-14T12:08:52Z</time>
      </trkpt>
      <trkpt lat="47.19076" lon="-1.46902">
        <ele>79</ele>
        <time>2022-03-14T12:08:54Z</time>
      </trkpt>
      <trkpt lat="47.19082" lon="-1.46889">
        <ele>79</ele>
        <time>2022-03-14T12:08:56Z</time>
      </trkpt>
      <trkpt lat="47.19087" lon="-1.46876">
        <ele>79</ele>
        <time>2022-03-14T12:08:58Z</time>
      </trkpt>
      <trkpt lat="47.19093" lon="-1.46862">
        <ele>78</ele>
        <time>2022-03-14T12:09:00Z</time>
      </trkpt>
      <trkpt lat="47.191" lon="-1.46849">
        <ele>77</ele>
        <time>2022-03-14T12:09:02Z</time>
      </trkpt>
      <trkpt lat="47.19107" lon="-1.46836">
        <ele>77</ele>
        <time>2022-03-14T12:09:04Z</time>
      </trkpt>
      <trkpt lat="47.19114" lon="-1.46822">
        <ele>76</ele>
        <time>2022-03-14T12:09:06Z</time>
      </trkpt>
      <trkpt lat="47.1912" lon="-1.46809">
        <ele>75</ele>
        <time>2022-03-14T12:09:08Z</time>
      </trkpt>
      <trkpt lat="47.19127" lon="-1.46795">
        <ele>75</ele>
        <time>2022-03-14T12:09:10Z</time>
      </trkpt>
      <trkpt lat="47.19133" lon="-1.46781">
        <ele>75</ele>
        <time>2022-03-14T12:09:12Z</time>
      </trkpt>
      <trkpt lat="47.1914" lon="-1.46768">
        <ele>75</ele>
        <time>2022-03-14T12:09:14Z</time>
      </trkpt>
      <trkpt lat="47.19146" lon="-1.46755">
        <ele>75</ele>
        <time>2022-03-14T12:09:16Z</time>
      </trkpt>
      <trkpt lat="47.19152" lon="-1.46741">
        <ele>75</ele>
        <time>2022-03-14T12:09:18Z</time>
      </trkpt>
      <trkpt lat="47.19159" lon="-1.46728">
        <ele>76</ele>
        <time>2022-03-14T12:09:20Z</time>
      </trkpt>
      <trkpt lat="47.19165" lon="-1.46715">
        <ele>75</ele>
        <time>2022-03-14T12:09:22Z</time>
      </trkpt>
      <trkpt lat="47.19172" lon="-1.46701">
        <ele>75</ele>
        <time>2022-03-14T12:09:24Z</time>
      </trkpt>
      <trkpt lat="47.19178" lon="-1.46688">
        <ele>75</ele>
        <time>2022-03-14T12:09:26Z</time>
      </trkpt>
      <trkpt lat="47.19184" lon="-1.46674">
        <ele>75</ele>
        <time>2022-03-14T12:09:28Z</time>
      </trkpt>
      <trkpt lat="47.19191" lon="-1.46661">
        <ele>75</ele>
        <time>2022-03-14T12:09:30Z</time>
      </trkpt>
      <trkpt lat="47.19197" lon="-1.46647">
        <ele>75</ele>
        <time>2022-03-14T12:09:32Z</time>
      </trkpt>
      <trkpt lat="47.19204" lon="-1.46633">
        <ele>75</ele>
        <time>2022-03-14T12:09:34Z</time>
      </trkpt>
      <trkpt lat="47.1921" lon="-1.46619">
        <ele>75</ele>
        <time>2022-03-14T12:09:36Z</time>
      </trkpt>
      <trkpt lat="47.19217" lon="-1.46606">
        <ele>75</ele>
        <time>2022-03-14T12:09:38Z</time>
      </trkpt>
      <trkpt lat="47.19224" lon="-1.46592">
        <ele>75</ele>
        <time>2022-03-14T12:09:40Z</time>
      </trkpt>
      <trkpt lat="47.1923" lon="-1.46579">
        <ele>76</ele>
        <time>2022-03-14T12:09:42Z</time>
      </trkpt>
      <trkpt lat="47.19236" lon="-1.46566">
        <ele>75</ele>
        <time>2022-03-14T12:09:44Z</time>
      </trkpt>
      <trkpt lat="47.19242" lon="-1.46553">
        <ele>75</ele>
        <time>2022-03-14T12:09:46Z</time>
      </trkpt>
      <trkpt lat="47.19249" lon="-1.46539">
        <ele>74</ele>
        <time>2022-03-14T12:09:48Z</time>
      </trkpt>
      <trkpt lat="47.19255" lon="-1.46526">
        <ele>75</ele>
        <time>2022-03-14T12:09:50Z</time>
      </trkpt>
      <trkpt lat="47.19261" lon="-1.46512">
        <ele>75</ele>
        <time>2022-03-14T12:09:52Z</time>
      </trkpt>
      <trkpt lat="47.19267" lon="-1.465">
        <ele>75</ele>
        <time>2022-03-14T12:09:54Z</time>
      </trkpt>
      <trkpt lat="47.19274" lon="-1.46486">
        <ele>75</ele>
        <time>2022-03-14T12:09:56Z</time>
      </trkpt>
      <trkpt lat="47.1928" lon="-1.46473">
        <ele>75</ele>
        <time>2022-03-14T12:09:58Z</time>
      </trkpt>
      <trkpt lat="47.19287" lon="-1.46459">
        <ele>75</ele>
        <time>2022-03-14T12:10:00Z</time>
      </trkpt>
      <trkpt lat="47.19294" lon="-1.46445">
        <ele>74</ele>
        <time>2022-03-14T12:10:02Z</time>
      </trkpt>
      <trkpt lat="47.193" lon="-1.46431">
        <ele>74</ele>
        <time>2022-03-14T12:10:04Z</time>
      </trkpt>
      <trkpt lat="47.19306" lon="-1.46418">
        <ele>74</ele>
        <time>2022-03-14T12:10:06Z</time>
      </trkpt>
      <trkpt lat="47.19312" lon="-1.46404">
        <ele>74</ele>
        <time>2022-03-14T12:10:08Z</time>
      </trkpt>
      <trkpt lat="47.19319" lon="-1.4639">
        <ele>74</ele>
        <time>2022-03-14T12:10:10Z</time>
      </trkpt>
      <trkpt lat="47.19325" lon="-1.46377">
        <ele>74</ele>
        <time>2022-03-14T12:10:12Z</time>
      </trkpt>
      <trkpt lat="47.19331" lon="-1.46363">
        <ele>74</ele>
        <time>2022-03-14T12:10:14Z</time>
      </trkpt>
      <trkpt lat="47.19337" lon="-1.46348">
        <ele>74</ele>
        <time>2022-03-14T12:10:16Z</time>
      </trkpt>
      <trkpt lat="47.19343" lon="-1.46336">
        <ele>75</ele>
        <time>2022-03-14T12:10:18Z</time>
      </trkpt>
      <trkpt lat="47.19348" lon="-1.46325">
        <ele>74</ele>
        <time>2022-03-14T12:10:22Z</time>
      </trkpt>
      <trkpt lat="47.1935" lon="-1.46308">
        <ele>75</ele>
        <time>2022-03-14T12:10:27Z</time>
      </trkpt>
      <trkpt lat="47.19356" lon="-1.46294">
        <ele>75</ele>
        <time>2022-03-14T12:10:29Z</time>
      </trkpt>
      <trkpt lat="47.19368" lon="-1.46293">
        <ele>75</ele>
        <time>2022-03-14T12:10:31Z</time>
      </trkpt>
      <trkpt lat="47.1938" lon="-1.46303">
        <ele>74</ele>
        <time>2022-03-14T12:10:33Z</time>
      </trkpt>
      <trkpt lat="47.19391" lon="-1.46315">
        <ele>74</ele>
        <time>2022-03-14T12:10:35Z</time>
      </trkpt>
      <trkpt lat="47.19403" lon="-1.46323">
        <ele>73</ele>
        <time>2022-03-14T12:10:37Z</time>
      </trkpt>
      <trkpt lat="47.19414" lon="-1.46329">
        <ele>73</ele>
        <time>2022-03-14T12:10:39Z</time>
      </trkpt>
      <trkpt lat="47.19426" lon="-1.46335">
        <ele>73</ele>
        <time>2022-03-14T12:10:41Z</time>
      </trkpt>
      <trkpt lat="47.19438" lon="-1.4634">
        <ele>72</ele>
        <time>2022-03-14T12:10:43Z</time>
      </trkpt>
      <trkpt lat="47.19449" lon="-1.46345">
        <ele>72</ele>
        <time>2022-03-14T12:10:45Z</time>
      </trkpt>
      <trkpt lat="47.1946" lon="-1.4635">
        <ele>71</ele>
        <time>2022-03-14T12:10:47Z</time>
      </trkpt>
      <trkpt lat="47.19471" lon="-1.46356">
        <ele>71</ele>
        <time>2022-03-14T12:10:49Z</time>
      </trkpt>
      <trkpt lat="47.19482" lon="-1.46362">
        <ele>71</ele>
        <time>2022-03-14T12:10:51Z</time>
      </trkpt>
      <trkpt lat="47.19493" lon="-1.46367">
        <ele>71</ele>
        <time>2022-03-14T12:10:53Z</time>
      </trkpt>
      <trkpt lat="47.19505" lon="-1.46372">
        <ele>71</ele>
        <time>2022-03-14T12:10:55Z</time>
      </trkpt>
      <trkpt lat="47.19516" lon="-1.46377">
        <ele>71</ele>
        <time>2022-03-14T12:10:57Z</time>
      </trkpt>
      <trkpt lat="47.19527" lon="-1.46382">
        <ele>70</ele>
        <time>2022-03-14T12:10:59Z</time>
      </trkpt>
      <trkpt lat="47.19538" lon="-1.46388">
        <ele>71</ele>
        <time>2022-03-14T12:11:01Z</time>
      </trkpt>
      <trkpt lat="47.1955" lon="-1.46393">
        <ele>71</ele>
        <time>2022-03-14T12:11:03Z</time>
      </trkpt>
      <trkpt lat="47.19561" lon="-1.46399">
        <ele>71</ele>
        <time>2022-03-14T12:11:05Z</time>
      </trkpt>
      <trkpt lat="47.19571" lon="-1.46404">
        <ele>71</ele>
        <time>2022-03-14T12:11:07Z</time>
      </trkpt>
      <trkpt lat="47.19582" lon="-1.46409">
        <ele>71</ele>
        <time>2022-03-14T12:11:09Z</time>
      </trkpt>
      <trkpt lat="47.19593" lon="-1.46415">
        <ele>71</ele>
        <time>2022-03-14T12:11:11Z</time>
      </trkpt>
      <trkpt lat="47.19605" lon="-1.4642">
        <ele>71</ele>
        <time>2022-03-14T12:11:13Z</time>
      </trkpt>
      <trkpt lat="47.19618" lon="-1.46427">
        <ele>71</ele>
        <time>2022-03-14T12:11:15Z</time>
      </trkpt>
      <trkpt lat="47.19632" lon="-1.46434">
        <ele>72</ele>
        <time>2022-03-14T12:11:17Z</time>
      </trkpt>
      <trkpt lat="47.19645" lon="-1.46439">
        <ele>71</ele>
        <time>2022-03-14T12:11:19Z</time>
      </trkpt>
      <trkpt lat="47.19658" lon="-1.46446">
        <ele>71</ele>
        <time>2022-03-14T12:11:21Z</time>
      </trkpt>
      <trkpt lat="47.1967" lon="-1.46452">
        <ele>71</ele>
        <time>2022-03-14T12:11:23Z</time>
      </trkpt>
      <trkpt lat="47.19683" lon="-1.46459">
        <ele>71</ele>
        <time>2022-03-14T12:11:25Z</time>
      </trkpt>
      <trkpt lat="47.19696" lon="-1.46465">
        <ele>70</ele>
        <time>2022-03-14T12:11:27Z</time>
      </trkpt>
      <trkpt lat="47.19709" lon="-1.46471">
        <ele>70</ele>
        <time>2022-03-14T12:11:29Z</time>
      </trkpt>
      <trkpt lat="47.19721" lon="-1.46478">
        <ele>69</ele>
        <time>2022-03-14T12:11:31Z</time>
      </trkpt>
      <trkpt lat="47.19733" lon="-1.46483">
        <ele>69</ele>
        <time>2022-03-14T12:11:33Z</time>
      </trkpt>
      <trkpt lat="47.19746" lon="-1.46489">
        <ele>69</ele>
        <time>2022-03-14T12:11:35Z</time>
      </trkpt>
      <trkpt lat="47.19759" lon="-1.46494">
        <ele>69</ele>
        <time>2022-03-14T12:11:37Z</time>
      </trkpt>
      <trkpt lat="47.19772" lon="-1.465">
        <ele>68</ele>
        <time>2022-03-14T12:11:39Z</time>
      </trkpt>
      <trkpt lat="47.19785" lon="-1.46506">
        <ele>67</ele>
        <time>2022-03-14T12:11:41Z</time>
      </trkpt>
      <trkpt lat="47.19798" lon="-1.46512">
        <ele>67</ele>
        <time>2022-03-14T12:11:43Z</time>
      </trkpt>
      <trkpt lat="47.1981" lon="-1.46519">
        <ele>67</ele>
        <time>2022-03-14T12:11:45Z</time>
      </trkpt>
      <trkpt lat="47.19823" lon="-1.46525">
        <ele>67</ele>
        <time>2022-03-14T12:11:47Z</time>
      </trkpt>
      <trkpt lat="47.19835" lon="-1.46531">
        <ele>66</ele>
        <time>2022-03-14T12:11:49Z</time>
      </trkpt>
      <trkpt lat="47.19848" lon="-1.46537">
        <ele>66</ele>
        <time>2022-03-14T12:11:51Z</time>
      </trkpt>
      <trkpt lat="47.1986" lon="-1.46543">
        <ele>65</ele>
        <time>2022-03-14T12:11:53Z</time>
      </trkpt>
      <trkpt lat="47.19873" lon="-1.46549">
        <ele>65</ele>
        <time>2022-03-14T12:11:55Z</time>
      </trkpt>
      <trkpt lat="47.19886" lon="-1.46554">
        <ele>65</ele>
        <time>2022-03-14T12:11:57Z</time>
      </trkpt>
      <trkpt lat="47.19899" lon="-1.4656">
        <ele>65</ele>
        <time>2022-03-14T12:11:59Z</time>
      </trkpt>
      <trkpt lat="47.19912" lon="-1.46566">
        <ele>65</ele>
        <time>2022-03-14T12:12:01Z</time>
      </trkpt>
      <trkpt lat="47.19925" lon="-1.46573">
        <ele>65</ele>
        <time>2022-03-14T12:12:03Z</time>
      </trkpt>
      <trkpt lat="47.19939" lon="-1.46579">
        <ele>65</ele>
        <time>2022-03-14T12:12:05Z</time>
      </trkpt>
      <trkpt lat="47.19951" lon="-1.46584">
        <ele>64</ele>
        <time>2022-03-14T12:12:07Z</time>
      </trkpt>
      <trkpt lat="47.19964" lon="-1.46588">
        <ele>64</ele>
        <time>2022-03-14T12:12:09Z</time>
      </trkpt>
      <trkpt lat="47.19976" lon="-1.46594">
        <ele>64</ele>
        <time>2022-03-14T12:12:11Z</time>
      </trkpt>
      <trkpt lat="47.19988" lon="-1.46599">
        <ele>63</ele>
        <time>2022-03-14T12:12:13Z</time>
      </trkpt>
      <trkpt lat="47.19999" lon="-1.46603">
        <ele>63</ele>
        <time>2022-03-14T12:12:15Z</time>
      </trkpt>
      <trkpt lat="47.20011" lon="-1.46607">
        <ele>64</ele>
        <time>2022-03-14T12:12:17Z</time>
      </trkpt>
      <trkpt lat="47.20022" lon="-1.46612">
        <ele>64</ele>
        <time>2022-03-14T12:12:19Z</time>
      </trkpt>
      <trkpt lat="47.20033" lon="-1.46615">
        <ele>65</ele>
        <time>2022-03-14T12:12:21Z</time>
      </trkpt>
      <trkpt lat="47.20044" lon="-1.4662">
        <ele>65</ele>
        <time>2022-03-14T12:12:23Z</time>
      </trkpt>
      <trkpt lat="47.20054" lon="-1.46626">
        <ele>65</ele>
        <time>2022-03-14T12:12:25Z</time>
      </trkpt>
      <trkpt lat="47.20065" lon="-1.4663">
        <ele>66</ele>
        <time>2022-03-14T12:12:27Z</time>
      </trkpt>
      <trkpt lat="47.20075" lon="-1.46636">
        <ele>66</ele>
        <time>2022-03-14T12:12:29Z</time>
      </trkpt>
      <trkpt lat="47.20086" lon="-1.46643">
        <ele>65</ele>
        <time>2022-03-14T12:12:31Z</time>
      </trkpt>
      <trkpt lat="47.20096" lon="-1.46651">
        <ele>66</ele>
        <time>2022-03-14T12:12:33Z</time>
      </trkpt>
      <trkpt lat="47.20107" lon="-1.4666">
        <ele>66</ele>
        <time>2022-03-14T12:12:35Z</time>
      </trkpt>
      <trkpt lat="47.20121" lon="-1.46668">
        <ele>66</ele>
        <time>2022-03-14T12:12:37Z</time>
      </trkpt>
      <trkpt lat="47.20134" lon="-1.46673">
        <ele>66</ele>
        <time>2022-03-14T12:12:39Z</time>
      </trkpt>
      <trkpt lat="47.20147" lon="-1.46675">
        <ele>67</ele>
        <time>2022-03-14T12:12:41Z</time>
      </trkpt>
      <trkpt lat="47.20159" lon="-1.46677">
        <ele>67</ele>
        <time>2022-03-14T12:12:43Z</time>
      </trkpt>
      <trkpt lat="47.20173" lon="-1.46678">
        <ele>66</ele>
        <time>2022-03-14T12:12:45Z</time>
      </trkpt>
      <trkpt lat="47.20187" lon="-1.46683">
        <ele>65</ele>
        <time>2022-03-14T12:12:47Z</time>
      </trkpt>
      <trkpt lat="47.20201" lon="-1.46686">
        <ele>65</ele>
        <time>2022-03-14T12:12:49Z</time>
      </trkpt>
      <trkpt lat="47.20213" lon="-1.46689">
        <ele>64</ele>
        <time>2022-03-14T12:12:51Z</time>
      </trkpt>
      <trkpt lat="47.20226" lon="-1.4669">
        <ele>63</ele>
        <time>2022-03-14T12:12:53Z</time>
      </trkpt>
      <trkpt lat="47.20239" lon="-1.46694">
        <ele>62</ele>
        <time>2022-03-14T12:12:55Z</time>
      </trkpt>
      <trkpt lat="47.20251" lon="-1.46698">
        <ele>62</ele>
        <time>2022-03-14T12:12:57Z</time>
      </trkpt>
      <trkpt lat="47.20264" lon="-1.46699">
        <ele>61</ele>
        <time>2022-03-14T12:12:59Z</time>
      </trkpt>
      <trkpt lat="47.20277" lon="-1.46701">
        <ele>62</ele>
        <time>2022-03-14T12:13:01Z</time>
      </trkpt>
      <trkpt lat="47.20291" lon="-1.46702">
        <ele>62</ele>
        <time>2022-03-14T12:13:03Z</time>
      </trkpt>
      <trkpt lat="47.20303" lon="-1.46704">
        <ele>62</ele>
        <time>2022-03-14T12:13:05Z</time>
      </trkpt>
      <trkpt lat="47.20316" lon="-1.46706">
        <ele>62</ele>
        <time>2022-03-14T12:13:07Z</time>
      </trkpt>
      <trkpt lat="47.20329" lon="-1.46708">
        <ele>62</ele>
        <time>2022-03-14T12:13:09Z</time>
      </trkpt>
      <trkpt lat="47.20341" lon="-1.46711">
        <ele>62</ele>
        <time>2022-03-14T12:13:11Z</time>
      </trkpt>
      <trkpt lat="47.20353" lon="-1.46713">
        <ele>62</ele>
        <time>2022-03-14T12:13:13Z</time>
      </trkpt>
      <trkpt lat="47.20365" lon="-1.46714">
        <ele>62</ele>
        <time>2022-03-14T12:13:15Z</time>
      </trkpt>
      <trkpt lat="47.20376" lon="-1.46717">
        <ele>63</ele>
        <time>2022-03-14T12:13:17Z</time>
      </trkpt>
      <trkpt lat="47.20389" lon="-1.46718">
        <ele>63</ele>
        <time>2022-03-14T12:13:19Z</time>
      </trkpt>
      <trkpt lat="47.20401" lon="-1.46719">
        <ele>63</ele>
        <time>2022-03-14T12:13:21Z</time>
      </trkpt>
      <trkpt lat="47.20413" lon="-1.4672">
        <ele>63</ele>
        <time>2022-03-14T12:13:23Z</time>
      </trkpt>
      <trkpt lat="47.20425" lon="-1.46722">
        <ele>64</ele>
        <time>2022-03-14T12:13:25Z</time>
      </trkpt>
      <trkpt lat="47.20436" lon="-1.46724">
        <ele>63</ele>
        <time>2022-03-14T12:13:27Z</time>
      </trkpt>
      <trkpt lat="47.20448" lon="-1.46726">
        <ele>62</ele>
        <time>2022-03-14T12:13:29Z</time>
      </trkpt>
      <trkpt lat="47.20459" lon="-1.46728">
        <ele>62</ele>
        <time>2022-03-14T12:13:31Z</time>
      </trkpt>
      <trkpt lat="47.2047" lon="-1.46731">
        <ele>62</ele>
        <time>2022-03-14T12:13:33Z</time>
      </trkpt>
      <trkpt lat="47.20482" lon="-1.46732">
        <ele>62</ele>
        <time>2022-03-14T12:13:35Z</time>
      </trkpt>
      <trkpt lat="47.20501" lon="-1.46736">
        <ele>62</ele>
        <time>2022-03-14T12:13:38Z</time>
      </trkpt>
      <trkpt lat="47.20514" lon="-1.46737">
        <ele>63</ele>
        <time>2022-03-14T12:13:40Z</time>
      </trkpt>
      <trkpt lat="47.20526" lon="-1.46738">
        <ele>63</ele>
        <time>2022-03-14T12:13:42Z</time>
      </trkpt>
      <trkpt lat="47.20539" lon="-1.46739">
        <ele>64</ele>
        <time>2022-03-14T12:13:44Z</time>
      </trkpt>
      <trkpt lat="47.20551" lon="-1.46739">
        <ele>64</ele>
        <time>2022-03-14T12:13:46Z</time>
      </trkpt>
      <trkpt lat="47.20564" lon="-1.46738">
        <ele>65</ele>
        <time>2022-03-14T12:13:48Z</time>
      </trkpt>
      <trkpt lat="47.20576" lon="-1.46736">
        <ele>65</ele>
        <time>2022-03-14T12:13:50Z</time>
      </trkpt>
      <trkpt lat="47.20587" lon="-1.46734">
        <ele>65</ele>
        <time>2022-03-14T12:13:52Z</time>
      </trkpt>
      <trkpt lat="47.206" lon="-1.46732">
        <ele>65</ele>
        <time>2022-03-14T12:13:54Z</time>
      </trkpt>
      <trkpt lat="47.20612" lon="-1.46729">
        <ele>64</ele>
        <time>2022-03-14T12:13:56Z</time>
      </trkpt>
      <trkpt lat="47.20624" lon="-1.46726">
        <ele>65</ele>
        <time>2022-03-14T12:13:58Z</time>
      </trkpt>
      <trkpt lat="47.20636" lon="-1.46724">
        <ele>65</ele>
        <time>2022-03-14T12:14:00Z</time>
      </trkpt>
      <trkpt lat="47.20648" lon="-1.46723">
        <ele>64</ele>
        <time>2022-03-14T12:14:02Z</time>
      </trkpt>
      <trkpt lat="47.2066" lon="-1.4672">
        <ele>64</ele>
        <time>2022-03-14T12:14:04Z</time>
      </trkpt>
      <trkpt lat="47.20671" lon="-1.46717">
        <ele>64</ele>
        <time>2022-03-14T12:14:06Z</time>
      </trkpt>
      <trkpt lat="47.20683" lon="-1.46715">
        <ele>65</ele>
        <time>2022-03-14T12:14:08Z</time>
      </trkpt>
      <trkpt lat="47.20695" lon="-1.46713">
        <ele>66</ele>
        <time>2022-03-14T12:14:10Z</time>
      </trkpt>
      <trkpt lat="47.20706" lon="-1.46711">
        <ele>66</ele>
        <time>2022-03-14T12:14:12Z</time>
      </trkpt>
      <trkpt lat="47.20719" lon="-1.46709">
        <ele>66</ele>
        <time>2022-03-14T12:14:14Z</time>
      </trkpt>
      <trkpt lat="47.20732" lon="-1.46708">
        <ele>66</ele>
        <time>2022-03-14T12:14:16Z</time>
      </trkpt>
      <trkpt lat="47.20745" lon="-1.46705">
        <ele>66</ele>
        <time>2022-03-14T12:14:18Z</time>
      </trkpt>
      <trkpt lat="47.20757" lon="-1.46703">
        <ele>66</ele>
        <time>2022-03-14T12:14:20Z</time>
      </trkpt>
      <trkpt lat="47.20769" lon="-1.46701">
        <ele>67</ele>
        <time>2022-03-14T12:14:22Z</time>
      </trkpt>
      <trkpt lat="47.20781" lon="-1.46699">
        <ele>66</ele>
        <time>2022-03-14T12:14:24Z</time>
      </trkpt>
      <trkpt lat="47.20794" lon="-1.46698">
        <ele>67</ele>
        <time>2022-03-14T12:14:26Z</time>
      </trkpt>
      <trkpt lat="47.20806" lon="-1.46697">
        <ele>66</ele>
        <time>2022-03-14T12:14:28Z</time>
      </trkpt>
      <trkpt lat="47.20818" lon="-1.46696">
        <ele>66</ele>
        <time>2022-03-14T12:14:30Z</time>
      </trkpt>
      <trkpt lat="47.2083" lon="-1.46694">
        <ele>66</ele>
        <time>2022-03-14T12:14:32Z</time>
      </trkpt>
      <trkpt lat="47.20842" lon="-1.4669">
        <ele>65</ele>
        <time>2022-03-14T12:14:34Z</time>
      </trkpt>
      <trkpt lat="47.20854" lon="-1.46685">
        <ele>65</ele>
        <time>2022-03-14T12:14:36Z</time>
      </trkpt>
      <trkpt lat="47.20867" lon="-1.46683">
        <ele>65</ele>
        <time>2022-03-14T12:14:38Z</time>
      </trkpt>
      <trkpt lat="47.20879" lon="-1.46681">
        <ele>65</ele>
        <time>2022-03-14T12:14:40Z</time>
      </trkpt>
      <trkpt lat="47.20892" lon="-1.46673">
        <ele>65</ele>
        <time>2022-03-14T12:14:42Z</time>
      </trkpt>
      <trkpt lat="47.20904" lon="-1.46667">
        <ele>64</ele>
        <time>2022-03-14T12:14:44Z</time>
      </trkpt>
      <trkpt lat="47.20915" lon="-1.4666">
        <ele>64</ele>
        <time>2022-03-14T12:14:46Z</time>
      </trkpt>
      <trkpt lat="47.20926" lon="-1.46653">
        <ele>64</ele>
        <time>2022-03-14T12:14:48Z</time>
      </trkpt>
      <trkpt lat="47.20937" lon="-1.46646">
        <ele>65</ele>
        <time>2022-03-14T12:14:50Z</time>
      </trkpt>
      <trkpt lat="47.20948" lon="-1.46638">
        <ele>65</ele>
        <time>2022-03-14T12:14:52Z</time>
      </trkpt>
      <trkpt lat="47.2096" lon="-1.46631">
        <ele>64</ele>
        <time>2022-03-14T12:14:54Z</time>
      </trkpt>
      <trkpt lat="47.20971" lon="-1.46626">
        <ele>64</ele>
        <time>2022-03-14T12:14:56Z</time>
      </trkpt>
      <trkpt lat="47.20984" lon="-1.46623">
        <ele>64</ele>
        <time>2022-03-14T12:14:58Z</time>
      </trkpt>
      <trkpt lat="47.20996" lon="-1.4662">
        <ele>64</ele>
        <time>2022-03-14T12:15:00Z</time>
      </trkpt>
      <trkpt lat="47.21007" lon="-1.46618">
        <ele>64</ele>
        <time>2022-03-14T12:15:02Z</time>
      </trkpt>
      <trkpt lat="47.21019" lon="-1.46614">
        <ele>64</ele>
        <time>2022-03-14T12:15:04Z</time>
      </trkpt>
      <trkpt lat="47.21032" lon="-1.4661">
        <ele>64</ele>
        <time>2022-03-14T12:15:06Z</time>
      </trkpt>
      <trkpt lat="47.21043" lon="-1.46605">
        <ele>64</ele>
        <time>2022-03-14T12:15:08Z</time>
      </trkpt>
      <trkpt lat="47.21053" lon="-1.46596">
        <ele>64</ele>
        <time>2022-03-14T12:15:10Z</time>
      </trkpt>
      <trkpt lat="47.21057" lon="-1.4658">
        <ele>64</ele>
        <time>2022-03-14T12:15:12Z</time>
      </trkpt>
      <trkpt lat="47.21063" lon="-1.46564">
        <ele>64</ele>
        <time>2022-03-14T12:15:14Z</time>
      </trkpt>
      <trkpt lat="47.2107" lon="-1.4655">
        <ele>63</ele>
        <time>2022-03-14T12:15:16Z</time>
      </trkpt>
      <trkpt lat="47.21079" lon="-1.46539">
        <ele>64</ele>
        <time>2022-03-14T12:15:18Z</time>
      </trkpt>
      <trkpt lat="47.2109" lon="-1.46536">
        <ele>63</ele>
        <time>2022-03-14T12:15:20Z</time>
      </trkpt>
      <trkpt lat="47.21102" lon="-1.46543">
        <ele>63</ele>
        <time>2022-03-14T12:15:22Z</time>
      </trkpt>
      <trkpt lat="47.21112" lon="-1.46556">
        <ele>62</ele>
        <time>2022-03-14T12:15:24Z</time>
      </trkpt>
      <trkpt lat="47.21121" lon="-1.46566">
        <ele>62</ele>
        <time>2022-03-14T12:15:26Z</time>
      </trkpt>
      <trkpt lat="47.2113" lon="-1.46578">
        <ele>62</ele>
        <time>2022-03-14T12:15:28Z</time>
      </trkpt>
      <trkpt lat="47.21139" lon="-1.4659">
        <ele>62</ele>
        <time>2022-03-14T12:15:30Z</time>
      </trkpt>
      <trkpt lat="47.2115" lon="-1.46594">
        <ele>62</ele>
        <time>2022-03-14T12:15:32Z</time>
      </trkpt>
      <trkpt lat="47.21163" lon="-1.46598">
        <ele>62</ele>
        <time>2022-03-14T12:15:34Z</time>
      </trkpt>
      <trkpt lat="47.21174" lon="-1.46604">
        <ele>61</ele>
        <time>2022-03-14T12:15:36Z</time>
      </trkpt>
      <trkpt lat="47.21187" lon="-1.4661">
        <ele>62</ele>
        <time>2022-03-14T12:15:38Z</time>
      </trkpt>
      <trkpt lat="47.21198" lon="-1.46617">
        <ele>62</ele>
        <time>2022-03-14T12:15:40Z</time>
      </trkpt>
      <trkpt lat="47.2121" lon="-1.46623">
        <ele>63</ele>
        <time>2022-03-14T12:15:42Z</time>
      </trkpt>
      <trkpt lat="47.21222" lon="-1.46627">
        <ele>63</ele>
        <time>2022-03-14T12:15:44Z</time>
      </trkpt>
      <trkpt lat="47.21235" lon="-1.46629">
        <ele>62</ele>
        <time>2022-03-14T12:15:46Z</time>
      </trkpt>
      <trkpt lat="47.21248" lon="-1.46631">
        <ele>62</ele>
        <time>2022-03-14T12:15:48Z</time>
      </trkpt>
      <trkpt lat="47.2126" lon="-1.46634">
        <ele>62</ele>
        <time>2022-03-14T12:15:50Z</time>
      </trkpt>
      <trkpt lat="47.21272" lon="-1.46636">
        <ele>62</ele>
        <time>2022-03-14T12:15:52Z</time>
      </trkpt>
      <trkpt lat="47.21282" lon="-1.46636">
        <ele>62</ele>
        <time>2022-03-14T12:15:54Z</time>
      </trkpt>
      <trkpt lat="47.21292" lon="-1.46638">
        <ele>63</ele>
        <time>2022-03-14T12:15:56Z</time>
      </trkpt>
      <trkpt lat="47.21304" lon="-1.46637">
        <ele>63</ele>
        <time>2022-03-14T12:15:58Z</time>
      </trkpt>
      <trkpt lat="47.21315" lon="-1.46637">
        <ele>62</ele>
        <time>2022-03-14T12:16:00Z</time>
      </trkpt>
      <trkpt lat="47.21327" lon="-1.46638">
        <ele>62</ele>
        <time>2022-03-14T12:16:02Z</time>
      </trkpt>
      <trkpt lat="47.21339" lon="-1.46638">
        <ele>62</ele>
        <time>2022-03-14T12:16:04Z</time>
      </trkpt>
      <trkpt lat="47.2135" lon="-1.46639">
        <ele>62</ele>
        <time>2022-03-14T12:16:06Z</time>
      </trkpt>
      <trkpt lat="47.21361" lon="-1.46639">
        <ele>62</ele>
        <time>2022-03-14T12:16:08Z</time>
      </trkpt>
      <trkpt lat="47.21373" lon="-1.4664">
        <ele>61</ele>
        <time>2022-03-14T12:16:10Z</time>
      </trkpt>
      <trkpt lat="47.21386" lon="-1.4664">
        <ele>61</ele>
        <time>2022-03-14T12:16:12Z</time>
      </trkpt>
      <trkpt lat="47.21398" lon="-1.46641">
        <ele>61</ele>
        <time>2022-03-14T12:16:14Z</time>
      </trkpt>
      <trkpt lat="47.2141" lon="-1.46641">
        <ele>61</ele>
        <time>2022-03-14T12:16:16Z</time>
      </trkpt>
      <trkpt lat="47.21423" lon="-1.46642">
        <ele>62</ele>
        <time>2022-03-14T12:16:18Z</time>
      </trkpt>
      <trkpt lat="47.21436" lon="-1.4664">
        <ele>62</ele>
        <time>2022-03-14T12:16:20Z</time>
      </trkpt>
      <trkpt lat="47.21449" lon="-1.46635">
        <ele>62</ele>
        <time>2022-03-14T12:16:22Z</time>
      </trkpt>
      <trkpt lat="47.21463" lon="-1.46628">
        <ele>62</ele>
        <time>2022-03-14T12:16:24Z</time>
      </trkpt>
      <trkpt lat="47.21476" lon="-1.46618">
        <ele>61</ele>
        <time>2022-03-14T12:16:26Z</time>
      </trkpt>
      <trkpt lat="47.21489" lon="-1.46606">
        <ele>59</ele>
        <time>2022-03-14T12:16:28Z</time>
      </trkpt>
      <trkpt lat="47.21502" lon="-1.46594">
        <ele>59</ele>
        <time>2022-03-14T12:16:30Z</time>
      </trkpt>
      <trkpt lat="47.21512" lon="-1.46579">
        <ele>59</ele>
        <time>2022-03-14T12:16:32Z</time>
      </trkpt>
      <trkpt lat="47.21522" lon="-1.46563">
        <ele>57</ele>
        <time>2022-03-14T12:16:34Z</time>
      </trkpt>
      <trkpt lat="47.21534" lon="-1.46551">
        <ele>57</ele>
        <time>2022-03-14T12:16:36Z</time>
      </trkpt>
      <trkpt lat="47.21547" lon="-1.46543">
        <ele>56</ele>
        <time>2022-03-14T12:16:38Z</time>
      </trkpt>
      <trkpt lat="47.2156" lon="-1.46539">
        <ele>56</ele>
        <time>2022-03-14T12:16:40Z</time>
      </trkpt>
      <trkpt lat="47.21575" lon="-1.46537">
        <ele>55</ele>
        <time>2022-03-14T12:16:42Z</time>
      </trkpt>
      <trkpt lat="47.2159" lon="-1.46536">
        <ele>55</ele>
        <time>2022-03-14T12:16:44Z</time>
      </trkpt>
      <trkpt lat="47.21605" lon="-1.46536">
        <ele>55</ele>
        <time>2022-03-14T12:16:46Z</time>
      </trkpt>
      <trkpt lat="47.2162" lon="-1.46535">
        <ele>54</ele>
        <time>2022-03-14T12:16:48Z</time>
      </trkpt>
      <trkpt lat="47.21634" lon="-1.46535">
        <ele>53</ele>
        <time>2022-03-14T12:16:50Z</time>
      </trkpt>
      <trkpt lat="47.21644" lon="-1.4653">
        <ele>52</ele>
        <time>2022-03-14T12:16:52Z</time>
      </trkpt>
      <trkpt lat="47.21646" lon="-1.46514">
        <ele>53</ele>
        <time>2022-03-14T12:16:54Z</time>
      </trkpt>
      <trkpt lat="47.21646" lon="-1.46497">
        <ele>53</ele>
        <time>2022-03-14T12:16:56Z</time>
      </trkpt>
      <trkpt lat="47.21647" lon="-1.46481">
        <ele>53</ele>
        <time>2022-03-14T12:16:58Z</time>
      </trkpt>
      <trkpt lat="47.21651" lon="-1.46465">
        <ele>52</ele>
        <time>2022-03-14T12:17:00Z</time>
      </trkpt>
      <trkpt lat="47.21656" lon="-1.46448">
        <ele>53</ele>
        <time>2022-03-14T12:17:02Z</time>
      </trkpt>
      <trkpt lat="47.21657" lon="-1.46431">
        <ele>53</ele>
        <time>2022-03-14T12:17:04Z</time>
      </trkpt>
      <trkpt lat="47.21658" lon="-1.46413">
        <ele>53</ele>
        <time>2022-03-14T12:17:06Z</time>
      </trkpt>
      <trkpt lat="47.2166" lon="-1.46395">
        <ele>53</ele>
        <time>2022-03-14T12:17:08Z</time>
      </trkpt>
      <trkpt lat="47.21661" lon="-1.46378">
        <ele>53</ele>
        <time>2022-03-14T12:17:10Z</time>
      </trkpt>
      <trkpt lat="47.21662" lon="-1.46361">
        <ele>53</ele>
        <time>2022-03-14T12:17:12Z</time>
      </trkpt>
      <trkpt lat="47.21664" lon="-1.46344">
        <ele>53</ele>
        <time>2022-03-14T12:17:14Z</time>
      </trkpt>
      <trkpt lat="47.21665" lon="-1.46328">
        <ele>52</ele>
        <time>2022-03-14T12:17:16Z</time>
      </trkpt>
      <trkpt lat="47.21666" lon="-1.46312">
        <ele>52</ele>
        <time>2022-03-14T12:17:18Z</time>
      </trkpt>
      <trkpt lat="47.21667" lon="-1.46297">
        <ele>52</ele>
        <time>2022-03-14T12:17:20Z</time>
      </trkpt>
      <trkpt lat="47.21668" lon="-1.46281">
        <ele>52</ele>
        <time>2022-03-14T12:17:22Z</time>
      </trkpt>
      <trkpt lat="47.21669" lon="-1.46265">
        <ele>52</ele>
        <time>2022-03-14T12:17:24Z</time>
      </trkpt>
      <trkpt lat="47.2167" lon="-1.46248">
        <ele>52</ele>
        <time>2022-03-14T12:17:27Z</time>
      </trkpt>
      <trkpt lat="47.21668" lon="-1.46229">
        <ele>54</ele>
        <time>2022-03-14T12:17:30Z</time>
      </trkpt>
      <trkpt lat="47.21666" lon="-1.46213">
        <ele>54</ele>
        <time>2022-03-14T12:17:32Z</time>
      </trkpt>
      <trkpt lat="47.21667" lon="-1.46197">
        <ele>54</ele>
        <time>2022-03-14T12:17:34Z</time>
      </trkpt>
      <trkpt lat="47.21675" lon="-1.4619">
        <ele>53</ele>
        <time>2022-03-14T12:17:36Z</time>
      </trkpt>
      <trkpt lat="47.21685" lon="-1.46185">
        <ele>51</ele>
        <time>2022-03-14T12:17:38Z</time>
      </trkpt>
      <trkpt lat="47.21691" lon="-1.46174">
        <ele>51</ele>
        <time>2022-03-14T12:17:40Z</time>
      </trkpt>
      <trkpt lat="47.21696" lon="-1.46159">
        <ele>51</ele>
        <time>2022-03-14T12:17:42Z</time>
      </trkpt>
      <trkpt lat="47.21702" lon="-1.46143">
        <ele>51</ele>
        <time>2022-03-14T12:17:44Z</time>
      </trkpt>
      <trkpt lat="47.21707" lon="-1.46128">
        <ele>51</ele>
        <time>2022-03-14T12:17:46Z</time>
      </trkpt>
      <trkpt lat="47.21712" lon="-1.46112">
        <ele>50</ele>
        <time>2022-03-14T12:17:48Z</time>
      </trkpt>
      <trkpt lat="47.21716" lon="-1.46097">
        <ele>50</ele>
        <time>2022-03-14T12:17:50Z</time>
      </trkpt>
      <trkpt lat="47.21721" lon="-1.46081">
        <ele>49</ele>
        <time>2022-03-14T12:17:52Z</time>
      </trkpt>
      <trkpt lat="47.21725" lon="-1.46066">
        <ele>49</ele>
        <time>2022-03-14T12:17:54Z</time>
      </trkpt>
      <trkpt lat="47.21729" lon="-1.46051">
        <ele>49</ele>
        <time>2022-03-14T12:17:56Z</time>
      </trkpt>
      <trkpt lat="47.21733" lon="-1.46035">
        <ele>49</ele>
        <time>2022-03-14T12:17:58Z</time>
      </trkpt>
      <trkpt lat="47.21735" lon="-1.46019">
        <ele>49</ele>
        <time>2022-03-14T12:18:00Z</time>
      </trkpt>
      <trkpt lat="47.21738" lon="-1.46003">
        <ele>49</ele>
        <time>2022-03-14T12:18:02Z</time>
      </trkpt>
      <trkpt lat="47.2174" lon="-1.45987">
        <ele>49</ele>
        <time>2022-03-14T12:18:04Z</time>
      </trkpt>
      <trkpt lat="47.21741" lon="-1.4597">
        <ele>49</ele>
        <time>2022-03-14T12:18:06Z</time>
      </trkpt>
      <trkpt lat="47.21742" lon="-1.45954">
        <ele>49</ele>
        <time>2022-03-14T12:18:08Z</time>
      </trkpt>
      <trkpt lat="47.21743" lon="-1.45938">
        <ele>49</ele>
        <time>2022-03-14T12:18:10Z</time>
      </trkpt>
      <trkpt lat="47.21744" lon="-1.45922">
        <ele>48</ele>
        <time>2022-03-14T12:18:12Z</time>
      </trkpt>
      <trkpt lat="47.21745" lon="-1.45905">
        <ele>48</ele>
        <time>2022-03-14T12:18:14Z</time>
      </trkpt>
      <trkpt lat="47.21747" lon="-1.45889">
        <ele>49</ele>
        <time>2022-03-14T12:18:16Z</time>
      </trkpt>
      <trkpt lat="47.21748" lon="-1.45873">
        <ele>49</ele>
        <time>2022-03-14T12:18:18Z</time>
      </trkpt>
      <trkpt lat="47.21749" lon="-1.45858">
        <ele>49</ele>
        <time>2022-03-14T12:18:20Z</time>
      </trkpt>
      <trkpt lat="47.21751" lon="-1.45841">
        <ele>49</ele>
        <time>2022-03-14T12:18:22Z</time>
      </trkpt>
      <trkpt lat="47.21751" lon="-1.45825">
        <ele>48</ele>
        <time>2022-03-14T12:18:24Z</time>
      </trkpt>
      <trkpt lat="47.21752" lon="-1.45809">
        <ele>48</ele>
        <time>2022-03-14T12:18:26Z</time>
      </trkpt>
      <trkpt lat="47.21753" lon="-1.45794">
        <ele>48</ele>
        <time>2022-03-14T12:18:28Z</time>
      </trkpt>
      <trkpt lat="47.21754" lon="-1.45778">
        <ele>47</ele>
        <time>2022-03-14T12:18:30Z</time>
      </trkpt>
      <trkpt lat="47.21754" lon="-1.45765">
        <ele>47</ele>
        <time>2022-03-14T12:18:32Z</time>
      </trkpt>
      <trkpt lat="47.21754" lon="-1.45748">
        <ele>47</ele>
        <time>2022-03-14T12:18:35Z</time>
      </trkpt>
      <trkpt lat="47.21756" lon="-1.45735">
        <ele>48</ele>
        <time>2022-03-14T12:18:37Z</time>
      </trkpt>
      <trkpt lat="47.2176" lon="-1.45722">
        <ele>48</ele>
        <time>2022-03-14T12:18:39Z</time>
      </trkpt>
      <trkpt lat="47.21766" lon="-1.4571">
        <ele>48</ele>
        <time>2022-03-14T12:18:41Z</time>
      </trkpt>
      <trkpt lat="47.21772" lon="-1.45697">
        <ele>48</ele>
        <time>2022-03-14T12:18:43Z</time>
      </trkpt>
      <trkpt lat="47.21779" lon="-1.45685">
        <ele>48</ele>
        <time>2022-03-14T12:18:45Z</time>
      </trkpt>
      <trkpt lat="47.21786" lon="-1.45674">
        <ele>48</ele>
        <time>2022-03-14T12:18:47Z</time>
      </trkpt>
      <trkpt lat="47.21792" lon="-1.45663">
        <ele>49</ele>
        <time>2022-03-14T12:18:49Z</time>
      </trkpt>
      <trkpt lat="47.21798" lon="-1.45652">
        <ele>50</ele>
        <time>2022-03-14T12:18:51Z</time>
      </trkpt>
      <trkpt lat="47.21803" lon="-1.4564">
        <ele>50</ele>
        <time>2022-03-14T12:18:53Z</time>
      </trkpt>
      <trkpt lat="47.21808" lon="-1.45629">
        <ele>51</ele>
        <time>2022-03-14T12:18:55Z</time>
      </trkpt>
      <trkpt lat="47.21815" lon="-1.45618">
        <ele>50</ele>
        <time>2022-03-14T12:18:57Z</time>
      </trkpt>
      <trkpt lat="47.21821" lon="-1.45607">
        <ele>51</ele>
        <time>2022-03-14T12:18:59Z</time>
      </trkpt>
      <trkpt lat="47.21827" lon="-1.45595">
        <ele>51</ele>
        <time>2022-03-14T12:19:01Z</time>
      </trkpt>
      <trkpt lat="47.21833" lon="-1.45584">
        <ele>51</ele>
        <time>2022-03-14T12:19:03Z</time>
      </trkpt>
      <trkpt lat="47.21839" lon="-1.45572">
        <ele>51</ele>
        <time>2022-03-14T12:19:05Z</time>
      </trkpt>
      <trkpt lat="47.21845" lon="-1.4556">
        <ele>51</ele>
        <time>2022-03-14T12:19:07Z</time>
      </trkpt>
      <trkpt lat="47.21851" lon="-1.45549">
        <ele>51</ele>
        <time>2022-03-14T12:19:09Z</time>
      </trkpt>
      <trkpt lat="47.21857" lon="-1.45538">
        <ele>52</ele>
        <time>2022-03-14T12:19:11Z</time>
      </trkpt>
      <trkpt lat="47.21865" lon="-1.45523">
        <ele>52</ele>
        <time>2022-03-14T12:19:14Z</time>
      </trkpt>
      <trkpt lat="47.21871" lon="-1.45513">
        <ele>52</ele>
        <time>2022-03-14T12:19:16Z</time>
      </trkpt>
      <trkpt lat="47.21876" lon="-1.45502">
        <ele>54</ele>
        <time>2022-03-14T12:19:18Z</time>
      </trkpt>
      <trkpt lat="47.21882" lon="-1.45491">
        <ele>55</ele>
        <time>2022-03-14T12:19:20Z</time>
      </trkpt>
      <trkpt lat="47.21887" lon="-1.4548">
        <ele>55</ele>
        <time>2022-03-14T12:19:22Z</time>
      </trkpt>
      <trkpt lat="47.21893" lon="-1.45469">
        <ele>56</ele>
        <time>2022-03-14T12:19:24Z</time>
      </trkpt>
      <trkpt lat="47.219" lon="-1.45457">
        <ele>56</ele>
        <time>2022-03-14T12:19:26Z</time>
      </trkpt>
      <trkpt lat="47.21906" lon="-1.45446">
        <ele>56</ele>
        <time>2022-03-14T12:19:28Z</time>
      </trkpt>
      <trkpt lat="47.21914" lon="-1.45433">
        <ele>55</ele>
        <time>2022-03-14T12:19:30Z</time>
      </trkpt>
      <trkpt lat="47.21924" lon="-1.4542">
        <ele>55</ele>
        <time>2022-03-14T12:19:32Z</time>
      </trkpt>
      <trkpt lat="47.21935" lon="-1.45415">
        <ele>55</ele>
        <time>2022-03-14T12:19:34Z</time>
      </trkpt>
      <trkpt lat="47.21936" lon="-1.45398">
        <ele>55</ele>
        <time>2022-03-14T12:19:36Z</time>
      </trkpt>
      <trkpt lat="47.21932" lon="-1.45381">
        <ele>54</ele>
        <time>2022-03-14T12:19:38Z</time>
      </trkpt>
      <trkpt lat="47.21927" lon="-1.45364">
        <ele>55</ele>
        <time>2022-03-14T12:19:40Z</time>
      </trkpt>
      <trkpt lat="47.21927" lon="-1.45346">
        <ele>55</ele>
        <time>2022-03-14T12:19:42Z</time>
      </trkpt>
      <trkpt lat="47.21931" lon="-1.45329">
        <ele>53</ele>
        <time>2022-03-14T12:19:44Z</time>
      </trkpt>
      <trkpt lat="47.21935" lon="-1.45315">
        <ele>53</ele>
        <time>2022-03-14T12:19:46Z</time>
      </trkpt>
      <trkpt lat="47.21933" lon="-1.45299">
        <ele>54</ele>
        <time>2022-03-14T12:19:48Z</time>
      </trkpt>
      <trkpt lat="47.21942" lon="-1.45286">
        <ele>53</ele>
        <time>2022-03-14T12:19:50Z</time>
      </trkpt>
      <trkpt lat="47.21955" lon="-1.45273">
        <ele>51</ele>
        <time>2022-03-14T12:19:52Z</time>
      </trkpt>
      <trkpt lat="47.21964" lon="-1.45263">
        <ele>50</ele>
        <time>2022-03-14T12:19:54Z</time>
      </trkpt>
      <trkpt lat="47.2197" lon="-1.4525">
        <ele>49</ele>
        <time>2022-03-14T12:19:56Z</time>
      </trkpt>
      <trkpt lat="47.21973" lon="-1.45235">
        <ele>49</ele>
        <time>2022-03-14T12:19:58Z</time>
      </trkpt>
      <trkpt lat="47.21975" lon="-1.4522">
        <ele>49</ele>
        <time>2022-03-14T12:20:00Z</time>
      </trkpt>
      <trkpt lat="47.21977" lon="-1.45206">
        <ele>49</ele>
        <time>2022-03-14T12:20:02Z</time>
      </trkpt>
      <trkpt lat="47.21979" lon="-1.45191">
        <ele>48</ele>
        <time>2022-03-14T12:20:04Z</time>
      </trkpt>
      <trkpt lat="47.21983" lon="-1.45178">
        <ele>47</ele>
        <time>2022-03-14T12:20:06Z</time>
      </trkpt>
      <trkpt lat="47.21993" lon="-1.45172">
        <ele>46</ele>
        <time>2022-03-14T12:20:09Z</time>
      </trkpt>
      <trkpt lat="47.22005" lon="-1.45178">
        <ele>46</ele>
        <time>2022-03-14T12:20:13Z</time>
      </trkpt>
      <trkpt lat="47.22012" lon="-1.45188">
        <ele>46</ele>
        <time>2022-03-14T12:20:15Z</time>
      </trkpt>
      <trkpt lat="47.22017" lon="-1.45201">
        <ele>46</ele>
        <time>2022-03-14T12:20:17Z</time>
      </trkpt>
      <trkpt lat="47.22023" lon="-1.45214">
        <ele>46</ele>
        <time>2022-03-14T12:20:19Z</time>
      </trkpt>
      <trkpt lat="47.22029" lon="-1.45229">
        <ele>46</ele>
        <time>2022-03-14T12:20:21Z</time>
      </trkpt>
      <trkpt lat="47.22035" lon="-1.45243">
        <ele>47</ele>
        <time>2022-03-14T12:20:23Z</time>
      </trkpt>
      <trkpt lat="47.22042" lon="-1.45257">
        <ele>47</ele>
        <time>2022-03-14T12:20:25Z</time>
      </trkpt>
      <trkpt lat="47.22053" lon="-1.45265">
        <ele>46</ele>
        <time>2022-03-14T12:20:27Z</time>
      </trkpt>
      <trkpt lat="47.22064" lon="-1.45273">
        <ele>46</ele>
        <time>2022-03-14T12:20:29Z</time>
      </trkpt>
      <trkpt lat="47.22071" lon="-1.45287">
        <ele>45</ele>
        <time>2022-03-14T12:20:31Z</time>
      </trkpt>
      <trkpt lat="47.22075" lon="-1.45304">
        <ele>44</ele>
        <time>2022-03-14T12:20:33Z</time>
      </trkpt>
      <trkpt lat="47.22075" lon="-1.4532">
        <ele>44</ele>
        <time>2022-03-14T12:20:35Z</time>
      </trkpt>
      <trkpt lat="47.22072" lon="-1.45335">
        <ele>44</ele>
        <time>2022-03-14T12:20:37Z</time>
      </trkpt>
      <trkpt lat="47.2207" lon="-1.4535">
        <ele>45</ele>
        <time>2022-03-14T12:20:39Z</time>
      </trkpt>
      <trkpt lat="47.22071" lon="-1.45368">
        <ele>44</ele>
        <time>2022-03-14T12:20:41Z</time>
      </trkpt>
      <trkpt lat="47.22071" lon="-1.45386">
        <ele>44</ele>
        <time>2022-03-14T12:20:43Z</time>
      </trkpt>
      <trkpt lat="47.2207" lon="-1.45402">
        <ele>44</ele>
        <time>2022-03-14T12:20:45Z</time>
      </trkpt>
      <trkpt lat="47.2207" lon="-1.45419">
        <ele>43</ele>
        <time>2022-03-14T12:20:47Z</time>
      </trkpt>
      <trkpt lat="47.22069" lon="-1.45434">
        <ele>44</ele>
        <time>2022-03-14T12:20:49Z</time>
      </trkpt>
      <trkpt lat="47.22068" lon="-1.45453">
        <ele>44</ele>
        <time>2022-03-14T12:20:51Z</time>
      </trkpt>
      <trkpt lat="47.22066" lon="-1.4547">
        <ele>43</ele>
        <time>2022-03-14T12:20:53Z</time>
      </trkpt>
      <trkpt lat="47.22063" lon="-1.45488">
        <ele>43</ele>
        <time>2022-03-14T12:20:55Z</time>
      </trkpt>
      <trkpt lat="47.22059" lon="-1.45506">
        <ele>44</ele>
        <time>2022-03-14T12:20:57Z</time>
      </trkpt>
      <trkpt lat="47.22057" lon="-1.45523">
        <ele>44</ele>
        <time>2022-03-14T12:20:59Z</time>
      </trkpt>
      <trkpt lat="47.22059" lon="-1.45537">
        <ele>44</ele>
        <time>2022-03-14T12:21:01Z</time>
      </trkpt>
      <trkpt lat="47.22066" lon="-1.45547">
        <ele>45</ele>
        <time>2022-03-14T12:21:03Z</time>
      </trkpt>
      <trkpt lat="47.22077" lon="-1.45556">
        <ele>45</ele>
        <time>2022-03-14T12:21:05Z</time>
      </trkpt>
      <trkpt lat="47.22088" lon="-1.45566">
        <ele>45</ele>
        <time>2022-03-14T12:21:07Z</time>
      </trkpt>
      <trkpt lat="47.22099" lon="-1.45576">
        <ele>45</ele>
        <time>2022-03-14T12:21:09Z</time>
      </trkpt>
      <trkpt lat="47.2211" lon="-1.45588">
        <ele>45</ele>
        <time>2022-03-14T12:21:11Z</time>
      </trkpt>
      <trkpt lat="47.22122" lon="-1.45595">
        <ele>45</ele>
        <time>2022-03-14T12:21:13Z</time>
      </trkpt>
      <trkpt lat="47.22133" lon="-1.45602">
        <ele>45</ele>
        <time>2022-03-14T12:21:15Z</time>
      </trkpt>
      <trkpt lat="47.22144" lon="-1.45607">
        <ele>45</ele>
        <time>2022-03-14T12:21:17Z</time>
      </trkpt>
      <trkpt lat="47.22157" lon="-1.45612">
        <ele>45</ele>
        <time>2022-03-14T12:21:19Z</time>
      </trkpt>
      <trkpt lat="47.2217" lon="-1.45616">
        <ele>45</ele>
        <time>2022-03-14T12:21:21Z</time>
      </trkpt>
      <trkpt lat="47.22181" lon="-1.4562">
        <ele>46</ele>
        <time>2022-03-14T12:21:23Z</time>
      </trkpt>
      <trkpt lat="47.22193" lon="-1.45624">
        <ele>46</ele>
        <time>2022-03-14T12:21:25Z</time>
      </trkpt>
      <trkpt lat="47.22205" lon="-1.45628">
        <ele>46</ele>
        <time>2022-03-14T12:21:27Z</time>
      </trkpt>
      <trkpt lat="47.22217" lon="-1.45632">
        <ele>47</ele>
        <time>2022-03-14T12:21:29Z</time>
      </trkpt>
      <trkpt lat="47.2223" lon="-1.45636">
        <ele>47</ele>
        <time>2022-03-14T12:21:31Z</time>
      </trkpt>
      <trkpt lat="47.22241" lon="-1.4564">
        <ele>48</ele>
        <time>2022-03-14T12:21:33Z</time>
      </trkpt>
      <trkpt lat="47.22253" lon="-1.45645">
        <ele>48</ele>
        <time>2022-03-14T12:21:35Z</time>
      </trkpt>
      <trkpt lat="47.22265" lon="-1.45651">
        <ele>48</ele>
        <time>2022-03-14T12:21:37Z</time>
      </trkpt>
      <trkpt lat="47.22276" lon="-1.45655">
        <ele>48</ele>
        <time>2022-03-14T12:21:39Z</time>
      </trkpt>
      <trkpt lat="47.22287" lon="-1.4566">
        <ele>48</ele>
        <time>2022-03-14T12:21:41Z</time>
      </trkpt>
      <trkpt lat="47.22298" lon="-1.45665">
        <ele>48</ele>
        <time>2022-03-14T12:21:43Z</time>
      </trkpt>
      <trkpt lat="47.22308" lon="-1.45668">
        <ele>48</ele>
        <time>2022-03-14T12:21:45Z</time>
      </trkpt>
      <trkpt lat="47.22317" lon="-1.45671">
        <ele>48</ele>
        <time>2022-03-14T12:21:47Z</time>
      </trkpt>
      <trkpt lat="47.22327" lon="-1.45675">
        <ele>49</ele>
        <time>2022-03-14T12:21:49Z</time>
      </trkpt>
      <trkpt lat="47.22338" lon="-1.45679">
        <ele>49</ele>
        <time>2022-03-14T12:21:51Z</time>
      </trkpt>
      <trkpt lat="47.22348" lon="-1.45685">
        <ele>49</ele>
        <time>2022-03-14T12:21:53Z</time>
      </trkpt>
      <trkpt lat="47.2236" lon="-1.4569">
        <ele>51</ele>
        <time>2022-03-14T12:21:56Z</time>
      </trkpt>
      <trkpt lat="47.22372" lon="-1.45695">
        <ele>54</ele>
        <time>2022-03-14T12:21:58Z</time>
      </trkpt>
      <trkpt lat="47.22384" lon="-1.45699">
        <ele>56</ele>
        <time>2022-03-14T12:22:00Z</time>
      </trkpt>
      <trkpt lat="47.22395" lon="-1.45702">
        <ele>58</ele>
        <time>2022-03-14T12:22:02Z</time>
      </trkpt>
      <trkpt lat="47.22405" lon="-1.45705">
        <ele>60</ele>
        <time>2022-03-14T12:22:04Z</time>
      </trkpt>
      <trkpt lat="47.22413" lon="-1.4571">
        <ele>62</ele>
        <time>2022-03-14T12:22:06Z</time>
      </trkpt>
      <trkpt lat="47.22426" lon="-1.45714">
        <ele>63</ele>
        <time>2022-03-14T12:22:08Z</time>
      </trkpt>
      <trkpt lat="47.22437" lon="-1.4572">
        <ele>65</ele>
        <time>2022-03-14T12:22:10Z</time>
      </trkpt>
      <trkpt lat="47.22447" lon="-1.45727">
        <ele>65</ele>
        <time>2022-03-14T12:22:12Z</time>
      </trkpt>
      <trkpt lat="47.22459" lon="-1.45736">
        <ele>66</ele>
        <time>2022-03-14T12:22:15Z</time>
      </trkpt>
      <trkpt lat="47.2247" lon="-1.45741">
        <ele>66</ele>
        <time>2022-03-14T12:22:17Z</time>
      </trkpt>
      <trkpt lat="47.22483" lon="-1.45748">
        <ele>65</ele>
        <time>2022-03-14T12:22:19Z</time>
      </trkpt>
      <trkpt lat="47.22495" lon="-1.45753">
        <ele>64</ele>
        <time>2022-03-14T12:22:21Z</time>
      </trkpt>
      <trkpt lat="47.22505" lon="-1.45757">
        <ele>65</ele>
        <time>2022-03-14T12:22:23Z</time>
      </trkpt>
      <trkpt lat="47.22515" lon="-1.45761">
        <ele>65</ele>
        <time>2022-03-14T12:22:25Z</time>
      </trkpt>
      <trkpt lat="47.22525" lon="-1.45765">
        <ele>65</ele>
        <time>2022-03-14T12:22:27Z</time>
      </trkpt>
      <trkpt lat="47.22536" lon="-1.45767">
        <ele>66</ele>
        <time>2022-03-14T12:22:29Z</time>
      </trkpt>
      <trkpt lat="47.22545" lon="-1.45771">
        <ele>66</ele>
        <time>2022-03-14T12:22:31Z</time>
      </trkpt>
      <trkpt lat="47.22555" lon="-1.45775">
        <ele>66</ele>
        <time>2022-03-14T12:22:33Z</time>
      </trkpt>
      <trkpt lat="47.22567" lon="-1.45781">
        <ele>66</ele>
        <time>2022-03-14T12:22:35Z</time>
      </trkpt>
      <trkpt lat="47.22581" lon="-1.45786">
        <ele>66</ele>
        <time>2022-03-14T12:22:37Z</time>
      </trkpt>
      <trkpt lat="47.22596" lon="-1.45791">
        <ele>66</ele>
        <time>2022-03-14T12:22:39Z</time>
      </trkpt>
      <trkpt lat="47.22611" lon="-1.45796">
        <ele>64</ele>
        <time>2022-03-14T12:22:41Z</time>
      </trkpt>
      <trkpt lat="47.22626" lon="-1.45799">
        <ele>64</ele>
        <time>2022-03-14T12:22:43Z</time>
      </trkpt>
      <trkpt lat="47.22641" lon="-1.45802">
        <ele>64</ele>
        <time>2022-03-14T12:22:45Z</time>
      </trkpt>
      <trkpt lat="47.22655" lon="-1.45804">
        <ele>64</ele>
        <time>2022-03-14T12:22:47Z</time>
      </trkpt>
      <trkpt lat="47.22666" lon="-1.45806">
        <ele>64</ele>
        <time>2022-03-14T12:22:49Z</time>
      </trkpt>
      <trkpt lat="47.22675" lon="-1.45809">
        <ele>65</ele>
        <time>2022-03-14T12:22:51Z</time>
      </trkpt>
      <trkpt lat="47.22685" lon="-1.45809">
        <ele>66</ele>
        <time>2022-03-14T12:22:53Z</time>
      </trkpt>
      <trkpt lat="47.22696" lon="-1.4581">
        <ele>66</ele>
        <time>2022-03-14T12:22:55Z</time>
      </trkpt>
      <trkpt lat="47.22707" lon="-1.45814">
        <ele>67</ele>
        <time>2022-03-14T12:22:57Z</time>
      </trkpt>
      <trkpt lat="47.22719" lon="-1.45819">
        <ele>68</ele>
        <time>2022-03-14T12:22:59Z</time>
      </trkpt>
      <trkpt lat="47.22734" lon="-1.45823">
        <ele>70</ele>
        <time>2022-03-14T12:23:01Z</time>
      </trkpt>
      <trkpt lat="47.22749" lon="-1.45826">
        <ele>72</ele>
        <time>2022-03-14T12:23:03Z</time>
      </trkpt>
      <trkpt lat="47.22764" lon="-1.4583">
        <ele>74</ele>
        <time>2022-03-14T12:23:05Z</time>
      </trkpt>
      <trkpt lat="47.22781" lon="-1.45834">
        <ele>72</ele>
        <time>2022-03-14T12:23:07Z</time>
      </trkpt>
      <trkpt lat="47.22797" lon="-1.45839">
        <ele>71</ele>
        <time>2022-03-14T12:23:09Z</time>
      </trkpt>
      <trkpt lat="47.22812" lon="-1.45845">
        <ele>69</ele>
        <time>2022-03-14T12:23:11Z</time>
      </trkpt>
      <trkpt lat="47.22826" lon="-1.4585">
        <ele>67</ele>
        <time>2022-03-14T12:23:13Z</time>
      </trkpt>
      <trkpt lat="47.22839" lon="-1.45855">
        <ele>66</ele>
        <time>2022-03-14T12:23:15Z</time>
      </trkpt>
      <trkpt lat="47.22852" lon="-1.45861">
        <ele>65</ele>
        <time>2022-03-14T12:23:17Z</time>
      </trkpt>
      <trkpt lat="47.22864" lon="-1.45867">
        <ele>64</ele>
        <time>2022-03-14T12:23:19Z</time>
      </trkpt>
      <trkpt lat="47.22877" lon="-1.4587">
        <ele>63</ele>
        <time>2022-03-14T12:23:21Z</time>
      </trkpt>
      <trkpt lat="47.2289" lon="-1.45872">
        <ele>63</ele>
        <time>2022-03-14T12:23:23Z</time>
      </trkpt>
      <trkpt lat="47.22903" lon="-1.45877">
        <ele>62</ele>
        <time>2022-03-14T12:23:25Z</time>
      </trkpt>
      <trkpt lat="47.22914" lon="-1.45884">
        <ele>62</ele>
        <time>2022-03-14T12:23:27Z</time>
      </trkpt>
      <trkpt lat="47.22926" lon="-1.45889">
        <ele>62</ele>
        <time>2022-03-14T12:23:29Z</time>
      </trkpt>
      <trkpt lat="47.22938" lon="-1.45893">
        <ele>61</ele>
        <time>2022-03-14T12:23:31Z</time>
      </trkpt>
      <trkpt lat="47.22949" lon="-1.45897">
        <ele>60</ele>
        <time>2022-03-14T12:23:33Z</time>
      </trkpt>
      <trkpt lat="47.22962" lon="-1.45901">
        <ele>59</ele>
        <time>2022-03-14T12:23:35Z</time>
      </trkpt>
      <trkpt lat="47.22976" lon="-1.45906">
        <ele>58</ele>
        <time>2022-03-14T12:23:37Z</time>
      </trkpt>
      <trkpt lat="47.22988" lon="-1.4591">
        <ele>57</ele>
        <time>2022-03-14T12:23:39Z</time>
      </trkpt>
      <trkpt lat="47.23" lon="-1.45916">
        <ele>56</ele>
        <time>2022-03-14T12:23:41Z</time>
      </trkpt>
      <trkpt lat="47.23012" lon="-1.4592">
        <ele>55</ele>
        <time>2022-03-14T12:23:43Z</time>
      </trkpt>
      <trkpt lat="47.23025" lon="-1.45925">
        <ele>54</ele>
        <time>2022-03-14T12:23:45Z</time>
      </trkpt>
      <trkpt lat="47.23036" lon="-1.45927">
        <ele>53</ele>
        <time>2022-03-14T12:23:47Z</time>
      </trkpt>
      <trkpt lat="47.23048" lon="-1.45924">
        <ele>53</ele>
        <time>2022-03-14T12:23:49Z</time>
      </trkpt>
      <trkpt lat="47.23056" lon="-1.45912">
        <ele>52</ele>
        <time>2022-03-14T12:23:51Z</time>
      </trkpt>
      <trkpt lat="47.23064" lon="-1.4589">
        <ele>51</ele>
        <time>2022-03-14T12:23:54Z</time>
      </trkpt>
      <trkpt lat="47.23068" lon="-1.45875">
        <ele>50</ele>
        <time>2022-03-14T12:23:56Z</time>
      </trkpt>
      <trkpt lat="47.23071" lon="-1.4586">
        <ele>50</ele>
        <time>2022-03-14T12:23:58Z</time>
      </trkpt>
      <trkpt lat="47.23075" lon="-1.45846">
        <ele>50</ele>
        <time>2022-03-14T12:24:00Z</time>
      </trkpt>
      <trkpt lat="47.23079" lon="-1.45831">
        <ele>50</ele>
        <time>2022-03-14T12:24:02Z</time>
      </trkpt>
      <trkpt lat="47.23082" lon="-1.45814">
        <ele>49</ele>
        <time>2022-03-14T12:24:04Z</time>
      </trkpt>
      <trkpt lat="47.23085" lon="-1.45797">
        <ele>48</ele>
        <time>2022-03-14T12:24:06Z</time>
      </trkpt>
      <trkpt lat="47.23089" lon="-1.4578">
        <ele>48</ele>
        <time>2022-03-14T12:24:08Z</time>
      </trkpt>
      <trkpt lat="47.23093" lon="-1.45764">
        <ele>48</ele>
        <time>2022-03-14T12:24:10Z</time>
      </trkpt>
      <trkpt lat="47.23096" lon="-1.45748">
        <ele>48</ele>
        <time>2022-03-14T12:24:12Z</time>
      </trkpt>
      <trkpt lat="47.231" lon="-1.45733">
        <ele>47</ele>
        <time>2022-03-14T12:24:14Z</time>
      </trkpt>
      <trkpt lat="47.23105" lon="-1.45718">
        <ele>47</ele>
        <time>2022-03-14T12:24:16Z</time>
      </trkpt>
      <trkpt lat="47.2311" lon="-1.45703">
        <ele>47</ele>
        <time>2022-03-14T12:24:18Z</time>
      </trkpt>
      <trkpt lat="47.23116" lon="-1.45689">
        <ele>47</ele>
        <time>2022-03-14T12:24:20Z</time>
      </trkpt>
      <trkpt lat="47.23124" lon="-1.45676">
        <ele>46</ele>
        <time>2022-03-14T12:24:22Z</time>
      </trkpt>
      <trkpt lat="47.23132" lon="-1.45665">
        <ele>46</ele>
        <time>2022-03-14T12:24:24Z</time>
      </trkpt>
      <trkpt lat="47.2314" lon="-1.45656">
        <ele>46</ele>
        <time>2022-03-14T12:24:26Z</time>
      </trkpt>
      <trkpt lat="47.23149" lon="-1.45644">
        <ele>46</ele>
        <time>2022-03-14T12:24:29Z</time>
      </trkpt>
      <trkpt lat="47.2316" lon="-1.45631">
        <ele>46</ele>
        <time>2022-03-14T12:24:32Z</time>
      </trkpt>
      <trkpt lat="47.23169" lon="-1.45622">
        <ele>46</ele>
        <time>2022-03-14T12:24:34Z</time>
      </trkpt>
      <trkpt lat="47.23178" lon="-1.4561">
        <ele>46</ele>
        <time>2022-03-14T12:24:36Z</time>
      </trkpt>
      <trkpt lat="47.23189" lon="-1.45597">
        <ele>46</ele>
        <time>2022-03-14T12:24:38Z</time>
      </trkpt>
      <trkpt lat="47.232" lon="-1.45584">
        <ele>45</ele>
        <time>2022-03-14T12:24:40Z</time>
      </trkpt>
      <trkpt lat="47.2321" lon="-1.45572">
        <ele>45</ele>
        <time>2022-03-14T12:24:42Z</time>
      </trkpt>
      <trkpt lat="47.23219" lon="-1.45562">
        <ele>44</ele>
        <time>2022-03-14T12:24:44Z</time>
      </trkpt>
      <trkpt lat="47.23229" lon="-1.45552">
        <ele>45</ele>
        <time>2022-03-14T12:24:46Z</time>
      </trkpt>
      <trkpt lat="47.23239" lon="-1.45539">
        <ele>45</ele>
        <time>2022-03-14T12:24:48Z</time>
      </trkpt>
      <trkpt lat="47.23249" lon="-1.45525">
        <ele>45</ele>
        <time>2022-03-14T12:24:50Z</time>
      </trkpt>
      <trkpt lat="47.23259" lon="-1.45512">
        <ele>45</ele>
        <time>2022-03-14T12:24:52Z</time>
      </trkpt>
      <trkpt lat="47.23269" lon="-1.45499">
        <ele>45</ele>
        <time>2022-03-14T12:24:54Z</time>
      </trkpt>
      <trkpt lat="47.23278" lon="-1.45488">
        <ele>45</ele>
        <time>2022-03-14T12:24:56Z</time>
      </trkpt>
      <trkpt lat="47.23288" lon="-1.45475">
        <ele>45</ele>
        <time>2022-03-14T12:24:58Z</time>
      </trkpt>
      <trkpt lat="47.23297" lon="-1.45463">
        <ele>44</ele>
        <time>2022-03-14T12:25:00Z</time>
      </trkpt>
      <trkpt lat="47.23307" lon="-1.45451">
        <ele>43</ele>
        <time>2022-03-14T12:25:02Z</time>
      </trkpt>
      <trkpt lat="47.23317" lon="-1.45441">
        <ele>44</ele>
        <time>2022-03-14T12:25:04Z</time>
      </trkpt>
      <trkpt lat="47.23326" lon="-1.45429">
        <ele>43</ele>
        <time>2022-03-14T12:25:06Z</time>
      </trkpt>
      <trkpt lat="47.23335" lon="-1.45418">
        <ele>44</ele>
        <time>2022-03-14T12:25:08Z</time>
      </trkpt>
      <trkpt lat="47.23344" lon="-1.45407">
        <ele>44</ele>
        <time>2022-03-14T12:25:10Z</time>
      </trkpt>
      <trkpt lat="47.23353" lon="-1.45395">
        <ele>44</ele>
        <time>2022-03-14T12:25:12Z</time>
      </trkpt>
      <trkpt lat="47.23362" lon="-1.45383">
        <ele>44</ele>
        <time>2022-03-14T12:25:14Z</time>
      </trkpt>
      <trkpt lat="47.23371" lon="-1.45373">
        <ele>44</ele>
        <time>2022-03-14T12:25:16Z</time>
      </trkpt>
      <trkpt lat="47.2338" lon="-1.45363">
        <ele>44</ele>
        <time>2022-03-14T12:25:18Z</time>
      </trkpt>
      <trkpt lat="47.2339" lon="-1.45353">
        <ele>44</ele>
        <time>2022-03-14T12:25:20Z</time>
      </trkpt>
      <trkpt lat="47.234" lon="-1.45343">
        <ele>44</ele>
        <time>2022-03-14T12:25:22Z</time>
      </trkpt>
      <trkpt lat="47.23409" lon="-1.45331">
        <ele>44</ele>
        <time>2022-03-14T12:25:24Z</time>
      </trkpt>
      <trkpt lat="47.23418" lon="-1.45321">
        <ele>44</ele>
        <time>2022-03-14T12:25:26Z</time>
      </trkpt>
      <trkpt lat="47.23429" lon="-1.45311">
        <ele>44</ele>
        <time>2022-03-14T12:25:28Z</time>
      </trkpt>
      <trkpt lat="47.23439" lon="-1.45301">
        <ele>45</ele>
        <time>2022-03-14T12:25:30Z</time>
      </trkpt>
      <trkpt lat="47.23449" lon="-1.45289">
        <ele>45</ele>
        <time>2022-03-14T12:25:32Z</time>
      </trkpt>
      <trkpt lat="47.23458" lon="-1.45276">
        <ele>45</ele>
        <time>2022-03-14T12:25:34Z</time>
      </trkpt>
      <trkpt lat="47.23466" lon="-1.45265">
        <ele>45</ele>
        <time>2022-03-14T12:25:36Z</time>
      </trkpt>
      <trkpt lat="47.23473" lon="-1.45253">
        <ele>45</ele>
        <time>2022-03-14T12:25:38Z</time>
      </trkpt>
      <trkpt lat="47.23481" lon="-1.4524">
        <ele>45</ele>
        <time>2022-03-14T12:25:40Z</time>
      </trkpt>
      <trkpt lat="47.2349" lon="-1.45226">
        <ele>45</ele>
        <time>2022-03-14T12:25:42Z</time>
      </trkpt>
      <trkpt lat="47.23498" lon="-1.45213">
        <ele>46</ele>
        <time>2022-03-14T12:25:44Z</time>
      </trkpt>
      <trkpt lat="47.23506" lon="-1.452">
        <ele>45</ele>
        <time>2022-03-14T12:25:46Z</time>
      </trkpt>
      <trkpt lat="47.23514" lon="-1.45186">
        <ele>45</ele>
        <time>2022-03-14T12:25:48Z</time>
      </trkpt>
      <trkpt lat="47.23522" lon="-1.4517">
        <ele>45</ele>
        <time>2022-03-14T12:25:50Z</time>
      </trkpt>
      <trkpt lat="47.2353" lon="-1.45155">
        <ele>44</ele>
        <time>2022-03-14T12:25:52Z</time>
      </trkpt>
      <trkpt lat="47.23538" lon="-1.45139">
        <ele>44</ele>
        <time>2022-03-14T12:25:54Z</time>
      </trkpt>
      <trkpt lat="47.23545" lon="-1.45123">
        <ele>44</ele>
        <time>2022-03-14T12:25:56Z</time>
      </trkpt>
      <trkpt lat="47.23551" lon="-1.45108">
        <ele>44</ele>
        <time>2022-03-14T12:25:58Z</time>
      </trkpt>
      <trkpt lat="47.23558" lon="-1.45093">
        <ele>43</ele>
        <time>2022-03-14T12:26:00Z</time>
      </trkpt>
      <trkpt lat="47.23565" lon="-1.45079">
        <ele>43</ele>
        <time>2022-03-14T12:26:02Z</time>
      </trkpt>
      <trkpt lat="47.23572" lon="-1.45064">
        <ele>43</ele>
        <time>2022-03-14T12:26:04Z</time>
      </trkpt>
      <trkpt lat="47.23578" lon="-1.45049">
        <ele>43</ele>
        <time>2022-03-14T12:26:06Z</time>
      </trkpt>
      <trkpt lat="47.23584" lon="-1.45034">
        <ele>43</ele>
        <time>2022-03-14T12:26:08Z</time>
      </trkpt>
      <trkpt lat="47.2359" lon="-1.45019">
        <ele>43</ele>
        <time>2022-03-14T12:26:10Z</time>
      </trkpt>
      <trkpt lat="47.23597" lon="-1.45004">
        <ele>43</ele>
        <time>2022-03-14T12:26:12Z</time>
      </trkpt>
      <trkpt lat="47.23603" lon="-1.44989">
        <ele>43</ele>
        <time>2022-03-14T12:26:14Z</time>
      </trkpt>
      <trkpt lat="47.23609" lon="-1.44974">
        <ele>43</ele>
        <time>2022-03-14T12:26:16Z</time>
      </trkpt>
      <trkpt lat="47.23615" lon="-1.44961">
        <ele>44</ele>
        <time>2022-03-14T12:26:18Z</time>
      </trkpt>
      <trkpt lat="47.23621" lon="-1.44945">
        <ele>43</ele>
        <time>2022-03-14T12:26:21Z</time>
      </trkpt>
      <trkpt lat="47.23626" lon="-1.44933">
        <ele>44</ele>
        <time>2022-03-14T12:26:23Z</time>
      </trkpt>
      <trkpt lat="47.23632" lon="-1.44919">
        <ele>45</ele>
        <time>2022-03-14T12:26:25Z</time>
      </trkpt>
      <trkpt lat="47.23639" lon="-1.44904">
        <ele>45</ele>
        <time>2022-03-14T12:26:27Z</time>
      </trkpt>
      <trkpt lat="47.23646" lon="-1.44891">
        <ele>46</ele>
        <time>2022-03-14T12:26:29Z</time>
      </trkpt>
      <trkpt lat="47.23653" lon="-1.44877">
        <ele>47</ele>
        <time>2022-03-14T12:26:31Z</time>
      </trkpt>
      <trkpt lat="47.23659" lon="-1.4486">
        <ele>47</ele>
        <time>2022-03-14T12:26:33Z</time>
      </trkpt>
      <trkpt lat="47.23664" lon="-1.44845">
        <ele>47</ele>
        <time>2022-03-14T12:26:35Z</time>
      </trkpt>
      <trkpt lat="47.2367" lon="-1.4483">
        <ele>48</ele>
        <time>2022-03-14T12:26:37Z</time>
      </trkpt>
      <trkpt lat="47.23676" lon="-1.44816">
        <ele>48</ele>
        <time>2022-03-14T12:26:39Z</time>
      </trkpt>
      <trkpt lat="47.23682" lon="-1.44802">
        <ele>48</ele>
        <time>2022-03-14T12:26:41Z</time>
      </trkpt>
      <trkpt lat="47.23688" lon="-1.44786">
        <ele>48</ele>
        <time>2022-03-14T12:26:43Z</time>
      </trkpt>
      <trkpt lat="47.23694" lon="-1.44772">
        <ele>49</ele>
        <time>2022-03-14T12:26:45Z</time>
      </trkpt>
      <trkpt lat="47.237" lon="-1.44757">
        <ele>50</ele>
        <time>2022-03-14T12:26:47Z</time>
      </trkpt>
      <trkpt lat="47.23706" lon="-1.44742">
        <ele>50</ele>
        <time>2022-03-14T12:26:49Z</time>
      </trkpt>
      <trkpt lat="47.23712" lon="-1.44728">
        <ele>51</ele>
        <time>2022-03-14T12:26:51Z</time>
      </trkpt>
      <trkpt lat="47.23718" lon="-1.44714">
        <ele>51</ele>
        <time>2022-03-14T12:26:53Z</time>
      </trkpt>
      <trkpt lat="47.23724" lon="-1.44701">
        <ele>52</ele>
        <time>2022-03-14T12:26:55Z</time>
      </trkpt>
      <trkpt lat="47.2373" lon="-1.44685">
        <ele>52</ele>
        <time>2022-03-14T12:26:57Z</time>
      </trkpt>
      <trkpt lat="47.23737" lon="-1.44669">
        <ele>52</ele>
        <time>2022-03-14T12:26:59Z</time>
      </trkpt>
      <trkpt lat="47.23744" lon="-1.44653">
        <ele>52</ele>
        <time>2022-03-14T12:27:01Z</time>
      </trkpt>
      <trkpt lat="47.23751" lon="-1.44636">
        <ele>52</ele>
        <time>2022-03-14T12:27:03Z</time>
      </trkpt>
      <trkpt lat="47.23757" lon="-1.44619">
        <ele>51</ele>
        <time>2022-03-14T12:27:05Z</time>
      </trkpt>
      <trkpt lat="47.23761" lon="-1.44607">
        <ele>51</ele>
        <time>2022-03-14T12:27:07Z</time>
      </trkpt>
      <trkpt lat="47.23767" lon="-1.44592">
        <ele>50</ele>
        <time>2022-03-14T12:27:11Z</time>
      </trkpt>
      <trkpt lat="47.23773" lon="-1.44579">
        <ele>50</ele>
        <time>2022-03-14T12:27:13Z</time>
      </trkpt>
      <trkpt lat="47.2378" lon="-1.44563">
        <ele>49</ele>
        <time>2022-03-14T12:27:15Z</time>
      </trkpt>
      <trkpt lat="47.23787" lon="-1.44547">
        <ele>49</ele>
        <time>2022-03-14T12:27:17Z</time>
      </trkpt>
      <trkpt lat="47.23794" lon="-1.44532">
        <ele>49</ele>
        <time>2022-03-14T12:27:19Z</time>
      </trkpt>
      <trkpt lat="47.238" lon="-1.44517">
        <ele>48</ele>
        <time>2022-03-14T12:27:21Z</time>
      </trkpt>
      <trkpt lat="47.23807" lon="-1.44502">
        <ele>48</ele>
        <time>2022-03-14T12:27:23Z</time>
      </trkpt>
      <trkpt lat="47.23813" lon="-1.44487">
        <ele>47</ele>
        <time>2022-03-14T12:27:25Z</time>
      </trkpt>
      <trkpt lat="47.23819" lon="-1.44473">
        <ele>47</ele>
        <time>2022-03-14T12:27:27Z</time>
      </trkpt>
      <trkpt lat="47.23826" lon="-1.44459">
        <ele>47</ele>
        <time>2022-03-14T12:27:29Z</time>
      </trkpt>
      <trkpt lat="47.23832" lon="-1.44446">
        <ele>47</ele>
        <time>2022-03-14T12:27:31Z</time>
      </trkpt>
      <trkpt lat="47.23838" lon="-1.44431">
        <ele>47</ele>
        <time>2022-03-14T12:27:33Z</time>
      </trkpt>
      <trkpt lat="47.23844" lon="-1.44418">
        <ele>47</ele>
        <time>2022-03-14T12:27:35Z</time>
      </trkpt>
      <trkpt lat="47.2385" lon="-1.44404">
        <ele>46</ele>
        <time>2022-03-14T12:27:37Z</time>
      </trkpt>
      <trkpt lat="47.23856" lon="-1.4439">
        <ele>46</ele>
        <time>2022-03-14T12:27:39Z</time>
      </trkpt>
      <trkpt lat="47.23862" lon="-1.44376">
        <ele>46</ele>
        <time>2022-03-14T12:27:41Z</time>
      </trkpt>
      <trkpt lat="47.23869" lon="-1.44362">
        <ele>46</ele>
        <time>2022-03-14T12:27:43Z</time>
      </trkpt>
      <trkpt lat="47.23875" lon="-1.44348">
        <ele>46</ele>
        <time>2022-03-14T12:27:45Z</time>
      </trkpt>
      <trkpt lat="47.23881" lon="-1.44334">
        <ele>47</ele>
        <time>2022-03-14T12:27:47Z</time>
      </trkpt>
      <trkpt lat="47.23887" lon="-1.4432">
        <ele>46</ele>
        <time>2022-03-14T12:27:49Z</time>
      </trkpt>
      <trkpt lat="47.23892" lon="-1.44306">
        <ele>46</ele>
        <time>2022-03-14T12:27:51Z</time>
      </trkpt>
      <trkpt lat="47.23899" lon="-1.44291">
        <ele>47</ele>
        <time>2022-03-14T12:27:53Z</time>
      </trkpt>
      <trkpt lat="47.23905" lon="-1.44277">
        <ele>47</ele>
        <time>2022-03-14T12:27:55Z</time>
      </trkpt>
      <trkpt lat="47.23911" lon="-1.44262">
        <ele>47</ele>
        <time>2022-03-14T12:27:57Z</time>
      </trkpt>
      <trkpt lat="47.23918" lon="-1.44248">
        <ele>46</ele>
        <time>2022-03-14T12:27:59Z</time>
      </trkpt>
      <trkpt lat="47.23924" lon="-1.44234">
        <ele>46</ele>
        <time>2022-03-14T12:28:01Z</time>
      </trkpt>
      <trkpt lat="47.2393" lon="-1.44219">
        <ele>46</ele>
        <time>2022-03-14T12:28:03Z</time>
      </trkpt>
      <trkpt lat="47.23936" lon="-1.44205">
        <ele>46</ele>
        <time>2022-03-14T12:28:05Z</time>
      </trkpt>
      <trkpt lat="47.23942" lon="-1.44191">
        <ele>46</ele>
        <time>2022-03-14T12:28:07Z</time>
      </trkpt>
      <trkpt lat="47.23948" lon="-1.44177">
        <ele>46</ele>
        <time>2022-03-14T12:28:09Z</time>
      </trkpt>
      <trkpt lat="47.23954" lon="-1.44163">
        <ele>46</ele>
        <time>2022-03-14T12:28:11Z</time>
      </trkpt>
      <trkpt lat="47.23961" lon="-1.44149">
        <ele>46</ele>
        <time>2022-03-14T12:28:13Z</time>
      </trkpt>
      <trkpt lat="47.23968" lon="-1.44135">
        <ele>46</ele>
        <time>2022-03-14T12:28:15Z</time>
      </trkpt>
      <trkpt lat="47.23974" lon="-1.4412">
        <ele>45</ele>
        <time>2022-03-14T12:28:17Z</time>
      </trkpt>
      <trkpt lat="47.23981" lon="-1.44106">
        <ele>45</ele>
        <time>2022-03-14T12:28:19Z</time>
      </trkpt>
      <trkpt lat="47.23987" lon="-1.44092">
        <ele>44</ele>
        <time>2022-03-14T12:28:21Z</time>
      </trkpt>
      <trkpt lat="47.23994" lon="-1.44077">
        <ele>44</ele>
        <time>2022-03-14T12:28:23Z</time>
      </trkpt>
      <trkpt lat="47.24" lon="-1.44062">
        <ele>45</ele>
        <time>2022-03-14T12:28:25Z</time>
      </trkpt>
      <trkpt lat="47.24006" lon="-1.44047">
        <ele>45</ele>
        <time>2022-03-14T12:28:27Z</time>
      </trkpt>
      <trkpt lat="47.24012" lon="-1.44033">
        <ele>45</ele>
        <time>2022-03-14T12:28:29Z</time>
      </trkpt>
      <trkpt lat="47.24019" lon="-1.44018">
        <ele>46</ele>
        <time>2022-03-14T12:28:31Z</time>
      </trkpt>
      <trkpt lat="47.24026" lon="-1.44004">
        <ele>45</ele>
        <time>2022-03-14T12:28:33Z</time>
      </trkpt>
      <trkpt lat="47.24033" lon="-1.43989">
        <ele>46</ele>
        <time>2022-03-14T12:28:35Z</time>
      </trkpt>
      <trkpt lat="47.24039" lon="-1.43975">
        <ele>45</ele>
        <time>2022-03-14T12:28:37Z</time>
      </trkpt>
      <trkpt lat="47.24046" lon="-1.4396">
        <ele>45</ele>
        <time>2022-03-14T12:28:39Z</time>
      </trkpt>
      <trkpt lat="47.24053" lon="-1.43946">
        <ele>45</ele>
        <time>2022-03-14T12:28:41Z</time>
      </trkpt>
      <trkpt lat="47.2406" lon="-1.43931">
        <ele>45</ele>
        <time>2022-03-14T12:28:43Z</time>
      </trkpt>
      <trkpt lat="47.24066" lon="-1.43916">
        <ele>45</ele>
        <time>2022-03-14T12:28:45Z</time>
      </trkpt>
      <trkpt lat="47.24072" lon="-1.43902">
        <ele>46</ele>
        <time>2022-03-14T12:28:47Z</time>
      </trkpt>
      <trkpt lat="47.24079" lon="-1.43888">
        <ele>46</ele>
        <time>2022-03-14T12:28:49Z</time>
      </trkpt>
      <trkpt lat="47.24085" lon="-1.43873">
        <ele>46</ele>
        <time>2022-03-14T12:28:51Z</time>
      </trkpt>
      <trkpt lat="47.24092" lon="-1.43859">
        <ele>45</ele>
        <time>2022-03-14T12:28:53Z</time>
      </trkpt>
      <trkpt lat="47.24098" lon="-1.43845">
        <ele>45</ele>
        <time>2022-03-14T12:28:55Z</time>
      </trkpt>
      <trkpt lat="47.24105" lon="-1.43831">
        <ele>46</ele>
        <time>2022-03-14T12:28:57Z</time>
      </trkpt>
      <trkpt lat="47.2411" lon="-1.43816">
        <ele>46</ele>
        <time>2022-03-14T12:28:59Z</time>
      </trkpt>
      <trkpt lat="47.24116" lon="-1.43801">
        <ele>46</ele>
        <time>2022-03-14T12:29:01Z</time>
      </trkpt>
      <trkpt lat="47.24122" lon="-1.43786">
        <ele>46</ele>
        <time>2022-03-14T12:29:03Z</time>
      </trkpt>
      <trkpt lat="47.24129" lon="-1.43772">
        <ele>46</ele>
        <time>2022-03-14T12:29:05Z</time>
      </trkpt>
      <trkpt lat="47.24135" lon="-1.43757">
        <ele>46</ele>
        <time>2022-03-14T12:29:07Z</time>
      </trkpt>
      <trkpt lat="47.24142" lon="-1.43743">
        <ele>47</ele>
        <time>2022-03-14T12:29:09Z</time>
      </trkpt>
      <trkpt lat="47.24149" lon="-1.43728">
        <ele>47</ele>
        <time>2022-03-14T12:29:11Z</time>
      </trkpt>
      <trkpt lat="47.24155" lon="-1.43713">
        <ele>47</ele>
        <time>2022-03-14T12:29:13Z</time>
      </trkpt>
      <trkpt lat="47.24162" lon="-1.43698">
        <ele>47</ele>
        <time>2022-03-14T12:29:15Z</time>
      </trkpt>
      <trkpt lat="47.24168" lon="-1.43683">
        <ele>47</ele>
        <time>2022-03-14T12:29:17Z</time>
      </trkpt>
      <trkpt lat="47.24174" lon="-1.43667">
        <ele>47</ele>
        <time>2022-03-14T12:29:19Z</time>
      </trkpt>
      <trkpt lat="47.24182" lon="-1.43651">
        <ele>47</ele>
        <time>2022-03-14T12:29:21Z</time>
      </trkpt>
      <trkpt lat="47.24189" lon="-1.43636">
        <ele>47</ele>
        <time>2022-03-14T12:29:23Z</time>
      </trkpt>
      <trkpt lat="47.24195" lon="-1.43621">
        <ele>47</ele>
        <time>2022-03-14T12:29:25Z</time>
      </trkpt>
      <trkpt lat="47.24202" lon="-1.43606">
        <ele>47</ele>
        <time>2022-03-14T12:29:27Z</time>
      </trkpt>
      <trkpt lat="47.24208" lon="-1.43592">
        <ele>48</ele>
        <time>2022-03-14T12:29:29Z</time>
      </trkpt>
      <trkpt lat="47.24215" lon="-1.43578">
        <ele>48</ele>
        <time>2022-03-14T12:29:31Z</time>
      </trkpt>
      <trkpt lat="47.24222" lon="-1.43563">
        <ele>48</ele>
        <time>2022-03-14T12:29:33Z</time>
      </trkpt>
      <trkpt lat="47.24229" lon="-1.4355">
        <ele>48</ele>
        <time>2022-03-14T12:29:35Z</time>
      </trkpt>
      <trkpt lat="47.24236" lon="-1.43535">
        <ele>48</ele>
        <time>2022-03-14T12:29:37Z</time>
      </trkpt>
      <trkpt lat="47.24242" lon="-1.43521">
        <ele>48</ele>
        <time>2022-03-14T12:29:39Z</time>
      </trkpt>
      <trkpt lat="47.24248" lon="-1.43505">
        <ele>48</ele>
        <time>2022-03-14T12:29:41Z</time>
      </trkpt>
      <trkpt lat="47.24254" lon="-1.4349">
        <ele>48</ele>
        <time>2022-03-14T12:29:43Z</time>
      </trkpt>
      <trkpt lat="47.24261" lon="-1.43474">
        <ele>47</ele>
        <time>2022-03-14T12:29:45Z</time>
      </trkpt>
      <trkpt lat="47.24267" lon="-1.43459">
        <ele>47</ele>
        <time>2022-03-14T12:29:47Z</time>
      </trkpt>
      <trkpt lat="47.24274" lon="-1.43445">
        <ele>47</ele>
        <time>2022-03-14T12:29:49Z</time>
      </trkpt>
      <trkpt lat="47.24281" lon="-1.4343">
        <ele>47</ele>
        <time>2022-03-14T12:29:51Z</time>
      </trkpt>
      <trkpt lat="47.24287" lon="-1.43416">
        <ele>48</ele>
        <time>2022-03-14T12:29:53Z</time>
      </trkpt>
      <trkpt lat="47.24293" lon="-1.43402">
        <ele>48</ele>
        <time>2022-03-14T12:29:55Z</time>
      </trkpt>
      <trkpt lat="47.243" lon="-1.43387">
        <ele>48</ele>
        <time>2022-03-14T12:29:57Z</time>
      </trkpt>
      <trkpt lat="47.24307" lon="-1.43373">
        <ele>48</ele>
        <time>2022-03-14T12:29:59Z</time>
      </trkpt>
      <trkpt lat="47.24313" lon="-1.43359">
        <ele>48</ele>
        <time>2022-03-14T12:30:01Z</time>
      </trkpt>
      <trkpt lat="47.2432" lon="-1.43345">
        <ele>48</ele>
        <time>2022-03-14T12:30:03Z</time>
      </trkpt>
      <trkpt lat="47.24326" lon="-1.43331">
        <ele>48</ele>
        <time>2022-03-14T12:30:05Z</time>
      </trkpt>
      <trkpt lat="47.24332" lon="-1.43317">
        <ele>47</ele>
        <time>2022-03-14T12:30:07Z</time>
      </trkpt>
      <trkpt lat="47.24338" lon="-1.43304">
        <ele>47</ele>
        <time>2022-03-14T12:30:09Z</time>
      </trkpt>
      <trkpt lat="47.24344" lon="-1.43291">
        <ele>48</ele>
        <time>2022-03-14T12:30:11Z</time>
      </trkpt>
      <trkpt lat="47.2435" lon="-1.43277">
        <ele>48</ele>
        <time>2022-03-14T12:30:13Z</time>
      </trkpt>
      <trkpt lat="47.24357" lon="-1.43264">
        <ele>48</ele>
        <time>2022-03-14T12:30:15Z</time>
      </trkpt>
      <trkpt lat="47.24363" lon="-1.43251">
        <ele>48</ele>
        <time>2022-03-14T12:30:17Z</time>
      </trkpt>
      <trkpt lat="47.24369" lon="-1.43238">
        <ele>48</ele>
        <time>2022-03-14T12:30:19Z</time>
      </trkpt>
      <trkpt lat="47.24375" lon="-1.43225">
        <ele>48</ele>
        <time>2022-03-14T12:30:21Z</time>
      </trkpt>
      <trkpt lat="47.24382" lon="-1.43213">
        <ele>48</ele>
        <time>2022-03-14T12:30:23Z</time>
      </trkpt>
      <trkpt lat="47.24388" lon="-1.43202">
        <ele>47</ele>
        <time>2022-03-14T12:30:25Z</time>
      </trkpt>
      <trkpt lat="47.24395" lon="-1.43191">
        <ele>48</ele>
        <time>2022-03-14T12:30:27Z</time>
      </trkpt>
      <trkpt lat="47.24404" lon="-1.43181">
        <ele>48</ele>
        <time>2022-03-14T12:30:29Z</time>
      </trkpt>
      <trkpt lat="47.24414" lon="-1.43179">
        <ele>47</ele>
        <time>2022-03-14T12:30:31Z</time>
      </trkpt>
      <trkpt lat="47.24425" lon="-1.43176">
        <ele>48</ele>
        <time>2022-03-14T12:30:33Z</time>
      </trkpt>
      <trkpt lat="47.24434" lon="-1.43167">
        <ele>47</ele>
        <time>2022-03-14T12:30:35Z</time>
      </trkpt>
      <trkpt lat="47.24443" lon="-1.43159">
        <ele>47</ele>
        <time>2022-03-14T12:30:37Z</time>
      </trkpt>
      <trkpt lat="47.24453" lon="-1.4315">
        <ele>47</ele>
        <time>2022-03-14T12:30:39Z</time>
      </trkpt>
      <trkpt lat="47.24462" lon="-1.43142">
        <ele>47</ele>
        <time>2022-03-14T12:30:41Z</time>
      </trkpt>
      <trkpt lat="47.24472" lon="-1.43133">
        <ele>47</ele>
        <time>2022-03-14T12:30:43Z</time>
      </trkpt>
      <trkpt lat="47.24481" lon="-1.43125">
        <ele>47</ele>
        <time>2022-03-14T12:30:45Z</time>
      </trkpt>
      <trkpt lat="47.24491" lon="-1.43116">
        <ele>47</ele>
        <time>2022-03-14T12:30:47Z</time>
      </trkpt>
      <trkpt lat="47.245" lon="-1.43108">
        <ele>47</ele>
        <time>2022-03-14T12:30:49Z</time>
      </trkpt>
      <trkpt lat="47.24509" lon="-1.431">
        <ele>47</ele>
        <time>2022-03-14T12:30:51Z</time>
      </trkpt>
      <trkpt lat="47.24518" lon="-1.43091">
        <ele>46</ele>
        <time>2022-03-14T12:30:53Z</time>
      </trkpt>
      <trkpt lat="47.24528" lon="-1.43083">
        <ele>47</ele>
        <time>2022-03-14T12:30:55Z</time>
      </trkpt>
      <trkpt lat="47.24537" lon="-1.43074">
        <ele>47</ele>
        <time>2022-03-14T12:30:57Z</time>
      </trkpt>
      <trkpt lat="47.24547" lon="-1.43065">
        <ele>47</ele>
        <time>2022-03-14T12:30:59Z</time>
      </trkpt>
      <trkpt lat="47.24557" lon="-1.43056">
        <ele>47</ele>
        <time>2022-03-14T12:31:01Z</time>
      </trkpt>
      <trkpt lat="47.24567" lon="-1.43047">
        <ele>47</ele>
        <time>2022-03-14T12:31:03Z</time>
      </trkpt>
      <trkpt lat="47.24576" lon="-1.43039">
        <ele>47</ele>
        <time>2022-03-14T12:31:05Z</time>
      </trkpt>
      <trkpt lat="47.24586" lon="-1.4303">
        <ele>46</ele>
        <time>2022-03-14T12:31:07Z</time>
      </trkpt>
      <trkpt lat="47.24596" lon="-1.43021">
        <ele>46</ele>
        <time>2022-03-14T12:31:09Z</time>
      </trkpt>
      <trkpt lat="47.24605" lon="-1.43012">
        <ele>46</ele>
        <time>2022-03-14T12:31:11Z</time>
      </trkpt>
      <trkpt lat="47.24614" lon="-1.43004">
        <ele>46</ele>
        <time>2022-03-14T12:31:13Z</time>
      </trkpt>
      <trkpt lat="47.24623" lon="-1.42996">
        <ele>46</ele>
        <time>2022-03-14T12:31:15Z</time>
      </trkpt>
      <trkpt lat="47.24632" lon="-1.42987">
        <ele>47</ele>
        <time>2022-03-14T12:31:17Z</time>
      </trkpt>
      <trkpt lat="47.24642" lon="-1.42978">
        <ele>47</ele>
        <time>2022-03-14T12:31:19Z</time>
      </trkpt>
      <trkpt lat="47.24651" lon="-1.4297">
        <ele>47</ele>
        <time>2022-03-14T12:31:21Z</time>
      </trkpt>
      <trkpt lat="47.24661" lon="-1.42963">
        <ele>48</ele>
        <time>2022-03-14T12:31:23Z</time>
      </trkpt>
      <trkpt lat="47.24672" lon="-1.42957">
        <ele>48</ele>
        <time>2022-03-14T12:31:25Z</time>
      </trkpt>
      <trkpt lat="47.24682" lon="-1.42952">
        <ele>48</ele>
        <time>2022-03-14T12:31:27Z</time>
      </trkpt>
      <trkpt lat="47.24692" lon="-1.42947">
        <ele>47</ele>
        <time>2022-03-14T12:31:29Z</time>
      </trkpt>
      <trkpt lat="47.24703" lon="-1.42941">
        <ele>47</ele>
        <time>2022-03-14T12:31:31Z</time>
      </trkpt>
      <trkpt lat="47.24714" lon="-1.42935">
        <ele>47</ele>
        <time>2022-03-14T12:31:33Z</time>
      </trkpt>
      <trkpt lat="47.24724" lon="-1.42928">
        <ele>47</ele>
        <time>2022-03-14T12:31:35Z</time>
      </trkpt>
      <trkpt lat="47.24734" lon="-1.42922">
        <ele>47</ele>
        <time>2022-03-14T12:31:37Z</time>
      </trkpt>
      <trkpt lat="47.24745" lon="-1.42916">
        <ele>47</ele>
        <time>2022-03-14T12:31:39Z</time>
      </trkpt>
      <trkpt lat="47.24755" lon="-1.4291">
        <ele>47</ele>
        <time>2022-03-14T12:31:41Z</time>
      </trkpt>
      <trkpt lat="47.24765" lon="-1.42904">
        <ele>47</ele>
        <time>2022-03-14T12:31:43Z</time>
      </trkpt>
      <trkpt lat="47.24776" lon="-1.42898">
        <ele>47</ele>
        <time>2022-03-14T12:31:45Z</time>
      </trkpt>
      <trkpt lat="47.24787" lon="-1.42891">
        <ele>47</ele>
        <time>2022-03-14T12:31:47Z</time>
      </trkpt>
      <trkpt lat="47.24797" lon="-1.42884">
        <ele>47</ele>
        <time>2022-03-14T12:31:49Z</time>
      </trkpt>
      <trkpt lat="47.24807" lon="-1.42877">
        <ele>47</ele>
        <time>2022-03-14T12:31:51Z</time>
      </trkpt>
      <trkpt lat="47.24817" lon="-1.42869">
        <ele>47</ele>
        <time>2022-03-14T12:31:53Z</time>
      </trkpt>
      <trkpt lat="47.24827" lon="-1.42858">
        <ele>46</ele>
        <time>2022-03-14T12:31:55Z</time>
      </trkpt>
      <trkpt lat="47.24835" lon="-1.42846">
        <ele>46</ele>
        <time>2022-03-14T12:31:57Z</time>
      </trkpt>
      <trkpt lat="47.24841" lon="-1.42832">
        <ele>47</ele>
        <time>2022-03-14T12:31:59Z</time>
      </trkpt>
      <trkpt lat="47.24848" lon="-1.42819">
        <ele>47</ele>
        <time>2022-03-14T12:32:01Z</time>
      </trkpt>
      <trkpt lat="47.24855" lon="-1.42806">
        <ele>47</ele>
        <time>2022-03-14T12:32:03Z</time>
      </trkpt>
      <trkpt lat="47.24861" lon="-1.42792">
        <ele>47</ele>
        <time>2022-03-14T12:32:05Z</time>
      </trkpt>
      <trkpt lat="47.24869" lon="-1.4278">
        <ele>47</ele>
        <time>2022-03-14T12:32:07Z</time>
      </trkpt>
      <trkpt lat="47.24876" lon="-1.42766">
        <ele>47</ele>
        <time>2022-03-14T12:32:09Z</time>
      </trkpt>
      <trkpt lat="47.24882" lon="-1.42753">
        <ele>48</ele>
        <time>2022-03-14T12:32:11Z</time>
      </trkpt>
      <trkpt lat="47.24889" lon="-1.42739">
        <ele>48</ele>
        <time>2022-03-14T12:32:13Z</time>
      </trkpt>
      <trkpt lat="47.24896" lon="-1.42727">
        <ele>48</ele>
        <time>2022-03-14T12:32:15Z</time>
      </trkpt>
      <trkpt lat="47.24902" lon="-1.42715">
        <ele>48</ele>
        <time>2022-03-14T12:32:17Z</time>
      </trkpt>
      <trkpt lat="47.24909" lon="-1.42703">
        <ele>48</ele>
        <time>2022-03-14T12:32:20Z</time>
      </trkpt>
      <trkpt lat="47.24921" lon="-1.4271">
        <ele>48</ele>
        <time>2022-03-14T12:32:23Z</time>
      </trkpt>
      <trkpt lat="47.24929" lon="-1.42722">
        <ele>48</ele>
        <time>2022-03-14T12:32:25Z</time>
      </trkpt>
      <trkpt lat="47.24938" lon="-1.42736">
        <ele>48</ele>
        <time>2022-03-14T12:32:27Z</time>
      </trkpt>
      <trkpt lat="47.24946" lon="-1.4275">
        <ele>49</ele>
        <time>2022-03-14T12:32:29Z</time>
      </trkpt>
      <trkpt lat="47.24953" lon="-1.42765">
        <ele>49</ele>
        <time>2022-03-14T12:32:31Z</time>
      </trkpt>
      <trkpt lat="47.24959" lon="-1.4278">
        <ele>49</ele>
        <time>2022-03-14T12:32:33Z</time>
      </trkpt>
      <trkpt lat="47.24967" lon="-1.42795">
        <ele>49</ele>
        <time>2022-03-14T12:32:35Z</time>
      </trkpt>
      <trkpt lat="47.24974" lon="-1.4281">
        <ele>49</ele>
        <time>2022-03-14T12:32:37Z</time>
      </trkpt>
      <trkpt lat="47.2498" lon="-1.42826">
        <ele>49</ele>
        <time>2022-03-14T12:32:39Z</time>
      </trkpt>
      <trkpt lat="47.24987" lon="-1.42841">
        <ele>49</ele>
        <time>2022-03-14T12:32:41Z</time>
      </trkpt>
      <trkpt lat="47.24994" lon="-1.42856">
        <ele>49</ele>
        <time>2022-03-14T12:32:43Z</time>
      </trkpt>
      <trkpt lat="47.25002" lon="-1.4287">
        <ele>49</ele>
        <time>2022-03-14T12:32:45Z</time>
      </trkpt>
      <trkpt lat="47.2501" lon="-1.42882">
        <ele>49</ele>
        <time>2022-03-14T12:32:47Z</time>
      </trkpt>
      <trkpt lat="47.2502" lon="-1.42893">
        <ele>49</ele>
        <time>2022-03-14T12:32:49Z</time>
      </trkpt>
      <trkpt lat="47.2503" lon="-1.42899">
        <ele>49</ele>
        <time>2022-03-14T12:32:51Z</time>
      </trkpt>
      <trkpt lat="47.25041" lon="-1.42893">
        <ele>49</ele>
        <time>2022-03-14T12:32:53Z</time>
      </trkpt>
      <trkpt lat="47.2505" lon="-1.42881">
        <ele>49</ele>
        <time>2022-03-14T12:32:55Z</time>
      </trkpt>
      <trkpt lat="47.25058" lon="-1.42868">
        <ele>48</ele>
        <time>2022-03-14T12:32:57Z</time>
      </trkpt>
      <trkpt lat="47.25065" lon="-1.42855">
        <ele>48</ele>
        <time>2022-03-14T12:32:59Z</time>
      </trkpt>
      <trkpt lat="47.25072" lon="-1.4284">
        <ele>48</ele>
        <time>2022-03-14T12:33:01Z</time>
      </trkpt>
      <trkpt lat="47.25078" lon="-1.42827">
        <ele>48</ele>
        <time>2022-03-14T12:33:03Z</time>
      </trkpt>
      <trkpt lat="47.25085" lon="-1.42813">
        <ele>48</ele>
        <time>2022-03-14T12:33:05Z</time>
      </trkpt>
      <trkpt lat="47.25092" lon="-1.42799">
        <ele>48</ele>
        <time>2022-03-14T12:33:07Z</time>
      </trkpt>
      <trkpt lat="47.25099" lon="-1.42785">
        <ele>48</ele>
        <time>2022-03-14T12:33:09Z</time>
      </trkpt>
      <trkpt lat="47.25106" lon="-1.4277">
        <ele>48</ele>
        <time>2022-03-14T12:33:11Z</time>
      </trkpt>
      <trkpt lat="47.25113" lon="-1.42756">
        <ele>48</ele>
        <time>2022-03-14T12:33:13Z</time>
      </trkpt>
      <trkpt lat="47.2512" lon="-1.42742">
        <ele>48</ele>
        <time>2022-03-14T12:33:15Z</time>
      </trkpt>
      <trkpt lat="47.25127" lon="-1.42728">
        <ele>48</ele>
        <time>2022-03-14T12:33:17Z</time>
      </trkpt>
      <trkpt lat="47.25133" lon="-1.42713">
        <ele>48</ele>
        <time>2022-03-14T12:33:19Z</time>
      </trkpt>
      <trkpt lat="47.2514" lon="-1.42699">
        <ele>48</ele>
        <time>2022-03-14T12:33:21Z</time>
      </trkpt>
      <trkpt lat="47.25146" lon="-1.42685">
        <ele>48</ele>
        <time>2022-03-14T12:33:23Z</time>
      </trkpt>
      <trkpt lat="47.25153" lon="-1.4267">
        <ele>47</ele>
        <time>2022-03-14T12:33:25Z</time>
      </trkpt>
      <trkpt lat="47.2516" lon="-1.42656">
        <ele>48</ele>
        <time>2022-03-14T12:33:27Z</time>
      </trkpt>
      <trkpt lat="47.25166" lon="-1.42642">
        <ele>48</ele>
        <time>2022-03-14T12:33:29Z</time>
      </trkpt>
      <trkpt lat="47.25173" lon="-1.42628">
        <ele>48</ele>
        <time>2022-03-14T12:33:31Z</time>
      </trkpt>
      <trkpt lat="47.2518" lon="-1.42613">
        <ele>48</ele>
        <time>2022-03-14T12:33:33Z</time>
      </trkpt>
      <trkpt lat="47.25186" lon="-1.42599">
        <ele>48</ele>
        <time>2022-03-14T12:33:35Z</time>
      </trkpt>
      <trkpt lat="47.25193" lon="-1.42585">
        <ele>48</ele>
        <time>2022-03-14T12:33:37Z</time>
      </trkpt>
      <trkpt lat="47.252" lon="-1.42571">
        <ele>48</ele>
        <time>2022-03-14T12:33:39Z</time>
      </trkpt>
      <trkpt lat="47.25207" lon="-1.42556">
        <ele>49</ele>
        <time>2022-03-14T12:33:41Z</time>
      </trkpt>
      <trkpt lat="47.25214" lon="-1.42542">
        <ele>50</ele>
        <time>2022-03-14T12:33:43Z</time>
      </trkpt>
      <trkpt lat="47.2522" lon="-1.42528">
        <ele>49</ele>
        <time>2022-03-14T12:33:45Z</time>
      </trkpt>
      <trkpt lat="47.25227" lon="-1.42515">
        <ele>50</ele>
        <time>2022-03-14T12:33:47Z</time>
      </trkpt>
      <trkpt lat="47.25233" lon="-1.425">
        <ele>50</ele>
        <time>2022-03-14T12:33:49Z</time>
      </trkpt>
      <trkpt lat="47.2524" lon="-1.42487">
        <ele>49</ele>
        <time>2022-03-14T12:33:51Z</time>
      </trkpt>
      <trkpt lat="47.25247" lon="-1.42474">
        <ele>49</ele>
        <time>2022-03-14T12:33:53Z</time>
      </trkpt>
      <trkpt lat="47.25256" lon="-1.42463">
        <ele>49</ele>
        <time>2022-03-14T12:33:55Z</time>
      </trkpt>
      <trkpt lat="47.25266" lon="-1.42453">
        <ele>49</ele>
        <time>2022-03-14T12:33:57Z</time>
      </trkpt>
      <trkpt lat="47.25276" lon="-1.42444">
        <ele>49</ele>
        <time>2022-03-14T12:33:59Z</time>
      </trkpt>
      <trkpt lat="47.25286" lon="-1.42435">
        <ele>49</ele>
        <time>2022-03-14T12:34:01Z</time>
      </trkpt>
      <trkpt lat="47.25296" lon="-1.42425">
        <ele>49</ele>
        <time>2022-03-14T12:34:03Z</time>
      </trkpt>
      <trkpt lat="47.25306" lon="-1.42416">
        <ele>49</ele>
        <time>2022-03-14T12:34:05Z</time>
      </trkpt>
      <trkpt lat="47.25316" lon="-1.42407">
        <ele>49</ele>
        <time>2022-03-14T12:34:07Z</time>
      </trkpt>
      <trkpt lat="47.25325" lon="-1.42398">
        <ele>49</ele>
        <time>2022-03-14T12:34:09Z</time>
      </trkpt>
      <trkpt lat="47.25335" lon="-1.42389">
        <ele>49</ele>
        <time>2022-03-14T12:34:11Z</time>
      </trkpt>
      <trkpt lat="47.25344" lon="-1.4238">
        <ele>49</ele>
        <time>2022-03-14T12:34:13Z</time>
      </trkpt>
      <trkpt lat="47.25354" lon="-1.42371">
        <ele>48</ele>
        <time>2022-03-14T12:34:15Z</time>
      </trkpt>
      <trkpt lat="47.25363" lon="-1.42362">
        <ele>49</ele>
        <time>2022-03-14T12:34:17Z</time>
      </trkpt>
      <trkpt lat="47.25372" lon="-1.42353">
        <ele>48</ele>
        <time>2022-03-14T12:34:19Z</time>
      </trkpt>
      <trkpt lat="47.25382" lon="-1.42344">
        <ele>49</ele>
        <time>2022-03-14T12:34:21Z</time>
      </trkpt>
      <trkpt lat="47.25392" lon="-1.42335">
        <ele>49</ele>
        <time>2022-03-14T12:34:23Z</time>
      </trkpt>
      <trkpt lat="47.25406" lon="-1.42321">
        <ele>49</ele>
        <time>2022-03-14T12:34:26Z</time>
      </trkpt>
      <trkpt lat="47.25416" lon="-1.42312">
        <ele>49</ele>
        <time>2022-03-14T12:34:28Z</time>
      </trkpt>
      <trkpt lat="47.25426" lon="-1.42303">
        <ele>49</ele>
        <time>2022-03-14T12:34:30Z</time>
      </trkpt>
      <trkpt lat="47.25435" lon="-1.42294">
        <ele>49</ele>
        <time>2022-03-14T12:34:32Z</time>
      </trkpt>
      <trkpt lat="47.25445" lon="-1.42285">
        <ele>50</ele>
        <time>2022-03-14T12:34:34Z</time>
      </trkpt>
      <trkpt lat="47.25454" lon="-1.42276">
        <ele>50</ele>
        <time>2022-03-14T12:34:36Z</time>
      </trkpt>
      <trkpt lat="47.25464" lon="-1.42269">
        <ele>50</ele>
        <time>2022-03-14T12:34:38Z</time>
      </trkpt>
      <trkpt lat="47.25474" lon="-1.42259">
        <ele>50</ele>
        <time>2022-03-14T12:34:40Z</time>
      </trkpt>
      <trkpt lat="47.25484" lon="-1.42249">
        <ele>50</ele>
        <time>2022-03-14T12:34:42Z</time>
      </trkpt>
      <trkpt lat="47.25494" lon="-1.4224">
        <ele>49</ele>
        <time>2022-03-14T12:34:44Z</time>
      </trkpt>
      <trkpt lat="47.25504" lon="-1.4223">
        <ele>49</ele>
        <time>2022-03-14T12:34:46Z</time>
      </trkpt>
      <trkpt lat="47.25514" lon="-1.42221">
        <ele>49</ele>
        <time>2022-03-14T12:34:48Z</time>
      </trkpt>
      <trkpt lat="47.25524" lon="-1.42212">
        <ele>48</ele>
        <time>2022-03-14T12:34:50Z</time>
      </trkpt>
      <trkpt lat="47.25533" lon="-1.42203">
        <ele>48</ele>
        <time>2022-03-14T12:34:52Z</time>
      </trkpt>
      <trkpt lat="47.25543" lon="-1.42194">
        <ele>49</ele>
        <time>2022-03-14T12:34:54Z</time>
      </trkpt>
      <trkpt lat="47.25552" lon="-1.42186">
        <ele>48</ele>
        <time>2022-03-14T12:34:56Z</time>
      </trkpt>
      <trkpt lat="47.25562" lon="-1.42177">
        <ele>48</ele>
        <time>2022-03-14T12:34:58Z</time>
      </trkpt>
      <trkpt lat="47.25572" lon="-1.42168">
        <ele>48</ele>
        <time>2022-03-14T12:35:00Z</time>
      </trkpt>
      <trkpt lat="47.25582" lon="-1.42159">
        <ele>48</ele>
        <time>2022-03-14T12:35:02Z</time>
      </trkpt>
      <trkpt lat="47.25592" lon="-1.4215">
        <ele>48</ele>
        <time>2022-03-14T12:35:04Z</time>
      </trkpt>
      <trkpt lat="47.25601" lon="-1.4214">
        <ele>48</ele>
        <time>2022-03-14T12:35:06Z</time>
      </trkpt>
      <trkpt lat="47.25611" lon="-1.42131">
        <ele>48</ele>
        <time>2022-03-14T12:35:08Z</time>
      </trkpt>
      <trkpt lat="47.2562" lon="-1.42122">
        <ele>48</ele>
        <time>2022-03-14T12:35:10Z</time>
      </trkpt>
      <trkpt lat="47.25629" lon="-1.42113">
        <ele>48</ele>
        <time>2022-03-14T12:35:12Z</time>
      </trkpt>
      <trkpt lat="47.25637" lon="-1.42105">
        <ele>48</ele>
        <time>2022-03-14T12:35:14Z</time>
      </trkpt>
      <trkpt lat="47.25648" lon="-1.42096">
        <ele>48</ele>
        <time>2022-03-14T12:35:17Z</time>
      </trkpt>
      <trkpt lat="47.25659" lon="-1.42098">
        <ele>48</ele>
        <time>2022-03-14T12:35:22Z</time>
      </trkpt>
      <trkpt lat="47.25661" lon="-1.42113">
        <ele>49</ele>
        <time>2022-03-14T12:35:24Z</time>
      </trkpt>
      <trkpt lat="47.25663" lon="-1.42131">
        <ele>50</ele>
        <time>2022-03-14T12:35:26Z</time>
      </trkpt>
      <trkpt lat="47.25665" lon="-1.42149">
        <ele>50</ele>
        <time>2022-03-14T12:35:28Z</time>
      </trkpt>
      <trkpt lat="47.25668" lon="-1.42168">
        <ele>50</ele>
        <time>2022-03-14T12:35:30Z</time>
      </trkpt>
      <trkpt lat="47.2567" lon="-1.42186">
        <ele>50</ele>
        <time>2022-03-14T12:35:32Z</time>
      </trkpt>
      <trkpt lat="47.25672" lon="-1.42204">
        <ele>50</ele>
        <time>2022-03-14T12:35:34Z</time>
      </trkpt>
      <trkpt lat="47.25674" lon="-1.42222">
        <ele>50</ele>
        <time>2022-03-14T12:35:36Z</time>
      </trkpt>
      <trkpt lat="47.25676" lon="-1.42241">
        <ele>50</ele>
        <time>2022-03-14T12:35:38Z</time>
      </trkpt>
      <trkpt lat="47.25678" lon="-1.42259">
        <ele>50</ele>
        <time>2022-03-14T12:35:40Z</time>
      </trkpt>
      <trkpt lat="47.25681" lon="-1.42278">
        <ele>50</ele>
        <time>2022-03-14T12:35:42Z</time>
      </trkpt>
      <trkpt lat="47.25683" lon="-1.42296">
        <ele>49</ele>
        <time>2022-03-14T12:35:44Z</time>
      </trkpt>
      <trkpt lat="47.25685" lon="-1.42315">
        <ele>49</ele>
        <time>2022-03-14T12:35:46Z</time>
      </trkpt>
      <trkpt lat="47.25686" lon="-1.42333">
        <ele>49</ele>
        <time>2022-03-14T12:35:48Z</time>
      </trkpt>
      <trkpt lat="47.25689" lon="-1.42351">
        <ele>50</ele>
        <time>2022-03-14T12:35:50Z</time>
      </trkpt>
      <trkpt lat="47.25691" lon="-1.42369">
        <ele>50</ele>
        <time>2022-03-14T12:35:52Z</time>
      </trkpt>
      <trkpt lat="47.25693" lon="-1.42387">
        <ele>50</ele>
        <time>2022-03-14T12:35:54Z</time>
      </trkpt>
      <trkpt lat="47.25694" lon="-1.42405">
        <ele>50</ele>
        <time>2022-03-14T12:35:56Z</time>
      </trkpt>
      <trkpt lat="47.25697" lon="-1.42424">
        <ele>50</ele>
        <time>2022-03-14T12:35:58Z</time>
      </trkpt>
      <trkpt lat="47.25699" lon="-1.42442">
        <ele>50</ele>
        <time>2022-03-14T12:36:00Z</time>
      </trkpt>
      <trkpt lat="47.257" lon="-1.4246">
        <ele>50</ele>
        <time>2022-03-14T12:36:02Z</time>
      </trkpt>
      <trkpt lat="47.25702" lon="-1.42478">
        <ele>50</ele>
        <time>2022-03-14T12:36:04Z</time>
      </trkpt>
      <trkpt lat="47.25703" lon="-1.42496">
        <ele>51</ele>
        <time>2022-03-14T12:36:06Z</time>
      </trkpt>
      <trkpt lat="47.25706" lon="-1.42513">
        <ele>51</ele>
        <time>2022-03-14T12:36:08Z</time>
      </trkpt>
      <trkpt lat="47.25708" lon="-1.42531">
        <ele>51</ele>
        <time>2022-03-14T12:36:10Z</time>
      </trkpt>
      <trkpt lat="47.25709" lon="-1.42547">
        <ele>51</ele>
        <time>2022-03-14T12:36:12Z</time>
      </trkpt>
      <trkpt lat="47.25712" lon="-1.42565">
        <ele>52</ele>
        <time>2022-03-14T12:36:14Z</time>
      </trkpt>
      <trkpt lat="47.25715" lon="-1.42581">
        <ele>52</ele>
        <time>2022-03-14T12:36:16Z</time>
      </trkpt>
      <trkpt lat="47.25719" lon="-1.42596">
        <ele>52</ele>
        <time>2022-03-14T12:36:18Z</time>
      </trkpt>
      <trkpt lat="47.25724" lon="-1.42609">
        <ele>53</ele>
        <time>2022-03-14T12:36:20Z</time>
      </trkpt>
      <trkpt lat="47.25731" lon="-1.42621">
        <ele>53</ele>
        <time>2022-03-14T12:36:22Z</time>
      </trkpt>
      <trkpt lat="47.25737" lon="-1.42637">
        <ele>53</ele>
        <time>2022-03-14T12:36:24Z</time>
      </trkpt>
      <trkpt lat="47.25743" lon="-1.42651">
        <ele>53</ele>
        <time>2022-03-14T12:36:26Z</time>
      </trkpt>
      <trkpt lat="47.25748" lon="-1.42664">
        <ele>54</ele>
        <time>2022-03-14T12:36:28Z</time>
      </trkpt>
      <trkpt lat="47.25754" lon="-1.42677">
        <ele>54</ele>
        <time>2022-03-14T12:36:30Z</time>
      </trkpt>
      <trkpt lat="47.2576" lon="-1.42692">
        <ele>54</ele>
        <time>2022-03-14T12:36:32Z</time>
      </trkpt>
      <trkpt lat="47.25766" lon="-1.42705">
        <ele>55</ele>
        <time>2022-03-14T12:36:34Z</time>
      </trkpt>
      <trkpt lat="47.25773" lon="-1.42719">
        <ele>56</ele>
        <time>2022-03-14T12:36:36Z</time>
      </trkpt>
      <trkpt lat="47.25778" lon="-1.42734">
        <ele>56</ele>
        <time>2022-03-14T12:36:38Z</time>
      </trkpt>
      <trkpt lat="47.25784" lon="-1.42746">
        <ele>56</ele>
        <time>2022-03-14T12:36:40Z</time>
      </trkpt>
      <trkpt lat="47.2579" lon="-1.42762">
        <ele>56</ele>
        <time>2022-03-14T12:36:42Z</time>
      </trkpt>
      <trkpt lat="47.25797" lon="-1.42778">
        <ele>56</ele>
        <time>2022-03-14T12:36:44Z</time>
      </trkpt>
      <trkpt lat="47.25803" lon="-1.42792">
        <ele>57</ele>
        <time>2022-03-14T12:36:46Z</time>
      </trkpt>
      <trkpt lat="47.25809" lon="-1.42806">
        <ele>59</ele>
        <time>2022-03-14T12:36:48Z</time>
      </trkpt>
      <trkpt lat="47.25816" lon="-1.4282">
        <ele>59</ele>
        <time>2022-03-14T12:36:50Z</time>
      </trkpt>
      <trkpt lat="47.25821" lon="-1.42834">
        <ele>59</ele>
        <time>2022-03-14T12:36:52Z</time>
      </trkpt>
      <trkpt lat="47.25826" lon="-1.42846">
        <ele>60</ele>
        <time>2022-03-14T12:36:54Z</time>
      </trkpt>
      <trkpt lat="47.25831" lon="-1.42858">
        <ele>61</ele>
        <time>2022-03-14T12:36:56Z</time>
      </trkpt>
      <trkpt lat="47.25836" lon="-1.42873">
        <ele>61</ele>
        <time>2022-03-14T12:36:58Z</time>
      </trkpt>
      <trkpt lat="47.25843" lon="-1.42888">
        <ele>62</ele>
        <time>2022-03-14T12:37:00Z</time>
      </trkpt>
      <trkpt lat="47.2585" lon="-1.42903">
        <ele>65</ele>
        <time>2022-03-14T12:37:02Z</time>
      </trkpt>
      <trkpt lat="47.25858" lon="-1.42923">
        <ele>65</ele>
        <time>2022-03-14T12:37:04Z</time>
      </trkpt>
      <trkpt lat="47.25866" lon="-1.42945">
        <ele>64</ele>
        <time>2022-03-14T12:37:06Z</time>
      </trkpt>
      <trkpt lat="47.25874" lon="-1.42965">
        <ele>63</ele>
        <time>2022-03-14T12:37:08Z</time>
      </trkpt>
      <trkpt lat="47.25882" lon="-1.42986">
        <ele>62</ele>
        <time>2022-03-14T12:37:10Z</time>
      </trkpt>
      <trkpt lat="47.2589" lon="-1.43007">
        <ele>61</ele>
        <time>2022-03-14T12:37:12Z</time>
      </trkpt>
      <trkpt lat="47.25898" lon="-1.43028">
        <ele>60</ele>
        <time>2022-03-14T12:37:14Z</time>
      </trkpt>
      <trkpt lat="47.25906" lon="-1.43048">
        <ele>59</ele>
        <time>2022-03-14T12:37:16Z</time>
      </trkpt>
      <trkpt lat="47.25913" lon="-1.43067">
        <ele>59</ele>
        <time>2022-03-14T12:37:18Z</time>
      </trkpt>
      <trkpt lat="47.25921" lon="-1.43086">
        <ele>58</ele>
        <time>2022-03-14T12:37:20Z</time>
      </trkpt>
      <trkpt lat="47.25928" lon="-1.43104">
        <ele>58</ele>
        <time>2022-03-14T12:37:22Z</time>
      </trkpt>
      <trkpt lat="47.25937" lon="-1.4312">
        <ele>57</ele>
        <time>2022-03-14T12:37:24Z</time>
      </trkpt>
      <trkpt lat="47.25946" lon="-1.43135">
        <ele>57</ele>
        <time>2022-03-14T12:37:26Z</time>
      </trkpt>
      <trkpt lat="47.25955" lon="-1.43148">
        <ele>58</ele>
        <time>2022-03-14T12:37:28Z</time>
      </trkpt>
      <trkpt lat="47.25963" lon="-1.43162">
        <ele>57</ele>
        <time>2022-03-14T12:37:30Z</time>
      </trkpt>
      <trkpt lat="47.25973" lon="-1.43174">
        <ele>57</ele>
        <time>2022-03-14T12:37:32Z</time>
      </trkpt>
      <trkpt lat="47.25981" lon="-1.43186">
        <ele>57</ele>
        <time>2022-03-14T12:37:34Z</time>
      </trkpt>
      <trkpt lat="47.2599" lon="-1.43198">
        <ele>57</ele>
        <time>2022-03-14T12:37:36Z</time>
      </trkpt>
      <trkpt lat="47.25997" lon="-1.43208">
        <ele>57</ele>
        <time>2022-03-14T12:37:38Z</time>
      </trkpt>
      <trkpt lat="47.26005" lon="-1.43218">
        <ele>57</ele>
        <time>2022-03-14T12:37:40Z</time>
      </trkpt>
      <trkpt lat="47.26011" lon="-1.43227">
        <ele>56</ele>
        <time>2022-03-14T12:37:42Z</time>
      </trkpt>
      <trkpt lat="47.26019" lon="-1.43238">
        <ele>58</ele>
        <time>2022-03-14T12:37:44Z</time>
      </trkpt>
      <trkpt lat="47.26027" lon="-1.43249">
        <ele>59</ele>
        <time>2022-03-14T12:37:46Z</time>
      </trkpt>
      <trkpt lat="47.26036" lon="-1.43259">
        <ele>60</ele>
        <time>2022-03-14T12:37:48Z</time>
      </trkpt>
      <trkpt lat="47.26045" lon="-1.43271">
        <ele>61</ele>
        <time>2022-03-14T12:37:50Z</time>
      </trkpt>
      <trkpt lat="47.26053" lon="-1.43285">
        <ele>61</ele>
        <time>2022-03-14T12:37:52Z</time>
      </trkpt>
      <trkpt lat="47.26062" lon="-1.43298">
        <ele>61</ele>
        <time>2022-03-14T12:37:54Z</time>
      </trkpt>
      <trkpt lat="47.26071" lon="-1.43308">
        <ele>62</ele>
        <time>2022-03-14T12:37:56Z</time>
      </trkpt>
      <trkpt lat="47.26079" lon="-1.43319">
        <ele>62</ele>
        <time>2022-03-14T12:37:58Z</time>
      </trkpt>
      <trkpt lat="47.26088" lon="-1.43331">
        <ele>62</ele>
        <time>2022-03-14T12:38:00Z</time>
      </trkpt>
      <trkpt lat="47.26096" lon="-1.43342">
        <ele>62</ele>
        <time>2022-03-14T12:38:02Z</time>
      </trkpt>
      <trkpt lat="47.26103" lon="-1.43352">
        <ele>62</ele>
        <time>2022-03-14T12:38:04Z</time>
      </trkpt>
      <trkpt lat="47.26111" lon="-1.43363">
        <ele>62</ele>
        <time>2022-03-14T12:38:06Z</time>
      </trkpt>
      <trkpt lat="47.26121" lon="-1.43373">
        <ele>62</ele>
        <time>2022-03-14T12:38:08Z</time>
      </trkpt>
      <trkpt lat="47.2613" lon="-1.43384">
        <ele>62</ele>
        <time>2022-03-14T12:38:10Z</time>
      </trkpt>
      <trkpt lat="47.26138" lon="-1.43395">
        <ele>63</ele>
        <time>2022-03-14T12:38:12Z</time>
      </trkpt>
      <trkpt lat="47.26148" lon="-1.4341">
        <ele>65</ele>
        <time>2022-03-14T12:38:14Z</time>
      </trkpt>
      <trkpt lat="47.26158" lon="-1.43425">
        <ele>66</ele>
        <time>2022-03-14T12:38:16Z</time>
      </trkpt>
      <trkpt lat="47.26167" lon="-1.4344">
        <ele>67</ele>
        <time>2022-03-14T12:38:18Z</time>
      </trkpt>
      <trkpt lat="47.26176" lon="-1.43455">
        <ele>68</ele>
        <time>2022-03-14T12:38:20Z</time>
      </trkpt>
      <trkpt lat="47.26185" lon="-1.43471">
        <ele>68</ele>
        <time>2022-03-14T12:38:22Z</time>
      </trkpt>
      <trkpt lat="47.26194" lon="-1.43485">
        <ele>68</ele>
        <time>2022-03-14T12:38:24Z</time>
      </trkpt>
      <trkpt lat="47.26205" lon="-1.43499">
        <ele>68</ele>
        <time>2022-03-14T12:38:26Z</time>
      </trkpt>
      <trkpt lat="47.26215" lon="-1.43515">
        <ele>68</ele>
        <time>2022-03-14T12:38:28Z</time>
      </trkpt>
      <trkpt lat="47.26224" lon="-1.43532">
        <ele>69</ele>
        <time>2022-03-14T12:38:30Z</time>
      </trkpt>
      <trkpt lat="47.26228" lon="-1.43548">
        <ele>68</ele>
        <time>2022-03-14T12:38:32Z</time>
      </trkpt>
      <trkpt lat="47.26224" lon="-1.43569">
        <ele>64</ele>
        <time>2022-03-14T12:38:34Z</time>
      </trkpt>
      <trkpt lat="47.26215" lon="-1.43587">
        <ele>62</ele>
        <time>2022-03-14T12:38:36Z</time>
      </trkpt>
      <trkpt lat="47.26204" lon="-1.43603">
        <ele>59</ele>
        <time>2022-03-14T12:38:38Z</time>
      </trkpt>
      <trkpt lat="47.26193" lon="-1.43617">
        <ele>58</ele>
        <time>2022-03-14T12:38:40Z</time>
      </trkpt>
      <trkpt lat="47.26182" lon="-1.43631">
        <ele>58</ele>
        <time>2022-03-14T12:38:42Z</time>
      </trkpt>
      <trkpt lat="47.26172" lon="-1.43645">
        <ele>58</ele>
        <time>2022-03-14T12:38:44Z</time>
      </trkpt>
      <trkpt lat="47.26162" lon="-1.43659">
        <ele>58</ele>
        <time>2022-03-14T12:38:46Z</time>
      </trkpt>
      <trkpt lat="47.26153" lon="-1.43673">
        <ele>58</ele>
        <time>2022-03-14T12:38:48Z</time>
      </trkpt>
      <trkpt lat="47.26145" lon="-1.43689">
        <ele>57</ele>
        <time>2022-03-14T12:38:50Z</time>
      </trkpt>
      <trkpt lat="47.26137" lon="-1.43703">
        <ele>58</ele>
        <time>2022-03-14T12:38:52Z</time>
      </trkpt>
      <trkpt lat="47.26129" lon="-1.43716">
        <ele>58</ele>
        <time>2022-03-14T12:38:54Z</time>
      </trkpt>
      <trkpt lat="47.26123" lon="-1.4373">
        <ele>58</ele>
        <time>2022-03-14T12:38:56Z</time>
      </trkpt>
      <trkpt lat="47.26117" lon="-1.43741">
        <ele>58</ele>
        <time>2022-03-14T12:38:58Z</time>
      </trkpt>
      <trkpt lat="47.26109" lon="-1.43753">
        <ele>58</ele>
        <time>2022-03-14T12:39:00Z</time>
      </trkpt>
      <trkpt lat="47.26099" lon="-1.43766">
        <ele>57</ele>
        <time>2022-03-14T12:39:02Z</time>
      </trkpt>
      <trkpt lat="47.26091" lon="-1.43778">
        <ele>57</ele>
        <time>2022-03-14T12:39:04Z</time>
      </trkpt>
      <trkpt lat="47.26081" lon="-1.43788">
        <ele>58</ele>
        <time>2022-03-14T12:39:06Z</time>
      </trkpt>
      <trkpt lat="47.26071" lon="-1.43801">
        <ele>57</ele>
        <time>2022-03-14T12:39:08Z</time>
      </trkpt>
      <trkpt lat="47.26061" lon="-1.43815">
        <ele>57</ele>
        <time>2022-03-14T12:39:10Z</time>
      </trkpt>
      <trkpt lat="47.26051" lon="-1.43831">
        <ele>57</ele>
        <time>2022-03-14T12:39:12Z</time>
      </trkpt>
      <trkpt lat="47.26043" lon="-1.43848">
        <ele>58</ele>
        <time>2022-03-14T12:39:14Z</time>
      </trkpt>
      <trkpt lat="47.26034" lon="-1.43862">
        <ele>58</ele>
        <time>2022-03-14T12:39:16Z</time>
      </trkpt>
      <trkpt lat="47.26024" lon="-1.43873">
        <ele>58</ele>
        <time>2022-03-14T12:39:18Z</time>
      </trkpt>
      <trkpt lat="47.26012" lon="-1.43883">
        <ele>57</ele>
        <time>2022-03-14T12:39:20Z</time>
      </trkpt>
      <trkpt lat="47.26002" lon="-1.43892">
        <ele>57</ele>
        <time>2022-03-14T12:39:22Z</time>
      </trkpt>
      <trkpt lat="47.25993" lon="-1.43902">
        <ele>57</ele>
        <time>2022-03-14T12:39:24Z</time>
      </trkpt>
      <trkpt lat="47.25982" lon="-1.43912">
        <ele>57</ele>
        <time>2022-03-14T12:39:26Z</time>
      </trkpt>
      <trkpt lat="47.25972" lon="-1.43921">
        <ele>57</ele>
        <time>2022-03-14T12:39:28Z</time>
      </trkpt>
      <trkpt lat="47.25962" lon="-1.43932">
        <ele>57</ele>
        <time>2022-03-14T12:39:30Z</time>
      </trkpt>
      <trkpt lat="47.25953" lon="-1.43944">
        <ele>58</ele>
        <time>2022-03-14T12:39:32Z</time>
      </trkpt>
      <trkpt lat="47.25943" lon="-1.43954">
        <ele>58</ele>
        <time>2022-03-14T12:39:34Z</time>
      </trkpt>
      <trkpt lat="47.25934" lon="-1.43965">
        <ele>60</ele>
        <time>2022-03-14T12:39:36Z</time>
      </trkpt>
      <trkpt lat="47.25925" lon="-1.43976">
        <ele>60</ele>
        <time>2022-03-14T12:39:38Z</time>
      </trkpt>
      <trkpt lat="47.25916" lon="-1.43988">
        <ele>61</ele>
        <time>2022-03-14T12:39:40Z</time>
      </trkpt>
      <trkpt lat="47.25906" lon="-1.44">
        <ele>62</ele>
        <time>2022-03-14T12:39:42Z</time>
      </trkpt>
      <trkpt lat="47.25896" lon="-1.44013">
        <ele>62</ele>
        <time>2022-03-14T12:39:44Z</time>
      </trkpt>
      <trkpt lat="47.25886" lon="-1.44028">
        <ele>63</ele>
        <time>2022-03-14T12:39:46Z</time>
      </trkpt>
      <trkpt lat="47.25878" lon="-1.44046">
        <ele>64</ele>
        <time>2022-03-14T12:39:48Z</time>
      </trkpt>
      <trkpt lat="47.2587" lon="-1.44066">
        <ele>64</ele>
        <time>2022-03-14T12:39:50Z</time>
      </trkpt>
      <trkpt lat="47.25859" lon="-1.44083">
        <ele>62</ele>
        <time>2022-03-14T12:39:52Z</time>
      </trkpt>
      <trkpt lat="47.25849" lon="-1.44099">
        <ele>61</ele>
        <time>2022-03-14T12:39:54Z</time>
      </trkpt>
      <trkpt lat="47.25839" lon="-1.44111">
        <ele>61</ele>
        <time>2022-03-14T12:39:56Z</time>
      </trkpt>
      <trkpt lat="47.25829" lon="-1.44123">
        <ele>61</ele>
        <time>2022-03-14T12:39:58Z</time>
      </trkpt>
      <trkpt lat="47.25819" lon="-1.44136">
        <ele>60</ele>
        <time>2022-03-14T12:40:00Z</time>
      </trkpt>
      <trkpt lat="47.25809" lon="-1.44149">
        <ele>59</ele>
        <time>2022-03-14T12:40:02Z</time>
      </trkpt>
      <trkpt lat="47.25798" lon="-1.44161">
        <ele>58</ele>
        <time>2022-03-14T12:40:04Z</time>
      </trkpt>
      <trkpt lat="47.25788" lon="-1.44174">
        <ele>57</ele>
        <time>2022-03-14T12:40:06Z</time>
      </trkpt>
      <trkpt lat="47.25779" lon="-1.44185">
        <ele>57</ele>
        <time>2022-03-14T12:40:08Z</time>
      </trkpt>
      <trkpt lat="47.25769" lon="-1.44196">
        <ele>56</ele>
        <time>2022-03-14T12:40:10Z</time>
      </trkpt>
      <trkpt lat="47.25759" lon="-1.44206">
        <ele>56</ele>
        <time>2022-03-14T12:40:12Z</time>
      </trkpt>
      <trkpt lat="47.25749" lon="-1.44219">
        <ele>56</ele>
        <time>2022-03-14T12:40:14Z</time>
      </trkpt>
      <trkpt lat="47.25741" lon="-1.44231">
        <ele>56</ele>
        <time>2022-03-14T12:40:16Z</time>
      </trkpt>
      <trkpt lat="47.25732" lon="-1.44243">
        <ele>56</ele>
        <time>2022-03-14T12:40:18Z</time>
      </trkpt>
      <trkpt lat="47.25723" lon="-1.44255">
        <ele>56</ele>
        <time>2022-03-14T12:40:20Z</time>
      </trkpt>
      <trkpt lat="47.25713" lon="-1.44267">
        <ele>55</ele>
        <time>2022-03-14T12:40:22Z</time>
      </trkpt>
      <trkpt lat="47.25704" lon="-1.44278">
        <ele>55</ele>
        <time>2022-03-14T12:40:24Z</time>
      </trkpt>
      <trkpt lat="47.25694" lon="-1.44291">
        <ele>55</ele>
        <time>2022-03-14T12:40:26Z</time>
      </trkpt>
      <trkpt lat="47.25684" lon="-1.44303">
        <ele>55</ele>
        <time>2022-03-14T12:40:28Z</time>
      </trkpt>
      <trkpt lat="47.25675" lon="-1.44314">
        <ele>56</ele>
        <time>2022-03-14T12:40:30Z</time>
      </trkpt>
      <trkpt lat="47.25666" lon="-1.44326">
        <ele>56</ele>
        <time>2022-03-14T12:40:32Z</time>
      </trkpt>
      <trkpt lat="47.25657" lon="-1.44337">
        <ele>56</ele>
        <time>2022-03-14T12:40:34Z</time>
      </trkpt>
      <trkpt lat="47.25647" lon="-1.44347">
        <ele>56</ele>
        <time>2022-03-14T12:40:36Z</time>
      </trkpt>
      <trkpt lat="47.25638" lon="-1.44358">
        <ele>56</ele>
        <time>2022-03-14T12:40:38Z</time>
      </trkpt>
      <trkpt lat="47.25628" lon="-1.44371">
        <ele>56</ele>
        <time>2022-03-14T12:40:40Z</time>
      </trkpt>
      <trkpt lat="47.25618" lon="-1.44382">
        <ele>56</ele>
        <time>2022-03-14T12:40:42Z</time>
      </trkpt>
      <trkpt lat="47.25609" lon="-1.44393">
        <ele>57</ele>
        <time>2022-03-14T12:40:44Z</time>
      </trkpt>
      <trkpt lat="47.25598" lon="-1.44404">
        <ele>57</ele>
        <time>2022-03-14T12:40:46Z</time>
      </trkpt>
      <trkpt lat="47.25588" lon="-1.44415">
        <ele>58</ele>
        <time>2022-03-14T12:40:48Z</time>
      </trkpt>
      <trkpt lat="47.25578" lon="-1.44427">
        <ele>57</ele>
        <time>2022-03-14T12:40:50Z</time>
      </trkpt>
      <trkpt lat="47.25568" lon="-1.44439">
        <ele>57</ele>
        <time>2022-03-14T12:40:52Z</time>
      </trkpt>
      <trkpt lat="47.25557" lon="-1.44451">
        <ele>57</ele>
        <time>2022-03-14T12:40:54Z</time>
      </trkpt>
      <trkpt lat="47.25548" lon="-1.44463">
        <ele>58</ele>
        <time>2022-03-14T12:40:56Z</time>
      </trkpt>
      <trkpt lat="47.25539" lon="-1.44477">
        <ele>58</ele>
        <time>2022-03-14T12:40:58Z</time>
      </trkpt>
      <trkpt lat="47.2553" lon="-1.44491">
        <ele>58</ele>
        <time>2022-03-14T12:41:00Z</time>
      </trkpt>
      <trkpt lat="47.25521" lon="-1.44507">
        <ele>57</ele>
        <time>2022-03-14T12:41:02Z</time>
      </trkpt>
      <trkpt lat="47.2551" lon="-1.44524">
        <ele>56</ele>
        <time>2022-03-14T12:41:04Z</time>
      </trkpt>
      <trkpt lat="47.255" lon="-1.44537">
        <ele>55</ele>
        <time>2022-03-14T12:41:06Z</time>
      </trkpt>
      <trkpt lat="47.2549" lon="-1.44552">
        <ele>54</ele>
        <time>2022-03-14T12:41:08Z</time>
      </trkpt>
      <trkpt lat="47.2548" lon="-1.44566">
        <ele>54</ele>
        <time>2022-03-14T12:41:10Z</time>
      </trkpt>
      <trkpt lat="47.25471" lon="-1.44579">
        <ele>53</ele>
        <time>2022-03-14T12:41:12Z</time>
      </trkpt>
      <trkpt lat="47.25462" lon="-1.44593">
        <ele>53</ele>
        <time>2022-03-14T12:41:14Z</time>
      </trkpt>
      <trkpt lat="47.25454" lon="-1.44606">
        <ele>53</ele>
        <time>2022-03-14T12:41:16Z</time>
      </trkpt>
      <trkpt lat="47.25445" lon="-1.44618">
        <ele>53</ele>
        <time>2022-03-14T12:41:18Z</time>
      </trkpt>
      <trkpt lat="47.25436" lon="-1.44629">
        <ele>53</ele>
        <time>2022-03-14T12:41:20Z</time>
      </trkpt>
      <trkpt lat="47.25427" lon="-1.44639">
        <ele>54</ele>
        <time>2022-03-14T12:41:22Z</time>
      </trkpt>
      <trkpt lat="47.25418" lon="-1.4465">
        <ele>54</ele>
        <time>2022-03-14T12:41:24Z</time>
      </trkpt>
      <trkpt lat="47.25409" lon="-1.44661">
        <ele>54</ele>
        <time>2022-03-14T12:41:26Z</time>
      </trkpt>
      <trkpt lat="47.254" lon="-1.44673">
        <ele>54</ele>
        <time>2022-03-14T12:41:28Z</time>
      </trkpt>
      <trkpt lat="47.25391" lon="-1.44686">
        <ele>55</ele>
        <time>2022-03-14T12:41:30Z</time>
      </trkpt>
      <trkpt lat="47.25382" lon="-1.44698">
        <ele>56</ele>
        <time>2022-03-14T12:41:32Z</time>
      </trkpt>
      <trkpt lat="47.25372" lon="-1.44709">
        <ele>56</ele>
        <time>2022-03-14T12:41:34Z</time>
      </trkpt>
      <trkpt lat="47.25362" lon="-1.44719">
        <ele>56</ele>
        <time>2022-03-14T12:41:36Z</time>
      </trkpt>
      <trkpt lat="47.25353" lon="-1.4473">
        <ele>55</ele>
        <time>2022-03-14T12:41:38Z</time>
      </trkpt>
      <trkpt lat="47.25342" lon="-1.44741">
        <ele>56</ele>
        <time>2022-03-14T12:41:40Z</time>
      </trkpt>
      <trkpt lat="47.25332" lon="-1.44752">
        <ele>57</ele>
        <time>2022-03-14T12:41:42Z</time>
      </trkpt>
      <trkpt lat="47.25322" lon="-1.44764">
        <ele>58</ele>
        <time>2022-03-14T12:41:44Z</time>
      </trkpt>
      <trkpt lat="47.25313" lon="-1.44775">
        <ele>58</ele>
        <time>2022-03-14T12:41:46Z</time>
      </trkpt>
      <trkpt lat="47.25305" lon="-1.44786">
        <ele>57</ele>
        <time>2022-03-14T12:41:48Z</time>
      </trkpt>
      <trkpt lat="47.25297" lon="-1.44796">
        <ele>56</ele>
        <time>2022-03-14T12:41:50Z</time>
      </trkpt>
      <trkpt lat="47.25289" lon="-1.44808">
        <ele>56</ele>
        <time>2022-03-14T12:41:52Z</time>
      </trkpt>
      <trkpt lat="47.25281" lon="-1.44822">
        <ele>57</ele>
        <time>2022-03-14T12:41:54Z</time>
      </trkpt>
      <trkpt lat="47.25271" lon="-1.44834">
        <ele>57</ele>
        <time>2022-03-14T12:41:56Z</time>
      </trkpt>
      <trkpt lat="47.2526" lon="-1.44845">
        <ele>57</ele>
        <time>2022-03-14T12:41:58Z</time>
      </trkpt>
      <trkpt lat="47.25249" lon="-1.44856">
        <ele>56</ele>
        <time>2022-03-14T12:42:00Z</time>
      </trkpt>
      <trkpt lat="47.25238" lon="-1.44866">
        <ele>56</ele>
        <time>2022-03-14T12:42:02Z</time>
      </trkpt>
      <trkpt lat="47.25228" lon="-1.44874">
        <ele>55</ele>
        <time>2022-03-14T12:42:04Z</time>
      </trkpt>
      <trkpt lat="47.25218" lon="-1.44882">
        <ele>56</ele>
        <time>2022-03-14T12:42:06Z</time>
      </trkpt>
      <trkpt lat="47.25206" lon="-1.44889">
        <ele>56</ele>
        <time>2022-03-14T12:42:08Z</time>
      </trkpt>
      <trkpt lat="47.25195" lon="-1.44897">
        <ele>58</ele>
        <time>2022-03-14T12:42:10Z</time>
      </trkpt>
      <trkpt lat="47.25184" lon="-1.44908">
        <ele>59</ele>
        <time>2022-03-14T12:42:12Z</time>
      </trkpt>
      <trkpt lat="47.25173" lon="-1.44919">
        <ele>59</ele>
        <time>2022-03-14T12:42:14Z</time>
      </trkpt>
      <trkpt lat="47.25162" lon="-1.44929">
        <ele>60</ele>
        <time>2022-03-14T12:42:16Z</time>
      </trkpt>
      <trkpt lat="47.25151" lon="-1.4494">
        <ele>60</ele>
        <time>2022-03-14T12:42:18Z</time>
      </trkpt>
      <trkpt lat="47.25139" lon="-1.44949">
        <ele>61</ele>
        <time>2022-03-14T12:42:20Z</time>
      </trkpt>
      <trkpt lat="47.25128" lon="-1.44958">
        <ele>61</ele>
        <time>2022-03-14T12:42:22Z</time>
      </trkpt>
      <trkpt lat="47.25116" lon="-1.44967">
        <ele>61</ele>
        <time>2022-03-14T12:42:24Z</time>
      </trkpt>
      <trkpt lat="47.25105" lon="-1.44975">
        <ele>60</ele>
        <time>2022-03-14T12:42:26Z</time>
      </trkpt>
      <trkpt lat="47.25095" lon="-1.44984">
        <ele>60</ele>
        <time>2022-03-14T12:42:28Z</time>
      </trkpt>
      <trkpt lat="47.25085" lon="-1.44992">
        <ele>60</ele>
        <time>2022-03-14T12:42:30Z</time>
      </trkpt>
      <trkpt lat="47.25073" lon="-1.45">
        <ele>59</ele>
        <time>2022-03-14T12:42:32Z</time>
      </trkpt>
      <trkpt lat="47.25063" lon="-1.45009">
        <ele>59</ele>
        <time>2022-03-14T12:42:34Z</time>
      </trkpt>
      <trkpt lat="47.25052" lon="-1.45017">
        <ele>59</ele>
        <time>2022-03-14T12:42:36Z</time>
      </trkpt>
      <trkpt lat="47.25042" lon="-1.45025">
        <ele>59</ele>
        <time>2022-03-14T12:42:38Z</time>
      </trkpt>
      <trkpt lat="47.25031" lon="-1.45033">
        <ele>59</ele>
        <time>2022-03-14T12:42:40Z</time>
      </trkpt>
      <trkpt lat="47.25022" lon="-1.45042">
        <ele>61</ele>
        <time>2022-03-14T12:42:42Z</time>
      </trkpt>
      <trkpt lat="47.2501" lon="-1.45053">
        <ele>62</ele>
        <time>2022-03-14T12:42:44Z</time>
      </trkpt>
      <trkpt lat="47.25" lon="-1.45063">
        <ele>61</ele>
        <time>2022-03-14T12:42:46Z</time>
      </trkpt>
      <trkpt lat="47.2499" lon="-1.45077">
        <ele>61</ele>
        <time>2022-03-14T12:42:48Z</time>
      </trkpt>
      <trkpt lat="47.24979" lon="-1.45089">
        <ele>62</ele>
        <time>2022-03-14T12:42:50Z</time>
      </trkpt>
      <trkpt lat="47.24969" lon="-1.45102">
        <ele>65</ele>
        <time>2022-03-14T12:42:52Z</time>
      </trkpt>
      <trkpt lat="47.24958" lon="-1.45115">
        <ele>66</ele>
        <time>2022-03-14T12:42:54Z</time>
      </trkpt>
      <trkpt lat="47.24947" lon="-1.45127">
        <ele>65</ele>
        <time>2022-03-14T12:42:56Z</time>
      </trkpt>
      <trkpt lat="47.24935" lon="-1.45141">
        <ele>64</ele>
        <time>2022-03-14T12:42:58Z</time>
      </trkpt>
      <trkpt lat="47.24924" lon="-1.45153">
        <ele>64</ele>
        <time>2022-03-14T12:43:00Z</time>
      </trkpt>
      <trkpt lat="47.24913" lon="-1.45164">
        <ele>64</ele>
        <time>2022-03-14T12:43:02Z</time>
      </trkpt>
      <trkpt lat="47.24903" lon="-1.45176">
        <ele>63</ele>
        <time>2022-03-14T12:43:04Z</time>
      </trkpt>
      <trkpt lat="47.24895" lon="-1.45189">
        <ele>63</ele>
        <time>2022-03-14T12:43:06Z</time>
      </trkpt>
      <trkpt lat="47.24886" lon="-1.45202">
        <ele>62</ele>
        <time>2022-03-14T12:43:08Z</time>
      </trkpt>
      <trkpt lat="47.24878" lon="-1.45216">
        <ele>63</ele>
        <time>2022-03-14T12:43:10Z</time>
      </trkpt>
      <trkpt lat="47.24869" lon="-1.4523">
        <ele>63</ele>
        <time>2022-03-14T12:43:12Z</time>
      </trkpt>
      <trkpt lat="47.2486" lon="-1.45244">
        <ele>63</ele>
        <time>2022-03-14T12:43:14Z</time>
      </trkpt>
      <trkpt lat="47.24851" lon="-1.4526">
        <ele>65</ele>
        <time>2022-03-14T12:43:16Z</time>
      </trkpt>
      <trkpt lat="47.24842" lon="-1.45272">
        <ele>65</ele>
        <time>2022-03-14T12:43:18Z</time>
      </trkpt>
      <trkpt lat="47.24833" lon="-1.45285">
        <ele>66</ele>
        <time>2022-03-14T12:43:20Z</time>
      </trkpt>
      <trkpt lat="47.24825" lon="-1.453">
        <ele>66</ele>
        <time>2022-03-14T12:43:22Z</time>
      </trkpt>
      <trkpt lat="47.24816" lon="-1.45315">
        <ele>66</ele>
        <time>2022-03-14T12:43:24Z</time>
      </trkpt>
      <trkpt lat="47.24808" lon="-1.45329">
        <ele>67</ele>
        <time>2022-03-14T12:43:26Z</time>
      </trkpt>
      <trkpt lat="47.248" lon="-1.45342">
        <ele>66</ele>
        <time>2022-03-14T12:43:28Z</time>
      </trkpt>
      <trkpt lat="47.24793" lon="-1.45358">
        <ele>67</ele>
        <time>2022-03-14T12:43:30Z</time>
      </trkpt>
      <trkpt lat="47.24788" lon="-1.45377">
        <ele>68</ele>
        <time>2022-03-14T12:43:32Z</time>
      </trkpt>
      <trkpt lat="47.2478" lon="-1.45395">
        <ele>68</ele>
        <time>2022-03-14T12:43:34Z</time>
      </trkpt>
      <trkpt lat="47.24771" lon="-1.45412">
        <ele>68</ele>
        <time>2022-03-14T12:43:36Z</time>
      </trkpt>
      <trkpt lat="47.24764" lon="-1.45429">
        <ele>67</ele>
        <time>2022-03-14T12:43:38Z</time>
      </trkpt>
      <trkpt lat="47.24757" lon="-1.45448">
        <ele>66</ele>
        <time>2022-03-14T12:43:40Z</time>
      </trkpt>
      <trkpt lat="47.2475" lon="-1.45466">
        <ele>65</ele>
        <time>2022-03-14T12:43:42Z</time>
      </trkpt>
      <trkpt lat="47.24743" lon="-1.45485">
        <ele>62</ele>
        <time>2022-03-14T12:43:44Z</time>
      </trkpt>
      <trkpt lat="47.24736" lon="-1.45503">
        <ele>60</ele>
        <time>2022-03-14T12:43:46Z</time>
      </trkpt>
      <trkpt lat="47.24728" lon="-1.4552">
        <ele>58</ele>
        <time>2022-03-14T12:43:48Z</time>
      </trkpt>
      <trkpt lat="47.24722" lon="-1.45537">
        <ele>58</ele>
        <time>2022-03-14T12:43:50Z</time>
      </trkpt>
      <trkpt lat="47.24716" lon="-1.45553">
        <ele>58</ele>
        <time>2022-03-14T12:43:52Z</time>
      </trkpt>
      <trkpt lat="47.2471" lon="-1.4557">
        <ele>57</ele>
        <time>2022-03-14T12:43:54Z</time>
      </trkpt>
      <trkpt lat="47.24705" lon="-1.45587">
        <ele>56</ele>
        <time>2022-03-14T12:43:56Z</time>
      </trkpt>
      <trkpt lat="47.24701" lon="-1.45604">
        <ele>55</ele>
        <time>2022-03-14T12:43:58Z</time>
      </trkpt>
      <trkpt lat="47.24695" lon="-1.45621">
        <ele>55</ele>
        <time>2022-03-14T12:44:00Z</time>
      </trkpt>
      <trkpt lat="47.24689" lon="-1.45637">
        <ele>55</ele>
        <time>2022-03-14T12:44:02Z</time>
      </trkpt>
      <trkpt lat="47.24683" lon="-1.45652">
        <ele>54</ele>
        <time>2022-03-14T12:44:04Z</time>
      </trkpt>
      <trkpt lat="47.24678" lon="-1.45669">
        <ele>54</ele>
        <time>2022-03-14T12:44:06Z</time>
      </trkpt>
      <trkpt lat="47.24676" lon="-1.45687">
        <ele>54</ele>
        <time>2022-03-14T12:44:08Z</time>
      </trkpt>
      <trkpt lat="47.24673" lon="-1.45704">
        <ele>55</ele>
        <time>2022-03-14T12:44:10Z</time>
      </trkpt>
      <trkpt lat="47.24669" lon="-1.45723">
        <ele>55</ele>
        <time>2022-03-14T12:44:12Z</time>
      </trkpt>
      <trkpt lat="47.24666" lon="-1.45741">
        <ele>54</ele>
        <time>2022-03-14T12:44:14Z</time>
      </trkpt>
      <trkpt lat="47.24662" lon="-1.45758">
        <ele>54</ele>
        <time>2022-03-14T12:44:16Z</time>
      </trkpt>
      <trkpt lat="47.24657" lon="-1.45772">
        <ele>54</ele>
        <time>2022-03-14T12:44:18Z</time>
      </trkpt>
      <trkpt lat="47.24653" lon="-1.45785">
        <ele>54</ele>
        <time>2022-03-14T12:44:20Z</time>
      </trkpt>
      <trkpt lat="47.24649" lon="-1.45799">
        <ele>54</ele>
        <time>2022-03-14T12:44:22Z</time>
      </trkpt>
      <trkpt lat="47.24645" lon="-1.45814">
        <ele>54</ele>
        <time>2022-03-14T12:44:24Z</time>
      </trkpt>
      <trkpt lat="47.2464" lon="-1.45829">
        <ele>54</ele>
        <time>2022-03-14T12:44:26Z</time>
      </trkpt>
      <trkpt lat="47.24636" lon="-1.45846">
        <ele>55</ele>
        <time>2022-03-14T12:44:28Z</time>
      </trkpt>
      <trkpt lat="47.2463" lon="-1.45869">
        <ele>56</ele>
        <time>2022-03-14T12:44:31Z</time>
      </trkpt>
      <trkpt lat="47.24625" lon="-1.45882">
        <ele>58</ele>
        <time>2022-03-14T12:44:33Z</time>
      </trkpt>
      <trkpt lat="47.24617" lon="-1.45904">
        <ele>58</ele>
        <time>2022-03-14T12:44:36Z</time>
      </trkpt>
      <trkpt lat="47.24613" lon="-1.4592">
        <ele>58</ele>
        <time>2022-03-14T12:44:38Z</time>
      </trkpt>
      <trkpt lat="47.24608" lon="-1.45936">
        <ele>58</ele>
        <time>2022-03-14T12:44:40Z</time>
      </trkpt>
      <trkpt lat="47.24602" lon="-1.4595">
        <ele>59</ele>
        <time>2022-03-14T12:44:42Z</time>
      </trkpt>
      <trkpt lat="47.24595" lon="-1.45964">
        <ele>62</ele>
        <time>2022-03-14T12:44:44Z</time>
      </trkpt>
      <trkpt lat="47.24588" lon="-1.4598">
        <ele>65</ele>
        <time>2022-03-14T12:44:46Z</time>
      </trkpt>
      <trkpt lat="47.24579" lon="-1.45997">
        <ele>66</ele>
        <time>2022-03-14T12:44:48Z</time>
      </trkpt>
      <trkpt lat="47.24571" lon="-1.46012">
        <ele>67</ele>
        <time>2022-03-14T12:44:50Z</time>
      </trkpt>
      <trkpt lat="47.24563" lon="-1.46027">
        <ele>67</ele>
        <time>2022-03-14T12:44:52Z</time>
      </trkpt>
      <trkpt lat="47.24554" lon="-1.46044">
        <ele>68</ele>
        <time>2022-03-14T12:44:54Z</time>
      </trkpt>
      <trkpt lat="47.24545" lon="-1.46063">
        <ele>68</ele>
        <time>2022-03-14T12:44:56Z</time>
      </trkpt>
      <trkpt lat="47.24536" lon="-1.46081">
        <ele>68</ele>
        <time>2022-03-14T12:44:58Z</time>
      </trkpt>
      <trkpt lat="47.24527" lon="-1.46098">
        <ele>68</ele>
        <time>2022-03-14T12:45:00Z</time>
      </trkpt>
      <trkpt lat="47.24516" lon="-1.46113">
        <ele>66</ele>
        <time>2022-03-14T12:45:02Z</time>
      </trkpt>
      <trkpt lat="47.24506" lon="-1.46125">
        <ele>65</ele>
        <time>2022-03-14T12:45:04Z</time>
      </trkpt>
      <trkpt lat="47.24495" lon="-1.46138">
        <ele>64</ele>
        <time>2022-03-14T12:45:06Z</time>
      </trkpt>
      <trkpt lat="47.24485" lon="-1.4615">
        <ele>64</ele>
        <time>2022-03-14T12:45:08Z</time>
      </trkpt>
      <trkpt lat="47.24475" lon="-1.46163">
        <ele>65</ele>
        <time>2022-03-14T12:45:10Z</time>
      </trkpt>
      <trkpt lat="47.24465" lon="-1.46174">
        <ele>65</ele>
        <time>2022-03-14T12:45:12Z</time>
      </trkpt>
      <trkpt lat="47.24454" lon="-1.46186">
        <ele>65</ele>
        <time>2022-03-14T12:45:14Z</time>
      </trkpt>
      <trkpt lat="47.24445" lon="-1.46198">
        <ele>65</ele>
        <time>2022-03-14T12:45:16Z</time>
      </trkpt>
      <trkpt lat="47.24437" lon="-1.4621">
        <ele>65</ele>
        <time>2022-03-14T12:45:18Z</time>
      </trkpt>
      <trkpt lat="47.24428" lon="-1.46222">
        <ele>64</ele>
        <time>2022-03-14T12:45:20Z</time>
      </trkpt>
      <trkpt lat="47.24422" lon="-1.46233">
        <ele>64</ele>
        <time>2022-03-14T12:45:22Z</time>
      </trkpt>
      <trkpt lat="47.24415" lon="-1.46243">
        <ele>64</ele>
        <time>2022-03-14T12:45:24Z</time>
      </trkpt>
      <trkpt lat="47.24406" lon="-1.46255">
        <ele>64</ele>
        <time>2022-03-14T12:45:26Z</time>
      </trkpt>
      <trkpt lat="47.24397" lon="-1.46267">
        <ele>64</ele>
        <time>2022-03-14T12:45:28Z</time>
      </trkpt>
      <trkpt lat="47.24389" lon="-1.4628">
        <ele>64</ele>
        <time>2022-03-14T12:45:30Z</time>
      </trkpt>
      <trkpt lat="47.2438" lon="-1.46293">
        <ele>64</ele>
        <time>2022-03-14T12:45:32Z</time>
      </trkpt>
      <trkpt lat="47.24371" lon="-1.46306">
        <ele>65</ele>
        <time>2022-03-14T12:45:34Z</time>
      </trkpt>
      <trkpt lat="47.24362" lon="-1.4632">
        <ele>65</ele>
        <time>2022-03-14T12:45:36Z</time>
      </trkpt>
      <trkpt lat="47.24353" lon="-1.46336">
        <ele>65</ele>
        <time>2022-03-14T12:45:38Z</time>
      </trkpt>
      <trkpt lat="47.24343" lon="-1.46351">
        <ele>65</ele>
        <time>2022-03-14T12:45:40Z</time>
      </trkpt>
      <trkpt lat="47.24333" lon="-1.46365">
        <ele>64</ele>
        <time>2022-03-14T12:45:42Z</time>
      </trkpt>
      <trkpt lat="47.24324" lon="-1.46379">
        <ele>65</ele>
        <time>2022-03-14T12:45:44Z</time>
      </trkpt>
      <trkpt lat="47.24317" lon="-1.46394">
        <ele>65</ele>
        <time>2022-03-14T12:45:46Z</time>
      </trkpt>
      <trkpt lat="47.24309" lon="-1.46406">
        <ele>65</ele>
        <time>2022-03-14T12:45:48Z</time>
      </trkpt>
      <trkpt lat="47.243" lon="-1.46421">
        <ele>64</ele>
        <time>2022-03-14T12:45:50Z</time>
      </trkpt>
      <trkpt lat="47.24292" lon="-1.46435">
        <ele>63</ele>
        <time>2022-03-14T12:45:52Z</time>
      </trkpt>
      <trkpt lat="47.24284" lon="-1.46449">
        <ele>64</ele>
        <time>2022-03-14T12:45:54Z</time>
      </trkpt>
      <trkpt lat="47.24274" lon="-1.46461">
        <ele>63</ele>
        <time>2022-03-14T12:45:56Z</time>
      </trkpt>
      <trkpt lat="47.24265" lon="-1.46474">
        <ele>64</ele>
        <time>2022-03-14T12:45:58Z</time>
      </trkpt>
      <trkpt lat="47.24256" lon="-1.46487">
        <ele>63</ele>
        <time>2022-03-14T12:46:00Z</time>
      </trkpt>
      <trkpt lat="47.24245" lon="-1.46498">
        <ele>63</ele>
        <time>2022-03-14T12:46:02Z</time>
      </trkpt>
      <trkpt lat="47.24234" lon="-1.4651">
        <ele>63</ele>
        <time>2022-03-14T12:46:04Z</time>
      </trkpt>
      <trkpt lat="47.24225" lon="-1.46522">
        <ele>63</ele>
        <time>2022-03-14T12:46:06Z</time>
      </trkpt>
      <trkpt lat="47.24214" lon="-1.46534">
        <ele>62</ele>
        <time>2022-03-14T12:46:08Z</time>
      </trkpt>
      <trkpt lat="47.24204" lon="-1.46546">
        <ele>61</ele>
        <time>2022-03-14T12:46:10Z</time>
      </trkpt>
      <trkpt lat="47.24194" lon="-1.46558">
        <ele>59</ele>
        <time>2022-03-14T12:46:12Z</time>
      </trkpt>
      <trkpt lat="47.24184" lon="-1.4657">
        <ele>59</ele>
        <time>2022-03-14T12:46:14Z</time>
      </trkpt>
      <trkpt lat="47.24175" lon="-1.46582">
        <ele>60</ele>
        <time>2022-03-14T12:46:16Z</time>
      </trkpt>
      <trkpt lat="47.24167" lon="-1.46594">
        <ele>60</ele>
        <time>2022-03-14T12:46:18Z</time>
      </trkpt>
      <trkpt lat="47.24157" lon="-1.46606">
        <ele>60</ele>
        <time>2022-03-14T12:46:20Z</time>
      </trkpt>
      <trkpt lat="47.24147" lon="-1.46618">
        <ele>60</ele>
        <time>2022-03-14T12:46:22Z</time>
      </trkpt>
      <trkpt lat="47.24138" lon="-1.4663">
        <ele>60</ele>
        <time>2022-03-14T12:46:24Z</time>
      </trkpt>
      <trkpt lat="47.24129" lon="-1.46642">
        <ele>60</ele>
        <time>2022-03-14T12:46:26Z</time>
      </trkpt>
      <trkpt lat="47.24121" lon="-1.46655">
        <ele>61</ele>
        <time>2022-03-14T12:46:28Z</time>
      </trkpt>
      <trkpt lat="47.24113" lon="-1.46666">
        <ele>61</ele>
        <time>2022-03-14T12:46:30Z</time>
      </trkpt>
      <trkpt lat="47.24104" lon="-1.46678">
        <ele>62</ele>
        <time>2022-03-14T12:46:32Z</time>
      </trkpt>
      <trkpt lat="47.24095" lon="-1.46691">
        <ele>61</ele>
        <time>2022-03-14T12:46:34Z</time>
      </trkpt>
      <trkpt lat="47.24088" lon="-1.46705">
        <ele>60</ele>
        <time>2022-03-14T12:46:36Z</time>
      </trkpt>
      <trkpt lat="47.24083" lon="-1.4672">
        <ele>60</ele>
        <time>2022-03-14T12:46:38Z</time>
      </trkpt>
      <trkpt lat="47.24076" lon="-1.46735">
        <ele>60</ele>
        <time>2022-03-14T12:46:40Z</time>
      </trkpt>
      <trkpt lat="47.24064" lon="-1.46742">
        <ele>58</ele>
        <time>2022-03-14T12:46:42Z</time>
      </trkpt>
      <trkpt lat="47.24053" lon="-1.4675">
        <ele>58</ele>
        <time>2022-03-14T12:46:44Z</time>
      </trkpt>
      <trkpt lat="47.24042" lon="-1.46762">
        <ele>58</ele>
        <time>2022-03-14T12:46:46Z</time>
      </trkpt>
      <trkpt lat="47.24032" lon="-1.46773">
        <ele>58</ele>
        <time>2022-03-14T12:46:48Z</time>
      </trkpt>
      <trkpt lat="47.24022" lon="-1.46784">
        <ele>57</ele>
        <time>2022-03-14T12:46:50Z</time>
      </trkpt>
      <trkpt lat="47.24012" lon="-1.46796">
        <ele>56</ele>
        <time>2022-03-14T12:46:52Z</time>
      </trkpt>
      <trkpt lat="47.24002" lon="-1.46807">
        <ele>57</ele>
        <time>2022-03-14T12:46:54Z</time>
      </trkpt>
      <trkpt lat="47.23992" lon="-1.46818">
        <ele>56</ele>
        <time>2022-03-14T12:46:56Z</time>
      </trkpt>
      <trkpt lat="47.23982" lon="-1.46829">
        <ele>57</ele>
        <time>2022-03-14T12:46:58Z</time>
      </trkpt>
      <trkpt lat="47.23971" lon="-1.46839">
        <ele>57</ele>
        <time>2022-03-14T12:47:00Z</time>
      </trkpt>
      <trkpt lat="47.2396" lon="-1.4685">
        <ele>57</ele>
        <time>2022-03-14T12:47:02Z</time>
      </trkpt>
      <trkpt lat="47.2395" lon="-1.46861">
        <ele>58</ele>
        <time>2022-03-14T12:47:04Z</time>
      </trkpt>
      <trkpt lat="47.23939" lon="-1.46869">
        <ele>58</ele>
        <time>2022-03-14T12:47:06Z</time>
      </trkpt>
      <trkpt lat="47.23929" lon="-1.46877">
        <ele>58</ele>
        <time>2022-03-14T12:47:08Z</time>
      </trkpt>
      <trkpt lat="47.2392" lon="-1.46887">
        <ele>59</ele>
        <time>2022-03-14T12:47:10Z</time>
      </trkpt>
      <trkpt lat="47.23909" lon="-1.46899">
        <ele>60</ele>
        <time>2022-03-14T12:47:12Z</time>
      </trkpt>
      <trkpt lat="47.23898" lon="-1.46912">
        <ele>59</ele>
        <time>2022-03-14T12:47:14Z</time>
      </trkpt>
      <trkpt lat="47.23889" lon="-1.46924">
        <ele>58</ele>
        <time>2022-03-14T12:47:16Z</time>
      </trkpt>
      <trkpt lat="47.23879" lon="-1.46937">
        <ele>58</ele>
        <time>2022-03-14T12:47:18Z</time>
      </trkpt>
      <trkpt lat="47.2387" lon="-1.4695">
        <ele>58</ele>
        <time>2022-03-14T12:47:20Z</time>
      </trkpt>
      <trkpt lat="47.23861" lon="-1.46964">
        <ele>57</ele>
        <time>2022-03-14T12:47:22Z</time>
      </trkpt>
      <trkpt lat="47.23852" lon="-1.46978">
        <ele>57</ele>
        <time>2022-03-14T12:47:24Z</time>
      </trkpt>
      <trkpt lat="47.23843" lon="-1.4699">
        <ele>56</ele>
        <time>2022-03-14T12:47:26Z</time>
      </trkpt>
      <trkpt lat="47.23834" lon="-1.47004">
        <ele>56</ele>
        <time>2022-03-14T12:47:28Z</time>
      </trkpt>
      <trkpt lat="47.23825" lon="-1.47018">
        <ele>55</ele>
        <time>2022-03-14T12:47:30Z</time>
      </trkpt>
      <trkpt lat="47.23815" lon="-1.47031">
        <ele>55</ele>
        <time>2022-03-14T12:47:32Z</time>
      </trkpt>
      <trkpt lat="47.23805" lon="-1.47044">
        <ele>54</ele>
        <time>2022-03-14T12:47:34Z</time>
      </trkpt>
      <trkpt lat="47.23796" lon="-1.47058">
        <ele>53</ele>
        <time>2022-03-14T12:47:36Z</time>
      </trkpt>
      <trkpt lat="47.23787" lon="-1.47071">
        <ele>53</ele>
        <time>2022-03-14T12:47:38Z</time>
      </trkpt>
      <trkpt lat="47.23778" lon="-1.47083">
        <ele>53</ele>
        <time>2022-03-14T12:47:40Z</time>
      </trkpt>
      <trkpt lat="47.23769" lon="-1.47097">
        <ele>52</ele>
        <time>2022-03-14T12:47:42Z</time>
      </trkpt>
      <trkpt lat="47.2376" lon="-1.47109">
        <ele>52</ele>
        <time>2022-03-14T12:47:44Z</time>
      </trkpt>
      <trkpt lat="47.23751" lon="-1.47122">
        <ele>52</ele>
        <time>2022-03-14T12:47:46Z</time>
      </trkpt>
      <trkpt lat="47.23741" lon="-1.47133">
        <ele>52</ele>
        <time>2022-03-14T12:47:48Z</time>
      </trkpt>
      <trkpt lat="47.2373" lon="-1.47145">
        <ele>52</ele>
        <time>2022-03-14T12:47:50Z</time>
      </trkpt>
      <trkpt lat="47.2372" lon="-1.47157">
        <ele>52</ele>
        <time>2022-03-14T12:47:52Z</time>
      </trkpt>
      <trkpt lat="47.2371" lon="-1.47169">
        <ele>52</ele>
        <time>2022-03-14T12:47:54Z</time>
      </trkpt>
      <trkpt lat="47.23702" lon="-1.4718">
        <ele>53</ele>
        <time>2022-03-14T12:47:56Z</time>
      </trkpt>
      <trkpt lat="47.23693" lon="-1.47193">
        <ele>53</ele>
        <time>2022-03-14T12:47:58Z</time>
      </trkpt>
      <trkpt lat="47.23685" lon="-1.47208">
        <ele>53</ele>
        <time>2022-03-14T12:48:00Z</time>
      </trkpt>
      <trkpt lat="47.23675" lon="-1.47223">
        <ele>52</ele>
        <time>2022-03-14T12:48:02Z</time>
      </trkpt>
      <trkpt lat="47.23665" lon="-1.47235">
        <ele>53</ele>
        <time>2022-03-14T12:48:04Z</time>
      </trkpt>
      <trkpt lat="47.23654" lon="-1.47246">
        <ele>53</ele>
        <time>2022-03-14T12:48:06Z</time>
      </trkpt>
      <trkpt lat="47.23643" lon="-1.47258">
        <ele>53</ele>
        <time>2022-03-14T12:48:08Z</time>
      </trkpt>
      <trkpt lat="47.23633" lon="-1.4727">
        <ele>54</ele>
        <time>2022-03-14T12:48:10Z</time>
      </trkpt>
      <trkpt lat="47.23623" lon="-1.47282">
        <ele>54</ele>
        <time>2022-03-14T12:48:12Z</time>
      </trkpt>
      <trkpt lat="47.23613" lon="-1.47294">
        <ele>54</ele>
        <time>2022-03-14T12:48:14Z</time>
      </trkpt>
      <trkpt lat="47.23602" lon="-1.47305">
        <ele>53</ele>
        <time>2022-03-14T12:48:16Z</time>
      </trkpt>
      <trkpt lat="47.23591" lon="-1.47315">
        <ele>53</ele>
        <time>2022-03-14T12:48:18Z</time>
      </trkpt>
      <trkpt lat="47.23581" lon="-1.47325">
        <ele>53</ele>
        <time>2022-03-14T12:48:20Z</time>
      </trkpt>
      <trkpt lat="47.2357" lon="-1.47335">
        <ele>53</ele>
        <time>2022-03-14T12:48:22Z</time>
      </trkpt>
      <trkpt lat="47.2356" lon="-1.47345">
        <ele>52</ele>
        <time>2022-03-14T12:48:24Z</time>
      </trkpt>
      <trkpt lat="47.23549" lon="-1.47354">
        <ele>52</ele>
        <time>2022-03-14T12:48:26Z</time>
      </trkpt>
      <trkpt lat="47.23538" lon="-1.47363">
        <ele>52</ele>
        <time>2022-03-14T12:48:28Z</time>
      </trkpt>
      <trkpt lat="47.23528" lon="-1.47372">
        <ele>53</ele>
        <time>2022-03-14T12:48:30Z</time>
      </trkpt>
      <trkpt lat="47.23516" lon="-1.4738">
        <ele>53</ele>
        <time>2022-03-14T12:48:32Z</time>
      </trkpt>
      <trkpt lat="47.23505" lon="-1.47389">
        <ele>53</ele>
        <time>2022-03-14T12:48:34Z</time>
      </trkpt>
      <trkpt lat="47.23494" lon="-1.47398">
        <ele>53</ele>
        <time>2022-03-14T12:48:36Z</time>
      </trkpt>
      <trkpt lat="47.23482" lon="-1.47403">
        <ele>53</ele>
        <time>2022-03-14T12:48:38Z</time>
      </trkpt>
      <trkpt lat="47.23471" lon="-1.47409">
        <ele>54</ele>
        <time>2022-03-14T12:48:40Z</time>
      </trkpt>
      <trkpt lat="47.23459" lon="-1.47414">
        <ele>53</ele>
        <time>2022-03-14T12:48:42Z</time>
      </trkpt>
      <trkpt lat="47.23447" lon="-1.47419">
        <ele>54</ele>
        <time>2022-03-14T12:48:44Z</time>
      </trkpt>
      <trkpt lat="47.23436" lon="-1.47422">
        <ele>54</ele>
        <time>2022-03-14T12:48:46Z</time>
      </trkpt>
      <trkpt lat="47.23425" lon="-1.47428">
        <ele>54</ele>
        <time>2022-03-14T12:48:48Z</time>
      </trkpt>
      <trkpt lat="47.23415" lon="-1.47436">
        <ele>54</ele>
        <time>2022-03-14T12:48:50Z</time>
      </trkpt>
      <trkpt lat="47.23403" lon="-1.47444">
        <ele>53</ele>
        <time>2022-03-14T12:48:52Z</time>
      </trkpt>
      <trkpt lat="47.23393" lon="-1.47452">
        <ele>53</ele>
        <time>2022-03-14T12:48:54Z</time>
      </trkpt>
      <trkpt lat="47.23382" lon="-1.47459">
        <ele>53</ele>
        <time>2022-03-14T12:48:56Z</time>
      </trkpt>
      <trkpt lat="47.2337" lon="-1.47465">
        <ele>54</ele>
        <time>2022-03-14T12:48:58Z</time>
      </trkpt>
      <trkpt lat="47.23357" lon="-1.4747">
        <ele>54</ele>
        <time>2022-03-14T12:49:00Z</time>
      </trkpt>
      <trkpt lat="47.23345" lon="-1.47474">
        <ele>54</ele>
        <time>2022-03-14T12:49:02Z</time>
      </trkpt>
      <trkpt lat="47.23333" lon="-1.47479">
        <ele>54</ele>
        <time>2022-03-14T12:49:04Z</time>
      </trkpt>
      <trkpt lat="47.23324" lon="-1.47486">
        <ele>54</ele>
        <time>2022-03-14T12:49:06Z</time>
      </trkpt>
      <trkpt lat="47.23315" lon="-1.47495">
        <ele>55</ele>
        <time>2022-03-14T12:49:08Z</time>
      </trkpt>
      <trkpt lat="47.23305" lon="-1.47503">
        <ele>56</ele>
        <time>2022-03-14T12:49:10Z</time>
      </trkpt>
      <trkpt lat="47.23295" lon="-1.47509">
        <ele>56</ele>
        <time>2022-03-14T12:49:12Z</time>
      </trkpt>
      <trkpt lat="47.23284" lon="-1.47515">
        <ele>57</ele>
        <time>2022-03-14T12:49:14Z</time>
      </trkpt>
      <trkpt lat="47.23275" lon="-1.47524">
        <ele>57</ele>
        <time>2022-03-14T12:49:16Z</time>
      </trkpt>
      <trkpt lat="47.23266" lon="-1.47535">
        <ele>57</ele>
        <time>2022-03-14T12:49:18Z</time>
      </trkpt>
      <trkpt lat="47.23256" lon="-1.4755">
        <ele>56</ele>
        <time>2022-03-14T12:49:20Z</time>
      </trkpt>
      <trkpt lat="47.23247" lon="-1.47565">
        <ele>56</ele>
        <time>2022-03-14T12:49:22Z</time>
      </trkpt>
      <trkpt lat="47.2324" lon="-1.47581">
        <ele>56</ele>
        <time>2022-03-14T12:49:24Z</time>
      </trkpt>
      <trkpt lat="47.23232" lon="-1.47593">
        <ele>55</ele>
        <time>2022-03-14T12:49:26Z</time>
      </trkpt>
      <trkpt lat="47.23225" lon="-1.47604">
        <ele>54</ele>
        <time>2022-03-14T12:49:28Z</time>
      </trkpt>
      <trkpt lat="47.23218" lon="-1.47617">
        <ele>55</ele>
        <time>2022-03-14T12:49:30Z</time>
      </trkpt>
      <trkpt lat="47.23212" lon="-1.47633">
        <ele>55</ele>
        <time>2022-03-14T12:49:32Z</time>
      </trkpt>
      <trkpt lat="47.23205" lon="-1.4765">
        <ele>56</ele>
        <time>2022-03-14T12:49:34Z</time>
      </trkpt>
      <trkpt lat="47.232" lon="-1.47665">
        <ele>57</ele>
        <time>2022-03-14T12:49:36Z</time>
      </trkpt>
      <trkpt lat="47.23194" lon="-1.4768">
        <ele>57</ele>
        <time>2022-03-14T12:49:38Z</time>
      </trkpt>
      <trkpt lat="47.23192" lon="-1.47694">
        <ele>57</ele>
        <time>2022-03-14T12:49:40Z</time>
      </trkpt>
      <trkpt lat="47.23187" lon="-1.47709">
        <ele>58</ele>
        <time>2022-03-14T12:49:42Z</time>
      </trkpt>
      <trkpt lat="47.23182" lon="-1.47726">
        <ele>56</ele>
        <time>2022-03-14T12:49:44Z</time>
      </trkpt>
      <trkpt lat="47.23174" lon="-1.47744">
        <ele>56</ele>
        <time>2022-03-14T12:49:46Z</time>
      </trkpt>
      <trkpt lat="47.23166" lon="-1.4776">
        <ele>55</ele>
        <time>2022-03-14T12:49:48Z</time>
      </trkpt>
      <trkpt lat="47.2316" lon="-1.47776">
        <ele>55</ele>
        <time>2022-03-14T12:49:50Z</time>
      </trkpt>
      <trkpt lat="47.23154" lon="-1.4779">
        <ele>55</ele>
        <time>2022-03-14T12:49:52Z</time>
      </trkpt>
      <trkpt lat="47.23149" lon="-1.47804">
        <ele>55</ele>
        <time>2022-03-14T12:49:54Z</time>
      </trkpt>
      <trkpt lat="47.23142" lon="-1.47817">
        <ele>55</ele>
        <time>2022-03-14T12:49:56Z</time>
      </trkpt>
      <trkpt lat="47.23135" lon="-1.47832">
        <ele>54</ele>
        <time>2022-03-14T12:49:58Z</time>
      </trkpt>
      <trkpt lat="47.23127" lon="-1.47847">
        <ele>54</ele>
        <time>2022-03-14T12:50:00Z</time>
      </trkpt>
      <trkpt lat="47.23117" lon="-1.47863">
        <ele>53</ele>
        <time>2022-03-14T12:50:02Z</time>
      </trkpt>
      <trkpt lat="47.23106" lon="-1.47878">
        <ele>53</ele>
        <time>2022-03-14T12:50:04Z</time>
      </trkpt>
      <trkpt lat="47.23096" lon="-1.47892">
        <ele>52</ele>
        <time>2022-03-14T12:50:06Z</time>
      </trkpt>
      <trkpt lat="47.23086" lon="-1.47905">
        <ele>53</ele>
        <time>2022-03-14T12:50:08Z</time>
      </trkpt>
      <trkpt lat="47.23077" lon="-1.47917">
        <ele>53</ele>
        <time>2022-03-14T12:50:10Z</time>
      </trkpt>
      <trkpt lat="47.23068" lon="-1.4793">
        <ele>53</ele>
        <time>2022-03-14T12:50:12Z</time>
      </trkpt>
      <trkpt lat="47.23059" lon="-1.47942">
        <ele>54</ele>
        <time>2022-03-14T12:50:14Z</time>
      </trkpt>
      <trkpt lat="47.2305" lon="-1.47953">
        <ele>54</ele>
        <time>2022-03-14T12:50:16Z</time>
      </trkpt>
      <trkpt lat="47.23041" lon="-1.47966">
        <ele>54</ele>
        <time>2022-03-14T12:50:18Z</time>
      </trkpt>
      <trkpt lat="47.23031" lon="-1.47979">
        <ele>54</ele>
        <time>2022-03-14T12:50:20Z</time>
      </trkpt>
      <trkpt lat="47.23023" lon="-1.47991">
        <ele>54</ele>
        <time>2022-03-14T12:50:22Z</time>
      </trkpt>
      <trkpt lat="47.23013" lon="-1.48003">
        <ele>54</ele>
        <time>2022-03-14T12:50:24Z</time>
      </trkpt>
      <trkpt lat="47.23005" lon="-1.48016">
        <ele>54</ele>
        <time>2022-03-14T12:50:26Z</time>
      </trkpt>
      <trkpt lat="47.22997" lon="-1.48029">
        <ele>54</ele>
        <time>2022-03-14T12:50:28Z</time>
      </trkpt>
      <trkpt lat="47.2299" lon="-1.48043">
        <ele>55</ele>
        <time>2022-03-14T12:50:30Z</time>
      </trkpt>
      <trkpt lat="47.22982" lon="-1.48057">
        <ele>55</ele>
        <time>2022-03-14T12:50:32Z</time>
      </trkpt>
      <trkpt lat="47.22972" lon="-1.48071">
        <ele>54</ele>
        <time>2022-03-14T12:50:34Z</time>
      </trkpt>
      <trkpt lat="47.22964" lon="-1.48084">
        <ele>53</ele>
        <time>2022-03-14T12:50:36Z</time>
      </trkpt>
      <trkpt lat="47.22956" lon="-1.48096">
        <ele>52</ele>
        <time>2022-03-14T12:50:38Z</time>
      </trkpt>
      <trkpt lat="47.2295" lon="-1.48107">
        <ele>53</ele>
        <time>2022-03-14T12:50:40Z</time>
      </trkpt>
      <trkpt lat="47.22938" lon="-1.48111">
        <ele>53</ele>
        <time>2022-03-14T12:50:43Z</time>
      </trkpt>
      <trkpt lat="47.22927" lon="-1.48115">
        <ele>53</ele>
        <time>2022-03-14T12:50:45Z</time>
      </trkpt>
      <trkpt lat="47.22916" lon="-1.48121">
        <ele>54</ele>
        <time>2022-03-14T12:50:47Z</time>
      </trkpt>
      <trkpt lat="47.22905" lon="-1.48131">
        <ele>54</ele>
        <time>2022-03-14T12:50:49Z</time>
      </trkpt>
      <trkpt lat="47.22896" lon="-1.48144">
        <ele>55</ele>
        <time>2022-03-14T12:50:51Z</time>
      </trkpt>
      <trkpt lat="47.22887" lon="-1.48158">
        <ele>55</ele>
        <time>2022-03-14T12:50:53Z</time>
      </trkpt>
      <trkpt lat="47.22879" lon="-1.4817">
        <ele>55</ele>
        <time>2022-03-14T12:50:55Z</time>
      </trkpt>
      <trkpt lat="47.2287" lon="-1.48181">
        <ele>55</ele>
        <time>2022-03-14T12:50:57Z</time>
      </trkpt>
      <trkpt lat="47.22862" lon="-1.48193">
        <ele>55</ele>
        <time>2022-03-14T12:50:59Z</time>
      </trkpt>
      <trkpt lat="47.22853" lon="-1.48206">
        <ele>55</ele>
        <time>2022-03-14T12:51:01Z</time>
      </trkpt>
      <trkpt lat="47.22843" lon="-1.48219">
        <ele>55</ele>
        <time>2022-03-14T12:51:03Z</time>
      </trkpt>
      <trkpt lat="47.22833" lon="-1.48234">
        <ele>55</ele>
        <time>2022-03-14T12:51:05Z</time>
      </trkpt>
      <trkpt lat="47.22824" lon="-1.48246">
        <ele>54</ele>
        <time>2022-03-14T12:51:07Z</time>
      </trkpt>
      <trkpt lat="47.22816" lon="-1.48257">
        <ele>54</ele>
        <time>2022-03-14T12:51:09Z</time>
      </trkpt>
      <trkpt lat="47.22808" lon="-1.4827">
        <ele>55</ele>
        <time>2022-03-14T12:51:11Z</time>
      </trkpt>
      <trkpt lat="47.22799" lon="-1.48282">
        <ele>55</ele>
        <time>2022-03-14T12:51:13Z</time>
      </trkpt>
      <trkpt lat="47.2279" lon="-1.48294">
        <ele>55</ele>
        <time>2022-03-14T12:51:15Z</time>
      </trkpt>
      <trkpt lat="47.22782" lon="-1.4831">
        <ele>55</ele>
        <time>2022-03-14T12:51:17Z</time>
      </trkpt>
      <trkpt lat="47.22773" lon="-1.48324">
        <ele>55</ele>
        <time>2022-03-14T12:51:19Z</time>
      </trkpt>
      <trkpt lat="47.22765" lon="-1.48337">
        <ele>56</ele>
        <time>2022-03-14T12:51:21Z</time>
      </trkpt>
      <trkpt lat="47.22757" lon="-1.48349">
        <ele>56</ele>
        <time>2022-03-14T12:51:23Z</time>
      </trkpt>
      <trkpt lat="47.22747" lon="-1.48362">
        <ele>55</ele>
        <time>2022-03-14T12:51:25Z</time>
      </trkpt>
      <trkpt lat="47.22736" lon="-1.48377">
        <ele>53</ele>
        <time>2022-03-14T12:51:27Z</time>
      </trkpt>
      <trkpt lat="47.22726" lon="-1.48389">
        <ele>52</ele>
        <time>2022-03-14T12:51:29Z</time>
      </trkpt>
      <trkpt lat="47.22717" lon="-1.48401">
        <ele>52</ele>
        <time>2022-03-14T12:51:31Z</time>
      </trkpt>
      <trkpt lat="47.22709" lon="-1.48415">
        <ele>52</ele>
        <time>2022-03-14T12:51:33Z</time>
      </trkpt>
      <trkpt lat="47.22703" lon="-1.48433">
        <ele>51</ele>
        <time>2022-03-14T12:51:35Z</time>
      </trkpt>
      <trkpt lat="47.22697" lon="-1.48451">
        <ele>51</ele>
        <time>2022-03-14T12:51:37Z</time>
      </trkpt>
      <trkpt lat="47.22692" lon="-1.48468">
        <ele>51</ele>
        <time>2022-03-14T12:51:39Z</time>
      </trkpt>
      <trkpt lat="47.22685" lon="-1.48484">
        <ele>51</ele>
        <time>2022-03-14T12:51:41Z</time>
      </trkpt>
      <trkpt lat="47.22679" lon="-1.48498">
        <ele>51</ele>
        <time>2022-03-14T12:51:43Z</time>
      </trkpt>
      <trkpt lat="47.22672" lon="-1.4851">
        <ele>51</ele>
        <time>2022-03-14T12:51:45Z</time>
      </trkpt>
      <trkpt lat="47.22666" lon="-1.48528">
        <ele>51</ele>
        <time>2022-03-14T12:51:47Z</time>
      </trkpt>
      <trkpt lat="47.22661" lon="-1.48547">
        <ele>51</ele>
        <time>2022-03-14T12:51:49Z</time>
      </trkpt>
      <trkpt lat="47.22655" lon="-1.48566">
        <ele>51</ele>
        <time>2022-03-14T12:51:51Z</time>
      </trkpt>
      <trkpt lat="47.22648" lon="-1.48583">
        <ele>51</ele>
        <time>2022-03-14T12:51:53Z</time>
      </trkpt>
      <trkpt lat="47.22642" lon="-1.48597">
        <ele>51</ele>
        <time>2022-03-14T12:51:55Z</time>
      </trkpt>
      <trkpt lat="47.22635" lon="-1.48612">
        <ele>51</ele>
        <time>2022-03-14T12:51:58Z</time>
      </trkpt>
      <trkpt lat="47.2263" lon="-1.48625">
        <ele>52</ele>
        <time>2022-03-14T12:52:00Z</time>
      </trkpt>
      <trkpt lat="47.22622" lon="-1.48638">
        <ele>51</ele>
        <time>2022-03-14T12:52:02Z</time>
      </trkpt>
      <trkpt lat="47.22614" lon="-1.48652">
        <ele>52</ele>
        <time>2022-03-14T12:52:04Z</time>
      </trkpt>
      <trkpt lat="47.22609" lon="-1.48672">
        <ele>52</ele>
        <time>2022-03-14T12:52:06Z</time>
      </trkpt>
      <trkpt lat="47.22604" lon="-1.48693">
        <ele>53</ele>
        <time>2022-03-14T12:52:08Z</time>
      </trkpt>
      <trkpt lat="47.22599" lon="-1.48712">
        <ele>54</ele>
        <time>2022-03-14T12:52:10Z</time>
      </trkpt>
      <trkpt lat="47.22594" lon="-1.4873">
        <ele>53</ele>
        <time>2022-03-14T12:52:12Z</time>
      </trkpt>
      <trkpt lat="47.2259" lon="-1.48749">
        <ele>54</ele>
        <time>2022-03-14T12:52:14Z</time>
      </trkpt>
      <trkpt lat="47.22586" lon="-1.48769">
        <ele>54</ele>
        <time>2022-03-14T12:52:16Z</time>
      </trkpt>
      <trkpt lat="47.22581" lon="-1.48788">
        <ele>54</ele>
        <time>2022-03-14T12:52:18Z</time>
      </trkpt>
      <trkpt lat="47.22578" lon="-1.48807">
        <ele>55</ele>
        <time>2022-03-14T12:52:20Z</time>
      </trkpt>
      <trkpt lat="47.22573" lon="-1.48823">
        <ele>56</ele>
        <time>2022-03-14T12:52:22Z</time>
      </trkpt>
      <trkpt lat="47.22567" lon="-1.48836">
        <ele>55</ele>
        <time>2022-03-14T12:52:24Z</time>
      </trkpt>
      <trkpt lat="47.22563" lon="-1.48852">
        <ele>55</ele>
        <time>2022-03-14T12:52:26Z</time>
      </trkpt>
      <trkpt lat="47.22557" lon="-1.48867">
        <ele>54</ele>
        <time>2022-03-14T12:52:28Z</time>
      </trkpt>
      <trkpt lat="47.22552" lon="-1.48882">
        <ele>55</ele>
        <time>2022-03-14T12:52:30Z</time>
      </trkpt>
      <trkpt lat="47.22547" lon="-1.48899">
        <ele>56</ele>
        <time>2022-03-14T12:52:32Z</time>
      </trkpt>
      <trkpt lat="47.22542" lon="-1.48916">
        <ele>58</ele>
        <time>2022-03-14T12:52:34Z</time>
      </trkpt>
      <trkpt lat="47.22535" lon="-1.48934">
        <ele>59</ele>
        <time>2022-03-14T12:52:36Z</time>
      </trkpt>
      <trkpt lat="47.22529" lon="-1.48949">
        <ele>60</ele>
        <time>2022-03-14T12:52:38Z</time>
      </trkpt>
      <trkpt lat="47.22523" lon="-1.48965">
        <ele>61</ele>
        <time>2022-03-14T12:52:40Z</time>
      </trkpt>
      <trkpt lat="47.22517" lon="-1.48983">
        <ele>63</ele>
        <time>2022-03-14T12:52:42Z</time>
      </trkpt>
      <trkpt lat="47.22513" lon="-1.48999">
        <ele>63</ele>
        <time>2022-03-14T12:52:44Z</time>
      </trkpt>
      <trkpt lat="47.22508" lon="-1.49016">
        <ele>63</ele>
        <time>2022-03-14T12:52:46Z</time>
      </trkpt>
      <trkpt lat="47.22502" lon="-1.49032">
        <ele>64</ele>
        <time>2022-03-14T12:52:48Z</time>
      </trkpt>
      <trkpt lat="47.22497" lon="-1.49048">
        <ele>65</ele>
        <time>2022-03-14T12:52:50Z</time>
      </trkpt>
      <trkpt lat="47.2249" lon="-1.49065">
        <ele>65</ele>
        <time>2022-03-14T12:52:52Z</time>
      </trkpt>
      <trkpt lat="47.22485" lon="-1.49081">
        <ele>65</ele>
        <time>2022-03-14T12:52:54Z</time>
      </trkpt>
      <trkpt lat="47.22479" lon="-1.49098">
        <ele>66</ele>
        <time>2022-03-14T12:52:56Z</time>
      </trkpt>
      <trkpt lat="47.22473" lon="-1.49114">
        <ele>67</ele>
        <time>2022-03-14T12:52:58Z</time>
      </trkpt>
      <trkpt lat="47.22467" lon="-1.4913">
        <ele>67</ele>
        <time>2022-03-14T12:53:00Z</time>
      </trkpt>
      <trkpt lat="47.22461" lon="-1.49148">
        <ele>68</ele>
        <time>2022-03-14T12:53:02Z</time>
      </trkpt>
      <trkpt lat="47.22455" lon="-1.49167">
        <ele>69</ele>
        <time>2022-03-14T12:53:04Z</time>
      </trkpt>
      <trkpt lat="47.22449" lon="-1.49186">
        <ele>70</ele>
        <time>2022-03-14T12:53:06Z</time>
      </trkpt>
      <trkpt lat="47.22443" lon="-1.49205">
        <ele>70</ele>
        <time>2022-03-14T12:53:08Z</time>
      </trkpt>
      <trkpt lat="47.22437" lon="-1.49223">
        <ele>71</ele>
        <time>2022-03-14T12:53:10Z</time>
      </trkpt>
      <trkpt lat="47.22431" lon="-1.49242">
        <ele>72</ele>
        <time>2022-03-14T12:53:12Z</time>
      </trkpt>
      <trkpt lat="47.22425" lon="-1.49261">
        <ele>73</ele>
        <time>2022-03-14T12:53:14Z</time>
      </trkpt>
      <trkpt lat="47.22419" lon="-1.49279">
        <ele>73</ele>
        <time>2022-03-14T12:53:16Z</time>
      </trkpt>
      <trkpt lat="47.22414" lon="-1.49298">
        <ele>72</ele>
        <time>2022-03-14T12:53:18Z</time>
      </trkpt>
      <trkpt lat="47.22408" lon="-1.49317">
        <ele>72</ele>
        <time>2022-03-14T12:53:20Z</time>
      </trkpt>
      <trkpt lat="47.22403" lon="-1.49335">
        <ele>71</ele>
        <time>2022-03-14T12:53:22Z</time>
      </trkpt>
      <trkpt lat="47.22398" lon="-1.49353">
        <ele>71</ele>
        <time>2022-03-14T12:53:24Z</time>
      </trkpt>
      <trkpt lat="47.22392" lon="-1.49369">
        <ele>70</ele>
        <time>2022-03-14T12:53:26Z</time>
      </trkpt>
      <trkpt lat="47.22386" lon="-1.49385">
        <ele>69</ele>
        <time>2022-03-14T12:53:28Z</time>
      </trkpt>
      <trkpt lat="47.22379" lon="-1.49401">
        <ele>68</ele>
        <time>2022-03-14T12:53:30Z</time>
      </trkpt>
      <trkpt lat="47.22372" lon="-1.49414">
        <ele>67</ele>
        <time>2022-03-14T12:53:32Z</time>
      </trkpt>
      <trkpt lat="47.22366" lon="-1.4943">
        <ele>68</ele>
        <time>2022-03-14T12:53:34Z</time>
      </trkpt>
      <trkpt lat="47.2236" lon="-1.49445">
        <ele>68</ele>
        <time>2022-03-14T12:53:36Z</time>
      </trkpt>
      <trkpt lat="47.22353" lon="-1.49458">
        <ele>68</ele>
        <time>2022-03-14T12:53:38Z</time>
      </trkpt>
      <trkpt lat="47.22348" lon="-1.49474">
        <ele>69</ele>
        <time>2022-03-14T12:53:40Z</time>
      </trkpt>
      <trkpt lat="47.22343" lon="-1.49493">
        <ele>69</ele>
        <time>2022-03-14T12:53:42Z</time>
      </trkpt>
      <trkpt lat="47.22337" lon="-1.49511">
        <ele>69</ele>
        <time>2022-03-14T12:53:44Z</time>
      </trkpt>
      <trkpt lat="47.22332" lon="-1.49529">
        <ele>69</ele>
        <time>2022-03-14T12:53:46Z</time>
      </trkpt>
      <trkpt lat="47.22326" lon="-1.49546">
        <ele>68</ele>
        <time>2022-03-14T12:53:48Z</time>
      </trkpt>
      <trkpt lat="47.2232" lon="-1.49562">
        <ele>69</ele>
        <time>2022-03-14T12:53:50Z</time>
      </trkpt>
      <trkpt lat="47.22314" lon="-1.49579">
        <ele>69</ele>
        <time>2022-03-14T12:53:52Z</time>
      </trkpt>
      <trkpt lat="47.22309" lon="-1.49597">
        <ele>69</ele>
        <time>2022-03-14T12:53:54Z</time>
      </trkpt>
      <trkpt lat="47.22305" lon="-1.49616">
        <ele>68</ele>
        <time>2022-03-14T12:53:56Z</time>
      </trkpt>
      <trkpt lat="47.22301" lon="-1.49636">
        <ele>67</ele>
        <time>2022-03-14T12:53:58Z</time>
      </trkpt>
      <trkpt lat="47.22297" lon="-1.49654">
        <ele>66</ele>
        <time>2022-03-14T12:54:00Z</time>
      </trkpt>
      <trkpt lat="47.22291" lon="-1.4967">
        <ele>66</ele>
        <time>2022-03-14T12:54:02Z</time>
      </trkpt>
      <trkpt lat="47.22284" lon="-1.49687">
        <ele>64</ele>
        <time>2022-03-14T12:54:04Z</time>
      </trkpt>
      <trkpt lat="47.22278" lon="-1.49704">
        <ele>64</ele>
        <time>2022-03-14T12:54:06Z</time>
      </trkpt>
      <trkpt lat="47.22272" lon="-1.4972">
        <ele>64</ele>
        <time>2022-03-14T12:54:08Z</time>
      </trkpt>
      <trkpt lat="47.22266" lon="-1.49736">
        <ele>63</ele>
        <time>2022-03-14T12:54:10Z</time>
      </trkpt>
      <trkpt lat="47.22263" lon="-1.49754">
        <ele>63</ele>
        <time>2022-03-14T12:54:12Z</time>
      </trkpt>
      <trkpt lat="47.2226" lon="-1.49771">
        <ele>63</ele>
        <time>2022-03-14T12:54:14Z</time>
      </trkpt>
      <trkpt lat="47.22257" lon="-1.4979">
        <ele>62</ele>
        <time>2022-03-14T12:54:16Z</time>
      </trkpt>
      <trkpt lat="47.22253" lon="-1.49808">
        <ele>61</ele>
        <time>2022-03-14T12:54:18Z</time>
      </trkpt>
      <trkpt lat="47.22249" lon="-1.49826">
        <ele>61</ele>
        <time>2022-03-14T12:54:20Z</time>
      </trkpt>
      <trkpt lat="47.22244" lon="-1.49841">
        <ele>60</ele>
        <time>2022-03-14T12:54:22Z</time>
      </trkpt>
      <trkpt lat="47.2224" lon="-1.49858">
        <ele>60</ele>
        <time>2022-03-14T12:54:24Z</time>
      </trkpt>
      <trkpt lat="47.22235" lon="-1.49875">
        <ele>60</ele>
        <time>2022-03-14T12:54:26Z</time>
      </trkpt>
      <trkpt lat="47.22233" lon="-1.49893">
        <ele>60</ele>
        <time>2022-03-14T12:54:28Z</time>
      </trkpt>
      <trkpt lat="47.22228" lon="-1.49917">
        <ele>60</ele>
        <time>2022-03-14T12:54:31Z</time>
      </trkpt>
      <trkpt lat="47.22224" lon="-1.49933">
        <ele>60</ele>
        <time>2022-03-14T12:54:33Z</time>
      </trkpt>
      <trkpt lat="47.22221" lon="-1.49949">
        <ele>61</ele>
        <time>2022-03-14T12:54:35Z</time>
      </trkpt>
      <trkpt lat="47.22216" lon="-1.49965">
        <ele>61</ele>
        <time>2022-03-14T12:54:37Z</time>
      </trkpt>
      <trkpt lat="47.2221" lon="-1.49981">
        <ele>61</ele>
        <time>2022-03-14T12:54:39Z</time>
      </trkpt>
      <trkpt lat="47.22204" lon="-1.49997">
        <ele>62</ele>
        <time>2022-03-14T12:54:41Z</time>
      </trkpt>
      <trkpt lat="47.222" lon="-1.50015">
        <ele>63</ele>
        <time>2022-03-14T12:54:43Z</time>
      </trkpt>
      <trkpt lat="47.22196" lon="-1.50033">
        <ele>63</ele>
        <time>2022-03-14T12:54:45Z</time>
      </trkpt>
      <trkpt lat="47.22192" lon="-1.50051">
        <ele>63</ele>
        <time>2022-03-14T12:54:47Z</time>
      </trkpt>
      <trkpt lat="47.22188" lon="-1.5007">
        <ele>63</ele>
        <time>2022-03-14T12:54:49Z</time>
      </trkpt>
      <trkpt lat="47.22181" lon="-1.50095">
        <ele>63</ele>
        <time>2022-03-14T12:54:52Z</time>
      </trkpt>
      <trkpt lat="47.22175" lon="-1.50112">
        <ele>63</ele>
        <time>2022-03-14T12:54:54Z</time>
      </trkpt>
      <trkpt lat="47.2217" lon="-1.50127">
        <ele>63</ele>
        <time>2022-03-14T12:54:56Z</time>
      </trkpt>
      <trkpt lat="47.22164" lon="-1.50144">
        <ele>63</ele>
        <time>2022-03-14T12:54:58Z</time>
      </trkpt>
      <trkpt lat="47.22159" lon="-1.50164">
        <ele>63</ele>
        <time>2022-03-14T12:55:00Z</time>
      </trkpt>
      <trkpt lat="47.22155" lon="-1.50185">
        <ele>62</ele>
        <time>2022-03-14T12:55:02Z</time>
      </trkpt>
      <trkpt lat="47.22151" lon="-1.50204">
        <ele>63</ele>
        <time>2022-03-14T12:55:04Z</time>
      </trkpt>
      <trkpt lat="47.22145" lon="-1.5022">
        <ele>64</ele>
        <time>2022-03-14T12:55:06Z</time>
      </trkpt>
      <trkpt lat="47.22139" lon="-1.50236">
        <ele>63</ele>
        <time>2022-03-14T12:55:08Z</time>
      </trkpt>
      <trkpt lat="47.22135" lon="-1.50255">
        <ele>63</ele>
        <time>2022-03-14T12:55:10Z</time>
      </trkpt>
      <trkpt lat="47.2213" lon="-1.50272">
        <ele>63</ele>
        <time>2022-03-14T12:55:12Z</time>
      </trkpt>
      <trkpt lat="47.22125" lon="-1.50289">
        <ele>62</ele>
        <time>2022-03-14T12:55:14Z</time>
      </trkpt>
      <trkpt lat="47.22119" lon="-1.50301">
        <ele>63</ele>
        <time>2022-03-14T12:55:16Z</time>
      </trkpt>
      <trkpt lat="47.22112" lon="-1.50312">
        <ele>63</ele>
        <time>2022-03-14T12:55:18Z</time>
      </trkpt>
      <trkpt lat="47.22104" lon="-1.50322">
        <ele>63</ele>
        <time>2022-03-14T12:55:20Z</time>
      </trkpt>
      <trkpt lat="47.22097" lon="-1.50335">
        <ele>61</ele>
        <time>2022-03-14T12:55:22Z</time>
      </trkpt>
      <trkpt lat="47.22092" lon="-1.5035">
        <ele>61</ele>
        <time>2022-03-14T12:55:24Z</time>
      </trkpt>
      <trkpt lat="47.22087" lon="-1.50369">
        <ele>61</ele>
        <time>2022-03-14T12:55:26Z</time>
      </trkpt>
      <trkpt lat="47.22082" lon="-1.50389">
        <ele>61</ele>
        <time>2022-03-14T12:55:28Z</time>
      </trkpt>
      <trkpt lat="47.22076" lon="-1.50407">
        <ele>61</ele>
        <time>2022-03-14T12:55:30Z</time>
      </trkpt>
      <trkpt lat="47.22073" lon="-1.50428">
        <ele>60</ele>
        <time>2022-03-14T12:55:32Z</time>
      </trkpt>
      <trkpt lat="47.2207" lon="-1.50449">
        <ele>59</ele>
        <time>2022-03-14T12:55:34Z</time>
      </trkpt>
      <trkpt lat="47.22067" lon="-1.50467">
        <ele>59</ele>
        <time>2022-03-14T12:55:36Z</time>
      </trkpt>
      <trkpt lat="47.22066" lon="-1.50482">
        <ele>58</ele>
        <time>2022-03-14T12:55:38Z</time>
      </trkpt>
      <trkpt lat="47.22065" lon="-1.505">
        <ele>57</ele>
        <time>2022-03-14T12:55:40Z</time>
      </trkpt>
      <trkpt lat="47.22063" lon="-1.50518">
        <ele>58</ele>
        <time>2022-03-14T12:55:42Z</time>
      </trkpt>
      <trkpt lat="47.22062" lon="-1.50536">
        <ele>58</ele>
        <time>2022-03-14T12:55:44Z</time>
      </trkpt>
      <trkpt lat="47.2206" lon="-1.50552">
        <ele>58</ele>
        <time>2022-03-14T12:55:46Z</time>
      </trkpt>
      <trkpt lat="47.22059" lon="-1.50567">
        <ele>58</ele>
        <time>2022-03-14T12:55:48Z</time>
      </trkpt>
      <trkpt lat="47.22058" lon="-1.50585">
        <ele>59</ele>
        <time>2022-03-14T12:55:50Z</time>
      </trkpt>
      <trkpt lat="47.22057" lon="-1.50602">
        <ele>59</ele>
        <time>2022-03-14T12:55:52Z</time>
      </trkpt>
      <trkpt lat="47.22056" lon="-1.50618">
        <ele>59</ele>
        <time>2022-03-14T12:55:54Z</time>
      </trkpt>
      <trkpt lat="47.22056" lon="-1.50637">
        <ele>59</ele>
        <time>2022-03-14T12:55:56Z</time>
      </trkpt>
      <trkpt lat="47.22055" lon="-1.50654">
        <ele>59</ele>
        <time>2022-03-14T12:55:58Z</time>
      </trkpt>
      <trkpt lat="47.22052" lon="-1.50669">
        <ele>59</ele>
        <time>2022-03-14T12:56:00Z</time>
      </trkpt>
      <trkpt lat="47.2205" lon="-1.50685">
        <ele>59</ele>
        <time>2022-03-14T12:56:02Z</time>
      </trkpt>
      <trkpt lat="47.22048" lon="-1.507">
        <ele>59</ele>
        <time>2022-03-14T12:56:04Z</time>
      </trkpt>
      <trkpt lat="47.22046" lon="-1.50715">
        <ele>59</ele>
        <time>2022-03-14T12:56:06Z</time>
      </trkpt>
      <trkpt lat="47.22043" lon="-1.50732">
        <ele>60</ele>
        <time>2022-03-14T12:56:08Z</time>
      </trkpt>
      <trkpt lat="47.2204" lon="-1.50748">
        <ele>60</ele>
        <time>2022-03-14T12:56:10Z</time>
      </trkpt>
      <trkpt lat="47.22038" lon="-1.50765">
        <ele>60</ele>
        <time>2022-03-14T12:56:12Z</time>
      </trkpt>
      <trkpt lat="47.22034" lon="-1.50782">
        <ele>61</ele>
        <time>2022-03-14T12:56:14Z</time>
      </trkpt>
      <trkpt lat="47.22029" lon="-1.50798">
        <ele>60</ele>
        <time>2022-03-14T12:56:16Z</time>
      </trkpt>
      <trkpt lat="47.22024" lon="-1.50815">
        <ele>61</ele>
        <time>2022-03-14T12:56:18Z</time>
      </trkpt>
      <trkpt lat="47.22018" lon="-1.50831">
        <ele>62</ele>
        <time>2022-03-14T12:56:20Z</time>
      </trkpt>
      <trkpt lat="47.22011" lon="-1.50849">
        <ele>64</ele>
        <time>2022-03-14T12:56:22Z</time>
      </trkpt>
      <trkpt lat="47.22005" lon="-1.50867">
        <ele>65</ele>
        <time>2022-03-14T12:56:24Z</time>
      </trkpt>
      <trkpt lat="47.21999" lon="-1.50883">
        <ele>66</ele>
        <time>2022-03-14T12:56:26Z</time>
      </trkpt>
      <trkpt lat="47.21993" lon="-1.50901">
        <ele>65</ele>
        <time>2022-03-14T12:56:28Z</time>
      </trkpt>
      <trkpt lat="47.21987" lon="-1.50918">
        <ele>65</ele>
        <time>2022-03-14T12:56:30Z</time>
      </trkpt>
      <trkpt lat="47.21982" lon="-1.50934">
        <ele>64</ele>
        <time>2022-03-14T12:56:32Z</time>
      </trkpt>
      <trkpt lat="47.21976" lon="-1.50952">
        <ele>64</ele>
        <time>2022-03-14T12:56:34Z</time>
      </trkpt>
      <trkpt lat="47.21972" lon="-1.5097">
        <ele>63</ele>
        <time>2022-03-14T12:56:36Z</time>
      </trkpt>
      <trkpt lat="47.21967" lon="-1.50987">
        <ele>63</ele>
        <time>2022-03-14T12:56:38Z</time>
      </trkpt>
      <trkpt lat="47.21962" lon="-1.51004">
        <ele>63</ele>
        <time>2022-03-14T12:56:40Z</time>
      </trkpt>
      <trkpt lat="47.21957" lon="-1.51023">
        <ele>62</ele>
        <time>2022-03-14T12:56:42Z</time>
      </trkpt>
      <trkpt lat="47.21953" lon="-1.51039">
        <ele>62</ele>
        <time>2022-03-14T12:56:44Z</time>
      </trkpt>
      <trkpt lat="47.21948" lon="-1.51051">
        <ele>61</ele>
        <time>2022-03-14T12:56:46Z</time>
      </trkpt>
      <trkpt lat="47.21943" lon="-1.51063">
        <ele>60</ele>
        <time>2022-03-14T12:56:48Z</time>
      </trkpt>
      <trkpt lat="47.21936" lon="-1.51079">
        <ele>60</ele>
        <time>2022-03-14T12:56:50Z</time>
      </trkpt>
      <trkpt lat="47.21931" lon="-1.51098">
        <ele>59</ele>
        <time>2022-03-14T12:56:52Z</time>
      </trkpt>
      <trkpt lat="47.21926" lon="-1.51116">
        <ele>59</ele>
        <time>2022-03-14T12:56:54Z</time>
      </trkpt>
      <trkpt lat="47.2192" lon="-1.51133">
        <ele>58</ele>
        <time>2022-03-14T12:56:56Z</time>
      </trkpt>
      <trkpt lat="47.21914" lon="-1.51149">
        <ele>57</ele>
        <time>2022-03-14T12:56:58Z</time>
      </trkpt>
      <trkpt lat="47.21908" lon="-1.51166">
        <ele>56</ele>
        <time>2022-03-14T12:57:00Z</time>
      </trkpt>
      <trkpt lat="47.21902" lon="-1.51181">
        <ele>55</ele>
        <time>2022-03-14T12:57:02Z</time>
      </trkpt>
      <trkpt lat="47.21897" lon="-1.51197">
        <ele>55</ele>
        <time>2022-03-14T12:57:04Z</time>
      </trkpt>
      <trkpt lat="47.21891" lon="-1.51214">
        <ele>54</ele>
        <time>2022-03-14T12:57:06Z</time>
      </trkpt>
      <trkpt lat="47.21885" lon="-1.51231">
        <ele>53</ele>
        <time>2022-03-14T12:57:08Z</time>
      </trkpt>
      <trkpt lat="47.2188" lon="-1.51247">
        <ele>53</ele>
        <time>2022-03-14T12:57:10Z</time>
      </trkpt>
      <trkpt lat="47.21873" lon="-1.51264">
        <ele>52</ele>
        <time>2022-03-14T12:57:12Z</time>
      </trkpt>
      <trkpt lat="47.21868" lon="-1.5128">
        <ele>52</ele>
        <time>2022-03-14T12:57:14Z</time>
      </trkpt>
      <trkpt lat="47.21863" lon="-1.51296">
        <ele>52</ele>
        <time>2022-03-14T12:57:16Z</time>
      </trkpt>
      <trkpt lat="47.21859" lon="-1.51313">
        <ele>52</ele>
        <time>2022-03-14T12:57:18Z</time>
      </trkpt>
      <trkpt lat="47.21854" lon="-1.51329">
        <ele>51</ele>
        <time>2022-03-14T12:57:20Z</time>
      </trkpt>
      <trkpt lat="47.21849" lon="-1.51346">
        <ele>51</ele>
        <time>2022-03-14T12:57:22Z</time>
      </trkpt>
      <trkpt lat="47.21845" lon="-1.51363">
        <ele>51</ele>
        <time>2022-03-14T12:57:24Z</time>
      </trkpt>
      <trkpt lat="47.2184" lon="-1.51379">
        <ele>51</ele>
        <time>2022-03-14T12:57:26Z</time>
      </trkpt>
      <trkpt lat="47.21837" lon="-1.51397">
        <ele>51</ele>
        <time>2022-03-14T12:57:28Z</time>
      </trkpt>
      <trkpt lat="47.21833" lon="-1.51415">
        <ele>50</ele>
        <time>2022-03-14T12:57:30Z</time>
      </trkpt>
      <trkpt lat="47.21829" lon="-1.51432">
        <ele>50</ele>
        <time>2022-03-14T12:57:32Z</time>
      </trkpt>
      <trkpt lat="47.21825" lon="-1.51449">
        <ele>50</ele>
        <time>2022-03-14T12:57:34Z</time>
      </trkpt>
      <trkpt lat="47.21821" lon="-1.51466">
        <ele>50</ele>
        <time>2022-03-14T12:57:36Z</time>
      </trkpt>
      <trkpt lat="47.21817" lon="-1.51484">
        <ele>50</ele>
        <time>2022-03-14T12:57:38Z</time>
      </trkpt>
      <trkpt lat="47.21811" lon="-1.51501">
        <ele>49</ele>
        <time>2022-03-14T12:57:40Z</time>
      </trkpt>
      <trkpt lat="47.21804" lon="-1.51516">
        <ele>49</ele>
        <time>2022-03-14T12:57:42Z</time>
      </trkpt>
      <trkpt lat="47.21798" lon="-1.51531">
        <ele>48</ele>
        <time>2022-03-14T12:57:44Z</time>
      </trkpt>
      <trkpt lat="47.21792" lon="-1.51546">
        <ele>48</ele>
        <time>2022-03-14T12:57:46Z</time>
      </trkpt>
      <trkpt lat="47.21786" lon="-1.51561">
        <ele>49</ele>
        <time>2022-03-14T12:57:48Z</time>
      </trkpt>
      <trkpt lat="47.21778" lon="-1.51575">
        <ele>49</ele>
        <time>2022-03-14T12:57:50Z</time>
      </trkpt>
      <trkpt lat="47.21769" lon="-1.51588">
        <ele>49</ele>
        <time>2022-03-14T12:57:52Z</time>
      </trkpt>
      <trkpt lat="47.2176" lon="-1.51599">
        <ele>50</ele>
        <time>2022-03-14T12:57:54Z</time>
      </trkpt>
      <trkpt lat="47.21752" lon="-1.51612">
        <ele>50</ele>
        <time>2022-03-14T12:57:56Z</time>
      </trkpt>
      <trkpt lat="47.21744" lon="-1.51626">
        <ele>50</ele>
        <time>2022-03-14T12:57:58Z</time>
      </trkpt>
      <trkpt lat="47.21738" lon="-1.51641">
        <ele>50</ele>
        <time>2022-03-14T12:58:00Z</time>
      </trkpt>
      <trkpt lat="47.21731" lon="-1.51656">
        <ele>50</ele>
        <time>2022-03-14T12:58:02Z</time>
      </trkpt>
      <trkpt lat="47.21724" lon="-1.51671">
        <ele>50</ele>
        <time>2022-03-14T12:58:04Z</time>
      </trkpt>
      <trkpt lat="47.21718" lon="-1.51685">
        <ele>50</ele>
        <time>2022-03-14T12:58:06Z</time>
      </trkpt>
      <trkpt lat="47.21711" lon="-1.51701">
        <ele>50</ele>
        <time>2022-03-14T12:58:09Z</time>
      </trkpt>
      <trkpt lat="47.21706" lon="-1.51713">
        <ele>50</ele>
        <time>2022-03-14T12:58:11Z</time>
      </trkpt>
      <trkpt lat="47.21702" lon="-1.51726">
        <ele>51</ele>
        <time>2022-03-14T12:58:13Z</time>
      </trkpt>
      <trkpt lat="47.21695" lon="-1.51743">
        <ele>52</ele>
        <time>2022-03-14T12:58:15Z</time>
      </trkpt>
      <trkpt lat="47.21687" lon="-1.51761">
        <ele>52</ele>
        <time>2022-03-14T12:58:17Z</time>
      </trkpt>
      <trkpt lat="47.21679" lon="-1.51779">
        <ele>52</ele>
        <time>2022-03-14T12:58:19Z</time>
      </trkpt>
      <trkpt lat="47.21673" lon="-1.51795">
        <ele>52</ele>
        <time>2022-03-14T12:58:21Z</time>
      </trkpt>
      <trkpt lat="47.21666" lon="-1.5181">
        <ele>52</ele>
        <time>2022-03-14T12:58:23Z</time>
      </trkpt>
      <trkpt lat="47.21659" lon="-1.51828">
        <ele>52</ele>
        <time>2022-03-14T12:58:25Z</time>
      </trkpt>
      <trkpt lat="47.21654" lon="-1.51844">
        <ele>52</ele>
        <time>2022-03-14T12:58:27Z</time>
      </trkpt>
      <trkpt lat="47.21649" lon="-1.51858">
        <ele>52</ele>
        <time>2022-03-14T12:58:29Z</time>
      </trkpt>
      <trkpt lat="47.21646" lon="-1.51873">
        <ele>52</ele>
        <time>2022-03-14T12:58:31Z</time>
      </trkpt>
      <trkpt lat="47.2164" lon="-1.51888">
        <ele>53</ele>
        <time>2022-03-14T12:58:33Z</time>
      </trkpt>
      <trkpt lat="47.21633" lon="-1.51902">
        <ele>53</ele>
        <time>2022-03-14T12:58:35Z</time>
      </trkpt>
      <trkpt lat="47.21626" lon="-1.51915">
        <ele>54</ele>
        <time>2022-03-14T12:58:37Z</time>
      </trkpt>
      <trkpt lat="47.21622" lon="-1.51934">
        <ele>54</ele>
        <time>2022-03-14T12:58:39Z</time>
      </trkpt>
      <trkpt lat="47.21619" lon="-1.51953">
        <ele>54</ele>
        <time>2022-03-14T12:58:41Z</time>
      </trkpt>
      <trkpt lat="47.21615" lon="-1.51972">
        <ele>54</ele>
        <time>2022-03-14T12:58:43Z</time>
      </trkpt>
      <trkpt lat="47.2161" lon="-1.51984">
        <ele>55</ele>
        <time>2022-03-14T12:58:45Z</time>
      </trkpt>
      <trkpt lat="47.21604" lon="-1.51997">
        <ele>55</ele>
        <time>2022-03-14T12:58:47Z</time>
      </trkpt>
      <trkpt lat="47.21598" lon="-1.52012">
        <ele>56</ele>
        <time>2022-03-14T12:58:49Z</time>
      </trkpt>
      <trkpt lat="47.21593" lon="-1.52032">
        <ele>57</ele>
        <time>2022-03-14T12:58:51Z</time>
      </trkpt>
      <trkpt lat="47.21588" lon="-1.52051">
        <ele>56</ele>
        <time>2022-03-14T12:58:53Z</time>
      </trkpt>
      <trkpt lat="47.21581" lon="-1.52068">
        <ele>56</ele>
        <time>2022-03-14T12:58:55Z</time>
      </trkpt>
      <trkpt lat="47.21575" lon="-1.52085">
        <ele>55</ele>
        <time>2022-03-14T12:58:57Z</time>
      </trkpt>
      <trkpt lat="47.21568" lon="-1.52103">
        <ele>53</ele>
        <time>2022-03-14T12:58:59Z</time>
      </trkpt>
      <trkpt lat="47.21563" lon="-1.5212">
        <ele>53</ele>
        <time>2022-03-14T12:59:01Z</time>
      </trkpt>
      <trkpt lat="47.21557" lon="-1.52138">
        <ele>53</ele>
        <time>2022-03-14T12:59:03Z</time>
      </trkpt>
      <trkpt lat="47.21552" lon="-1.52156">
        <ele>53</ele>
        <time>2022-03-14T12:59:05Z</time>
      </trkpt>
      <trkpt lat="47.21546" lon="-1.52174">
        <ele>53</ele>
        <time>2022-03-14T12:59:07Z</time>
      </trkpt>
      <trkpt lat="47.2154" lon="-1.52191">
        <ele>52</ele>
        <time>2022-03-14T12:59:09Z</time>
      </trkpt>
      <trkpt lat="47.21534" lon="-1.52209">
        <ele>52</ele>
        <time>2022-03-14T12:59:11Z</time>
      </trkpt>
      <trkpt lat="47.21529" lon="-1.52227">
        <ele>52</ele>
        <time>2022-03-14T12:59:13Z</time>
      </trkpt>
      <trkpt lat="47.21523" lon="-1.52245">
        <ele>52</ele>
        <time>2022-03-14T12:59:15Z</time>
      </trkpt>
      <trkpt lat="47.21518" lon="-1.52262">
        <ele>52</ele>
        <time>2022-03-14T12:59:17Z</time>
      </trkpt>
      <trkpt lat="47.21513" lon="-1.52279">
        <ele>52</ele>
        <time>2022-03-14T12:59:19Z</time>
      </trkpt>
      <trkpt lat="47.21508" lon="-1.52298">
        <ele>52</ele>
        <time>2022-03-14T12:59:21Z</time>
      </trkpt>
      <trkpt lat="47.21501" lon="-1.52316">
        <ele>51</ele>
        <time>2022-03-14T12:59:23Z</time>
      </trkpt>
      <trkpt lat="47.21495" lon="-1.52333">
        <ele>51</ele>
        <time>2022-03-14T12:59:25Z</time>
      </trkpt>
      <trkpt lat="47.2149" lon="-1.52349">
        <ele>51</ele>
        <time>2022-03-14T12:59:27Z</time>
      </trkpt>
      <trkpt lat="47.21484" lon="-1.52367">
        <ele>51</ele>
        <time>2022-03-14T12:59:29Z</time>
      </trkpt>
      <trkpt lat="47.21479" lon="-1.52385">
        <ele>51</ele>
        <time>2022-03-14T12:59:31Z</time>
      </trkpt>
      <trkpt lat="47.21473" lon="-1.52403">
        <ele>52</ele>
        <time>2022-03-14T12:59:33Z</time>
      </trkpt>
      <trkpt lat="47.21467" lon="-1.52422">
        <ele>51</ele>
        <time>2022-03-14T12:59:35Z</time>
      </trkpt>
      <trkpt lat="47.21461" lon="-1.5244">
        <ele>50</ele>
        <time>2022-03-14T12:59:37Z</time>
      </trkpt>
      <trkpt lat="47.21455" lon="-1.52457">
        <ele>50</ele>
        <time>2022-03-14T12:59:39Z</time>
      </trkpt>
      <trkpt lat="47.21449" lon="-1.52474">
        <ele>50</ele>
        <time>2022-03-14T12:59:41Z</time>
      </trkpt>
      <trkpt lat="47.21444" lon="-1.52493">
        <ele>49</ele>
        <time>2022-03-14T12:59:43Z</time>
      </trkpt>
      <trkpt lat="47.21438" lon="-1.52512">
        <ele>50</ele>
        <time>2022-03-14T12:59:45Z</time>
      </trkpt>
      <trkpt lat="47.21432" lon="-1.5253">
        <ele>49</ele>
        <time>2022-03-14T12:59:47Z</time>
      </trkpt>
      <trkpt lat="47.21426" lon="-1.52549">
        <ele>49</ele>
        <time>2022-03-14T12:59:49Z</time>
      </trkpt>
      <trkpt lat="47.2142" lon="-1.52567">
        <ele>49</ele>
        <time>2022-03-14T12:59:51Z</time>
      </trkpt>
      <trkpt lat="47.21415" lon="-1.52585">
        <ele>49</ele>
        <time>2022-03-14T12:59:53Z</time>
      </trkpt>
      <trkpt lat="47.21409" lon="-1.52603">
        <ele>49</ele>
        <time>2022-03-14T12:59:55Z</time>
      </trkpt>
      <trkpt lat="47.21404" lon="-1.52619">
        <ele>49</ele>
        <time>2022-03-14T12:59:57Z</time>
      </trkpt>
      <trkpt lat="47.21398" lon="-1.52635">
        <ele>49</ele>
        <time>2022-03-14T12:59:59Z</time>
      </trkpt>
      <trkpt lat="47.21395" lon="-1.52651">
        <ele>50</ele>
        <time>2022-03-14T13:00:01Z</time>
      </trkpt>
      <trkpt lat="47.21393" lon="-1.52666">
        <ele>49</ele>
        <time>2022-03-14T13:00:03Z</time>
      </trkpt>
      <trkpt lat="47.21389" lon="-1.52685">
        <ele>51</ele>
        <time>2022-03-14T13:00:05Z</time>
      </trkpt>
      <trkpt lat="47.21385" lon="-1.52705">
        <ele>52</ele>
        <time>2022-03-14T13:00:07Z</time>
      </trkpt>
      <trkpt lat="47.21379" lon="-1.52723">
        <ele>52</ele>
        <time>2022-03-14T13:00:09Z</time>
      </trkpt>
      <trkpt lat="47.21374" lon="-1.52744">
        <ele>52</ele>
        <time>2022-03-14T13:00:11Z</time>
      </trkpt>
      <trkpt lat="47.2137" lon="-1.52767">
        <ele>52</ele>
        <time>2022-03-14T13:00:13Z</time>
      </trkpt>
      <trkpt lat="47.21368" lon="-1.52788">
        <ele>52</ele>
        <time>2022-03-14T13:00:15Z</time>
      </trkpt>
      <trkpt lat="47.21365" lon="-1.52805">
        <ele>53</ele>
        <time>2022-03-14T13:00:17Z</time>
      </trkpt>
      <trkpt lat="47.21361" lon="-1.52823">
        <ele>51</ele>
        <time>2022-03-14T13:00:19Z</time>
      </trkpt>
      <trkpt lat="47.21356" lon="-1.52842">
        <ele>51</ele>
        <time>2022-03-14T13:00:21Z</time>
      </trkpt>
      <trkpt lat="47.21351" lon="-1.52861">
        <ele>51</ele>
        <time>2022-03-14T13:00:23Z</time>
      </trkpt>
      <trkpt lat="47.21347" lon="-1.52882">
        <ele>50</ele>
        <time>2022-03-14T13:00:25Z</time>
      </trkpt>
      <trkpt lat="47.21343" lon="-1.52901">
        <ele>50</ele>
        <time>2022-03-14T13:00:27Z</time>
      </trkpt>
      <trkpt lat="47.2134" lon="-1.52921">
        <ele>49</ele>
        <time>2022-03-14T13:00:29Z</time>
      </trkpt>
      <trkpt lat="47.21337" lon="-1.52941">
        <ele>48</ele>
        <time>2022-03-14T13:00:31Z</time>
      </trkpt>
      <trkpt lat="47.21336" lon="-1.52958">
        <ele>48</ele>
        <time>2022-03-14T13:00:33Z</time>
      </trkpt>
      <trkpt lat="47.21335" lon="-1.52975">
        <ele>48</ele>
        <time>2022-03-14T13:00:35Z</time>
      </trkpt>
      <trkpt lat="47.21333" lon="-1.52998">
        <ele>49</ele>
        <time>2022-03-14T13:00:37Z</time>
      </trkpt>
      <trkpt lat="47.21332" lon="-1.53017">
        <ele>49</ele>
        <time>2022-03-14T13:00:39Z</time>
      </trkpt>
      <trkpt lat="47.2133" lon="-1.53036">
        <ele>49</ele>
        <time>2022-03-14T13:00:41Z</time>
      </trkpt>
      <trkpt lat="47.21328" lon="-1.53055">
        <ele>49</ele>
        <time>2022-03-14T13:00:43Z</time>
      </trkpt>
      <trkpt lat="47.21327" lon="-1.53074">
        <ele>49</ele>
        <time>2022-03-14T13:00:45Z</time>
      </trkpt>
      <trkpt lat="47.21326" lon="-1.53092">
        <ele>50</ele>
        <time>2022-03-14T13:00:47Z</time>
      </trkpt>
      <trkpt lat="47.21324" lon="-1.53111">
        <ele>50</ele>
        <time>2022-03-14T13:00:49Z</time>
      </trkpt>
      <trkpt lat="47.2132" lon="-1.5313">
        <ele>50</ele>
        <time>2022-03-14T13:00:51Z</time>
      </trkpt>
      <trkpt lat="47.21317" lon="-1.53149">
        <ele>50</ele>
        <time>2022-03-14T13:00:53Z</time>
      </trkpt>
      <trkpt lat="47.21314" lon="-1.53168">
        <ele>49</ele>
        <time>2022-03-14T13:00:55Z</time>
      </trkpt>
      <trkpt lat="47.21312" lon="-1.53185">
        <ele>49</ele>
        <time>2022-03-14T13:00:57Z</time>
      </trkpt>
      <trkpt lat="47.2131" lon="-1.53206">
        <ele>48</ele>
        <time>2022-03-14T13:00:59Z</time>
      </trkpt>
      <trkpt lat="47.21309" lon="-1.53226">
        <ele>48</ele>
        <time>2022-03-14T13:01:01Z</time>
      </trkpt>
      <trkpt lat="47.2131" lon="-1.53245">
        <ele>49</ele>
        <time>2022-03-14T13:01:03Z</time>
      </trkpt>
      <trkpt lat="47.21309" lon="-1.53264">
        <ele>48</ele>
        <time>2022-03-14T13:01:05Z</time>
      </trkpt>
      <trkpt lat="47.21309" lon="-1.53283">
        <ele>49</ele>
        <time>2022-03-14T13:01:07Z</time>
      </trkpt>
      <trkpt lat="47.21308" lon="-1.53302">
        <ele>48</ele>
        <time>2022-03-14T13:01:09Z</time>
      </trkpt>
      <trkpt lat="47.21307" lon="-1.5332">
        <ele>48</ele>
        <time>2022-03-14T13:01:11Z</time>
      </trkpt>
      <trkpt lat="47.21303" lon="-1.53338">
        <ele>48</ele>
        <time>2022-03-14T13:01:13Z</time>
      </trkpt>
      <trkpt lat="47.213" lon="-1.53356">
        <ele>49</ele>
        <time>2022-03-14T13:01:15Z</time>
      </trkpt>
      <trkpt lat="47.21297" lon="-1.53374">
        <ele>49</ele>
        <time>2022-03-14T13:01:17Z</time>
      </trkpt>
      <trkpt lat="47.21294" lon="-1.53393">
        <ele>48</ele>
        <time>2022-03-14T13:01:19Z</time>
      </trkpt>
      <trkpt lat="47.21292" lon="-1.53412">
        <ele>48</ele>
        <time>2022-03-14T13:01:21Z</time>
      </trkpt>
      <trkpt lat="47.2129" lon="-1.5343">
        <ele>48</ele>
        <time>2022-03-14T13:01:23Z</time>
      </trkpt>
      <trkpt lat="47.21288" lon="-1.53448">
        <ele>49</ele>
        <time>2022-03-14T13:01:25Z</time>
      </trkpt>
      <trkpt lat="47.21291" lon="-1.53464">
        <ele>49</ele>
        <time>2022-03-14T13:01:27Z</time>
      </trkpt>
      <trkpt lat="47.21296" lon="-1.5348">
        <ele>49</ele>
        <time>2022-03-14T13:01:29Z</time>
      </trkpt>
      <trkpt lat="47.21299" lon="-1.53498">
        <ele>49</ele>
        <time>2022-03-14T13:01:31Z</time>
      </trkpt>
      <trkpt lat="47.213" lon="-1.53515">
        <ele>49</ele>
        <time>2022-03-14T13:01:33Z</time>
      </trkpt>
      <trkpt lat="47.213" lon="-1.53532">
        <ele>49</ele>
        <time>2022-03-14T13:01:35Z</time>
      </trkpt>
      <trkpt lat="47.213" lon="-1.5355">
        <ele>49</ele>
        <time>2022-03-14T13:01:37Z</time>
      </trkpt>
      <trkpt lat="47.21301" lon="-1.53568">
        <ele>49</ele>
        <time>2022-03-14T13:01:39Z</time>
      </trkpt>
      <trkpt lat="47.21302" lon="-1.53585">
        <ele>49</ele>
        <time>2022-03-14T13:01:41Z</time>
      </trkpt>
      <trkpt lat="47.21302" lon="-1.53601">
        <ele>49</ele>
        <time>2022-03-14T13:01:43Z</time>
      </trkpt>
      <trkpt lat="47.21302" lon="-1.53615">
        <ele>49</ele>
        <time>2022-03-14T13:01:45Z</time>
      </trkpt>
      <trkpt lat="47.213" lon="-1.53628">
        <ele>49</ele>
        <time>2022-03-14T13:01:47Z</time>
      </trkpt>
      <trkpt lat="47.21292" lon="-1.53634">
        <ele>50</ele>
        <time>2022-03-14T13:01:50Z</time>
      </trkpt>
      <trkpt lat="47.21289" lon="-1.53647">
        <ele>50</ele>
        <time>2022-03-14T13:01:53Z</time>
      </trkpt>
      <trkpt lat="47.21289" lon="-1.53661">
        <ele>51</ele>
        <time>2022-03-14T13:01:57Z</time>
      </trkpt>
      <trkpt lat="47.21296" lon="-1.53679">
        <ele>51</ele>
        <time>2022-03-14T13:02:00Z</time>
      </trkpt>
      <trkpt lat="47.21301" lon="-1.53696">
        <ele>52</ele>
        <time>2022-03-14T13:02:02Z</time>
      </trkpt>
      <trkpt lat="47.21305" lon="-1.53717">
        <ele>53</ele>
        <time>2022-03-14T13:02:04Z</time>
      </trkpt>
      <trkpt lat="47.21308" lon="-1.53738">
        <ele>53</ele>
        <time>2022-03-14T13:02:06Z</time>
      </trkpt>
      <trkpt lat="47.21312" lon="-1.53758">
        <ele>52</ele>
        <time>2022-03-14T13:02:08Z</time>
      </trkpt>
      <trkpt lat="47.21315" lon="-1.53776">
        <ele>52</ele>
        <time>2022-03-14T13:02:10Z</time>
      </trkpt>
      <trkpt lat="47.21318" lon="-1.53793">
        <ele>53</ele>
        <time>2022-03-14T13:02:12Z</time>
      </trkpt>
      <trkpt lat="47.2132" lon="-1.53811">
        <ele>52</ele>
        <time>2022-03-14T13:02:14Z</time>
      </trkpt>
      <trkpt lat="47.21322" lon="-1.53828">
        <ele>52</ele>
        <time>2022-03-14T13:02:16Z</time>
      </trkpt>
      <trkpt lat="47.21325" lon="-1.53843">
        <ele>51</ele>
        <time>2022-03-14T13:02:18Z</time>
      </trkpt>
      <trkpt lat="47.21327" lon="-1.53857">
        <ele>51</ele>
        <time>2022-03-14T13:02:20Z</time>
      </trkpt>
      <trkpt lat="47.21329" lon="-1.53874">
        <ele>51</ele>
        <time>2022-03-14T13:02:22Z</time>
      </trkpt>
      <trkpt lat="47.21332" lon="-1.53891">
        <ele>51</ele>
        <time>2022-03-14T13:02:24Z</time>
      </trkpt>
      <trkpt lat="47.21336" lon="-1.53905">
        <ele>51</ele>
        <time>2022-03-14T13:02:26Z</time>
      </trkpt>
      <trkpt lat="47.21344" lon="-1.53912">
        <ele>52</ele>
        <time>2022-03-14T13:02:28Z</time>
      </trkpt>
      <trkpt lat="47.21351" lon="-1.53925">
        <ele>53</ele>
        <time>2022-03-14T13:02:30Z</time>
      </trkpt>
      <trkpt lat="47.21364" lon="-1.53929">
        <ele>54</ele>
        <time>2022-03-14T13:02:33Z</time>
      </trkpt>
      <trkpt lat="47.21376" lon="-1.53936">
        <ele>54</ele>
        <time>2022-03-14T13:02:35Z</time>
      </trkpt>
      <trkpt lat="47.21386" lon="-1.53952">
        <ele>54</ele>
        <time>2022-03-14T13:02:37Z</time>
      </trkpt>
      <trkpt lat="47.21386" lon="-1.53971">
        <ele>54</ele>
        <time>2022-03-14T13:02:39Z</time>
      </trkpt>
      <trkpt lat="47.21382" lon="-1.53989">
        <ele>53</ele>
        <time>2022-03-14T13:02:41Z</time>
      </trkpt>
      <trkpt lat="47.21386" lon="-1.54005">
        <ele>53</ele>
        <time>2022-03-14T13:02:43Z</time>
      </trkpt>
      <trkpt lat="47.21395" lon="-1.54018">
        <ele>53</ele>
        <time>2022-03-14T13:02:45Z</time>
      </trkpt>
      <trkpt lat="47.21405" lon="-1.54031">
        <ele>54</ele>
        <time>2022-03-14T13:02:47Z</time>
      </trkpt>
      <trkpt lat="47.21415" lon="-1.54042">
        <ele>54</ele>
        <time>2022-03-14T13:02:49Z</time>
      </trkpt>
      <trkpt lat="47.21424" lon="-1.54056">
        <ele>54</ele>
        <time>2022-03-14T13:02:51Z</time>
      </trkpt>
      <trkpt lat="47.21431" lon="-1.54068">
        <ele>54</ele>
        <time>2022-03-14T13:02:53Z</time>
      </trkpt>
      <trkpt lat="47.21439" lon="-1.54077">
        <ele>54</ele>
        <time>2022-03-14T13:02:55Z</time>
      </trkpt>
      <trkpt lat="47.21447" lon="-1.54087">
        <ele>54</ele>
        <time>2022-03-14T13:02:57Z</time>
      </trkpt>
      <trkpt lat="47.21454" lon="-1.54097">
        <ele>55</ele>
        <time>2022-03-14T13:02:59Z</time>
      </trkpt>
      <trkpt lat="47.21462" lon="-1.5411">
        <ele>55</ele>
        <time>2022-03-14T13:03:01Z</time>
      </trkpt>
      <trkpt lat="47.21471" lon="-1.54121">
        <ele>56</ele>
        <time>2022-03-14T13:03:03Z</time>
      </trkpt>
      <trkpt lat="47.21479" lon="-1.54135">
        <ele>56</ele>
        <time>2022-03-14T13:03:05Z</time>
      </trkpt>
      <trkpt lat="47.21487" lon="-1.54149">
        <ele>56</ele>
        <time>2022-03-14T13:03:07Z</time>
      </trkpt>
      <trkpt lat="47.21497" lon="-1.54163">
        <ele>57</ele>
        <time>2022-03-14T13:03:09Z</time>
      </trkpt>
      <trkpt lat="47.21506" lon="-1.5418">
        <ele>58</ele>
        <time>2022-03-14T13:03:11Z</time>
      </trkpt>
      <trkpt lat="47.21514" lon="-1.54196">
        <ele>59</ele>
        <time>2022-03-14T13:03:13Z</time>
      </trkpt>
      <trkpt lat="47.21523" lon="-1.5421">
        <ele>60</ele>
        <time>2022-03-14T13:03:15Z</time>
      </trkpt>
      <trkpt lat="47.21531" lon="-1.54224">
        <ele>60</ele>
        <time>2022-03-14T13:03:17Z</time>
      </trkpt>
      <trkpt lat="47.21537" lon="-1.54242">
        <ele>60</ele>
        <time>2022-03-14T13:03:19Z</time>
      </trkpt>
      <trkpt lat="47.21544" lon="-1.54259">
        <ele>60</ele>
        <time>2022-03-14T13:03:21Z</time>
      </trkpt>
      <trkpt lat="47.21552" lon="-1.54275">
        <ele>60</ele>
        <time>2022-03-14T13:03:23Z</time>
      </trkpt>
      <trkpt lat="47.21561" lon="-1.5429">
        <ele>60</ele>
        <time>2022-03-14T13:03:25Z</time>
      </trkpt>
      <trkpt lat="47.2157" lon="-1.54303">
        <ele>59</ele>
        <time>2022-03-14T13:03:27Z</time>
      </trkpt>
      <trkpt lat="47.21579" lon="-1.54318">
        <ele>58</ele>
        <time>2022-03-14T13:03:29Z</time>
      </trkpt>
      <trkpt lat="47.21587" lon="-1.54331">
        <ele>58</ele>
        <time>2022-03-14T13:03:31Z</time>
      </trkpt>
      <trkpt lat="47.21595" lon="-1.54343">
        <ele>59</ele>
        <time>2022-03-14T13:03:33Z</time>
      </trkpt>
      <trkpt lat="47.21601" lon="-1.54356">
        <ele>60</ele>
        <time>2022-03-14T13:03:35Z</time>
      </trkpt>
      <trkpt lat="47.21605" lon="-1.54368">
        <ele>60</ele>
        <time>2022-03-14T13:03:37Z</time>
      </trkpt>
      <trkpt lat="47.21613" lon="-1.54388">
        <ele>60</ele>
        <time>2022-03-14T13:03:39Z</time>
      </trkpt>
      <trkpt lat="47.2161" lon="-1.54411">
        <ele>59</ele>
        <time>2022-03-14T13:03:41Z</time>
      </trkpt>
      <trkpt lat="47.21608" lon="-1.54432">
        <ele>59</ele>
        <time>2022-03-14T13:03:43Z</time>
      </trkpt>
      <trkpt lat="47.21608" lon="-1.54452">
        <ele>58</ele>
        <time>2022-03-14T13:03:45Z</time>
      </trkpt>
      <trkpt lat="47.21606" lon="-1.54471">
        <ele>58</ele>
        <time>2022-03-14T13:03:47Z</time>
      </trkpt>
      <trkpt lat="47.21604" lon="-1.54489">
        <ele>58</ele>
        <time>2022-03-14T13:03:49Z</time>
      </trkpt>
      <trkpt lat="47.216" lon="-1.54507">
        <ele>59</ele>
        <time>2022-03-14T13:03:51Z</time>
      </trkpt>
      <trkpt lat="47.21596" lon="-1.54524">
        <ele>59</ele>
        <time>2022-03-14T13:03:53Z</time>
      </trkpt>
      <trkpt lat="47.21591" lon="-1.54541">
        <ele>59</ele>
        <time>2022-03-14T13:03:55Z</time>
      </trkpt>
      <trkpt lat="47.21586" lon="-1.54557">
        <ele>59</ele>
        <time>2022-03-14T13:03:57Z</time>
      </trkpt>
      <trkpt lat="47.2158" lon="-1.54572">
        <ele>59</ele>
        <time>2022-03-14T13:03:59Z</time>
      </trkpt>
      <trkpt lat="47.21573" lon="-1.54589">
        <ele>58</ele>
        <time>2022-03-14T13:04:01Z</time>
      </trkpt>
      <trkpt lat="47.21566" lon="-1.54605">
        <ele>57</ele>
        <time>2022-03-14T13:04:03Z</time>
      </trkpt>
      <trkpt lat="47.2156" lon="-1.54623">
        <ele>58</ele>
        <time>2022-03-14T13:04:05Z</time>
      </trkpt>
      <trkpt lat="47.21554" lon="-1.54639">
        <ele>58</ele>
        <time>2022-03-14T13:04:07Z</time>
      </trkpt>
      <trkpt lat="47.21548" lon="-1.54655">
        <ele>59</ele>
        <time>2022-03-14T13:04:09Z</time>
      </trkpt>
      <trkpt lat="47.21544" lon="-1.54669">
        <ele>59</ele>
        <time>2022-03-14T13:04:11Z</time>
      </trkpt>
      <trkpt lat="47.21539" lon="-1.54688">
        <ele>62</ele>
        <time>2022-03-14T13:04:14Z</time>
      </trkpt>
      <trkpt lat="47.21532" lon="-1.54708">
        <ele>63</ele>
        <time>2022-03-14T13:04:16Z</time>
      </trkpt>
      <trkpt lat="47.21524" lon="-1.54726">
        <ele>64</ele>
        <time>2022-03-14T13:04:18Z</time>
      </trkpt>
      <trkpt lat="47.21517" lon="-1.54744">
        <ele>63</ele>
        <time>2022-03-14T13:04:20Z</time>
      </trkpt>
      <trkpt lat="47.2151" lon="-1.54762">
        <ele>62</ele>
        <time>2022-03-14T13:04:22Z</time>
      </trkpt>
      <trkpt lat="47.21503" lon="-1.54778">
        <ele>63</ele>
        <time>2022-03-14T13:04:24Z</time>
      </trkpt>
      <trkpt lat="47.21496" lon="-1.54796">
        <ele>62</ele>
        <time>2022-03-14T13:04:26Z</time>
      </trkpt>
      <trkpt lat="47.21489" lon="-1.54813">
        <ele>60</ele>
        <time>2022-03-14T13:04:28Z</time>
      </trkpt>
      <trkpt lat="47.21482" lon="-1.54829">
        <ele>59</ele>
        <time>2022-03-14T13:04:30Z</time>
      </trkpt>
      <trkpt lat="47.21474" lon="-1.54844">
        <ele>59</ele>
        <time>2022-03-14T13:04:32Z</time>
      </trkpt>
      <trkpt lat="47.21466" lon="-1.5486">
        <ele>59</ele>
        <time>2022-03-14T13:04:34Z</time>
      </trkpt>
      <trkpt lat="47.21459" lon="-1.54874">
        <ele>59</ele>
        <time>2022-03-14T13:04:36Z</time>
      </trkpt>
      <trkpt lat="47.21452" lon="-1.54887">
        <ele>59</ele>
        <time>2022-03-14T13:04:38Z</time>
      </trkpt>
      <trkpt lat="47.21445" lon="-1.54903">
        <ele>60</ele>
        <time>2022-03-14T13:04:40Z</time>
      </trkpt>
      <trkpt lat="47.21438" lon="-1.54918">
        <ele>61</ele>
        <time>2022-03-14T13:04:42Z</time>
      </trkpt>
      <trkpt lat="47.21431" lon="-1.54934">
        <ele>61</ele>
        <time>2022-03-14T13:04:44Z</time>
      </trkpt>
      <trkpt lat="47.21425" lon="-1.5495">
        <ele>61</ele>
        <time>2022-03-14T13:04:46Z</time>
      </trkpt>
      <trkpt lat="47.21417" lon="-1.54966">
        <ele>61</ele>
        <time>2022-03-14T13:04:48Z</time>
      </trkpt>
      <trkpt lat="47.2141" lon="-1.54983">
        <ele>60</ele>
        <time>2022-03-14T13:04:50Z</time>
      </trkpt>
      <trkpt lat="47.21404" lon="-1.55">
        <ele>60</ele>
        <time>2022-03-14T13:04:52Z</time>
      </trkpt>
      <trkpt lat="47.21397" lon="-1.55015">
        <ele>60</ele>
        <time>2022-03-14T13:04:54Z</time>
      </trkpt>
      <trkpt lat="47.2139" lon="-1.55032">
        <ele>61</ele>
        <time>2022-03-14T13:04:56Z</time>
      </trkpt>
      <trkpt lat="47.21384" lon="-1.55046">
        <ele>61</ele>
        <time>2022-03-14T13:04:58Z</time>
      </trkpt>
      <trkpt lat="47.21376" lon="-1.55063">
        <ele>61</ele>
        <time>2022-03-14T13:05:00Z</time>
      </trkpt>
      <trkpt lat="47.2137" lon="-1.5508">
        <ele>60</ele>
        <time>2022-03-14T13:05:02Z</time>
      </trkpt>
      <trkpt lat="47.21362" lon="-1.55098">
        <ele>58</ele>
        <time>2022-03-14T13:05:04Z</time>
      </trkpt>
      <trkpt lat="47.21356" lon="-1.55114">
        <ele>58</ele>
        <time>2022-03-14T13:05:06Z</time>
      </trkpt>
      <trkpt lat="47.2135" lon="-1.5513">
        <ele>58</ele>
        <time>2022-03-14T13:05:08Z</time>
      </trkpt>
      <trkpt lat="47.21344" lon="-1.55146">
        <ele>57</ele>
        <time>2022-03-14T13:05:10Z</time>
      </trkpt>
      <trkpt lat="47.21338" lon="-1.55161">
        <ele>56</ele>
        <time>2022-03-14T13:05:12Z</time>
      </trkpt>
      <trkpt lat="47.21332" lon="-1.55176">
        <ele>57</ele>
        <time>2022-03-14T13:05:14Z</time>
      </trkpt>
      <trkpt lat="47.21325" lon="-1.55191">
        <ele>56</ele>
        <time>2022-03-14T13:05:16Z</time>
      </trkpt>
      <trkpt lat="47.21319" lon="-1.55205">
        <ele>56</ele>
        <time>2022-03-14T13:05:18Z</time>
      </trkpt>
      <trkpt lat="47.21313" lon="-1.55221">
        <ele>56</ele>
        <time>2022-03-14T13:05:20Z</time>
      </trkpt>
      <trkpt lat="47.21306" lon="-1.55238">
        <ele>55</ele>
        <time>2022-03-14T13:05:22Z</time>
      </trkpt>
      <trkpt lat="47.213" lon="-1.55253">
        <ele>55</ele>
        <time>2022-03-14T13:05:24Z</time>
      </trkpt>
      <trkpt lat="47.21294" lon="-1.55268">
        <ele>55</ele>
        <time>2022-03-14T13:05:26Z</time>
      </trkpt>
      <trkpt lat="47.21288" lon="-1.55283">
        <ele>54</ele>
        <time>2022-03-14T13:05:28Z</time>
      </trkpt>
      <trkpt lat="47.21283" lon="-1.55296">
        <ele>54</ele>
        <time>2022-03-14T13:05:30Z</time>
      </trkpt>
      <trkpt lat="47.21274" lon="-1.55302">
        <ele>54</ele>
        <time>2022-03-14T13:05:33Z</time>
      </trkpt>
      <trkpt lat="47.21262" lon="-1.55307">
        <ele>55</ele>
        <time>2022-03-14T13:05:36Z</time>
      </trkpt>
      <trkpt lat="47.21257" lon="-1.55324">
        <ele>56</ele>
        <time>2022-03-14T13:05:39Z</time>
      </trkpt>
      <trkpt lat="47.21263" lon="-1.55335">
        <ele>56</ele>
        <time>2022-03-14T13:05:41Z</time>
      </trkpt>
      <trkpt lat="47.21271" lon="-1.55345">
        <ele>56</ele>
        <time>2022-03-14T13:05:44Z</time>
      </trkpt>
      <trkpt lat="47.21281" lon="-1.55355">
        <ele>55</ele>
        <time>2022-03-14T13:05:47Z</time>
      </trkpt>
      <trkpt lat="47.21283" lon="-1.55371">
        <ele>55</ele>
        <time>2022-03-14T13:05:49Z</time>
      </trkpt>
      <trkpt lat="47.21278" lon="-1.55385">
        <ele>55</ele>
        <time>2022-03-14T13:05:51Z</time>
      </trkpt>
      <trkpt lat="47.21273" lon="-1.55396">
        <ele>55</ele>
        <time>2022-03-14T13:05:55Z</time>
      </trkpt>
      <trkpt lat="47.21266" lon="-1.55408">
        <ele>56</ele>
        <time>2022-03-14T13:05:58Z</time>
      </trkpt>
      <trkpt lat="47.21258" lon="-1.5542">
        <ele>57</ele>
        <time>2022-03-14T13:06:00Z</time>
      </trkpt>
      <trkpt lat="47.2125" lon="-1.55434">
        <ele>57</ele>
        <time>2022-03-14T13:06:02Z</time>
      </trkpt>
      <trkpt lat="47.2124" lon="-1.55447">
        <ele>57</ele>
        <time>2022-03-14T13:06:04Z</time>
      </trkpt>
      <trkpt lat="47.21232" lon="-1.55462">
        <ele>57</ele>
        <time>2022-03-14T13:06:06Z</time>
      </trkpt>
      <trkpt lat="47.21224" lon="-1.55476">
        <ele>57</ele>
        <time>2022-03-14T13:06:08Z</time>
      </trkpt>
      <trkpt lat="47.21216" lon="-1.55495">
        <ele>57</ele>
        <time>2022-03-14T13:06:10Z</time>
      </trkpt>
      <trkpt lat="47.2121" lon="-1.55515">
        <ele>57</ele>
        <time>2022-03-14T13:06:12Z</time>
      </trkpt>
      <trkpt lat="47.21203" lon="-1.55538">
        <ele>56</ele>
        <time>2022-03-14T13:06:14Z</time>
      </trkpt>
      <trkpt lat="47.21197" lon="-1.5556">
        <ele>55</ele>
        <time>2022-03-14T13:06:16Z</time>
      </trkpt>
      <trkpt lat="47.21189" lon="-1.55582">
        <ele>54</ele>
        <time>2022-03-14T13:06:18Z</time>
      </trkpt>
      <trkpt lat="47.21183" lon="-1.55603">
        <ele>54</ele>
        <time>2022-03-14T13:06:20Z</time>
      </trkpt>
      <trkpt lat="47.21175" lon="-1.55624">
        <ele>53</ele>
        <time>2022-03-14T13:06:22Z</time>
      </trkpt>
      <trkpt lat="47.2117" lon="-1.55644">
        <ele>53</ele>
        <time>2022-03-14T13:06:24Z</time>
      </trkpt>
      <trkpt lat="47.21167" lon="-1.55657">
        <ele>53</ele>
        <time>2022-03-14T13:06:26Z</time>
      </trkpt>
      <trkpt lat="47.21163" lon="-1.55673">
        <ele>53</ele>
        <time>2022-03-14T13:06:29Z</time>
      </trkpt>
      <trkpt lat="47.21153" lon="-1.55678">
        <ele>52</ele>
        <time>2022-03-14T13:06:31Z</time>
      </trkpt>
      <trkpt lat="47.21141" lon="-1.5567">
        <ele>53</ele>
        <time>2022-03-14T13:06:33Z</time>
      </trkpt>
      <trkpt lat="47.21129" lon="-1.55656">
        <ele>53</ele>
        <time>2022-03-14T13:06:35Z</time>
      </trkpt>
      <trkpt lat="47.21114" lon="-1.55641">
        <ele>52</ele>
        <time>2022-03-14T13:06:37Z</time>
      </trkpt>
      <trkpt lat="47.21106" lon="-1.55634">
        <ele>52</ele>
        <time>2022-03-14T13:06:38Z</time>
      </trkpt>
      <trkpt lat="47.21098" lon="-1.55628">
        <ele>52</ele>
        <time>2022-03-14T13:06:39Z</time>
      </trkpt>
      <trkpt lat="47.2109" lon="-1.55623">
        <ele>53</ele>
        <time>2022-03-14T13:06:40Z</time>
      </trkpt>
      <trkpt lat="47.21081" lon="-1.55617">
        <ele>53</ele>
        <time>2022-03-14T13:06:41Z</time>
      </trkpt>
      <trkpt lat="47.21073" lon="-1.55612">
        <ele>54</ele>
        <time>2022-03-14T13:06:42Z</time>
      </trkpt>
      <trkpt lat="47.21061" lon="-1.55605">
        <ele>55</ele>
        <time>2022-03-14T13:06:44Z</time>
      </trkpt>
      <trkpt lat="47.21051" lon="-1.556">
        <ele>58</ele>
        <time>2022-03-14T13:06:47Z</time>
      </trkpt>
      <trkpt lat="47.2104" lon="-1.55593">
        <ele>61</ele>
        <time>2022-03-14T13:06:50Z</time>
      </trkpt>
      <trkpt lat="47.21025" lon="-1.55589">
        <ele>61</ele>
        <time>2022-03-14T13:06:52Z</time>
      </trkpt>
      <trkpt lat="47.21011" lon="-1.55584">
        <ele>62</ele>
        <time>2022-03-14T13:06:54Z</time>
      </trkpt>
      <trkpt lat="47.20999" lon="-1.5558">
        <ele>61</ele>
        <time>2022-03-14T13:06:56Z</time>
      </trkpt>
      <trkpt lat="47.20988" lon="-1.55576">
        <ele>61</ele>
        <time>2022-03-14T13:06:58Z</time>
      </trkpt>
      <trkpt lat="47.20977" lon="-1.55572">
        <ele>61</ele>
        <time>2022-03-14T13:07:00Z</time>
      </trkpt>
      <trkpt lat="47.20965" lon="-1.55571">
        <ele>61</ele>
        <time>2022-03-14T13:07:02Z</time>
      </trkpt>
      <trkpt lat="47.20952" lon="-1.55568">
        <ele>60</ele>
        <time>2022-03-14T13:07:04Z</time>
      </trkpt>
      <trkpt lat="47.20939" lon="-1.55565">
        <ele>60</ele>
        <time>2022-03-14T13:07:06Z</time>
      </trkpt>
      <trkpt lat="47.20923" lon="-1.5556">
        <ele>60</ele>
        <time>2022-03-14T13:07:08Z</time>
      </trkpt>
      <trkpt lat="47.20908" lon="-1.55556">
        <ele>60</ele>
        <time>2022-03-14T13:07:10Z</time>
      </trkpt>
      <trkpt lat="47.20894" lon="-1.55552">
        <ele>60</ele>
        <time>2022-03-14T13:07:12Z</time>
      </trkpt>
      <trkpt lat="47.20881" lon="-1.55548">
        <ele>62</ele>
        <time>2022-03-14T13:07:14Z</time>
      </trkpt>
      <trkpt lat="47.20867" lon="-1.55545">
        <ele>62</ele>
        <time>2022-03-14T13:07:16Z</time>
      </trkpt>
      <trkpt lat="47.20854" lon="-1.55541">
        <ele>63</ele>
        <time>2022-03-14T13:07:18Z</time>
      </trkpt>
      <trkpt lat="47.20841" lon="-1.55538">
        <ele>63</ele>
        <time>2022-03-14T13:07:20Z</time>
      </trkpt>
      <trkpt lat="47.20829" lon="-1.55535">
        <ele>63</ele>
        <time>2022-03-14T13:07:22Z</time>
      </trkpt>
      <trkpt lat="47.20815" lon="-1.55533">
        <ele>62</ele>
        <time>2022-03-14T13:07:24Z</time>
      </trkpt>
      <trkpt lat="47.20802" lon="-1.5553">
        <ele>62</ele>
        <time>2022-03-14T13:07:26Z</time>
      </trkpt>
      <trkpt lat="47.20788" lon="-1.55527">
        <ele>61</ele>
        <time>2022-03-14T13:07:28Z</time>
      </trkpt>
      <trkpt lat="47.20774" lon="-1.55524">
        <ele>60</ele>
        <time>2022-03-14T13:07:30Z</time>
      </trkpt>
      <trkpt lat="47.2076" lon="-1.5552">
        <ele>60</ele>
        <time>2022-03-14T13:07:32Z</time>
      </trkpt>
      <trkpt lat="47.20745" lon="-1.55517">
        <ele>59</ele>
        <time>2022-03-14T13:07:34Z</time>
      </trkpt>
      <trkpt lat="47.20735" lon="-1.55514">
        <ele>58</ele>
        <time>2022-03-14T13:07:36Z</time>
      </trkpt>
      <trkpt lat="47.20724" lon="-1.5551">
        <ele>58</ele>
        <time>2022-03-14T13:07:39Z</time>
      </trkpt>
      <trkpt lat="47.20715" lon="-1.55506">
        <ele>57</ele>
        <time>2022-03-14T13:07:42Z</time>
      </trkpt>
      <trkpt lat="47.20706" lon="-1.55505">
        <ele>58</ele>
        <time>2022-03-14T13:07:46Z</time>
      </trkpt>
      <trkpt lat="47.20696" lon="-1.55504">
        <ele>58</ele>
        <time>2022-03-14T13:07:49Z</time>
      </trkpt>
      <trkpt lat="47.20684" lon="-1.55502">
        <ele>59</ele>
        <time>2022-03-14T13:07:54Z</time>
      </trkpt>
      <trkpt lat="47.20675" lon="-1.55498">
        <ele>60</ele>
        <time>2022-03-14T13:07:56Z</time>
      </trkpt>
      <trkpt lat="47.20662" lon="-1.55495">
        <ele>60</ele>
        <time>2022-03-14T13:07:58Z</time>
      </trkpt>
      <trkpt lat="47.2065" lon="-1.5549">
        <ele>61</ele>
        <time>2022-03-14T13:08:00Z</time>
      </trkpt>
      <trkpt lat="47.20639" lon="-1.55487">
        <ele>62</ele>
        <time>2022-03-14T13:08:02Z</time>
      </trkpt>
      <trkpt lat="47.20628" lon="-1.55486">
        <ele>63</ele>
        <time>2022-03-14T13:08:04Z</time>
      </trkpt>
      <trkpt lat="47.20617" lon="-1.55485">
        <ele>64</ele>
        <time>2022-03-14T13:08:06Z</time>
      </trkpt>
      <trkpt lat="47.20606" lon="-1.55483">
        <ele>64</ele>
        <time>2022-03-14T13:08:08Z</time>
      </trkpt>
      <trkpt lat="47.20593" lon="-1.55482">
        <ele>64</ele>
        <time>2022-03-14T13:08:10Z</time>
      </trkpt>
      <trkpt lat="47.2058" lon="-1.55483">
        <ele>64</ele>
        <time>2022-03-14T13:08:12Z</time>
      </trkpt>
      <trkpt lat="47.20565" lon="-1.55492">
        <ele>64</ele>
        <time>2022-03-14T13:08:14Z</time>
      </trkpt>
      <trkpt lat="47.20551" lon="-1.55498">
        <ele>64</ele>
        <time>2022-03-14T13:08:16Z</time>
      </trkpt>
      <trkpt lat="47.20536" lon="-1.55496">
        <ele>64</ele>
        <time>2022-03-14T13:08:18Z</time>
      </trkpt>
      <trkpt lat="47.20524" lon="-1.55486">
        <ele>65</ele>
        <time>2022-03-14T13:08:20Z</time>
      </trkpt>
      <trkpt lat="47.20515" lon="-1.5547">
        <ele>66</ele>
        <time>2022-03-14T13:08:22Z</time>
      </trkpt>
      <trkpt lat="47.2051" lon="-1.55454">
        <ele>65</ele>
        <time>2022-03-14T13:08:24Z</time>
      </trkpt>
      <trkpt lat="47.20509" lon="-1.55437">
        <ele>63</ele>
        <time>2022-03-14T13:08:26Z</time>
      </trkpt>
      <trkpt lat="47.20506" lon="-1.55423">
        <ele>63</ele>
        <time>2022-03-14T13:08:28Z</time>
      </trkpt>
      <trkpt lat="47.20499" lon="-1.55409">
        <ele>63</ele>
        <time>2022-03-14T13:08:30Z</time>
      </trkpt>
      <trkpt lat="47.20493" lon="-1.55397">
        <ele>63</ele>
        <time>2022-03-14T13:08:32Z</time>
      </trkpt>
      <trkpt lat="47.20487" lon="-1.55383">
        <ele>63</ele>
        <time>2022-03-14T13:08:35Z</time>
      </trkpt>
      <trkpt lat="47.20481" lon="-1.55372">
        <ele>64</ele>
        <time>2022-03-14T13:08:43Z</time>
      </trkpt>
      <trkpt lat="47.20475" lon="-1.55362">
        <ele>64</ele>
        <time>2022-03-14T13:08:53Z</time>
      </trkpt>
      <trkpt lat="47.20468" lon="-1.55354">
        <ele>64</ele>
        <time>2022-03-14T13:08:56Z</time>
      </trkpt>
      <trkpt lat="47.2046" lon="-1.55338">
        <ele>64</ele>
        <time>2022-03-14T13:08:58Z</time>
      </trkpt>
      <trkpt lat="47.20452" lon="-1.55321">
        <ele>64</ele>
        <time>2022-03-14T13:09:00Z</time>
      </trkpt>
      <trkpt lat="47.20443" lon="-1.55307">
        <ele>65</ele>
        <time>2022-03-14T13:09:02Z</time>
      </trkpt>
      <trkpt lat="47.20436" lon="-1.55293">
        <ele>66</ele>
        <time>2022-03-14T13:09:04Z</time>
      </trkpt>
      <trkpt lat="47.20428" lon="-1.55276">
        <ele>67</ele>
        <time>2022-03-14T13:09:06Z</time>
      </trkpt>
      <trkpt lat="47.20422" lon="-1.55257">
        <ele>68</ele>
        <time>2022-03-14T13:09:08Z</time>
      </trkpt>
      <trkpt lat="47.20417" lon="-1.55239">
        <ele>68</ele>
        <time>2022-03-14T13:09:10Z</time>
      </trkpt>
      <trkpt lat="47.20411" lon="-1.55223">
        <ele>68</ele>
        <time>2022-03-14T13:09:12Z</time>
      </trkpt>
      <trkpt lat="47.20407" lon="-1.55208">
        <ele>68</ele>
        <time>2022-03-14T13:09:14Z</time>
      </trkpt>
      <trkpt lat="47.20401" lon="-1.55194">
        <ele>67</ele>
        <time>2022-03-14T13:09:16Z</time>
      </trkpt>
      <trkpt lat="47.20394" lon="-1.55183">
        <ele>68</ele>
        <time>2022-03-14T13:09:18Z</time>
      </trkpt>
      <trkpt lat="47.20379" lon="-1.55189">
        <ele>68</ele>
        <time>2022-03-14T13:09:20Z</time>
      </trkpt>
      <trkpt lat="47.20368" lon="-1.55202">
        <ele>68</ele>
        <time>2022-03-14T13:09:22Z</time>
      </trkpt>
      <trkpt lat="47.20356" lon="-1.55217">
        <ele>68</ele>
        <time>2022-03-14T13:09:24Z</time>
      </trkpt>
      <trkpt lat="47.20344" lon="-1.55231">
        <ele>67</ele>
        <time>2022-03-14T13:09:26Z</time>
      </trkpt>
      <trkpt lat="47.20334" lon="-1.55245">
        <ele>67</ele>
        <time>2022-03-14T13:09:28Z</time>
      </trkpt>
      <trkpt lat="47.20323" lon="-1.55258">
        <ele>67</ele>
        <time>2022-03-14T13:09:30Z</time>
      </trkpt>
      <trkpt lat="47.20311" lon="-1.5527">
        <ele>67</ele>
        <time>2022-03-14T13:09:32Z</time>
      </trkpt>
      <trkpt lat="47.20301" lon="-1.55283">
        <ele>67</ele>
        <time>2022-03-14T13:09:34Z</time>
      </trkpt>
      <trkpt lat="47.20291" lon="-1.55295">
        <ele>67</ele>
        <time>2022-03-14T13:09:36Z</time>
      </trkpt>
      <trkpt lat="47.20282" lon="-1.55308">
        <ele>66</ele>
        <time>2022-03-14T13:09:38Z</time>
      </trkpt>
      <trkpt lat="47.20272" lon="-1.5532">
        <ele>66</ele>
        <time>2022-03-14T13:09:40Z</time>
      </trkpt>
      <trkpt lat="47.20261" lon="-1.55332">
        <ele>67</ele>
        <time>2022-03-14T13:09:42Z</time>
      </trkpt>
      <trkpt lat="47.20251" lon="-1.55344">
        <ele>66</ele>
        <time>2022-03-14T13:09:44Z</time>
      </trkpt>
      <trkpt lat="47.20241" lon="-1.55357">
        <ele>66</ele>
        <time>2022-03-14T13:09:46Z</time>
      </trkpt>
      <trkpt lat="47.20232" lon="-1.55371">
        <ele>67</ele>
        <time>2022-03-14T13:09:48Z</time>
      </trkpt>
      <trkpt lat="47.20224" lon="-1.55382">
        <ele>68</ele>
        <time>2022-03-14T13:09:50Z</time>
      </trkpt>
      <trkpt lat="47.20213" lon="-1.55395">
        <ele>67</ele>
        <time>2022-03-14T13:09:52Z</time>
      </trkpt>
      <trkpt lat="47.20204" lon="-1.55407">
        <ele>66</ele>
        <time>2022-03-14T13:09:54Z</time>
      </trkpt>
      <trkpt lat="47.20196" lon="-1.55424">
        <ele>65</ele>
        <time>2022-03-14T13:09:57Z</time>
      </trkpt>
      <trkpt lat="47.2019" lon="-1.55442">
        <ele>64</ele>
        <time>2022-03-14T13:09:59Z</time>
      </trkpt>
      <trkpt lat="47.20183" lon="-1.5546">
        <ele>63</ele>
        <time>2022-03-14T13:10:01Z</time>
      </trkpt>
      <trkpt lat="47.20178" lon="-1.5548">
        <ele>61</ele>
        <time>2022-03-14T13:10:03Z</time>
      </trkpt>
      <trkpt lat="47.20177" lon="-1.55499">
        <ele>59</ele>
        <time>2022-03-14T13:10:05Z</time>
      </trkpt>
      <trkpt lat="47.2018" lon="-1.55517">
        <ele>58</ele>
        <time>2022-03-14T13:10:07Z</time>
      </trkpt>
      <trkpt lat="47.20188" lon="-1.5553">
        <ele>58</ele>
        <time>2022-03-14T13:10:09Z</time>
      </trkpt>
      <trkpt lat="47.20199" lon="-1.55539">
        <ele>58</ele>
        <time>2022-03-14T13:10:11Z</time>
      </trkpt>
      <trkpt lat="47.20211" lon="-1.55544">
        <ele>58</ele>
        <time>2022-03-14T13:10:13Z</time>
      </trkpt>
      <trkpt lat="47.20223" lon="-1.55549">
        <ele>57</ele>
        <time>2022-03-14T13:10:15Z</time>
      </trkpt>
      <trkpt lat="47.20235" lon="-1.55554">
        <ele>57</ele>
        <time>2022-03-14T13:10:17Z</time>
      </trkpt>
      <trkpt lat="47.20247" lon="-1.55559">
        <ele>57</ele>
        <time>2022-03-14T13:10:19Z</time>
      </trkpt>
      <trkpt lat="47.20259" lon="-1.55562">
        <ele>57</ele>
        <time>2022-03-14T13:10:21Z</time>
      </trkpt>
      <trkpt lat="47.20271" lon="-1.55565">
        <ele>57</ele>
        <time>2022-03-14T13:10:23Z</time>
      </trkpt>
      <trkpt lat="47.20283" lon="-1.55568">
        <ele>57</ele>
        <time>2022-03-14T13:10:25Z</time>
      </trkpt>
      <trkpt lat="47.20292" lon="-1.55578">
        <ele>57</ele>
        <time>2022-03-14T13:10:27Z</time>
      </trkpt>
      <trkpt lat="47.20296" lon="-1.55596">
        <ele>56</ele>
        <time>2022-03-14T13:10:29Z</time>
      </trkpt>
      <trkpt lat="47.20295" lon="-1.55614">
        <ele>55</ele>
        <time>2022-03-14T13:10:31Z</time>
      </trkpt>
      <trkpt lat="47.20293" lon="-1.55632">
        <ele>55</ele>
        <time>2022-03-14T13:10:33Z</time>
      </trkpt>
      <trkpt lat="47.20291" lon="-1.55652">
        <ele>54</ele>
        <time>2022-03-14T13:10:35Z</time>
      </trkpt>
      <trkpt lat="47.20289" lon="-1.55671">
        <ele>54</ele>
        <time>2022-03-14T13:10:37Z</time>
      </trkpt>
      <trkpt lat="47.20287" lon="-1.55692">
        <ele>54</ele>
        <time>2022-03-14T13:10:39Z</time>
      </trkpt>
      <trkpt lat="47.20285" lon="-1.55711">
        <ele>54</ele>
        <time>2022-03-14T13:10:41Z</time>
      </trkpt>
      <trkpt lat="47.20283" lon="-1.5573">
        <ele>54</ele>
        <time>2022-03-14T13:10:43Z</time>
      </trkpt>
      <trkpt lat="47.2028" lon="-1.5575">
        <ele>53</ele>
        <time>2022-03-14T13:10:45Z</time>
      </trkpt>
      <trkpt lat="47.20278" lon="-1.55769">
        <ele>53</ele>
        <time>2022-03-14T13:10:47Z</time>
      </trkpt>
      <trkpt lat="47.20276" lon="-1.55789">
        <ele>53</ele>
        <time>2022-03-14T13:10:49Z</time>
      </trkpt>
      <trkpt lat="47.20275" lon="-1.55808">
        <ele>53</ele>
        <time>2022-03-14T13:10:51Z</time>
      </trkpt>
      <trkpt lat="47.20273" lon="-1.55827">
        <ele>53</ele>
        <time>2022-03-14T13:10:53Z</time>
      </trkpt>
      <trkpt lat="47.2027" lon="-1.55846">
        <ele>53</ele>
        <time>2022-03-14T13:10:55Z</time>
      </trkpt>
      <trkpt lat="47.20269" lon="-1.55864">
        <ele>53</ele>
        <time>2022-03-14T13:10:57Z</time>
      </trkpt>
      <trkpt lat="47.20267" lon="-1.55883">
        <ele>53</ele>
        <time>2022-03-14T13:10:59Z</time>
      </trkpt>
      <trkpt lat="47.20265" lon="-1.55902">
        <ele>53</ele>
        <time>2022-03-14T13:11:01Z</time>
      </trkpt>
      <trkpt lat="47.20263" lon="-1.55921">
        <ele>53</ele>
        <time>2022-03-14T13:11:03Z</time>
      </trkpt>
      <trkpt lat="47.20261" lon="-1.5594">
        <ele>53</ele>
        <time>2022-03-14T13:11:05Z</time>
      </trkpt>
      <trkpt lat="47.20259" lon="-1.55959">
        <ele>53</ele>
        <time>2022-03-14T13:11:07Z</time>
      </trkpt>
      <trkpt lat="47.20256" lon="-1.55978">
        <ele>53</ele>
        <time>2022-03-14T13:11:09Z</time>
      </trkpt>
      <trkpt lat="47.20254" lon="-1.55997">
        <ele>54</ele>
        <time>2022-03-14T13:11:11Z</time>
      </trkpt>
      <trkpt lat="47.20252" lon="-1.56016">
        <ele>54</ele>
        <time>2022-03-14T13:11:13Z</time>
      </trkpt>
      <trkpt lat="47.20251" lon="-1.56035">
        <ele>54</ele>
        <time>2022-03-14T13:11:15Z</time>
      </trkpt>
      <trkpt lat="47.20248" lon="-1.56054">
        <ele>54</ele>
        <time>2022-03-14T13:11:17Z</time>
      </trkpt>
      <trkpt lat="47.20246" lon="-1.56074">
        <ele>54</ele>
        <time>2022-03-14T13:11:19Z</time>
      </trkpt>
      <trkpt lat="47.20244" lon="-1.56093">
        <ele>53</ele>
        <time>2022-03-14T13:11:21Z</time>
      </trkpt>
      <trkpt lat="47.20242" lon="-1.56113">
        <ele>53</ele>
        <time>2022-03-14T13:11:23Z</time>
      </trkpt>
      <trkpt lat="47.20239" lon="-1.56131">
        <ele>53</ele>
        <time>2022-03-14T13:11:25Z</time>
      </trkpt>
      <trkpt lat="47.20232" lon="-1.56147">
        <ele>53</ele>
        <time>2022-03-14T13:11:27Z</time>
      </trkpt>
      <trkpt lat="47.20222" lon="-1.5616">
        <ele>53</ele>
        <time>2022-03-14T13:11:29Z</time>
      </trkpt>
      <trkpt lat="47.20209" lon="-1.5617">
        <ele>54</ele>
        <time>2022-03-14T13:11:31Z</time>
      </trkpt>
      <trkpt lat="47.20197" lon="-1.56175">
        <ele>54</ele>
        <time>2022-03-14T13:11:33Z</time>
      </trkpt>
      <trkpt lat="47.20185" lon="-1.56183">
        <ele>54</ele>
        <time>2022-03-14T13:11:35Z</time>
      </trkpt>
      <trkpt lat="47.20176" lon="-1.56193">
        <ele>55</ele>
        <time>2022-03-14T13:11:37Z</time>
      </trkpt>
      <trkpt lat="47.20163" lon="-1.56193">
        <ele>55</ele>
        <time>2022-03-14T13:11:39Z</time>
      </trkpt>
      <trkpt lat="47.20152" lon="-1.56183">
        <ele>55</ele>
        <time>2022-03-14T13:11:41Z</time>
      </trkpt>
      <trkpt lat="47.20143" lon="-1.56176">
        <ele>54</ele>
        <time>2022-03-14T13:11:43Z</time>
      </trkpt>
      <trkpt lat="47.20128" lon="-1.56178">
        <ele>55</ele>
        <time>2022-03-14T13:11:45Z</time>
      </trkpt>
      <trkpt lat="47.20115" lon="-1.56179">
        <ele>55</ele>
        <time>2022-03-14T13:11:47Z</time>
      </trkpt>
      <trkpt lat="47.20103" lon="-1.56179">
        <ele>55</ele>
        <time>2022-03-14T13:11:49Z</time>
      </trkpt>
      <trkpt lat="47.20091" lon="-1.5618">
        <ele>57</ele>
        <time>2022-03-14T13:11:51Z</time>
      </trkpt>
      <trkpt lat="47.20079" lon="-1.5618">
        <ele>57</ele>
        <time>2022-03-14T13:11:53Z</time>
      </trkpt>
      <trkpt lat="47.20067" lon="-1.5618">
        <ele>57</ele>
        <time>2022-03-14T13:11:55Z</time>
      </trkpt>
      <trkpt lat="47.20055" lon="-1.56181">
        <ele>56</ele>
        <time>2022-03-14T13:11:57Z</time>
      </trkpt>
      <trkpt lat="47.20043" lon="-1.5618">
        <ele>56</ele>
        <time>2022-03-14T13:11:59Z</time>
      </trkpt>
      <trkpt lat="47.20031" lon="-1.56181">
        <ele>56</ele>
        <time>2022-03-14T13:12:01Z</time>
      </trkpt>
      <trkpt lat="47.2002" lon="-1.56182">
        <ele>56</ele>
        <time>2022-03-14T13:12:03Z</time>
      </trkpt>
      <trkpt lat="47.2001" lon="-1.56184">
        <ele>56</ele>
        <time>2022-03-14T13:12:05Z</time>
      </trkpt>
      <trkpt lat="47.19999" lon="-1.56191">
        <ele>55</ele>
        <time>2022-03-14T13:12:08Z</time>
      </trkpt>
      <trkpt lat="47.19987" lon="-1.562">
        <ele>57</ele>
        <time>2022-03-14T13:12:11Z</time>
      </trkpt>
      <trkpt lat="47.19975" lon="-1.56189">
        <ele>57</ele>
        <time>2022-03-14T13:12:14Z</time>
      </trkpt>
      <trkpt lat="47.19968" lon="-1.56173">
        <ele>58</ele>
        <time>2022-03-14T13:12:16Z</time>
      </trkpt>
      <trkpt lat="47.19957" lon="-1.56167">
        <ele>58</ele>
        <time>2022-03-14T13:12:18Z</time>
      </trkpt>
      <trkpt lat="47.19943" lon="-1.56171">
        <ele>58</ele>
        <time>2022-03-14T13:12:20Z</time>
      </trkpt>
      <trkpt lat="47.19929" lon="-1.56173">
        <ele>58</ele>
        <time>2022-03-14T13:12:22Z</time>
      </trkpt>
      <trkpt lat="47.19914" lon="-1.56174">
        <ele>59</ele>
        <time>2022-03-14T13:12:24Z</time>
      </trkpt>
      <trkpt lat="47.199" lon="-1.56177">
        <ele>59</ele>
        <time>2022-03-14T13:12:26Z</time>
      </trkpt>
      <trkpt lat="47.19887" lon="-1.56179">
        <ele>60</ele>
        <time>2022-03-14T13:12:28Z</time>
      </trkpt>
      <trkpt lat="47.19874" lon="-1.56181">
        <ele>61</ele>
        <time>2022-03-14T13:12:30Z</time>
      </trkpt>
      <trkpt lat="47.19861" lon="-1.56184">
        <ele>61</ele>
        <time>2022-03-14T13:12:32Z</time>
      </trkpt>
      <trkpt lat="47.19849" lon="-1.56186">
        <ele>61</ele>
        <time>2022-03-14T13:12:34Z</time>
      </trkpt>
      <trkpt lat="47.19838" lon="-1.56187">
        <ele>61</ele>
        <time>2022-03-14T13:12:36Z</time>
      </trkpt>
      <trkpt lat="47.19826" lon="-1.56189">
        <ele>61</ele>
        <time>2022-03-14T13:12:38Z</time>
      </trkpt>
      <trkpt lat="47.19815" lon="-1.56191">
        <ele>61</ele>
        <time>2022-03-14T13:12:40Z</time>
      </trkpt>
      <trkpt lat="47.19804" lon="-1.56193">
        <ele>60</ele>
        <time>2022-03-14T13:12:42Z</time>
      </trkpt>
      <trkpt lat="47.19792" lon="-1.56195">
        <ele>60</ele>
        <time>2022-03-14T13:12:44Z</time>
      </trkpt>
      <trkpt lat="47.19781" lon="-1.56197">
        <ele>60</ele>
        <time>2022-03-14T13:12:46Z</time>
      </trkpt>
      <trkpt lat="47.19769" lon="-1.56199">
        <ele>61</ele>
        <time>2022-03-14T13:12:48Z</time>
      </trkpt>
      <trkpt lat="47.19757" lon="-1.56202">
        <ele>60</ele>
        <time>2022-03-14T13:12:50Z</time>
      </trkpt>
      <trkpt lat="47.19744" lon="-1.56204">
        <ele>60</ele>
        <time>2022-03-14T13:12:52Z</time>
      </trkpt>
      <trkpt lat="47.1973" lon="-1.56207">
        <ele>59</ele>
        <time>2022-03-14T13:12:54Z</time>
      </trkpt>
      <trkpt lat="47.19716" lon="-1.5621">
        <ele>59</ele>
        <time>2022-03-14T13:12:56Z</time>
      </trkpt>
      <trkpt lat="47.19702" lon="-1.56212">
        <ele>58</ele>
        <time>2022-03-14T13:12:58Z</time>
      </trkpt>
      <trkpt lat="47.19686" lon="-1.56215">
        <ele>57</ele>
        <time>2022-03-14T13:13:00Z</time>
      </trkpt>
      <trkpt lat="47.1967" lon="-1.5622">
        <ele>56</ele>
        <time>2022-03-14T13:13:02Z</time>
      </trkpt>
      <trkpt lat="47.19654" lon="-1.56226">
        <ele>55</ele>
        <time>2022-03-14T13:13:04Z</time>
      </trkpt>
      <trkpt lat="47.1964" lon="-1.56231">
        <ele>55</ele>
        <time>2022-03-14T13:13:06Z</time>
      </trkpt>
      <trkpt lat="47.19634" lon="-1.56249">
        <ele>55</ele>
        <time>2022-03-14T13:13:08Z</time>
      </trkpt>
      <trkpt lat="47.19632" lon="-1.56271">
        <ele>54</ele>
        <time>2022-03-14T13:13:10Z</time>
      </trkpt>
      <trkpt lat="47.19632" lon="-1.56293">
        <ele>54</ele>
        <time>2022-03-14T13:13:12Z</time>
      </trkpt>
      <trkpt lat="47.19631" lon="-1.56314">
        <ele>54</ele>
        <time>2022-03-14T13:13:14Z</time>
      </trkpt>
      <trkpt lat="47.1963" lon="-1.56336">
        <ele>53</ele>
        <time>2022-03-14T13:13:16Z</time>
      </trkpt>
      <trkpt lat="47.19629" lon="-1.56357">
        <ele>53</ele>
        <time>2022-03-14T13:13:18Z</time>
      </trkpt>
      <trkpt lat="47.19629" lon="-1.56379">
        <ele>52</ele>
        <time>2022-03-14T13:13:20Z</time>
      </trkpt>
      <trkpt lat="47.1963" lon="-1.564">
        <ele>51</ele>
        <time>2022-03-14T13:13:22Z</time>
      </trkpt>
      <trkpt lat="47.19631" lon="-1.5642">
        <ele>51</ele>
        <time>2022-03-14T13:13:24Z</time>
      </trkpt>
      <trkpt lat="47.19632" lon="-1.56441">
        <ele>51</ele>
        <time>2022-03-14T13:13:26Z</time>
      </trkpt>
      <trkpt lat="47.19632" lon="-1.56462">
        <ele>51</ele>
        <time>2022-03-14T13:13:28Z</time>
      </trkpt>
      <trkpt lat="47.19633" lon="-1.56483">
        <ele>51</ele>
        <time>2022-03-14T13:13:30Z</time>
      </trkpt>
      <trkpt lat="47.19634" lon="-1.56504">
        <ele>51</ele>
        <time>2022-03-14T13:13:32Z</time>
      </trkpt>
      <trkpt lat="47.19633" lon="-1.56524">
        <ele>51</ele>
        <time>2022-03-14T13:13:34Z</time>
      </trkpt>
      <trkpt lat="47.19633" lon="-1.56545">
        <ele>51</ele>
        <time>2022-03-14T13:13:36Z</time>
      </trkpt>
      <trkpt lat="47.19632" lon="-1.56566">
        <ele>51</ele>
        <time>2022-03-14T13:13:38Z</time>
      </trkpt>
      <trkpt lat="47.19632" lon="-1.56587">
        <ele>51</ele>
        <time>2022-03-14T13:13:40Z</time>
      </trkpt>
      <trkpt lat="47.19631" lon="-1.56607">
        <ele>52</ele>
        <time>2022-03-14T13:13:42Z</time>
      </trkpt>
      <trkpt lat="47.19629" lon="-1.56628">
        <ele>52</ele>
        <time>2022-03-14T13:13:44Z</time>
      </trkpt>
      <trkpt lat="47.19628" lon="-1.56649">
        <ele>53</ele>
        <time>2022-03-14T13:13:46Z</time>
      </trkpt>
      <trkpt lat="47.19626" lon="-1.5667">
        <ele>52</ele>
        <time>2022-03-14T13:13:48Z</time>
      </trkpt>
      <trkpt lat="47.19625" lon="-1.56692">
        <ele>52</ele>
        <time>2022-03-14T13:13:50Z</time>
      </trkpt>
      <trkpt lat="47.19624" lon="-1.56713">
        <ele>52</ele>
        <time>2022-03-14T13:13:52Z</time>
      </trkpt>
      <trkpt lat="47.19622" lon="-1.56734">
        <ele>52</ele>
        <time>2022-03-14T13:13:54Z</time>
      </trkpt>
      <trkpt lat="47.19621" lon="-1.56754">
        <ele>52</ele>
        <time>2022-03-14T13:13:56Z</time>
      </trkpt>
      <trkpt lat="47.1962" lon="-1.56775">
        <ele>52</ele>
        <time>2022-03-14T13:13:58Z</time>
      </trkpt>
      <trkpt lat="47.19619" lon="-1.56796">
        <ele>52</ele>
        <time>2022-03-14T13:14:00Z</time>
      </trkpt>
      <trkpt lat="47.19618" lon="-1.56817">
        <ele>52</ele>
        <time>2022-03-14T13:14:02Z</time>
      </trkpt>
      <trkpt lat="47.19616" lon="-1.56837">
        <ele>51</ele>
        <time>2022-03-14T13:14:04Z</time>
      </trkpt>
      <trkpt lat="47.19615" lon="-1.56857">
        <ele>51</ele>
        <time>2022-03-14T13:14:06Z</time>
      </trkpt>
      <trkpt lat="47.19614" lon="-1.56877">
        <ele>52</ele>
        <time>2022-03-14T13:14:08Z</time>
      </trkpt>
      <trkpt lat="47.19612" lon="-1.56909">
        <ele>51</ele>
        <time>2022-03-14T13:14:11Z</time>
      </trkpt>
      <trkpt lat="47.19611" lon="-1.56929">
        <ele>51</ele>
        <time>2022-03-14T13:14:13Z</time>
      </trkpt>
      <trkpt lat="47.1961" lon="-1.56949">
        <ele>51</ele>
        <time>2022-03-14T13:14:15Z</time>
      </trkpt>
      <trkpt lat="47.19608" lon="-1.5697">
        <ele>51</ele>
        <time>2022-03-14T13:14:17Z</time>
      </trkpt>
      <trkpt lat="47.19607" lon="-1.56991">
        <ele>51</ele>
        <time>2022-03-14T13:14:19Z</time>
      </trkpt>
      <trkpt lat="47.19605" lon="-1.57011">
        <ele>51</ele>
        <time>2022-03-14T13:14:21Z</time>
      </trkpt>
      <trkpt lat="47.19604" lon="-1.57031">
        <ele>52</ele>
        <time>2022-03-14T13:14:23Z</time>
      </trkpt>
      <trkpt lat="47.19603" lon="-1.5705">
        <ele>51</ele>
        <time>2022-03-14T13:14:25Z</time>
      </trkpt>
      <trkpt lat="47.19602" lon="-1.5707">
        <ele>51</ele>
        <time>2022-03-14T13:14:27Z</time>
      </trkpt>
      <trkpt lat="47.196" lon="-1.57091">
        <ele>51</ele>
        <time>2022-03-14T13:14:29Z</time>
      </trkpt>
      <trkpt lat="47.19599" lon="-1.57111">
        <ele>52</ele>
        <time>2022-03-14T13:14:31Z</time>
      </trkpt>
      <trkpt lat="47.19598" lon="-1.57131">
        <ele>51</ele>
        <time>2022-03-14T13:14:33Z</time>
      </trkpt>
      <trkpt lat="47.19596" lon="-1.57151">
        <ele>51</ele>
        <time>2022-03-14T13:14:35Z</time>
      </trkpt>
      <trkpt lat="47.19595" lon="-1.5717">
        <ele>50</ele>
        <time>2022-03-14T13:14:37Z</time>
      </trkpt>
      <trkpt lat="47.19594" lon="-1.57187">
        <ele>50</ele>
        <time>2022-03-14T13:14:39Z</time>
      </trkpt>
      <trkpt lat="47.19594" lon="-1.57208">
        <ele>50</ele>
        <time>2022-03-14T13:14:41Z</time>
      </trkpt>
      <trkpt lat="47.19593" lon="-1.57229">
        <ele>50</ele>
        <time>2022-03-14T13:14:43Z</time>
      </trkpt>
      <trkpt lat="47.1959" lon="-1.57249">
        <ele>50</ele>
        <time>2022-03-14T13:14:45Z</time>
      </trkpt>
      <trkpt lat="47.19588" lon="-1.5727">
        <ele>49</ele>
        <time>2022-03-14T13:14:47Z</time>
      </trkpt>
      <trkpt lat="47.19587" lon="-1.5729">
        <ele>49</ele>
        <time>2022-03-14T13:14:49Z</time>
      </trkpt>
      <trkpt lat="47.19586" lon="-1.57311">
        <ele>48</ele>
        <time>2022-03-14T13:14:51Z</time>
      </trkpt>
      <trkpt lat="47.19584" lon="-1.5733">
        <ele>48</ele>
        <time>2022-03-14T13:14:53Z</time>
      </trkpt>
      <trkpt lat="47.1958" lon="-1.57347">
        <ele>49</ele>
        <time>2022-03-14T13:14:55Z</time>
      </trkpt>
      <trkpt lat="47.19576" lon="-1.57364">
        <ele>49</ele>
        <time>2022-03-14T13:14:57Z</time>
      </trkpt>
      <trkpt lat="47.19572" lon="-1.57379">
        <ele>49</ele>
        <time>2022-03-14T13:14:59Z</time>
      </trkpt>
      <trkpt lat="47.19569" lon="-1.57395">
        <ele>49</ele>
        <time>2022-03-14T13:15:01Z</time>
      </trkpt>
      <trkpt lat="47.19565" lon="-1.57412">
        <ele>50</ele>
        <time>2022-03-14T13:15:03Z</time>
      </trkpt>
      <trkpt lat="47.19562" lon="-1.57429">
        <ele>50</ele>
        <time>2022-03-14T13:15:05Z</time>
      </trkpt>
      <trkpt lat="47.19557" lon="-1.57447">
        <ele>50</ele>
        <time>2022-03-14T13:15:07Z</time>
      </trkpt>
      <trkpt lat="47.19554" lon="-1.57468">
        <ele>49</ele>
        <time>2022-03-14T13:15:09Z</time>
      </trkpt>
      <trkpt lat="47.1955" lon="-1.57489">
        <ele>50</ele>
        <time>2022-03-14T13:15:11Z</time>
      </trkpt>
      <trkpt lat="47.19546" lon="-1.57509">
        <ele>51</ele>
        <time>2022-03-14T13:15:13Z</time>
      </trkpt>
      <trkpt lat="47.19543" lon="-1.57529">
        <ele>51</ele>
        <time>2022-03-14T13:15:15Z</time>
      </trkpt>
      <trkpt lat="47.19539" lon="-1.57548">
        <ele>51</ele>
        <time>2022-03-14T13:15:17Z</time>
      </trkpt>
      <trkpt lat="47.19536" lon="-1.57568">
        <ele>51</ele>
        <time>2022-03-14T13:15:19Z</time>
      </trkpt>
      <trkpt lat="47.19533" lon="-1.57587">
        <ele>51</ele>
        <time>2022-03-14T13:15:21Z</time>
      </trkpt>
      <trkpt lat="47.19529" lon="-1.57606">
        <ele>51</ele>
        <time>2022-03-14T13:15:23Z</time>
      </trkpt>
      <trkpt lat="47.19525" lon="-1.57625">
        <ele>51</ele>
        <time>2022-03-14T13:15:25Z</time>
      </trkpt>
      <trkpt lat="47.19521" lon="-1.57644">
        <ele>51</ele>
        <time>2022-03-14T13:15:27Z</time>
      </trkpt>
      <trkpt lat="47.19516" lon="-1.57664">
        <ele>51</ele>
        <time>2022-03-14T13:15:29Z</time>
      </trkpt>
      <trkpt lat="47.19512" lon="-1.57683">
        <ele>51</ele>
        <time>2022-03-14T13:15:31Z</time>
      </trkpt>
      <trkpt lat="47.19508" lon="-1.57702">
        <ele>50</ele>
        <time>2022-03-14T13:15:33Z</time>
      </trkpt>
      <trkpt lat="47.19504" lon="-1.57721">
        <ele>50</ele>
        <time>2022-03-14T13:15:35Z</time>
      </trkpt>
      <trkpt lat="47.195" lon="-1.57741">
        <ele>50</ele>
        <time>2022-03-14T13:15:37Z</time>
      </trkpt>
      <trkpt lat="47.19497" lon="-1.5776">
        <ele>49</ele>
        <time>2022-03-14T13:15:39Z</time>
      </trkpt>
      <trkpt lat="47.19492" lon="-1.57779">
        <ele>49</ele>
        <time>2022-03-14T13:15:41Z</time>
      </trkpt>
      <trkpt lat="47.19488" lon="-1.57797">
        <ele>49</ele>
        <time>2022-03-14T13:15:43Z</time>
      </trkpt>
      <trkpt lat="47.19484" lon="-1.57817">
        <ele>49</ele>
        <time>2022-03-14T13:15:45Z</time>
      </trkpt>
      <trkpt lat="47.19481" lon="-1.57837">
        <ele>50</ele>
        <time>2022-03-14T13:15:47Z</time>
      </trkpt>
      <trkpt lat="47.19479" lon="-1.57856">
        <ele>49</ele>
        <time>2022-03-14T13:15:49Z</time>
      </trkpt>
      <trkpt lat="47.19477" lon="-1.57874">
        <ele>49</ele>
        <time>2022-03-14T13:15:51Z</time>
      </trkpt>
      <trkpt lat="47.19473" lon="-1.5789">
        <ele>49</ele>
        <time>2022-03-14T13:15:53Z</time>
      </trkpt>
      <trkpt lat="47.1947" lon="-1.57907">
        <ele>49</ele>
        <time>2022-03-14T13:15:55Z</time>
      </trkpt>
      <trkpt lat="47.19468" lon="-1.57927">
        <ele>49</ele>
        <time>2022-03-14T13:15:57Z</time>
      </trkpt>
      <trkpt lat="47.19467" lon="-1.57947">
        <ele>49</ele>
        <time>2022-03-14T13:15:59Z</time>
      </trkpt>
      <trkpt lat="47.19465" lon="-1.57966">
        <ele>49</ele>
        <time>2022-03-14T13:16:01Z</time>
      </trkpt>
      <trkpt lat="47.19463" lon="-1.57985">
        <ele>49</ele>
        <time>2022-03-14T13:16:03Z</time>
      </trkpt>
      <trkpt lat="47.19462" lon="-1.58004">
        <ele>49</ele>
        <time>2022-03-14T13:16:05Z</time>
      </trkpt>
      <trkpt lat="47.19461" lon="-1.58023">
        <ele>49</ele>
        <time>2022-03-14T13:16:07Z</time>
      </trkpt>
      <trkpt lat="47.19459" lon="-1.5804">
        <ele>50</ele>
        <time>2022-03-14T13:16:09Z</time>
      </trkpt>
      <trkpt lat="47.19457" lon="-1.58056">
        <ele>49</ele>
        <time>2022-03-14T13:16:11Z</time>
      </trkpt>
      <trkpt lat="47.19455" lon="-1.58072">
        <ele>49</ele>
        <time>2022-03-14T13:16:13Z</time>
      </trkpt>
      <trkpt lat="47.19453" lon="-1.58087">
        <ele>50</ele>
        <time>2022-03-14T13:16:15Z</time>
      </trkpt>
      <trkpt lat="47.19447" lon="-1.581">
        <ele>49</ele>
        <time>2022-03-14T13:16:17Z</time>
      </trkpt>
      <trkpt lat="47.19437" lon="-1.58111">
        <ele>50</ele>
        <time>2022-03-14T13:16:19Z</time>
      </trkpt>
      <trkpt lat="47.19426" lon="-1.58123">
        <ele>50</ele>
        <time>2022-03-14T13:16:21Z</time>
      </trkpt>
      <trkpt lat="47.19415" lon="-1.58136">
        <ele>50</ele>
        <time>2022-03-14T13:16:23Z</time>
      </trkpt>
      <trkpt lat="47.19405" lon="-1.58149">
        <ele>50</ele>
        <time>2022-03-14T13:16:25Z</time>
      </trkpt>
      <trkpt lat="47.19397" lon="-1.58165">
        <ele>50</ele>
        <time>2022-03-14T13:16:27Z</time>
      </trkpt>
      <trkpt lat="47.19389" lon="-1.58182">
        <ele>51</ele>
        <time>2022-03-14T13:16:29Z</time>
      </trkpt>
      <trkpt lat="47.19382" lon="-1.58198">
        <ele>51</ele>
        <time>2022-03-14T13:16:31Z</time>
      </trkpt>
      <trkpt lat="47.19375" lon="-1.58214">
        <ele>50</ele>
        <time>2022-03-14T13:16:33Z</time>
      </trkpt>
      <trkpt lat="47.19369" lon="-1.58232">
        <ele>50</ele>
        <time>2022-03-14T13:16:35Z</time>
      </trkpt>
      <trkpt lat="47.19364" lon="-1.5825">
        <ele>50</ele>
        <time>2022-03-14T13:16:37Z</time>
      </trkpt>
      <trkpt lat="47.19357" lon="-1.58267">
        <ele>49</ele>
        <time>2022-03-14T13:16:39Z</time>
      </trkpt>
      <trkpt lat="47.19347" lon="-1.58282">
        <ele>49</ele>
        <time>2022-03-14T13:16:41Z</time>
      </trkpt>
      <trkpt lat="47.19336" lon="-1.58293">
        <ele>50</ele>
        <time>2022-03-14T13:16:43Z</time>
      </trkpt>
      <trkpt lat="47.19325" lon="-1.58303">
        <ele>50</ele>
        <time>2022-03-14T13:16:45Z</time>
      </trkpt>
      <trkpt lat="47.19313" lon="-1.58313">
        <ele>51</ele>
        <time>2022-03-14T13:16:47Z</time>
      </trkpt>
      <trkpt lat="47.19303" lon="-1.58323">
        <ele>51</ele>
        <time>2022-03-14T13:16:49Z</time>
      </trkpt>
      <trkpt lat="47.19292" lon="-1.58333">
        <ele>52</ele>
        <time>2022-03-14T13:16:51Z</time>
      </trkpt>
      <trkpt lat="47.19281" lon="-1.58344">
        <ele>51</ele>
        <time>2022-03-14T13:16:53Z</time>
      </trkpt>
      <trkpt lat="47.1927" lon="-1.58355">
        <ele>51</ele>
        <time>2022-03-14T13:16:55Z</time>
      </trkpt>
      <trkpt lat="47.19259" lon="-1.58366">
        <ele>52</ele>
        <time>2022-03-14T13:16:57Z</time>
      </trkpt>
      <trkpt lat="47.19248" lon="-1.58376">
        <ele>52</ele>
        <time>2022-03-14T13:16:59Z</time>
      </trkpt>
      <trkpt lat="47.19236" lon="-1.58386">
        <ele>53</ele>
        <time>2022-03-14T13:17:01Z</time>
      </trkpt>
      <trkpt lat="47.19224" lon="-1.58397">
        <ele>53</ele>
        <time>2022-03-14T13:17:03Z</time>
      </trkpt>
      <trkpt lat="47.19212" lon="-1.58408">
        <ele>54</ele>
        <time>2022-03-14T13:17:05Z</time>
      </trkpt>
      <trkpt lat="47.19201" lon="-1.58418">
        <ele>54</ele>
        <time>2022-03-14T13:17:07Z</time>
      </trkpt>
      <trkpt lat="47.19189" lon="-1.58428">
        <ele>55</ele>
        <time>2022-03-14T13:17:09Z</time>
      </trkpt>
      <trkpt lat="47.19179" lon="-1.58439">
        <ele>55</ele>
        <time>2022-03-14T13:17:11Z</time>
      </trkpt>
      <trkpt lat="47.19169" lon="-1.58449">
        <ele>56</ele>
        <time>2022-03-14T13:17:13Z</time>
      </trkpt>
      <trkpt lat="47.1916" lon="-1.58459">
        <ele>56</ele>
        <time>2022-03-14T13:17:15Z</time>
      </trkpt>
      <trkpt lat="47.1915" lon="-1.58469">
        <ele>56</ele>
        <time>2022-03-14T13:17:18Z</time>
      </trkpt>
      <trkpt lat="47.19142" lon="-1.58478">
        <ele>56</ele>
        <time>2022-03-14T13:17:20Z</time>
      </trkpt>
      <trkpt lat="47.19132" lon="-1.58488">
        <ele>57</ele>
        <time>2022-03-14T13:17:22Z</time>
      </trkpt>
      <trkpt lat="47.19119" lon="-1.58499">
        <ele>57</ele>
        <time>2022-03-14T13:17:24Z</time>
      </trkpt>
      <trkpt lat="47.19104" lon="-1.58511">
        <ele>56</ele>
        <time>2022-03-14T13:17:26Z</time>
      </trkpt>
      <trkpt lat="47.19091" lon="-1.58523">
        <ele>56</ele>
        <time>2022-03-14T13:17:28Z</time>
      </trkpt>
      <trkpt lat="47.19079" lon="-1.58535">
        <ele>57</ele>
        <time>2022-03-14T13:17:30Z</time>
      </trkpt>
      <trkpt lat="47.19066" lon="-1.58547">
        <ele>57</ele>
        <time>2022-03-14T13:17:32Z</time>
      </trkpt>
      <trkpt lat="47.19053" lon="-1.58559">
        <ele>56</ele>
        <time>2022-03-14T13:17:34Z</time>
      </trkpt>
      <trkpt lat="47.19041" lon="-1.58571">
        <ele>56</ele>
        <time>2022-03-14T13:17:36Z</time>
      </trkpt>
      <trkpt lat="47.1903" lon="-1.58583">
        <ele>56</ele>
        <time>2022-03-14T13:17:38Z</time>
      </trkpt>
      <trkpt lat="47.19019" lon="-1.58595">
        <ele>55</ele>
        <time>2022-03-14T13:17:40Z</time>
      </trkpt>
      <trkpt lat="47.19009" lon="-1.58607">
        <ele>56</ele>
        <time>2022-03-14T13:17:42Z</time>
      </trkpt>
      <trkpt lat="47.18999" lon="-1.58618">
        <ele>56</ele>
        <time>2022-03-14T13:17:44Z</time>
      </trkpt>
      <trkpt lat="47.18988" lon="-1.58628">
        <ele>56</ele>
        <time>2022-03-14T13:17:46Z</time>
      </trkpt>
      <trkpt lat="47.18978" lon="-1.58639">
        <ele>56</ele>
        <time>2022-03-14T13:17:48Z</time>
      </trkpt>
      <trkpt lat="47.18967" lon="-1.58649">
        <ele>57</ele>
        <time>2022-03-14T13:17:50Z</time>
      </trkpt>
      <trkpt lat="47.18956" lon="-1.58659">
        <ele>57</ele>
        <time>2022-03-14T13:17:52Z</time>
      </trkpt>
      <trkpt lat="47.18946" lon="-1.5867">
        <ele>57</ele>
        <time>2022-03-14T13:17:54Z</time>
      </trkpt>
      <trkpt lat="47.18935" lon="-1.5868">
        <ele>56</ele>
        <time>2022-03-14T13:17:56Z</time>
      </trkpt>
      <trkpt lat="47.18924" lon="-1.5869">
        <ele>57</ele>
        <time>2022-03-14T13:17:58Z</time>
      </trkpt>
      <trkpt lat="47.18912" lon="-1.587">
        <ele>57</ele>
        <time>2022-03-14T13:18:00Z</time>
      </trkpt>
      <trkpt lat="47.18901" lon="-1.58709">
        <ele>57</ele>
        <time>2022-03-14T13:18:02Z</time>
      </trkpt>
      <trkpt lat="47.1889" lon="-1.58716">
        <ele>58</ele>
        <time>2022-03-14T13:18:04Z</time>
      </trkpt>
      <trkpt lat="47.18879" lon="-1.58723">
        <ele>57</ele>
        <time>2022-03-14T13:18:06Z</time>
      </trkpt>
      <trkpt lat="47.18868" lon="-1.58728">
        <ele>57</ele>
        <time>2022-03-14T13:18:08Z</time>
      </trkpt>
      <trkpt lat="47.18858" lon="-1.58733">
        <ele>58</ele>
        <time>2022-03-14T13:18:10Z</time>
      </trkpt>
      <trkpt lat="47.18847" lon="-1.58738">
        <ele>58</ele>
        <time>2022-03-14T13:18:12Z</time>
      </trkpt>
      <trkpt lat="47.18837" lon="-1.58744">
        <ele>58</ele>
        <time>2022-03-14T13:18:14Z</time>
      </trkpt>
      <trkpt lat="47.18832" lon="-1.58757">
        <ele>57</ele>
        <time>2022-03-14T13:18:16Z</time>
      </trkpt>
      <trkpt lat="47.1883" lon="-1.58773">
        <ele>56</ele>
        <time>2022-03-14T13:18:18Z</time>
      </trkpt>
      <trkpt lat="47.18823" lon="-1.58786">
        <ele>56</ele>
        <time>2022-03-14T13:18:20Z</time>
      </trkpt>
      <trkpt lat="47.18814" lon="-1.58798">
        <ele>56</ele>
        <time>2022-03-14T13:18:22Z</time>
      </trkpt>
      <trkpt lat="47.18803" lon="-1.58806">
        <ele>56</ele>
        <time>2022-03-14T13:18:24Z</time>
      </trkpt>
      <trkpt lat="47.18792" lon="-1.58813">
        <ele>55</ele>
        <time>2022-03-14T13:18:26Z</time>
      </trkpt>
      <trkpt lat="47.18786" lon="-1.58828">
        <ele>55</ele>
        <time>2022-03-14T13:18:28Z</time>
      </trkpt>
      <trkpt lat="47.18782" lon="-1.58846">
        <ele>54</ele>
        <time>2022-03-14T13:18:30Z</time>
      </trkpt>
      <trkpt lat="47.18779" lon="-1.58864">
        <ele>54</ele>
        <time>2022-03-14T13:18:32Z</time>
      </trkpt>
      <trkpt lat="47.18775" lon="-1.58882">
        <ele>53</ele>
        <time>2022-03-14T13:18:34Z</time>
      </trkpt>
      <trkpt lat="47.18773" lon="-1.58901">
        <ele>53</ele>
        <time>2022-03-14T13:18:36Z</time>
      </trkpt>
      <trkpt lat="47.18771" lon="-1.5892">
        <ele>53</ele>
        <time>2022-03-14T13:18:38Z</time>
      </trkpt>
      <trkpt lat="47.18769" lon="-1.58939">
        <ele>52</ele>
        <time>2022-03-14T13:18:40Z</time>
      </trkpt>
      <trkpt lat="47.18767" lon="-1.58958">
        <ele>52</ele>
        <time>2022-03-14T13:18:42Z</time>
      </trkpt>
      <trkpt lat="47.18765" lon="-1.58977">
        <ele>52</ele>
        <time>2022-03-14T13:18:44Z</time>
      </trkpt>
      <trkpt lat="47.18763" lon="-1.58996">
        <ele>52</ele>
        <time>2022-03-14T13:18:46Z</time>
      </trkpt>
      <trkpt lat="47.18761" lon="-1.59015">
        <ele>52</ele>
        <time>2022-03-14T13:18:48Z</time>
      </trkpt>
      <trkpt lat="47.18759" lon="-1.59035">
        <ele>53</ele>
        <time>2022-03-14T13:18:50Z</time>
      </trkpt>
      <trkpt lat="47.18757" lon="-1.59054">
        <ele>52</ele>
        <time>2022-03-14T13:18:52Z</time>
      </trkpt>
      <trkpt lat="47.18754" lon="-1.59073">
        <ele>51</ele>
        <time>2022-03-14T13:18:54Z</time>
      </trkpt>
      <trkpt lat="47.18752" lon="-1.59093">
        <ele>52</ele>
        <time>2022-03-14T13:18:56Z</time>
      </trkpt>
      <trkpt lat="47.1875" lon="-1.59113">
        <ele>51</ele>
        <time>2022-03-14T13:18:58Z</time>
      </trkpt>
      <trkpt lat="47.18748" lon="-1.59133">
        <ele>51</ele>
        <time>2022-03-14T13:19:00Z</time>
      </trkpt>
      <trkpt lat="47.18746" lon="-1.59153">
        <ele>51</ele>
        <time>2022-03-14T13:19:02Z</time>
      </trkpt>
      <trkpt lat="47.18744" lon="-1.59173">
        <ele>51</ele>
        <time>2022-03-14T13:19:04Z</time>
      </trkpt>
      <trkpt lat="47.18742" lon="-1.59193">
        <ele>51</ele>
        <time>2022-03-14T13:19:06Z</time>
      </trkpt>
      <trkpt lat="47.1874" lon="-1.59214">
        <ele>51</ele>
        <time>2022-03-14T13:19:08Z</time>
      </trkpt>
      <trkpt lat="47.18737" lon="-1.59234">
        <ele>51</ele>
        <time>2022-03-14T13:19:10Z</time>
      </trkpt>
      <trkpt lat="47.18735" lon="-1.59254">
        <ele>50</ele>
        <time>2022-03-14T13:19:12Z</time>
      </trkpt>
      <trkpt lat="47.18733" lon="-1.59275">
        <ele>50</ele>
        <time>2022-03-14T13:19:14Z</time>
      </trkpt>
      <trkpt lat="47.18731" lon="-1.59296">
        <ele>50</ele>
        <time>2022-03-14T13:19:16Z</time>
      </trkpt>
      <trkpt lat="47.18729" lon="-1.59316">
        <ele>50</ele>
        <time>2022-03-14T13:19:18Z</time>
      </trkpt>
      <trkpt lat="47.18726" lon="-1.59337">
        <ele>50</ele>
        <time>2022-03-14T13:19:20Z</time>
      </trkpt>
      <trkpt lat="47.18724" lon="-1.59358">
        <ele>50</ele>
        <time>2022-03-14T13:19:22Z</time>
      </trkpt>
      <trkpt lat="47.18722" lon="-1.59378">
        <ele>50</ele>
        <time>2022-03-14T13:19:24Z</time>
      </trkpt>
      <trkpt lat="47.18719" lon="-1.59398">
        <ele>50</ele>
        <time>2022-03-14T13:19:26Z</time>
      </trkpt>
      <trkpt lat="47.18717" lon="-1.59419">
        <ele>50</ele>
        <time>2022-03-14T13:19:28Z</time>
      </trkpt>
      <trkpt lat="47.18715" lon="-1.5944">
        <ele>50</ele>
        <time>2022-03-14T13:19:30Z</time>
      </trkpt>
      <trkpt lat="47.18712" lon="-1.59461">
        <ele>50</ele>
        <time>2022-03-14T13:19:32Z</time>
      </trkpt>
      <trkpt lat="47.1871" lon="-1.59482">
        <ele>50</ele>
        <time>2022-03-14T13:19:34Z</time>
      </trkpt>
      <trkpt lat="47.18707" lon="-1.59502">
        <ele>50</ele>
        <time>2022-03-14T13:19:36Z</time>
      </trkpt>
      <trkpt lat="47.18705" lon="-1.59523">
        <ele>50</ele>
        <time>2022-03-14T13:19:38Z</time>
      </trkpt>
      <trkpt lat="47.18703" lon="-1.59543">
        <ele>50</ele>
        <time>2022-03-14T13:19:40Z</time>
      </trkpt>
      <trkpt lat="47.18701" lon="-1.59563">
        <ele>50</ele>
        <time>2022-03-14T13:19:42Z</time>
      </trkpt>
      <trkpt lat="47.18698" lon="-1.59582">
        <ele>51</ele>
        <time>2022-03-14T13:19:44Z</time>
      </trkpt>
      <trkpt lat="47.18696" lon="-1.59602">
        <ele>51</ele>
        <time>2022-03-14T13:19:46Z</time>
      </trkpt>
      <trkpt lat="47.18694" lon="-1.59621">
        <ele>51</ele>
        <time>2022-03-14T13:19:48Z</time>
      </trkpt>
      <trkpt lat="47.18691" lon="-1.59641">
        <ele>51</ele>
        <time>2022-03-14T13:19:50Z</time>
      </trkpt>
      <trkpt lat="47.18688" lon="-1.5966">
        <ele>50</ele>
        <time>2022-03-14T13:19:52Z</time>
      </trkpt>
      <trkpt lat="47.18685" lon="-1.5968">
        <ele>50</ele>
        <time>2022-03-14T13:19:54Z</time>
      </trkpt>
      <trkpt lat="47.18683" lon="-1.59699">
        <ele>51</ele>
        <time>2022-03-14T13:19:56Z</time>
      </trkpt>
      <trkpt lat="47.18682" lon="-1.59718">
        <ele>51</ele>
        <time>2022-03-14T13:19:58Z</time>
      </trkpt>
      <trkpt lat="47.18681" lon="-1.59736">
        <ele>50</ele>
        <time>2022-03-14T13:20:00Z</time>
      </trkpt>
      <trkpt lat="47.18681" lon="-1.59753">
        <ele>50</ele>
        <time>2022-03-14T13:20:02Z</time>
      </trkpt>
      <trkpt lat="47.18684" lon="-1.59771">
        <ele>50</ele>
        <time>2022-03-14T13:20:04Z</time>
      </trkpt>
      <trkpt lat="47.18686" lon="-1.59788">
        <ele>50</ele>
        <time>2022-03-14T13:20:06Z</time>
      </trkpt>
      <trkpt lat="47.18683" lon="-1.59808">
        <ele>50</ele>
        <time>2022-03-14T13:20:08Z</time>
      </trkpt>
      <trkpt lat="47.18677" lon="-1.59826">
        <ele>50</ele>
        <time>2022-03-14T13:20:10Z</time>
      </trkpt>
      <trkpt lat="47.18668" lon="-1.59839">
        <ele>51</ele>
        <time>2022-03-14T13:20:12Z</time>
      </trkpt>
      <trkpt lat="47.18656" lon="-1.59845">
        <ele>51</ele>
        <time>2022-03-14T13:20:14Z</time>
      </trkpt>
      <trkpt lat="47.18642" lon="-1.59842">
        <ele>51</ele>
        <time>2022-03-14T13:20:16Z</time>
      </trkpt>
      <trkpt lat="47.1863" lon="-1.59834">
        <ele>52</ele>
        <time>2022-03-14T13:20:18Z</time>
      </trkpt>
      <trkpt lat="47.18618" lon="-1.59831">
        <ele>52</ele>
        <time>2022-03-14T13:20:20Z</time>
      </trkpt>
      <trkpt lat="47.18614" lon="-1.59843">
        <ele>52</ele>
        <time>2022-03-14T13:20:22Z</time>
      </trkpt>
      <trkpt lat="47.1862" lon="-1.59859">
        <ele>52</ele>
        <time>2022-03-14T13:20:24Z</time>
      </trkpt>
      <trkpt lat="47.18621" lon="-1.59876">
        <ele>53</ele>
        <time>2022-03-14T13:20:26Z</time>
      </trkpt>
      <trkpt lat="47.18617" lon="-1.59895">
        <ele>52</ele>
        <time>2022-03-14T13:20:28Z</time>
      </trkpt>
      <trkpt lat="47.18612" lon="-1.59912">
        <ele>52</ele>
        <time>2022-03-14T13:20:30Z</time>
      </trkpt>
      <trkpt lat="47.18607" lon="-1.5993">
        <ele>51</ele>
        <time>2022-03-14T13:20:32Z</time>
      </trkpt>
      <trkpt lat="47.18602" lon="-1.59947">
        <ele>51</ele>
        <time>2022-03-14T13:20:34Z</time>
      </trkpt>
      <trkpt lat="47.18597" lon="-1.59964">
        <ele>51</ele>
        <time>2022-03-14T13:20:36Z</time>
      </trkpt>
      <trkpt lat="47.18592" lon="-1.59981">
        <ele>51</ele>
        <time>2022-03-14T13:20:38Z</time>
      </trkpt>
      <trkpt lat="47.18586" lon="-1.59998">
        <ele>51</ele>
        <time>2022-03-14T13:20:40Z</time>
      </trkpt>
      <trkpt lat="47.1858" lon="-1.60015">
        <ele>51</ele>
        <time>2022-03-14T13:20:42Z</time>
      </trkpt>
      <trkpt lat="47.18575" lon="-1.60032">
        <ele>51</ele>
        <time>2022-03-14T13:20:44Z</time>
      </trkpt>
      <trkpt lat="47.18569" lon="-1.60048">
        <ele>51</ele>
        <time>2022-03-14T13:20:46Z</time>
      </trkpt>
      <trkpt lat="47.18563" lon="-1.60065">
        <ele>52</ele>
        <time>2022-03-14T13:20:48Z</time>
      </trkpt>
      <trkpt lat="47.18557" lon="-1.6008">
        <ele>52</ele>
        <time>2022-03-14T13:20:50Z</time>
      </trkpt>
      <trkpt lat="47.18551" lon="-1.60096">
        <ele>53</ele>
        <time>2022-03-14T13:20:52Z</time>
      </trkpt>
      <trkpt lat="47.18544" lon="-1.60111">
        <ele>53</ele>
        <time>2022-03-14T13:20:54Z</time>
      </trkpt>
      <trkpt lat="47.18537" lon="-1.60126">
        <ele>53</ele>
        <time>2022-03-14T13:20:56Z</time>
      </trkpt>
      <trkpt lat="47.1853" lon="-1.60142">
        <ele>53</ele>
        <time>2022-03-14T13:20:58Z</time>
      </trkpt>
      <trkpt lat="47.18523" lon="-1.60157">
        <ele>53</ele>
        <time>2022-03-14T13:21:00Z</time>
      </trkpt>
      <trkpt lat="47.18516" lon="-1.60173">
        <ele>53</ele>
        <time>2022-03-14T13:21:02Z</time>
      </trkpt>
      <trkpt lat="47.18509" lon="-1.60187">
        <ele>53</ele>
        <time>2022-03-14T13:21:04Z</time>
      </trkpt>
      <trkpt lat="47.18501" lon="-1.60202">
        <ele>54</ele>
        <time>2022-03-14T13:21:06Z</time>
      </trkpt>
      <trkpt lat="47.18494" lon="-1.60216">
        <ele>54</ele>
        <time>2022-03-14T13:21:08Z</time>
      </trkpt>
      <trkpt lat="47.18486" lon="-1.6023">
        <ele>54</ele>
        <time>2022-03-14T13:21:10Z</time>
      </trkpt>
      <trkpt lat="47.18479" lon="-1.60245">
        <ele>53</ele>
        <time>2022-03-14T13:21:12Z</time>
      </trkpt>
      <trkpt lat="47.18471" lon="-1.60259">
        <ele>53</ele>
        <time>2022-03-14T13:21:14Z</time>
      </trkpt>
      <trkpt lat="47.18463" lon="-1.60273">
        <ele>54</ele>
        <time>2022-03-14T13:21:16Z</time>
      </trkpt>
      <trkpt lat="47.18455" lon="-1.60286">
        <ele>54</ele>
        <time>2022-03-14T13:21:18Z</time>
      </trkpt>
      <trkpt lat="47.18448" lon="-1.60301">
        <ele>54</ele>
        <time>2022-03-14T13:21:20Z</time>
      </trkpt>
      <trkpt lat="47.18439" lon="-1.60314">
        <ele>54</ele>
        <time>2022-03-14T13:21:22Z</time>
      </trkpt>
      <trkpt lat="47.18431" lon="-1.60327">
        <ele>54</ele>
        <time>2022-03-14T13:21:24Z</time>
      </trkpt>
      <trkpt lat="47.18422" lon="-1.6034">
        <ele>54</ele>
        <time>2022-03-14T13:21:26Z</time>
      </trkpt>
      <trkpt lat="47.18413" lon="-1.60353">
        <ele>53</ele>
        <time>2022-03-14T13:21:28Z</time>
      </trkpt>
      <trkpt lat="47.18404" lon="-1.60366">
        <ele>54</ele>
        <time>2022-03-14T13:21:30Z</time>
      </trkpt>
      <trkpt lat="47.18395" lon="-1.60377">
        <ele>53</ele>
        <time>2022-03-14T13:21:32Z</time>
      </trkpt>
      <trkpt lat="47.18385" lon="-1.6039">
        <ele>53</ele>
        <time>2022-03-14T13:21:34Z</time>
      </trkpt>
      <trkpt lat="47.18376" lon="-1.60403">
        <ele>53</ele>
        <time>2022-03-14T13:21:36Z</time>
      </trkpt>
      <trkpt lat="47.18366" lon="-1.60415">
        <ele>53</ele>
        <time>2022-03-14T13:21:38Z</time>
      </trkpt>
      <trkpt lat="47.18357" lon="-1.60427">
        <ele>53</ele>
        <time>2022-03-14T13:21:40Z</time>
      </trkpt>
      <trkpt lat="47.18347" lon="-1.60439">
        <ele>53</ele>
        <time>2022-03-14T13:21:42Z</time>
      </trkpt>
      <trkpt lat="47.18337" lon="-1.6045">
        <ele>53</ele>
        <time>2022-03-14T13:21:44Z</time>
      </trkpt>
      <trkpt lat="47.18328" lon="-1.60462">
        <ele>53</ele>
        <time>2022-03-14T13:21:46Z</time>
      </trkpt>
      <trkpt lat="47.18318" lon="-1.60474">
        <ele>53</ele>
        <time>2022-03-14T13:21:48Z</time>
      </trkpt>
      <trkpt lat="47.18307" lon="-1.60485">
        <ele>53</ele>
        <time>2022-03-14T13:21:50Z</time>
      </trkpt>
      <trkpt lat="47.18298" lon="-1.60496">
        <ele>53</ele>
        <time>2022-03-14T13:21:52Z</time>
      </trkpt>
      <trkpt lat="47.18287" lon="-1.60507">
        <ele>54</ele>
        <time>2022-03-14T13:21:54Z</time>
      </trkpt>
      <trkpt lat="47.18277" lon="-1.60518">
        <ele>54</ele>
        <time>2022-03-14T13:21:56Z</time>
      </trkpt>
      <trkpt lat="47.18266" lon="-1.60528">
        <ele>54</ele>
        <time>2022-03-14T13:21:58Z</time>
      </trkpt>
      <trkpt lat="47.18255" lon="-1.60538">
        <ele>55</ele>
        <time>2022-03-14T13:22:00Z</time>
      </trkpt>
      <trkpt lat="47.18244" lon="-1.60547">
        <ele>55</ele>
        <time>2022-03-14T13:22:02Z</time>
      </trkpt>
      <trkpt lat="47.18233" lon="-1.60555">
        <ele>55</ele>
        <time>2022-03-14T13:22:04Z</time>
      </trkpt>
      <trkpt lat="47.18222" lon="-1.60562">
        <ele>56</ele>
        <time>2022-03-14T13:22:06Z</time>
      </trkpt>
      <trkpt lat="47.18212" lon="-1.6057">
        <ele>56</ele>
        <time>2022-03-14T13:22:08Z</time>
      </trkpt>
      <trkpt lat="47.18203" lon="-1.60575">
        <ele>56</ele>
        <time>2022-03-14T13:22:10Z</time>
      </trkpt>
      <trkpt lat="47.18194" lon="-1.60578">
        <ele>57</ele>
        <time>2022-03-14T13:22:12Z</time>
      </trkpt>
      <trkpt lat="47.18189" lon="-1.6059">
        <ele>58</ele>
        <time>2022-03-14T13:22:16Z</time>
      </trkpt>
      <trkpt lat="47.18182" lon="-1.606">
        <ele>58</ele>
        <time>2022-03-14T13:22:18Z</time>
      </trkpt>
      <trkpt lat="47.18171" lon="-1.60602">
        <ele>57</ele>
        <time>2022-03-14T13:22:20Z</time>
      </trkpt>
      <trkpt lat="47.18159" lon="-1.60602">
        <ele>58</ele>
        <time>2022-03-14T13:22:22Z</time>
      </trkpt>
      <trkpt lat="47.18148" lon="-1.60602">
        <ele>59</ele>
        <time>2022-03-14T13:22:24Z</time>
      </trkpt>
      <trkpt lat="47.18137" lon="-1.60599">
        <ele>59</ele>
        <time>2022-03-14T13:22:26Z</time>
      </trkpt>
      <trkpt lat="47.18127" lon="-1.60597">
        <ele>59</ele>
        <time>2022-03-14T13:22:28Z</time>
      </trkpt>
      <trkpt lat="47.18118" lon="-1.60594">
        <ele>60</ele>
        <time>2022-03-14T13:22:30Z</time>
      </trkpt>
      <trkpt lat="47.18106" lon="-1.6059">
        <ele>60</ele>
        <time>2022-03-14T13:22:32Z</time>
      </trkpt>
      <trkpt lat="47.18092" lon="-1.60584">
        <ele>59</ele>
        <time>2022-03-14T13:22:34Z</time>
      </trkpt>
      <trkpt lat="47.18079" lon="-1.60578">
        <ele>59</ele>
        <time>2022-03-14T13:22:36Z</time>
      </trkpt>
      <trkpt lat="47.18067" lon="-1.60572">
        <ele>59</ele>
        <time>2022-03-14T13:22:38Z</time>
      </trkpt>
      <trkpt lat="47.18056" lon="-1.60566">
        <ele>58</ele>
        <time>2022-03-14T13:22:40Z</time>
      </trkpt>
      <trkpt lat="47.18045" lon="-1.6056">
        <ele>59</ele>
        <time>2022-03-14T13:22:42Z</time>
      </trkpt>
      <trkpt lat="47.18034" lon="-1.60555">
        <ele>59</ele>
        <time>2022-03-14T13:22:44Z</time>
      </trkpt>
      <trkpt lat="47.18023" lon="-1.60551">
        <ele>59</ele>
        <time>2022-03-14T13:22:46Z</time>
      </trkpt>
      <trkpt lat="47.18011" lon="-1.60552">
        <ele>58</ele>
        <time>2022-03-14T13:22:48Z</time>
      </trkpt>
      <trkpt lat="47.17999" lon="-1.60555">
        <ele>58</ele>
        <time>2022-03-14T13:22:50Z</time>
      </trkpt>
      <trkpt lat="47.17988" lon="-1.60558">
        <ele>58</ele>
        <time>2022-03-14T13:22:52Z</time>
      </trkpt>
      <trkpt lat="47.17977" lon="-1.60562">
        <ele>58</ele>
        <time>2022-03-14T13:22:54Z</time>
      </trkpt>
      <trkpt lat="47.17966" lon="-1.60566">
        <ele>57</ele>
        <time>2022-03-14T13:22:56Z</time>
      </trkpt>
      <trkpt lat="47.17956" lon="-1.6057">
        <ele>58</ele>
        <time>2022-03-14T13:22:58Z</time>
      </trkpt>
      <trkpt lat="47.17945" lon="-1.60575">
        <ele>58</ele>
        <time>2022-03-14T13:23:00Z</time>
      </trkpt>
      <trkpt lat="47.17936" lon="-1.60582">
        <ele>58</ele>
        <time>2022-03-14T13:23:02Z</time>
      </trkpt>
      <trkpt lat="47.17926" lon="-1.60587">
        <ele>58</ele>
        <time>2022-03-14T13:23:04Z</time>
      </trkpt>
      <trkpt lat="47.17916" lon="-1.60587">
        <ele>59</ele>
        <time>2022-03-14T13:23:06Z</time>
      </trkpt>
      <trkpt lat="47.17907" lon="-1.60588">
        <ele>59</ele>
        <time>2022-03-14T13:23:08Z</time>
      </trkpt>
      <trkpt lat="47.17901" lon="-1.606">
        <ele>59</ele>
        <time>2022-03-14T13:23:10Z</time>
      </trkpt>
      <trkpt lat="47.17898" lon="-1.60616">
        <ele>59</ele>
        <time>2022-03-14T13:23:12Z</time>
      </trkpt>
      <trkpt lat="47.17893" lon="-1.60633">
        <ele>59</ele>
        <time>2022-03-14T13:23:14Z</time>
      </trkpt>
      <trkpt lat="47.17888" lon="-1.60652">
        <ele>58</ele>
        <time>2022-03-14T13:23:16Z</time>
      </trkpt>
      <trkpt lat="47.17882" lon="-1.6067">
        <ele>57</ele>
        <time>2022-03-14T13:23:18Z</time>
      </trkpt>
      <trkpt lat="47.17876" lon="-1.60688">
        <ele>57</ele>
        <time>2022-03-14T13:23:20Z</time>
      </trkpt>
      <trkpt lat="47.17871" lon="-1.60706">
        <ele>56</ele>
        <time>2022-03-14T13:23:22Z</time>
      </trkpt>
      <trkpt lat="47.17867" lon="-1.60724">
        <ele>56</ele>
        <time>2022-03-14T13:23:24Z</time>
      </trkpt>
      <trkpt lat="47.17863" lon="-1.60743">
        <ele>55</ele>
        <time>2022-03-14T13:23:26Z</time>
      </trkpt>
      <trkpt lat="47.1786" lon="-1.60761">
        <ele>55</ele>
        <time>2022-03-14T13:23:28Z</time>
      </trkpt>
      <trkpt lat="47.17856" lon="-1.60778">
        <ele>55</ele>
        <time>2022-03-14T13:23:30Z</time>
      </trkpt>
      <trkpt lat="47.17853" lon="-1.60796">
        <ele>55</ele>
        <time>2022-03-14T13:23:32Z</time>
      </trkpt>
      <trkpt lat="47.17849" lon="-1.60812">
        <ele>55</ele>
        <time>2022-03-14T13:23:34Z</time>
      </trkpt>
      <trkpt lat="47.17844" lon="-1.60829">
        <ele>55</ele>
        <time>2022-03-14T13:23:36Z</time>
      </trkpt>
      <trkpt lat="47.17838" lon="-1.60845">
        <ele>54</ele>
        <time>2022-03-14T13:23:38Z</time>
      </trkpt>
      <trkpt lat="47.1783" lon="-1.60859">
        <ele>53</ele>
        <time>2022-03-14T13:23:40Z</time>
      </trkpt>
      <trkpt lat="47.17822" lon="-1.60872">
        <ele>53</ele>
        <time>2022-03-14T13:23:42Z</time>
      </trkpt>
      <trkpt lat="47.17813" lon="-1.60884">
        <ele>54</ele>
        <time>2022-03-14T13:23:44Z</time>
      </trkpt>
      <trkpt lat="47.17804" lon="-1.60894">
        <ele>55</ele>
        <time>2022-03-14T13:23:46Z</time>
      </trkpt>
      <trkpt lat="47.17794" lon="-1.60903">
        <ele>55</ele>
        <time>2022-03-14T13:23:48Z</time>
      </trkpt>
      <trkpt lat="47.17783" lon="-1.60911">
        <ele>55</ele>
        <time>2022-03-14T13:23:50Z</time>
      </trkpt>
      <trkpt lat="47.17772" lon="-1.60919">
        <ele>55</ele>
        <time>2022-03-14T13:23:52Z</time>
      </trkpt>
      <trkpt lat="47.17762" lon="-1.60927">
        <ele>55</ele>
        <time>2022-03-14T13:23:54Z</time>
      </trkpt>
      <trkpt lat="47.17753" lon="-1.60934">
        <ele>55</ele>
        <time>2022-03-14T13:23:56Z</time>
      </trkpt>
      <trkpt lat="47.17743" lon="-1.6094">
        <ele>55</ele>
        <time>2022-03-14T13:23:58Z</time>
      </trkpt>
      <trkpt lat="47.17732" lon="-1.60948">
        <ele>55</ele>
        <time>2022-03-14T13:24:00Z</time>
      </trkpt>
      <trkpt lat="47.17722" lon="-1.60956">
        <ele>54</ele>
        <time>2022-03-14T13:24:02Z</time>
      </trkpt>
      <trkpt lat="47.17711" lon="-1.60963">
        <ele>54</ele>
        <time>2022-03-14T13:24:04Z</time>
      </trkpt>
      <trkpt lat="47.177" lon="-1.60969">
        <ele>55</ele>
        <time>2022-03-14T13:24:06Z</time>
      </trkpt>
      <trkpt lat="47.17688" lon="-1.60972">
        <ele>55</ele>
        <time>2022-03-14T13:24:08Z</time>
      </trkpt>
      <trkpt lat="47.17677" lon="-1.60971">
        <ele>54</ele>
        <time>2022-03-14T13:24:10Z</time>
      </trkpt>
      <trkpt lat="47.17664" lon="-1.60971">
        <ele>55</ele>
        <time>2022-03-14T13:24:12Z</time>
      </trkpt>
      <trkpt lat="47.17652" lon="-1.60976">
        <ele>55</ele>
        <time>2022-03-14T13:24:14Z</time>
      </trkpt>
      <trkpt lat="47.17641" lon="-1.60985">
        <ele>55</ele>
        <time>2022-03-14T13:24:16Z</time>
      </trkpt>
      <trkpt lat="47.1763" lon="-1.60994">
        <ele>55</ele>
        <time>2022-03-14T13:24:18Z</time>
      </trkpt>
      <trkpt lat="47.17619" lon="-1.61004">
        <ele>55</ele>
        <time>2022-03-14T13:24:20Z</time>
      </trkpt>
      <trkpt lat="47.17607" lon="-1.61013">
        <ele>54</ele>
        <time>2022-03-14T13:24:22Z</time>
      </trkpt>
      <trkpt lat="47.17597" lon="-1.61022">
        <ele>54</ele>
        <time>2022-03-14T13:24:24Z</time>
      </trkpt>
      <trkpt lat="47.17586" lon="-1.61032">
        <ele>54</ele>
        <time>2022-03-14T13:24:26Z</time>
      </trkpt>
      <trkpt lat="47.17575" lon="-1.61041">
        <ele>54</ele>
        <time>2022-03-14T13:24:28Z</time>
      </trkpt>
      <trkpt lat="47.17565" lon="-1.61051">
        <ele>54</ele>
        <time>2022-03-14T13:24:30Z</time>
      </trkpt>
      <trkpt lat="47.17554" lon="-1.6106">
        <ele>55</ele>
        <time>2022-03-14T13:24:32Z</time>
      </trkpt>
      <trkpt lat="47.17543" lon="-1.61069">
        <ele>56</ele>
        <time>2022-03-14T13:24:34Z</time>
      </trkpt>
      <trkpt lat="47.17532" lon="-1.61078">
        <ele>55</ele>
        <time>2022-03-14T13:24:36Z</time>
      </trkpt>
      <trkpt lat="47.17522" lon="-1.61087">
        <ele>55</ele>
        <time>2022-03-14T13:24:38Z</time>
      </trkpt>
      <trkpt lat="47.17512" lon="-1.61096">
        <ele>55</ele>
        <time>2022-03-14T13:24:40Z</time>
      </trkpt>
      <trkpt lat="47.17501" lon="-1.61102">
        <ele>55</ele>
        <time>2022-03-14T13:24:42Z</time>
      </trkpt>
      <trkpt lat="47.1749" lon="-1.61104">
        <ele>54</ele>
        <time>2022-03-14T13:24:44Z</time>
      </trkpt>
      <trkpt lat="47.17479" lon="-1.61104">
        <ele>54</ele>
        <time>2022-03-14T13:24:46Z</time>
      </trkpt>
      <trkpt lat="47.17469" lon="-1.611">
        <ele>54</ele>
        <time>2022-03-14T13:24:48Z</time>
      </trkpt>
      <trkpt lat="47.17459" lon="-1.61091">
        <ele>55</ele>
        <time>2022-03-14T13:24:50Z</time>
      </trkpt>
      <trkpt lat="47.1745" lon="-1.61082">
        <ele>55</ele>
        <time>2022-03-14T13:24:52Z</time>
      </trkpt>
      <trkpt lat="47.17443" lon="-1.61072">
        <ele>56</ele>
        <time>2022-03-14T13:24:54Z</time>
      </trkpt>
      <trkpt lat="47.17437" lon="-1.61062">
        <ele>56</ele>
        <time>2022-03-14T13:24:56Z</time>
      </trkpt>
      <trkpt lat="47.17432" lon="-1.61051">
        <ele>57</ele>
        <time>2022-03-14T13:24:58Z</time>
      </trkpt>
      <trkpt lat="47.17427" lon="-1.61034">
        <ele>58</ele>
        <time>2022-03-14T13:25:01Z</time>
      </trkpt>
      <trkpt lat="47.1742" lon="-1.61024">
        <ele>59</ele>
        <time>2022-03-14T13:25:05Z</time>
      </trkpt>
      <trkpt lat="47.17419" lon="-1.61037">
        <ele>58</ele>
        <time>2022-03-14T13:25:08Z</time>
      </trkpt>
      <trkpt lat="47.17423" lon="-1.6105">
        <ele>59</ele>
        <time>2022-03-14T13:25:10Z</time>
      </trkpt>
      <trkpt lat="47.17428" lon="-1.61064">
        <ele>59</ele>
        <time>2022-03-14T13:25:12Z</time>
      </trkpt>
      <trkpt lat="47.17433" lon="-1.61076">
        <ele>60</ele>
        <time>2022-03-14T13:25:14Z</time>
      </trkpt>
      <trkpt lat="47.17439" lon="-1.61089">
        <ele>60</ele>
        <time>2022-03-14T13:25:16Z</time>
      </trkpt>
      <trkpt lat="47.17445" lon="-1.61102">
        <ele>60</ele>
        <time>2022-03-14T13:25:18Z</time>
      </trkpt>
      <trkpt lat="47.1745" lon="-1.61116">
        <ele>61</ele>
        <time>2022-03-14T13:25:20Z</time>
      </trkpt>
      <trkpt lat="47.17455" lon="-1.61129">
        <ele>61</ele>
        <time>2022-03-14T13:25:22Z</time>
      </trkpt>
      <trkpt lat="47.17461" lon="-1.61142">
        <ele>61</ele>
        <time>2022-03-14T13:25:24Z</time>
      </trkpt>
      <trkpt lat="47.17466" lon="-1.61155">
        <ele>61</ele>
        <time>2022-03-14T13:25:26Z</time>
      </trkpt>
      <trkpt lat="47.17472" lon="-1.6117">
        <ele>61</ele>
        <time>2022-03-14T13:25:28Z</time>
      </trkpt>
      <trkpt lat="47.17478" lon="-1.61183">
        <ele>61</ele>
        <time>2022-03-14T13:25:30Z</time>
      </trkpt>
      <trkpt lat="47.17483" lon="-1.61195">
        <ele>60</ele>
        <time>2022-03-14T13:25:32Z</time>
      </trkpt>
      <trkpt lat="47.17489" lon="-1.61209">
        <ele>60</ele>
        <time>2022-03-14T13:25:34Z</time>
      </trkpt>
      <trkpt lat="47.17494" lon="-1.61223">
        <ele>60</ele>
        <time>2022-03-14T13:25:36Z</time>
      </trkpt>
      <trkpt lat="47.17499" lon="-1.61236">
        <ele>60</ele>
        <time>2022-03-14T13:25:38Z</time>
      </trkpt>
      <trkpt lat="47.17506" lon="-1.61248">
        <ele>61</ele>
        <time>2022-03-14T13:25:40Z</time>
      </trkpt>
      <trkpt lat="47.17512" lon="-1.6126">
        <ele>62</ele>
        <time>2022-03-14T13:25:42Z</time>
      </trkpt>
      <trkpt lat="47.1752" lon="-1.61271">
        <ele>61</ele>
        <time>2022-03-14T13:25:44Z</time>
      </trkpt>
      <trkpt lat="47.17529" lon="-1.61281">
        <ele>61</ele>
        <time>2022-03-14T13:25:46Z</time>
      </trkpt>
      <trkpt lat="47.17538" lon="-1.61289">
        <ele>62</ele>
        <time>2022-03-14T13:25:48Z</time>
      </trkpt>
      <trkpt lat="47.17547" lon="-1.61296">
        <ele>63</ele>
        <time>2022-03-14T13:25:50Z</time>
      </trkpt>
      <trkpt lat="47.17556" lon="-1.61308">
        <ele>63</ele>
        <time>2022-03-14T13:25:52Z</time>
      </trkpt>
      <trkpt lat="47.17559" lon="-1.61327">
        <ele>62</ele>
        <time>2022-03-14T13:25:54Z</time>
      </trkpt>
      <trkpt lat="47.17555" lon="-1.61343">
        <ele>62</ele>
        <time>2022-03-14T13:25:56Z</time>
      </trkpt>
      <trkpt lat="47.17543" lon="-1.61355">
        <ele>62</ele>
        <time>2022-03-14T13:25:58Z</time>
      </trkpt>
      <trkpt lat="47.17533" lon="-1.61365">
        <ele>62</ele>
        <time>2022-03-14T13:26:00Z</time>
      </trkpt>
      <trkpt lat="47.17526" lon="-1.61381">
        <ele>62</ele>
        <time>2022-03-14T13:26:02Z</time>
      </trkpt>
      <trkpt lat="47.17519" lon="-1.61406">
        <ele>62</ele>
        <time>2022-03-14T13:26:05Z</time>
      </trkpt>
      <trkpt lat="47.17516" lon="-1.61423">
        <ele>63</ele>
        <time>2022-03-14T13:26:07Z</time>
      </trkpt>
      <trkpt lat="47.17513" lon="-1.6144">
        <ele>64</ele>
        <time>2022-03-14T13:26:09Z</time>
      </trkpt>
      <trkpt lat="47.17503" lon="-1.61459">
        <ele>64</ele>
        <time>2022-03-14T13:26:12Z</time>
      </trkpt>
      <trkpt lat="47.17492" lon="-1.61464">
        <ele>65</ele>
        <time>2022-03-14T13:26:14Z</time>
      </trkpt>
      <trkpt lat="47.17482" lon="-1.61468">
        <ele>65</ele>
        <time>2022-03-14T13:26:16Z</time>
      </trkpt>
      <trkpt lat="47.17472" lon="-1.61472">
        <ele>65</ele>
        <time>2022-03-14T13:26:18Z</time>
      </trkpt>
      <trkpt lat="47.17463" lon="-1.61476">
        <ele>65</ele>
        <time>2022-03-14T13:26:20Z</time>
      </trkpt>
      <trkpt lat="47.17452" lon="-1.6148">
        <ele>65</ele>
        <time>2022-03-14T13:26:22Z</time>
      </trkpt>
      <trkpt lat="47.17443" lon="-1.61485">
        <ele>66</ele>
        <time>2022-03-14T13:26:24Z</time>
      </trkpt>
      <trkpt lat="47.17434" lon="-1.6149">
        <ele>67</ele>
        <time>2022-03-14T13:26:26Z</time>
      </trkpt>
      <trkpt lat="47.17425" lon="-1.61496">
        <ele>67</ele>
        <time>2022-03-14T13:26:28Z</time>
      </trkpt>
      <trkpt lat="47.17416" lon="-1.61502">
        <ele>68</ele>
        <time>2022-03-14T13:26:30Z</time>
      </trkpt>
      <trkpt lat="47.17407" lon="-1.61509">
        <ele>68</ele>
        <time>2022-03-14T13:26:32Z</time>
      </trkpt>
      <trkpt lat="47.17398" lon="-1.61515">
        <ele>68</ele>
        <time>2022-03-14T13:26:34Z</time>
      </trkpt>
      <trkpt lat="47.1739" lon="-1.61523">
        <ele>69</ele>
        <time>2022-03-14T13:26:36Z</time>
      </trkpt>
      <trkpt lat="47.17381" lon="-1.6153">
        <ele>69</ele>
        <time>2022-03-14T13:26:38Z</time>
      </trkpt>
      <trkpt lat="47.17372" lon="-1.61539">
        <ele>70</ele>
        <time>2022-03-14T13:26:40Z</time>
      </trkpt>
      <trkpt lat="47.17364" lon="-1.61548">
        <ele>70</ele>
        <time>2022-03-14T13:26:42Z</time>
      </trkpt>
      <trkpt lat="47.17356" lon="-1.61557">
        <ele>70</ele>
        <time>2022-03-14T13:26:44Z</time>
      </trkpt>
      <trkpt lat="47.17348" lon="-1.61566">
        <ele>69</ele>
        <time>2022-03-14T13:26:46Z</time>
      </trkpt>
      <trkpt lat="47.17341" lon="-1.61575">
        <ele>70</ele>
        <time>2022-03-14T13:26:48Z</time>
      </trkpt>
      <trkpt lat="47.17333" lon="-1.61586">
        <ele>70</ele>
        <time>2022-03-14T13:26:50Z</time>
      </trkpt>
      <trkpt lat="47.17325" lon="-1.61596">
        <ele>70</ele>
        <time>2022-03-14T13:26:52Z</time>
      </trkpt>
      <trkpt lat="47.17317" lon="-1.61605">
        <ele>71</ele>
        <time>2022-03-14T13:26:54Z</time>
      </trkpt>
      <trkpt lat="47.17309" lon="-1.61614">
        <ele>72</ele>
        <time>2022-03-14T13:26:56Z</time>
      </trkpt>
      <trkpt lat="47.17301" lon="-1.61625">
        <ele>72</ele>
        <time>2022-03-14T13:26:58Z</time>
      </trkpt>
      <trkpt lat="47.17294" lon="-1.61637">
        <ele>71</ele>
        <time>2022-03-14T13:27:00Z</time>
      </trkpt>
      <trkpt lat="47.17287" lon="-1.61648">
        <ele>72</ele>
        <time>2022-03-14T13:27:02Z</time>
      </trkpt>
      <trkpt lat="47.17281" lon="-1.61661">
        <ele>72</ele>
        <time>2022-03-14T13:27:04Z</time>
      </trkpt>
      <trkpt lat="47.17275" lon="-1.61674">
        <ele>74</ele>
        <time>2022-03-14T13:27:06Z</time>
      </trkpt>
      <trkpt lat="47.17269" lon="-1.61688">
        <ele>74</ele>
        <time>2022-03-14T13:27:08Z</time>
      </trkpt>
      <trkpt lat="47.17261" lon="-1.61702">
        <ele>74</ele>
        <time>2022-03-14T13:27:10Z</time>
      </trkpt>
      <trkpt lat="47.17255" lon="-1.61716">
        <ele>73</ele>
        <time>2022-03-14T13:27:12Z</time>
      </trkpt>
      <trkpt lat="47.17248" lon="-1.61731">
        <ele>73</ele>
        <time>2022-03-14T13:27:14Z</time>
      </trkpt>
      <trkpt lat="47.17244" lon="-1.61747">
        <ele>72</ele>
        <time>2022-03-14T13:27:16Z</time>
      </trkpt>
      <trkpt lat="47.17243" lon="-1.61764">
        <ele>72</ele>
        <time>2022-03-14T13:27:18Z</time>
      </trkpt>
      <trkpt lat="47.17237" lon="-1.61778">
        <ele>72</ele>
        <time>2022-03-14T13:27:20Z</time>
      </trkpt>
      <trkpt lat="47.17227" lon="-1.61788">
        <ele>72</ele>
        <time>2022-03-14T13:27:22Z</time>
      </trkpt>
      <trkpt lat="47.17216" lon="-1.61797">
        <ele>72</ele>
        <time>2022-03-14T13:27:24Z</time>
      </trkpt>
      <trkpt lat="47.17205" lon="-1.61807">
        <ele>71</ele>
        <time>2022-03-14T13:27:26Z</time>
      </trkpt>
      <trkpt lat="47.17194" lon="-1.61816">
        <ele>70</ele>
        <time>2022-03-14T13:27:28Z</time>
      </trkpt>
      <trkpt lat="47.17184" lon="-1.61824">
        <ele>70</ele>
        <time>2022-03-14T13:27:30Z</time>
      </trkpt>
      <trkpt lat="47.17174" lon="-1.61834">
        <ele>70</ele>
        <time>2022-03-14T13:27:32Z</time>
      </trkpt>
      <trkpt lat="47.17164" lon="-1.61843">
        <ele>70</ele>
        <time>2022-03-14T13:27:34Z</time>
      </trkpt>
      <trkpt lat="47.17154" lon="-1.61852">
        <ele>70</ele>
        <time>2022-03-14T13:27:36Z</time>
      </trkpt>
      <trkpt lat="47.17144" lon="-1.61862">
        <ele>70</ele>
        <time>2022-03-14T13:27:38Z</time>
      </trkpt>
      <trkpt lat="47.17133" lon="-1.61871">
        <ele>70</ele>
        <time>2022-03-14T13:27:40Z</time>
      </trkpt>
      <trkpt lat="47.17124" lon="-1.6188">
        <ele>70</ele>
        <time>2022-03-14T13:27:42Z</time>
      </trkpt>
      <trkpt lat="47.17113" lon="-1.61891">
        <ele>70</ele>
        <time>2022-03-14T13:27:44Z</time>
      </trkpt>
      <trkpt lat="47.17103" lon="-1.61901">
        <ele>69</ele>
        <time>2022-03-14T13:27:46Z</time>
      </trkpt>
      <trkpt lat="47.17093" lon="-1.61911">
        <ele>69</ele>
        <time>2022-03-14T13:27:48Z</time>
      </trkpt>
      <trkpt lat="47.17083" lon="-1.61921">
        <ele>69</ele>
        <time>2022-03-14T13:27:50Z</time>
      </trkpt>
      <trkpt lat="47.17075" lon="-1.6193">
        <ele>69</ele>
        <time>2022-03-14T13:27:52Z</time>
      </trkpt>
      <trkpt lat="47.17066" lon="-1.61938">
        <ele>69</ele>
        <time>2022-03-14T13:27:54Z</time>
      </trkpt>
      <trkpt lat="47.17056" lon="-1.61949">
        <ele>69</ele>
        <time>2022-03-14T13:27:56Z</time>
      </trkpt>
      <trkpt lat="47.17048" lon="-1.6196">
        <ele>69</ele>
        <time>2022-03-14T13:27:58Z</time>
      </trkpt>
      <trkpt lat="47.17039" lon="-1.61972">
        <ele>69</ele>
        <time>2022-03-14T13:28:00Z</time>
      </trkpt>
      <trkpt lat="47.17031" lon="-1.61985">
        <ele>69</ele>
        <time>2022-03-14T13:28:02Z</time>
      </trkpt>
      <trkpt lat="47.17023" lon="-1.61997">
        <ele>69</ele>
        <time>2022-03-14T13:28:04Z</time>
      </trkpt>
      <trkpt lat="47.17015" lon="-1.6201">
        <ele>69</ele>
        <time>2022-03-14T13:28:06Z</time>
      </trkpt>
      <trkpt lat="47.17007" lon="-1.62023">
        <ele>69</ele>
        <time>2022-03-14T13:28:08Z</time>
      </trkpt>
      <trkpt lat="47.16998" lon="-1.62037">
        <ele>69</ele>
        <time>2022-03-14T13:28:10Z</time>
      </trkpt>
      <trkpt lat="47.1699" lon="-1.62051">
        <ele>68</ele>
        <time>2022-03-14T13:28:12Z</time>
      </trkpt>
      <trkpt lat="47.16982" lon="-1.62065">
        <ele>68</ele>
        <time>2022-03-14T13:28:14Z</time>
      </trkpt>
      <trkpt lat="47.16974" lon="-1.62079">
        <ele>68</ele>
        <time>2022-03-14T13:28:16Z</time>
      </trkpt>
      <trkpt lat="47.16967" lon="-1.62091">
        <ele>69</ele>
        <time>2022-03-14T13:28:18Z</time>
      </trkpt>
      <trkpt lat="47.16959" lon="-1.62106">
        <ele>69</ele>
        <time>2022-03-14T13:28:20Z</time>
      </trkpt>
      <trkpt lat="47.16951" lon="-1.6212">
        <ele>69</ele>
        <time>2022-03-14T13:28:22Z</time>
      </trkpt>
      <trkpt lat="47.16944" lon="-1.62135">
        <ele>69</ele>
        <time>2022-03-14T13:28:24Z</time>
      </trkpt>
      <trkpt lat="47.16936" lon="-1.6215">
        <ele>69</ele>
        <time>2022-03-14T13:28:26Z</time>
      </trkpt>
      <trkpt lat="47.1693" lon="-1.62164">
        <ele>69</ele>
        <time>2022-03-14T13:28:28Z</time>
      </trkpt>
      <trkpt lat="47.16923" lon="-1.62178">
        <ele>70</ele>
        <time>2022-03-14T13:28:30Z</time>
      </trkpt>
      <trkpt lat="47.16916" lon="-1.62193">
        <ele>70</ele>
        <time>2022-03-14T13:28:32Z</time>
      </trkpt>
      <trkpt lat="47.16907" lon="-1.62207">
        <ele>70</ele>
        <time>2022-03-14T13:28:34Z</time>
      </trkpt>
      <trkpt lat="47.16898" lon="-1.62219">
        <ele>71</ele>
        <time>2022-03-14T13:28:36Z</time>
      </trkpt>
      <trkpt lat="47.16889" lon="-1.62231">
        <ele>71</ele>
        <time>2022-03-14T13:28:38Z</time>
      </trkpt>
      <trkpt lat="47.16879" lon="-1.62243">
        <ele>71</ele>
        <time>2022-03-14T13:28:40Z</time>
      </trkpt>
      <trkpt lat="47.1687" lon="-1.62255">
        <ele>70</ele>
        <time>2022-03-14T13:28:42Z</time>
      </trkpt>
      <trkpt lat="47.16861" lon="-1.62266">
        <ele>70</ele>
        <time>2022-03-14T13:28:44Z</time>
      </trkpt>
      <trkpt lat="47.16851" lon="-1.62279">
        <ele>70</ele>
        <time>2022-03-14T13:28:46Z</time>
      </trkpt>
      <trkpt lat="47.16842" lon="-1.62291">
        <ele>70</ele>
        <time>2022-03-14T13:28:48Z</time>
      </trkpt>
      <trkpt lat="47.16832" lon="-1.62302">
        <ele>70</ele>
        <time>2022-03-14T13:28:50Z</time>
      </trkpt>
      <trkpt lat="47.16822" lon="-1.62312">
        <ele>70</ele>
        <time>2022-03-14T13:28:52Z</time>
      </trkpt>
      <trkpt lat="47.16811" lon="-1.62321">
        <ele>70</ele>
        <time>2022-03-14T13:28:54Z</time>
      </trkpt>
      <trkpt lat="47.168" lon="-1.62329">
        <ele>70</ele>
        <time>2022-03-14T13:28:56Z</time>
      </trkpt>
      <trkpt lat="47.16788" lon="-1.62335">
        <ele>69</ele>
        <time>2022-03-14T13:28:58Z</time>
      </trkpt>
      <trkpt lat="47.16776" lon="-1.6234">
        <ele>69</ele>
        <time>2022-03-14T13:29:00Z</time>
      </trkpt>
      <trkpt lat="47.16765" lon="-1.62348">
        <ele>69</ele>
        <time>2022-03-14T13:29:02Z</time>
      </trkpt>
      <trkpt lat="47.16753" lon="-1.62355">
        <ele>69</ele>
        <time>2022-03-14T13:29:04Z</time>
      </trkpt>
      <trkpt lat="47.16743" lon="-1.62364">
        <ele>70</ele>
        <time>2022-03-14T13:29:06Z</time>
      </trkpt>
      <trkpt lat="47.16735" lon="-1.6238">
        <ele>70</ele>
        <time>2022-03-14T13:29:08Z</time>
      </trkpt>
      <trkpt lat="47.16731" lon="-1.62397">
        <ele>70</ele>
        <time>2022-03-14T13:29:10Z</time>
      </trkpt>
      <trkpt lat="47.16728" lon="-1.62414">
        <ele>69</ele>
        <time>2022-03-14T13:29:12Z</time>
      </trkpt>
      <trkpt lat="47.16726" lon="-1.6243">
        <ele>69</ele>
        <time>2022-03-14T13:29:14Z</time>
      </trkpt>
      <trkpt lat="47.16722" lon="-1.62446">
        <ele>69</ele>
        <time>2022-03-14T13:29:16Z</time>
      </trkpt>
      <trkpt lat="47.16717" lon="-1.62463">
        <ele>68</ele>
        <time>2022-03-14T13:29:18Z</time>
      </trkpt>
      <trkpt lat="47.16713" lon="-1.62479">
        <ele>68</ele>
        <time>2022-03-14T13:29:20Z</time>
      </trkpt>
      <trkpt lat="47.16717" lon="-1.62493">
        <ele>68</ele>
        <time>2022-03-14T13:29:22Z</time>
      </trkpt>
      <trkpt lat="47.16727" lon="-1.62497">
        <ele>67</ele>
        <time>2022-03-14T13:29:24Z</time>
      </trkpt>
      <trkpt lat="47.16737" lon="-1.62501">
        <ele>68</ele>
        <time>2022-03-14T13:29:26Z</time>
      </trkpt>
      <trkpt lat="47.16747" lon="-1.62505">
        <ele>68</ele>
        <time>2022-03-14T13:29:28Z</time>
      </trkpt>
      <trkpt lat="47.16756" lon="-1.6251">
        <ele>68</ele>
        <time>2022-03-14T13:29:30Z</time>
      </trkpt>
      <trkpt lat="47.16765" lon="-1.62517">
        <ele>68</ele>
        <time>2022-03-14T13:29:32Z</time>
      </trkpt>
      <trkpt lat="47.16773" lon="-1.62525">
        <ele>68</ele>
        <time>2022-03-14T13:29:34Z</time>
      </trkpt>
      <trkpt lat="47.16782" lon="-1.62531">
        <ele>69</ele>
        <time>2022-03-14T13:29:36Z</time>
      </trkpt>
      <trkpt lat="47.16793" lon="-1.62537">
        <ele>70</ele>
        <time>2022-03-14T13:29:39Z</time>
      </trkpt>
      <trkpt lat="47.16792" lon="-1.62553">
        <ele>70</ele>
        <time>2022-03-14T13:29:42Z</time>
      </trkpt>
      <trkpt lat="47.16788" lon="-1.62569">
        <ele>70</ele>
        <time>2022-03-14T13:29:45Z</time>
      </trkpt>
      <trkpt lat="47.16784" lon="-1.62582">
        <ele>70</ele>
        <time>2022-03-14T13:29:48Z</time>
      </trkpt>
      <trkpt lat="47.16781" lon="-1.62594">
        <ele>71</ele>
        <time>2022-03-14T13:29:53Z</time>
      </trkpt>
      <trkpt lat="47.1679" lon="-1.62605">
        <ele>72</ele>
        <time>2022-03-14T13:29:57Z</time>
      </trkpt>
      <trkpt lat="47.16797" lon="-1.62614">
        <ele>72</ele>
        <time>2022-03-14T13:30:00Z</time>
      </trkpt>
      <trkpt lat="47.16802" lon="-1.62626">
        <ele>73</ele>
        <time>2022-03-14T13:30:03Z</time>
      </trkpt>
      <trkpt lat="47.16794" lon="-1.6264">
        <ele>72</ele>
        <time>2022-03-14T13:30:06Z</time>
      </trkpt>
      <trkpt lat="47.16786" lon="-1.62654">
        <ele>71</ele>
        <time>2022-03-14T13:30:09Z</time>
      </trkpt>
      <trkpt lat="47.16778" lon="-1.62659">
        <ele>72</ele>
        <time>2022-03-14T13:30:15Z</time>
      </trkpt>
      <trkpt lat="47.16776" lon="-1.62657">
        <ele>72</ele>
        <time>2022-03-14T13:32:16Z</time>
      </trkpt>
      <trkpt lat="47.16776" lon="-1.62646">
        <ele>68</ele>
        <time>2022-03-14T13:34:17Z</time>
      </trkpt>
    </trkseg>
  </trk>
</gpx>